<?xml version="1.0" encoding="UTF-8" standalone="no" ?>
<gpx xmlns="http://www.topografix.com/GPX/1/1" xmlns:xsi="http://www.w3.org/2001/XMLSchema-instance" xsi:schemaLocation="http://www.topografix.com/GPX/1/1 http://www.topografix.com/GPX/1/1/gpx.xsd" version="1.1" creator="VisuGPX - https://www.visugpx.com">
  <metadata>
    <name>randonnée du muguet Marsat 2011</name>
    <desc><![CDATA[Grand parcours
65KM
1150 de D ]]></desc>
  </metadata>
  <trk>
    <name><![CDATA[2011-05-01T06:32:25Z]]></name>
    <trkseg>
      <trkpt lat="45.87626" lon="3.08055">
        <ele>394.7585449</ele>
        <time>2011-05-01T06:32:26Z</time>
      </trkpt>
      <trkpt lat="45.87638" lon="3.08047">
        <ele>394.7585449</ele>
        <time>2011-05-01T06:32:32Z</time>
      </trkpt>
      <trkpt lat="45.87641" lon="3.08043">
        <ele>394.7585449</ele>
        <time>2011-05-01T06:32:34Z</time>
      </trkpt>
      <trkpt lat="45.87645" lon="3.08042">
        <ele>394.7585449</ele>
        <time>2011-05-01T06:32:36Z</time>
      </trkpt>
      <trkpt lat="45.87647" lon="3.08044">
        <ele>395.2391357</ele>
        <time>2011-05-01T06:32:37Z</time>
      </trkpt>
      <trkpt lat="45.87653" lon="3.08058">
        <ele>394.7585449</ele>
        <time>2011-05-01T06:32:40Z</time>
      </trkpt>
      <trkpt lat="45.87663" lon="3.08081">
        <ele>394.7585449</ele>
        <time>2011-05-01T06:32:44Z</time>
      </trkpt>
      <trkpt lat="45.87676" lon="3.08116">
        <ele>394.2779541</ele>
        <time>2011-05-01T06:32:49Z</time>
      </trkpt>
      <trkpt lat="45.87687" lon="3.08148">
        <ele>393.7972412</ele>
        <time>2011-05-01T06:32:53Z</time>
      </trkpt>
      <trkpt lat="45.87696" lon="3.0817">
        <ele>392.8359375</ele>
        <time>2011-05-01T06:32:56Z</time>
      </trkpt>
      <trkpt lat="45.87702" lon="3.08181">
        <ele>392.3553467</ele>
        <time>2011-05-01T06:32:58Z</time>
      </trkpt>
      <trkpt lat="45.87709" lon="3.08189">
        <ele>392.3553467</ele>
        <time>2011-05-01T06:33:00Z</time>
      </trkpt>
      <trkpt lat="45.87728" lon="3.08196">
        <ele>392.3553467</ele>
        <time>2011-05-01T06:33:05Z</time>
      </trkpt>
      <trkpt lat="45.87737" lon="3.08181">
        <ele>392.3553467</ele>
        <time>2011-05-01T06:33:09Z</time>
      </trkpt>
      <trkpt lat="45.87748" lon="3.08167">
        <ele>392.8359375</ele>
        <time>2011-05-01T06:33:12Z</time>
      </trkpt>
      <trkpt lat="45.8777" lon="3.08142">
        <ele>393.3165283</ele>
        <time>2011-05-01T06:33:17Z</time>
      </trkpt>
      <trkpt lat="45.87782" lon="3.08114">
        <ele>392.8359375</ele>
        <time>2011-05-01T06:33:21Z</time>
      </trkpt>
      <trkpt lat="45.87793" lon="3.08072">
        <ele>392.8359375</ele>
        <time>2011-05-01T06:33:26Z</time>
      </trkpt>
      <trkpt lat="45.87814" lon="3.08028">
        <ele>392.3553467</ele>
        <time>2011-05-01T06:33:32Z</time>
      </trkpt>
      <trkpt lat="45.87822" lon="3.08015">
        <ele>392.3553467</ele>
        <time>2011-05-01T06:33:34Z</time>
      </trkpt>
      <trkpt lat="45.87836" lon="3.07985">
        <ele>391.8745117</ele>
        <time>2011-05-01T06:33:38Z</time>
      </trkpt>
      <trkpt lat="45.87839" lon="3.07977">
        <ele>391.8745117</ele>
        <time>2011-05-01T06:33:39Z</time>
      </trkpt>
      <trkpt lat="45.87856" lon="3.0792">
        <ele>392.3553467</ele>
        <time>2011-05-01T06:33:46Z</time>
      </trkpt>
      <trkpt lat="45.87875" lon="3.07878">
        <ele>392.8359375</ele>
        <time>2011-05-01T06:33:52Z</time>
      </trkpt>
      <trkpt lat="45.87894" lon="3.07864">
        <ele>392.8359375</ele>
        <time>2011-05-01T06:33:56Z</time>
      </trkpt>
      <trkpt lat="45.87911" lon="3.07858">
        <ele>392.8359375</ele>
        <time>2011-05-01T06:33:59Z</time>
      </trkpt>
      <trkpt lat="45.87943" lon="3.07846">
        <ele>392.3553467</ele>
        <time>2011-05-01T06:34:05Z</time>
      </trkpt>
      <trkpt lat="45.87974" lon="3.07845">
        <ele>391.3937988</ele>
        <time>2011-05-01T06:34:10Z</time>
      </trkpt>
      <trkpt lat="45.8798" lon="3.07848">
        <ele>391.3937988</ele>
        <time>2011-05-01T06:34:11Z</time>
      </trkpt>
      <trkpt lat="45.87997" lon="3.07858">
        <ele>390.913208</ele>
        <time>2011-05-01T06:34:14Z</time>
      </trkpt>
      <trkpt lat="45.88021" lon="3.07861">
        <ele>390.913208</ele>
        <time>2011-05-01T06:34:18Z</time>
      </trkpt>
      <trkpt lat="45.88033" lon="3.07861">
        <ele>390.4326172</ele>
        <time>2011-05-01T06:34:20Z</time>
      </trkpt>
      <trkpt lat="45.88056" lon="3.07868">
        <ele>389.9519043</ele>
        <time>2011-05-01T06:34:24Z</time>
      </trkpt>
      <trkpt lat="45.88087" lon="3.07886">
        <ele>388.9906006</ele>
        <time>2011-05-01T06:34:30Z</time>
      </trkpt>
      <trkpt lat="45.88089" lon="3.07887">
        <ele>388.5100098</ele>
        <time>2011-05-01T06:34:31Z</time>
      </trkpt>
      <trkpt lat="45.88101" lon="3.0789">
        <ele>387.548584</ele>
        <time>2011-05-01T06:34:36Z</time>
      </trkpt>
      <trkpt lat="45.8811" lon="3.07891">
        <ele>387.0679932</ele>
        <time>2011-05-01T06:34:40Z</time>
      </trkpt>
      <trkpt lat="45.88107" lon="3.07883">
        <ele>387.548584</ele>
        <time>2011-05-01T06:34:43Z</time>
      </trkpt>
      <trkpt lat="45.88094" lon="3.07876">
        <ele>388.0292969</ele>
        <time>2011-05-01T06:34:47Z</time>
      </trkpt>
      <trkpt lat="45.88071" lon="3.07855">
        <ele>388.9906006</ele>
        <time>2011-05-01T06:34:53Z</time>
      </trkpt>
      <trkpt lat="45.88038" lon="3.07831">
        <ele>390.4326172</ele>
        <time>2011-05-01T06:35:00Z</time>
      </trkpt>
      <trkpt lat="45.88005" lon="3.07806">
        <ele>390.913208</ele>
        <time>2011-05-01T06:35:07Z</time>
      </trkpt>
      <trkpt lat="45.87972" lon="3.07783">
        <ele>391.3937988</ele>
        <time>2011-05-01T06:35:14Z</time>
      </trkpt>
      <trkpt lat="45.87962" lon="3.07778">
        <ele>392.3553467</ele>
        <time>2011-05-01T06:35:16Z</time>
      </trkpt>
      <trkpt lat="45.87921" lon="3.07747">
        <ele>392.3553467</ele>
        <time>2011-05-01T06:35:24Z</time>
      </trkpt>
      <trkpt lat="45.87904" lon="3.07735">
        <ele>391.3937988</ele>
        <time>2011-05-01T06:35:29Z</time>
      </trkpt>
      <trkpt lat="45.879" lon="3.07731">
        <ele>391.3937988</ele>
        <time>2011-05-01T06:35:31Z</time>
      </trkpt>
      <trkpt lat="45.87899" lon="3.07726">
        <ele>391.3937988</ele>
        <time>2011-05-01T06:35:32Z</time>
      </trkpt>
      <trkpt lat="45.87902" lon="3.07701">
        <ele>391.8745117</ele>
        <time>2011-05-01T06:35:36Z</time>
      </trkpt>
      <trkpt lat="45.87911" lon="3.07638">
        <ele>393.7972412</ele>
        <time>2011-05-01T06:35:45Z</time>
      </trkpt>
      <trkpt lat="45.87912" lon="3.0759">
        <ele>394.7585449</ele>
        <time>2011-05-01T06:35:52Z</time>
      </trkpt>
      <trkpt lat="45.87911" lon="3.07563">
        <ele>395.2391357</ele>
        <time>2011-05-01T06:35:56Z</time>
      </trkpt>
      <trkpt lat="45.87913" lon="3.07517">
        <ele>396.2005615</ele>
        <time>2011-05-01T06:36:03Z</time>
      </trkpt>
      <trkpt lat="45.87914" lon="3.07463">
        <ele>396.2005615</ele>
        <time>2011-05-01T06:36:11Z</time>
      </trkpt>
      <trkpt lat="45.87911" lon="3.07409">
        <ele>396.6811523</ele>
        <time>2011-05-01T06:36:19Z</time>
      </trkpt>
      <trkpt lat="45.87902" lon="3.07315">
        <ele>397.6424561</ele>
        <time>2011-05-01T06:36:32Z</time>
      </trkpt>
      <trkpt lat="45.87902" lon="3.073">
        <ele>398.1231689</ele>
        <time>2011-05-01T06:36:34Z</time>
      </trkpt>
      <trkpt lat="45.8791" lon="3.07257">
        <ele>399.0843506</ele>
        <time>2011-05-01T06:36:40Z</time>
      </trkpt>
      <trkpt lat="45.87919" lon="3.07224">
        <ele>399.5650635</ele>
        <time>2011-05-01T06:36:45Z</time>
      </trkpt>
      <trkpt lat="45.87923" lon="3.07157">
        <ele>400.0458984</ele>
        <time>2011-05-01T06:36:55Z</time>
      </trkpt>
      <trkpt lat="45.87924" lon="3.07131">
        <ele>400.0458984</ele>
        <time>2011-05-01T06:37:00Z</time>
      </trkpt>
      <trkpt lat="45.87926" lon="3.071">
        <ele>400.0458984</ele>
        <time>2011-05-01T06:37:06Z</time>
      </trkpt>
      <trkpt lat="45.87927" lon="3.07075">
        <ele>400.0458984</ele>
        <time>2011-05-01T06:37:11Z</time>
      </trkpt>
      <trkpt lat="45.87924" lon="3.07055">
        <ele>400.0458984</ele>
        <time>2011-05-01T06:37:16Z</time>
      </trkpt>
      <trkpt lat="45.87922" lon="3.07042">
        <ele>400.0458984</ele>
        <time>2011-05-01T06:37:21Z</time>
      </trkpt>
      <trkpt lat="45.87918" lon="3.07046">
        <ele>400.0458984</ele>
        <time>2011-05-01T06:37:25Z</time>
      </trkpt>
      <trkpt lat="45.87923" lon="3.07082">
        <ele>400.5264893</ele>
        <time>2011-05-01T06:37:32Z</time>
      </trkpt>
      <trkpt lat="45.87922" lon="3.0713">
        <ele>401.0070801</ele>
        <time>2011-05-01T06:37:39Z</time>
      </trkpt>
      <trkpt lat="45.87918" lon="3.07216">
        <ele>399.5650635</ele>
        <time>2011-05-01T06:37:50Z</time>
      </trkpt>
      <trkpt lat="45.87907" lon="3.07265">
        <ele>398.6037598</ele>
        <time>2011-05-01T06:37:56Z</time>
      </trkpt>
      <trkpt lat="45.87901" lon="3.07291">
        <ele>398.1231689</ele>
        <time>2011-05-01T06:37:59Z</time>
      </trkpt>
      <trkpt lat="45.87904" lon="3.07361">
        <ele>397.1617432</ele>
        <time>2011-05-01T06:38:07Z</time>
      </trkpt>
      <trkpt lat="45.87915" lon="3.07453">
        <ele>396.2005615</ele>
        <time>2011-05-01T06:38:18Z</time>
      </trkpt>
      <trkpt lat="45.87916" lon="3.07461">
        <ele>396.6811523</ele>
        <time>2011-05-01T06:38:19Z</time>
      </trkpt>
      <trkpt lat="45.87912" lon="3.07549">
        <ele>394.7585449</ele>
        <time>2011-05-01T06:38:29Z</time>
      </trkpt>
      <trkpt lat="45.87913" lon="3.0759">
        <ele>393.7972412</ele>
        <time>2011-05-01T06:38:34Z</time>
      </trkpt>
      <trkpt lat="45.87912" lon="3.07644">
        <ele>392.8359375</ele>
        <time>2011-05-01T06:38:41Z</time>
      </trkpt>
      <trkpt lat="45.87907" lon="3.07668">
        <ele>391.3937988</ele>
        <time>2011-05-01T06:38:44Z</time>
      </trkpt>
      <trkpt lat="45.87902" lon="3.07719">
        <ele>389.9519043</ele>
        <time>2011-05-01T06:38:51Z</time>
      </trkpt>
      <trkpt lat="45.87901" lon="3.07732">
        <ele>388.9906006</ele>
        <time>2011-05-01T06:38:55Z</time>
      </trkpt>
      <trkpt lat="45.87901" lon="3.07734">
        <ele>388.9906006</ele>
        <time>2011-05-01T06:38:56Z</time>
      </trkpt>
      <trkpt lat="45.87912" lon="3.07743">
        <ele>389.4711914</ele>
        <time>2011-05-01T06:39:00Z</time>
      </trkpt>
      <trkpt lat="45.8794" lon="3.0776">
        <ele>389.9519043</ele>
        <time>2011-05-01T06:39:05Z</time>
      </trkpt>
      <trkpt lat="45.87984" lon="3.07792">
        <ele>389.9519043</ele>
        <time>2011-05-01T06:39:13Z</time>
      </trkpt>
      <trkpt lat="45.88012" lon="3.07812">
        <ele>389.4711914</ele>
        <time>2011-05-01T06:39:18Z</time>
      </trkpt>
      <trkpt lat="45.88044" lon="3.07837">
        <ele>388.0292969</ele>
        <time>2011-05-01T06:39:24Z</time>
      </trkpt>
      <trkpt lat="45.88054" lon="3.07844">
        <ele>387.548584</ele>
        <time>2011-05-01T06:39:26Z</time>
      </trkpt>
      <trkpt lat="45.88074" lon="3.07841">
        <ele>387.0679932</ele>
        <time>2011-05-01T06:39:30Z</time>
      </trkpt>
      <trkpt lat="45.8808" lon="3.07837">
        <ele>387.0679932</ele>
        <time>2011-05-01T06:39:31Z</time>
      </trkpt>
      <trkpt lat="45.88097" lon="3.07824">
        <ele>386.5874023</ele>
        <time>2011-05-01T06:39:34Z</time>
      </trkpt>
      <trkpt lat="45.88118" lon="3.07804">
        <ele>385.6259766</ele>
        <time>2011-05-01T06:39:39Z</time>
      </trkpt>
      <trkpt lat="45.88126" lon="3.07796">
        <ele>384.6647949</ele>
        <time>2011-05-01T06:39:41Z</time>
      </trkpt>
      <trkpt lat="45.88141" lon="3.07785">
        <ele>383.7032471</ele>
        <time>2011-05-01T06:39:46Z</time>
      </trkpt>
      <trkpt lat="45.88153" lon="3.07772">
        <ele>384.184082</ele>
        <time>2011-05-01T06:39:51Z</time>
      </trkpt>
      <trkpt lat="45.88184" lon="3.0775">
        <ele>386.5874023</ele>
        <time>2011-05-01T06:39:58Z</time>
      </trkpt>
      <trkpt lat="45.88213" lon="3.07726">
        <ele>387.548584</ele>
        <time>2011-05-01T06:40:05Z</time>
      </trkpt>
      <trkpt lat="45.88233" lon="3.077">
        <ele>388.9906006</ele>
        <time>2011-05-01T06:40:11Z</time>
      </trkpt>
      <trkpt lat="45.88242" lon="3.07665">
        <ele>389.4711914</ele>
        <time>2011-05-01T06:40:17Z</time>
      </trkpt>
      <trkpt lat="45.88235" lon="3.07635">
        <ele>392.3553467</ele>
        <time>2011-05-01T06:40:23Z</time>
      </trkpt>
      <trkpt lat="45.88226" lon="3.07602">
        <ele>392.8359375</ele>
        <time>2011-05-01T06:40:30Z</time>
      </trkpt>
      <trkpt lat="45.88219" lon="3.07568">
        <ele>394.2779541</ele>
        <time>2011-05-01T06:40:37Z</time>
      </trkpt>
      <trkpt lat="45.88211" lon="3.07534">
        <ele>395.2391357</ele>
        <time>2011-05-01T06:40:44Z</time>
      </trkpt>
      <trkpt lat="45.88195" lon="3.07501">
        <ele>396.2005615</ele>
        <time>2011-05-01T06:40:51Z</time>
      </trkpt>
      <trkpt lat="45.88176" lon="3.07463">
        <ele>395.7198486</ele>
        <time>2011-05-01T06:40:59Z</time>
      </trkpt>
      <trkpt lat="45.88167" lon="3.07445">
        <ele>395.7198486</ele>
        <time>2011-05-01T06:41:03Z</time>
      </trkpt>
      <trkpt lat="45.88161" lon="3.07436">
        <ele>396.2005615</ele>
        <time>2011-05-01T06:41:05Z</time>
      </trkpt>
      <trkpt lat="45.88153" lon="3.07422">
        <ele>395.7198486</ele>
        <time>2011-05-01T06:41:08Z</time>
      </trkpt>
      <trkpt lat="45.8815" lon="3.07418">
        <ele>396.2005615</ele>
        <time>2011-05-01T06:41:09Z</time>
      </trkpt>
      <trkpt lat="45.88129" lon="3.07384">
        <ele>396.2005615</ele>
        <time>2011-05-01T06:41:16Z</time>
      </trkpt>
      <trkpt lat="45.88114" lon="3.07359">
        <ele>395.7198486</ele>
        <time>2011-05-01T06:41:21Z</time>
      </trkpt>
      <trkpt lat="45.88113" lon="3.07341">
        <ele>396.2005615</ele>
        <time>2011-05-01T06:41:25Z</time>
      </trkpt>
      <trkpt lat="45.88117" lon="3.0734">
        <ele>396.2005615</ele>
        <time>2011-05-01T06:41:26Z</time>
      </trkpt>
      <trkpt lat="45.88156" lon="3.07337">
        <ele>396.6811523</ele>
        <time>2011-05-01T06:41:34Z</time>
      </trkpt>
      <trkpt lat="45.88197" lon="3.07325">
        <ele>396.2005615</ele>
        <time>2011-05-01T06:41:42Z</time>
      </trkpt>
      <trkpt lat="45.88239" lon="3.0731">
        <ele>395.7198486</ele>
        <time>2011-05-01T06:41:50Z</time>
      </trkpt>
      <trkpt lat="45.88274" lon="3.07302">
        <ele>395.2391357</ele>
        <time>2011-05-01T06:41:56Z</time>
      </trkpt>
      <trkpt lat="45.88288" lon="3.073">
        <ele>394.2779541</ele>
        <time>2011-05-01T06:41:58Z</time>
      </trkpt>
      <trkpt lat="45.88314" lon="3.07304">
        <ele>392.3553467</ele>
        <time>2011-05-01T06:42:02Z</time>
      </trkpt>
      <trkpt lat="45.88344" lon="3.07296">
        <ele>389.9519043</ele>
        <time>2011-05-01T06:42:06Z</time>
      </trkpt>
      <trkpt lat="45.88352" lon="3.0729">
        <ele>388.9906006</ele>
        <time>2011-05-01T06:42:07Z</time>
      </trkpt>
      <trkpt lat="45.88369" lon="3.07276">
        <ele>386.5874023</ele>
        <time>2011-05-01T06:42:10Z</time>
      </trkpt>
      <trkpt lat="45.88381" lon="3.07255">
        <ele>386.5874023</ele>
        <time>2011-05-01T06:42:15Z</time>
      </trkpt>
      <trkpt lat="45.8838" lon="3.07237">
        <ele>387.0679932</ele>
        <time>2011-05-01T06:42:18Z</time>
      </trkpt>
      <trkpt lat="45.88379" lon="3.07213">
        <ele>389.4711914</ele>
        <time>2011-05-01T06:42:21Z</time>
      </trkpt>
      <trkpt lat="45.88377" lon="3.07198">
        <ele>390.4326172</ele>
        <time>2011-05-01T06:42:23Z</time>
      </trkpt>
      <trkpt lat="45.88373" lon="3.07183">
        <ele>390.4326172</ele>
        <time>2011-05-01T06:42:25Z</time>
      </trkpt>
      <trkpt lat="45.88366" lon="3.07147">
        <ele>390.913208</ele>
        <time>2011-05-01T06:42:30Z</time>
      </trkpt>
      <trkpt lat="45.88364" lon="3.0714">
        <ele>390.913208</ele>
        <time>2011-05-01T06:42:31Z</time>
      </trkpt>
      <trkpt lat="45.88357" lon="3.07103">
        <ele>391.8745117</ele>
        <time>2011-05-01T06:42:36Z</time>
      </trkpt>
      <trkpt lat="45.88355" lon="3.07096">
        <ele>391.3937988</ele>
        <time>2011-05-01T06:42:37Z</time>
      </trkpt>
      <trkpt lat="45.88345" lon="3.07036">
        <ele>392.3553467</ele>
        <time>2011-05-01T06:42:45Z</time>
      </trkpt>
      <trkpt lat="45.88344" lon="3.07028">
        <ele>392.3553467</ele>
        <time>2011-05-01T06:42:46Z</time>
      </trkpt>
      <trkpt lat="45.88343" lon="3.07013">
        <ele>392.3553467</ele>
        <time>2011-05-01T06:42:48Z</time>
      </trkpt>
      <trkpt lat="45.88342" lon="3.07005">
        <ele>392.8359375</ele>
        <time>2011-05-01T06:42:49Z</time>
      </trkpt>
      <trkpt lat="45.88342" lon="3.06997">
        <ele>392.8359375</ele>
        <time>2011-05-01T06:42:50Z</time>
      </trkpt>
      <trkpt lat="45.88337" lon="3.06949">
        <ele>392.8359375</ele>
        <time>2011-05-01T06:42:56Z</time>
      </trkpt>
      <trkpt lat="45.88322" lon="3.06864">
        <ele>394.2779541</ele>
        <time>2011-05-01T06:43:07Z</time>
      </trkpt>
      <trkpt lat="45.88301" lon="3.06806">
        <ele>394.7585449</ele>
        <time>2011-05-01T06:43:15Z</time>
      </trkpt>
      <trkpt lat="45.88271" lon="3.06757">
        <ele>395.2391357</ele>
        <time>2011-05-01T06:43:23Z</time>
      </trkpt>
      <trkpt lat="45.88238" lon="3.06714">
        <ele>395.7198486</ele>
        <time>2011-05-01T06:43:31Z</time>
      </trkpt>
      <trkpt lat="45.88219" lon="3.06676">
        <ele>396.2005615</ele>
        <time>2011-05-01T06:43:37Z</time>
      </trkpt>
      <trkpt lat="45.88213" lon="3.06656">
        <ele>396.2005615</ele>
        <time>2011-05-01T06:43:40Z</time>
      </trkpt>
      <trkpt lat="45.88216" lon="3.06632">
        <ele>397.1617432</ele>
        <time>2011-05-01T06:43:44Z</time>
      </trkpt>
      <trkpt lat="45.8822" lon="3.06628">
        <ele>397.1617432</ele>
        <time>2011-05-01T06:43:45Z</time>
      </trkpt>
      <trkpt lat="45.88238" lon="3.06611">
        <ele>396.6811523</ele>
        <time>2011-05-01T06:43:50Z</time>
      </trkpt>
      <trkpt lat="45.88233" lon="3.06611">
        <ele>396.6811523</ele>
        <time>2011-05-01T06:43:54Z</time>
      </trkpt>
      <trkpt lat="45.88218" lon="3.06625">
        <ele>396.6811523</ele>
        <time>2011-05-01T06:44:01Z</time>
      </trkpt>
      <trkpt lat="45.88217" lon="3.06626">
        <ele>396.2005615</ele>
        <time>2011-05-01T06:44:02Z</time>
      </trkpt>
      <trkpt lat="45.88214" lon="3.06632">
        <ele>397.1617432</ele>
        <time>2011-05-01T06:44:06Z</time>
      </trkpt>
      <trkpt lat="45.88223" lon="3.06627">
        <ele>397.1617432</ele>
        <time>2011-05-01T06:44:09Z</time>
      </trkpt>
      <trkpt lat="45.88227" lon="3.06623">
        <ele>397.1617432</ele>
        <time>2011-05-01T06:44:10Z</time>
      </trkpt>
      <trkpt lat="45.8826" lon="3.06595">
        <ele>397.6424561</ele>
        <time>2011-05-01T06:44:17Z</time>
      </trkpt>
      <trkpt lat="45.88291" lon="3.06565">
        <ele>396.6811523</ele>
        <time>2011-05-01T06:44:23Z</time>
      </trkpt>
      <trkpt lat="45.88296" lon="3.06559">
        <ele>396.2005615</ele>
        <time>2011-05-01T06:44:24Z</time>
      </trkpt>
      <trkpt lat="45.88337" lon="3.06532">
        <ele>393.3165283</ele>
        <time>2011-05-01T06:44:30Z</time>
      </trkpt>
      <trkpt lat="45.88345" lon="3.06527">
        <ele>393.3165283</ele>
        <time>2011-05-01T06:44:31Z</time>
      </trkpt>
      <trkpt lat="45.88377" lon="3.06514">
        <ele>392.8359375</ele>
        <time>2011-05-01T06:44:35Z</time>
      </trkpt>
      <trkpt lat="45.884" lon="3.06508">
        <ele>392.3553467</ele>
        <time>2011-05-01T06:44:38Z</time>
      </trkpt>
      <trkpt lat="45.88407" lon="3.06507">
        <ele>392.3553467</ele>
        <time>2011-05-01T06:44:39Z</time>
      </trkpt>
      <trkpt lat="45.88414" lon="3.06505">
        <ele>392.3553467</ele>
        <time>2011-05-01T06:44:40Z</time>
      </trkpt>
      <trkpt lat="45.88468" lon="3.06488">
        <ele>392.3553467</ele>
        <time>2011-05-01T06:44:48Z</time>
      </trkpt>
      <trkpt lat="45.88516" lon="3.06465">
        <ele>392.3553467</ele>
        <time>2011-05-01T06:44:56Z</time>
      </trkpt>
      <trkpt lat="45.8856" lon="3.06437">
        <ele>392.8359375</ele>
        <time>2011-05-01T06:45:04Z</time>
      </trkpt>
      <trkpt lat="45.88588" lon="3.06422">
        <ele>392.8359375</ele>
        <time>2011-05-01T06:45:09Z</time>
      </trkpt>
      <trkpt lat="45.88599" lon="3.06417">
        <ele>393.7972412</ele>
        <time>2011-05-01T06:45:11Z</time>
      </trkpt>
      <trkpt lat="45.88619" lon="3.06409">
        <ele>393.3165283</ele>
        <time>2011-05-01T06:45:15Z</time>
      </trkpt>
      <trkpt lat="45.88638" lon="3.06415">
        <ele>393.7972412</ele>
        <time>2011-05-01T06:45:19Z</time>
      </trkpt>
      <trkpt lat="45.88663" lon="3.06418">
        <ele>394.7585449</ele>
        <time>2011-05-01T06:45:24Z</time>
      </trkpt>
      <trkpt lat="45.88671" lon="3.06408">
        <ele>394.7585449</ele>
        <time>2011-05-01T06:45:26Z</time>
      </trkpt>
      <trkpt lat="45.88679" lon="3.06397">
        <ele>394.7585449</ele>
        <time>2011-05-01T06:45:28Z</time>
      </trkpt>
      <trkpt lat="45.88697" lon="3.06379">
        <ele>394.7585449</ele>
        <time>2011-05-01T06:45:32Z</time>
      </trkpt>
      <trkpt lat="45.88748" lon="3.06355">
        <ele>396.6811523</ele>
        <time>2011-05-01T06:45:42Z</time>
      </trkpt>
      <trkpt lat="45.88768" lon="3.06342">
        <ele>396.2005615</ele>
        <time>2011-05-01T06:45:46Z</time>
      </trkpt>
      <trkpt lat="45.88776" lon="3.06334">
        <ele>396.2005615</ele>
        <time>2011-05-01T06:45:48Z</time>
      </trkpt>
      <trkpt lat="45.88795" lon="3.06331">
        <ele>396.6811523</ele>
        <time>2011-05-01T06:45:52Z</time>
      </trkpt>
      <trkpt lat="45.88799" lon="3.06336">
        <ele>397.1617432</ele>
        <time>2011-05-01T06:45:53Z</time>
      </trkpt>
      <trkpt lat="45.88825" lon="3.06384">
        <ele>397.1617432</ele>
        <time>2011-05-01T06:46:01Z</time>
      </trkpt>
      <trkpt lat="45.8884" lon="3.06429">
        <ele>397.1617432</ele>
        <time>2011-05-01T06:46:07Z</time>
      </trkpt>
      <trkpt lat="45.88856" lon="3.06453">
        <ele>397.1617432</ele>
        <time>2011-05-01T06:46:11Z</time>
      </trkpt>
      <trkpt lat="45.88868" lon="3.06456">
        <ele>397.1617432</ele>
        <time>2011-05-01T06:46:13Z</time>
      </trkpt>
      <trkpt lat="45.88924" lon="3.06458">
        <ele>397.6424561</ele>
        <time>2011-05-01T06:46:23Z</time>
      </trkpt>
      <trkpt lat="45.88985" lon="3.06456">
        <ele>398.6037598</ele>
        <time>2011-05-01T06:46:34Z</time>
      </trkpt>
      <trkpt lat="45.89018" lon="3.06455">
        <ele>399.5650635</ele>
        <time>2011-05-01T06:46:40Z</time>
      </trkpt>
      <trkpt lat="45.89047" lon="3.06442">
        <ele>399.5650635</ele>
        <time>2011-05-01T06:46:46Z</time>
      </trkpt>
      <trkpt lat="45.89057" lon="3.06436">
        <ele>399.5650635</ele>
        <time>2011-05-01T06:46:48Z</time>
      </trkpt>
      <trkpt lat="45.89066" lon="3.06428">
        <ele>400.0458984</ele>
        <time>2011-05-01T06:46:50Z</time>
      </trkpt>
      <trkpt lat="45.89107" lon="3.06403">
        <ele>401.487793</ele>
        <time>2011-05-01T06:46:58Z</time>
      </trkpt>
      <trkpt lat="45.89157" lon="3.0637">
        <ele>401.9685059</ele>
        <time>2011-05-01T06:47:08Z</time>
      </trkpt>
      <trkpt lat="45.89172" lon="3.06359">
        <ele>402.4490967</ele>
        <time>2011-05-01T06:47:11Z</time>
      </trkpt>
      <trkpt lat="45.892" lon="3.06339">
        <ele>402.4490967</ele>
        <time>2011-05-01T06:47:17Z</time>
      </trkpt>
      <trkpt lat="45.89224" lon="3.06323">
        <ele>402.9296875</ele>
        <time>2011-05-01T06:47:22Z</time>
      </trkpt>
      <trkpt lat="45.89255" lon="3.06303">
        <ele>402.4490967</ele>
        <time>2011-05-01T06:47:28Z</time>
      </trkpt>
      <trkpt lat="45.89298" lon="3.06275">
        <ele>402.4490967</ele>
        <time>2011-05-01T06:47:36Z</time>
      </trkpt>
      <trkpt lat="45.89339" lon="3.06253">
        <ele>401.487793</ele>
        <time>2011-05-01T06:47:43Z</time>
      </trkpt>
      <trkpt lat="45.89385" lon="3.06225">
        <ele>400.0458984</ele>
        <time>2011-05-01T06:47:51Z</time>
      </trkpt>
      <trkpt lat="45.8942" lon="3.06204">
        <ele>399.0843506</ele>
        <time>2011-05-01T06:47:57Z</time>
      </trkpt>
      <trkpt lat="45.89439" lon="3.06197">
        <ele>398.6037598</ele>
        <time>2011-05-01T06:48:00Z</time>
      </trkpt>
      <trkpt lat="45.89469" lon="3.06195">
        <ele>399.0843506</ele>
        <time>2011-05-01T06:48:05Z</time>
      </trkpt>
      <trkpt lat="45.89515" lon="3.06189">
        <ele>400.5264893</ele>
        <time>2011-05-01T06:48:13Z</time>
      </trkpt>
      <trkpt lat="45.89562" lon="3.06188">
        <ele>402.9296875</ele>
        <time>2011-05-01T06:48:22Z</time>
      </trkpt>
      <trkpt lat="45.89603" lon="3.06186">
        <ele>403.4104004</ele>
        <time>2011-05-01T06:48:31Z</time>
      </trkpt>
      <trkpt lat="45.89636" lon="3.06182">
        <ele>404.8522949</ele>
        <time>2011-05-01T06:48:39Z</time>
      </trkpt>
      <trkpt lat="45.89644" lon="3.06176">
        <ele>405.3330078</ele>
        <time>2011-05-01T06:48:42Z</time>
      </trkpt>
      <trkpt lat="45.89646" lon="3.0616">
        <ele>405.3330078</ele>
        <time>2011-05-01T06:48:46Z</time>
      </trkpt>
      <trkpt lat="45.89639" lon="3.06119">
        <ele>407.7363281</ele>
        <time>2011-05-01T06:48:53Z</time>
      </trkpt>
      <trkpt lat="45.89633" lon="3.06058">
        <ele>409.6590576</ele>
        <time>2011-05-01T06:49:03Z</time>
      </trkpt>
      <trkpt lat="45.89631" lon="3.06028">
        <ele>410.1396484</ele>
        <time>2011-05-01T06:49:08Z</time>
      </trkpt>
      <trkpt lat="45.8963" lon="3.05966">
        <ele>411.1009521</ele>
        <time>2011-05-01T06:49:18Z</time>
      </trkpt>
      <trkpt lat="45.89637" lon="3.05905">
        <ele>413.0235596</ele>
        <time>2011-05-01T06:49:28Z</time>
      </trkpt>
      <trkpt lat="45.89648" lon="3.0584">
        <ele>413.9848633</ele>
        <time>2011-05-01T06:49:39Z</time>
      </trkpt>
      <trkpt lat="45.89663" lon="3.05786">
        <ele>414.4654541</ele>
        <time>2011-05-01T06:49:48Z</time>
      </trkpt>
      <trkpt lat="45.89678" lon="3.0574">
        <ele>416.3881836</ele>
        <time>2011-05-01T06:49:56Z</time>
      </trkpt>
      <trkpt lat="45.89684" lon="3.05695">
        <ele>418.310791</ele>
        <time>2011-05-01T06:50:04Z</time>
      </trkpt>
      <trkpt lat="45.89687" lon="3.0566">
        <ele>420.7141113</ele>
        <time>2011-05-01T06:50:11Z</time>
      </trkpt>
      <trkpt lat="45.89696" lon="3.05627">
        <ele>422.1560059</ele>
        <time>2011-05-01T06:50:18Z</time>
      </trkpt>
      <trkpt lat="45.89698" lon="3.05623">
        <ele>422.6367188</ele>
        <time>2011-05-01T06:50:19Z</time>
      </trkpt>
      <trkpt lat="45.89709" lon="3.05625">
        <ele>423.1174316</ele>
        <time>2011-05-01T06:50:23Z</time>
      </trkpt>
      <trkpt lat="45.89711" lon="3.05634">
        <ele>423.5980225</ele>
        <time>2011-05-01T06:50:25Z</time>
      </trkpt>
      <trkpt lat="45.89722" lon="3.05672">
        <ele>424.5594482</ele>
        <time>2011-05-01T06:50:33Z</time>
      </trkpt>
      <trkpt lat="45.89731" lon="3.05695">
        <ele>425.520752</ele>
        <time>2011-05-01T06:50:39Z</time>
      </trkpt>
      <trkpt lat="45.89731" lon="3.05703">
        <ele>425.520752</ele>
        <time>2011-05-01T06:50:44Z</time>
      </trkpt>
      <trkpt lat="45.89728" lon="3.05701">
        <ele>425.520752</ele>
        <time>2011-05-01T06:50:48Z</time>
      </trkpt>
      <trkpt lat="45.89728" lon="3.05699">
        <ele>426.0013428</ele>
        <time>2011-05-01T06:50:49Z</time>
      </trkpt>
      <trkpt lat="45.89725" lon="3.0569">
        <ele>425.0401611</ele>
        <time>2011-05-01T06:50:53Z</time>
      </trkpt>
      <trkpt lat="45.89729" lon="3.05688">
        <ele>425.520752</ele>
        <time>2011-05-01T06:50:57Z</time>
      </trkpt>
      <trkpt lat="45.8974" lon="3.057">
        <ele>426.4820557</ele>
        <time>2011-05-01T06:51:02Z</time>
      </trkpt>
      <trkpt lat="45.89759" lon="3.05705">
        <ele>428.4046631</ele>
        <time>2011-05-01T06:51:09Z</time>
      </trkpt>
      <trkpt lat="45.89772" lon="3.05708">
        <ele>431.769165</ele>
        <time>2011-05-01T06:51:14Z</time>
      </trkpt>
      <trkpt lat="45.89775" lon="3.05707">
        <ele>431.769165</ele>
        <time>2011-05-01T06:51:15Z</time>
      </trkpt>
      <trkpt lat="45.89782" lon="3.05706">
        <ele>433.2113037</ele>
        <time>2011-05-01T06:51:18Z</time>
      </trkpt>
      <trkpt lat="45.8979" lon="3.05706">
        <ele>435.1339111</ele>
        <time>2011-05-01T06:51:21Z</time>
      </trkpt>
      <trkpt lat="45.89797" lon="3.05706">
        <ele>437.0565186</ele>
        <time>2011-05-01T06:51:24Z</time>
      </trkpt>
      <trkpt lat="45.89807" lon="3.05703">
        <ele>438.0178223</ele>
        <time>2011-05-01T06:51:28Z</time>
      </trkpt>
      <trkpt lat="45.89812" lon="3.05702">
        <ele>438.979126</ele>
        <time>2011-05-01T06:51:30Z</time>
      </trkpt>
      <trkpt lat="45.89828" lon="3.05701">
        <ele>441.3824463</ele>
        <time>2011-05-01T06:51:37Z</time>
      </trkpt>
      <trkpt lat="45.89843" lon="3.05703">
        <ele>442.3438721</ele>
        <time>2011-05-01T06:51:44Z</time>
      </trkpt>
      <trkpt lat="45.89853" lon="3.05706">
        <ele>443.3050537</ele>
        <time>2011-05-01T06:51:49Z</time>
      </trkpt>
      <trkpt lat="45.89858" lon="3.05719">
        <ele>445.2276611</ele>
        <time>2011-05-01T06:51:54Z</time>
      </trkpt>
      <trkpt lat="45.89858" lon="3.05739">
        <ele>446.6696777</ele>
        <time>2011-05-01T06:52:00Z</time>
      </trkpt>
      <trkpt lat="45.89854" lon="3.05776">
        <ele>449.5537109</ele>
        <time>2011-05-01T06:52:10Z</time>
      </trkpt>
      <trkpt lat="45.89852" lon="3.05813">
        <ele>451.4763184</ele>
        <time>2011-05-01T06:52:19Z</time>
      </trkpt>
      <trkpt lat="45.89855" lon="3.05848">
        <ele>451.9570313</ele>
        <time>2011-05-01T06:52:27Z</time>
      </trkpt>
      <trkpt lat="45.89865" lon="3.05879">
        <ele>453.8796387</ele>
        <time>2011-05-01T06:52:35Z</time>
      </trkpt>
      <trkpt lat="45.89871" lon="3.05896">
        <ele>454.3602295</ele>
        <time>2011-05-01T06:52:41Z</time>
      </trkpt>
      <trkpt lat="45.89878" lon="3.05906">
        <ele>454.3602295</ele>
        <time>2011-05-01T06:52:46Z</time>
      </trkpt>
      <trkpt lat="45.89879" lon="3.0591">
        <ele>454.8408203</ele>
        <time>2011-05-01T06:52:47Z</time>
      </trkpt>
      <trkpt lat="45.89885" lon="3.05937">
        <ele>453.8796387</ele>
        <time>2011-05-01T06:52:52Z</time>
      </trkpt>
      <trkpt lat="45.89897" lon="3.05979">
        <ele>453.3989258</ele>
        <time>2011-05-01T06:52:59Z</time>
      </trkpt>
      <trkpt lat="45.89912" lon="3.06024">
        <ele>452.9182129</ele>
        <time>2011-05-01T06:53:06Z</time>
      </trkpt>
      <trkpt lat="45.89921" lon="3.0605">
        <ele>452.9182129</ele>
        <time>2011-05-01T06:53:10Z</time>
      </trkpt>
      <trkpt lat="45.89934" lon="3.06089">
        <ele>453.3989258</ele>
        <time>2011-05-01T06:53:16Z</time>
      </trkpt>
      <trkpt lat="45.89936" lon="3.06096">
        <ele>453.3989258</ele>
        <time>2011-05-01T06:53:17Z</time>
      </trkpt>
      <trkpt lat="45.89942" lon="3.06127">
        <ele>451.4763184</ele>
        <time>2011-05-01T06:53:21Z</time>
      </trkpt>
      <trkpt lat="45.89942" lon="3.06144">
        <ele>450.9956055</ele>
        <time>2011-05-01T06:53:23Z</time>
      </trkpt>
      <trkpt lat="45.8994" lon="3.06192">
        <ele>450.0344238</ele>
        <time>2011-05-01T06:53:28Z</time>
      </trkpt>
      <trkpt lat="45.89951" lon="3.06212">
        <ele>449.5537109</ele>
        <time>2011-05-01T06:53:31Z</time>
      </trkpt>
      <trkpt lat="45.89956" lon="3.06216">
        <ele>449.5537109</ele>
        <time>2011-05-01T06:53:32Z</time>
      </trkpt>
      <trkpt lat="45.89972" lon="3.06227">
        <ele>450.0344238</ele>
        <time>2011-05-01T06:53:35Z</time>
      </trkpt>
      <trkpt lat="45.89989" lon="3.06261">
        <ele>449.5537109</ele>
        <time>2011-05-01T06:53:40Z</time>
      </trkpt>
      <trkpt lat="45.90009" lon="3.06316">
        <ele>446.6696777</ele>
        <time>2011-05-01T06:53:47Z</time>
      </trkpt>
      <trkpt lat="45.90011" lon="3.06325">
        <ele>446.6696777</ele>
        <time>2011-05-01T06:53:48Z</time>
      </trkpt>
      <trkpt lat="45.90013" lon="3.06364">
        <ele>444.2664795</ele>
        <time>2011-05-01T06:53:52Z</time>
      </trkpt>
      <trkpt lat="45.90012" lon="3.06375">
        <ele>443.7857666</ele>
        <time>2011-05-01T06:53:53Z</time>
      </trkpt>
      <trkpt lat="45.9001" lon="3.06398">
        <ele>442.8244629</ele>
        <time>2011-05-01T06:53:55Z</time>
      </trkpt>
      <trkpt lat="45.90016" lon="3.06446">
        <ele>442.3438721</ele>
        <time>2011-05-01T06:54:00Z</time>
      </trkpt>
      <trkpt lat="45.90036" lon="3.06507">
        <ele>442.3438721</ele>
        <time>2011-05-01T06:54:07Z</time>
      </trkpt>
      <trkpt lat="45.90045" lon="3.06532">
        <ele>442.8244629</ele>
        <time>2011-05-01T06:54:10Z</time>
      </trkpt>
      <trkpt lat="45.90067" lon="3.0658">
        <ele>442.8244629</ele>
        <time>2011-05-01T06:54:16Z</time>
      </trkpt>
      <trkpt lat="45.90086" lon="3.06614">
        <ele>443.3050537</ele>
        <time>2011-05-01T06:54:21Z</time>
      </trkpt>
      <trkpt lat="45.90092" lon="3.06646">
        <ele>442.8244629</ele>
        <time>2011-05-01T06:54:25Z</time>
      </trkpt>
      <trkpt lat="45.90095" lon="3.06691">
        <ele>440.9018555</ele>
        <time>2011-05-01T06:54:30Z</time>
      </trkpt>
      <trkpt lat="45.90097" lon="3.06755">
        <ele>437.5371094</ele>
        <time>2011-05-01T06:54:36Z</time>
      </trkpt>
      <trkpt lat="45.90097" lon="3.06769">
        <ele>434.1726074</ele>
        <time>2011-05-01T06:54:38Z</time>
      </trkpt>
      <trkpt lat="45.90097" lon="3.06774">
        <ele>434.1726074</ele>
        <time>2011-05-01T06:54:39Z</time>
      </trkpt>
      <trkpt lat="45.90096" lon="3.06779">
        <ele>433.6918945</ele>
        <time>2011-05-01T06:54:40Z</time>
      </trkpt>
      <trkpt lat="45.90096" lon="3.06817">
        <ele>433.2113037</ele>
        <time>2011-05-01T06:54:45Z</time>
      </trkpt>
      <trkpt lat="45.90091" lon="3.06878">
        <ele>432.25</ele>
        <time>2011-05-01T06:54:51Z</time>
      </trkpt>
      <trkpt lat="45.90087" lon="3.06933">
        <ele>430.3272705</ele>
        <time>2011-05-01T06:54:56Z</time>
      </trkpt>
      <trkpt lat="45.90084" lon="3.06992">
        <ele>429.3659668</ele>
        <time>2011-05-01T06:55:01Z</time>
      </trkpt>
      <trkpt lat="45.90076" lon="3.0713">
        <ele>427.9239502</ele>
        <time>2011-05-01T06:55:13Z</time>
      </trkpt>
      <trkpt lat="45.90072" lon="3.07193">
        <ele>426.4820557</ele>
        <time>2011-05-01T06:55:19Z</time>
      </trkpt>
      <trkpt lat="45.90071" lon="3.07203">
        <ele>426.0013428</ele>
        <time>2011-05-01T06:55:20Z</time>
      </trkpt>
      <trkpt lat="45.9008" lon="3.07223">
        <ele>426.0013428</ele>
        <time>2011-05-01T06:55:24Z</time>
      </trkpt>
      <trkpt lat="45.90084" lon="3.07224">
        <ele>426.4820557</ele>
        <time>2011-05-01T06:55:25Z</time>
      </trkpt>
      <trkpt lat="45.90101" lon="3.07223">
        <ele>426.4820557</ele>
        <time>2011-05-01T06:55:28Z</time>
      </trkpt>
      <trkpt lat="45.90124" lon="3.07237">
        <ele>426.4820557</ele>
        <time>2011-05-01T06:55:32Z</time>
      </trkpt>
      <trkpt lat="45.90127" lon="3.07254">
        <ele>425.520752</ele>
        <time>2011-05-01T06:55:34Z</time>
      </trkpt>
      <trkpt lat="45.90134" lon="3.07307">
        <ele>424.5594482</ele>
        <time>2011-05-01T06:55:40Z</time>
      </trkpt>
      <trkpt lat="45.9014" lon="3.07333">
        <ele>422.6367188</ele>
        <time>2011-05-01T06:55:45Z</time>
      </trkpt>
      <trkpt lat="45.90141" lon="3.07337">
        <ele>423.1174316</ele>
        <time>2011-05-01T06:55:46Z</time>
      </trkpt>
      <trkpt lat="45.90156" lon="3.07367">
        <ele>422.6367188</ele>
        <time>2011-05-01T06:55:51Z</time>
      </trkpt>
      <trkpt lat="45.90167" lon="3.07391">
        <ele>421.675415</ele>
        <time>2011-05-01T06:55:54Z</time>
      </trkpt>
      <trkpt lat="45.90174" lon="3.0743">
        <ele>421.1948242</ele>
        <time>2011-05-01T06:55:58Z</time>
      </trkpt>
      <trkpt lat="45.90173" lon="3.07499">
        <ele>421.675415</ele>
        <time>2011-05-01T06:56:05Z</time>
      </trkpt>
      <trkpt lat="45.90176" lon="3.07556">
        <ele>420.7141113</ele>
        <time>2011-05-01T06:56:11Z</time>
      </trkpt>
      <trkpt lat="45.90177" lon="3.07616">
        <ele>420.2333984</ele>
        <time>2011-05-01T06:56:17Z</time>
      </trkpt>
      <trkpt lat="45.90178" lon="3.07674">
        <ele>419.7528076</ele>
        <time>2011-05-01T06:56:23Z</time>
      </trkpt>
      <trkpt lat="45.90182" lon="3.07731">
        <ele>418.7915039</ele>
        <time>2011-05-01T06:56:29Z</time>
      </trkpt>
      <trkpt lat="45.90191" lon="3.07784">
        <ele>417.8302002</ele>
        <time>2011-05-01T06:56:35Z</time>
      </trkpt>
      <trkpt lat="45.90194" lon="3.07852">
        <ele>415.9074707</ele>
        <time>2011-05-01T06:56:42Z</time>
      </trkpt>
      <trkpt lat="45.90194" lon="3.07874">
        <ele>414.946167</ele>
        <time>2011-05-01T06:56:44Z</time>
      </trkpt>
      <trkpt lat="45.90195" lon="3.0791">
        <ele>412.5428467</ele>
        <time>2011-05-01T06:56:47Z</time>
      </trkpt>
      <trkpt lat="45.90199" lon="3.07964">
        <ele>410.1396484</ele>
        <time>2011-05-01T06:56:51Z</time>
      </trkpt>
      <trkpt lat="45.90202" lon="3.07992">
        <ele>407.2556152</ele>
        <time>2011-05-01T06:56:53Z</time>
      </trkpt>
      <trkpt lat="45.90208" lon="3.0802">
        <ele>407.2556152</ele>
        <time>2011-05-01T06:56:55Z</time>
      </trkpt>
      <trkpt lat="45.90219" lon="3.08092">
        <ele>401.487793</ele>
        <time>2011-05-01T06:57:00Z</time>
      </trkpt>
      <trkpt lat="45.90221" lon="3.08106">
        <ele>401.487793</ele>
        <time>2011-05-01T06:57:01Z</time>
      </trkpt>
      <trkpt lat="45.90237" lon="3.08181">
        <ele>398.6037598</ele>
        <time>2011-05-01T06:57:07Z</time>
      </trkpt>
      <trkpt lat="45.90247" lon="3.08246">
        <ele>397.6424561</ele>
        <time>2011-05-01T06:57:13Z</time>
      </trkpt>
      <trkpt lat="45.90255" lon="3.08292">
        <ele>395.2391357</ele>
        <time>2011-05-01T06:57:17Z</time>
      </trkpt>
      <trkpt lat="45.90258" lon="3.08317">
        <ele>391.8745117</ele>
        <time>2011-05-01T06:57:19Z</time>
      </trkpt>
      <trkpt lat="45.90267" lon="3.08395">
        <ele>387.548584</ele>
        <time>2011-05-01T06:57:25Z</time>
      </trkpt>
      <trkpt lat="45.90268" lon="3.08421">
        <ele>386.5874023</ele>
        <time>2011-05-01T06:57:27Z</time>
      </trkpt>
      <trkpt lat="45.90277" lon="3.08469">
        <ele>385.1453857</ele>
        <time>2011-05-01T06:57:31Z</time>
      </trkpt>
      <trkpt lat="45.9028" lon="3.08494">
        <ele>384.184082</ele>
        <time>2011-05-01T06:57:33Z</time>
      </trkpt>
      <trkpt lat="45.90283" lon="3.08571">
        <ele>380.3387451</ele>
        <time>2011-05-01T06:57:39Z</time>
      </trkpt>
      <trkpt lat="45.90283" lon="3.0862">
        <ele>378.8968506</ele>
        <time>2011-05-01T06:57:43Z</time>
      </trkpt>
      <trkpt lat="45.90281" lon="3.08653">
        <ele>377.9354248</ele>
        <time>2011-05-01T06:57:46Z</time>
      </trkpt>
      <trkpt lat="45.90279" lon="3.08685">
        <ele>377.454834</ele>
        <time>2011-05-01T06:57:49Z</time>
      </trkpt>
      <trkpt lat="45.90286" lon="3.08724">
        <ele>375.5321045</ele>
        <time>2011-05-01T06:57:53Z</time>
      </trkpt>
      <trkpt lat="45.90295" lon="3.0875">
        <ele>375.5321045</ele>
        <time>2011-05-01T06:57:56Z</time>
      </trkpt>
      <trkpt lat="45.90303" lon="3.08819">
        <ele>374.0900879</ele>
        <time>2011-05-01T06:58:03Z</time>
      </trkpt>
      <trkpt lat="45.90304" lon="3.08829">
        <ele>373.6094971</ele>
        <time>2011-05-01T06:58:04Z</time>
      </trkpt>
      <trkpt lat="45.90312" lon="3.08871">
        <ele>373.6094971</ele>
        <time>2011-05-01T06:58:08Z</time>
      </trkpt>
      <trkpt lat="45.90332" lon="3.08941">
        <ele>371.6868896</ele>
        <time>2011-05-01T06:58:15Z</time>
      </trkpt>
      <trkpt lat="45.90351" lon="3.09013">
        <ele>370.244873</ele>
        <time>2011-05-01T06:58:22Z</time>
      </trkpt>
      <trkpt lat="45.90361" lon="3.09054">
        <ele>368.8029785</ele>
        <time>2011-05-01T06:58:27Z</time>
      </trkpt>
      <trkpt lat="45.90362" lon="3.09059">
        <ele>368.8029785</ele>
        <time>2011-05-01T06:58:28Z</time>
      </trkpt>
      <trkpt lat="45.90355" lon="3.09076">
        <ele>368.3222656</ele>
        <time>2011-05-01T06:58:32Z</time>
      </trkpt>
      <trkpt lat="45.9035" lon="3.09079">
        <ele>366.880249</ele>
        <time>2011-05-01T06:58:33Z</time>
      </trkpt>
      <trkpt lat="45.90339" lon="3.09086">
        <ele>366.880249</ele>
        <time>2011-05-01T06:58:35Z</time>
      </trkpt>
      <trkpt lat="45.90323" lon="3.091">
        <ele>365.4383545</ele>
        <time>2011-05-01T06:58:38Z</time>
      </trkpt>
      <trkpt lat="45.90288" lon="3.09131">
        <ele>362.0737305</ele>
        <time>2011-05-01T06:58:43Z</time>
      </trkpt>
      <trkpt lat="45.90264" lon="3.09154">
        <ele>358.7089844</ele>
        <time>2011-05-01T06:58:46Z</time>
      </trkpt>
      <trkpt lat="45.90248" lon="3.09169">
        <ele>356.786377</ele>
        <time>2011-05-01T06:58:48Z</time>
      </trkpt>
      <trkpt lat="45.90215" lon="3.09198">
        <ele>353.421875</ele>
        <time>2011-05-01T06:58:52Z</time>
      </trkpt>
      <trkpt lat="45.90201" lon="3.09209">
        <ele>351.4991455</ele>
        <time>2011-05-01T06:58:54Z</time>
      </trkpt>
      <trkpt lat="45.90183" lon="3.09227">
        <ele>351.0184326</ele>
        <time>2011-05-01T06:58:58Z</time>
      </trkpt>
      <trkpt lat="45.9018" lon="3.09249">
        <ele>350.5378418</ele>
        <time>2011-05-01T06:59:02Z</time>
      </trkpt>
      <trkpt lat="45.90191" lon="3.09304">
        <ele>349.5765381</ele>
        <time>2011-05-01T06:59:09Z</time>
      </trkpt>
      <trkpt lat="45.90195" lon="3.09319">
        <ele>350.057251</ele>
        <time>2011-05-01T06:59:11Z</time>
      </trkpt>
      <trkpt lat="45.902" lon="3.09334">
        <ele>349.5765381</ele>
        <time>2011-05-01T06:59:13Z</time>
      </trkpt>
      <trkpt lat="45.9021" lon="3.09378">
        <ele>350.057251</ele>
        <time>2011-05-01T06:59:19Z</time>
      </trkpt>
      <trkpt lat="45.90232" lon="3.09455">
        <ele>349.5765381</ele>
        <time>2011-05-01T06:59:28Z</time>
      </trkpt>
      <trkpt lat="45.90253" lon="3.0953">
        <ele>347.6539307</ele>
        <time>2011-05-01T06:59:36Z</time>
      </trkpt>
      <trkpt lat="45.90264" lon="3.09569">
        <ele>346.2120361</ele>
        <time>2011-05-01T06:59:40Z</time>
      </trkpt>
      <trkpt lat="45.90285" lon="3.0964">
        <ele>344.7700195</ele>
        <time>2011-05-01T06:59:47Z</time>
      </trkpt>
      <trkpt lat="45.90301" lon="3.09692">
        <ele>342.84729</ele>
        <time>2011-05-01T06:59:52Z</time>
      </trkpt>
      <trkpt lat="45.90309" lon="3.09722">
        <ele>342.84729</ele>
        <time>2011-05-01T06:59:55Z</time>
      </trkpt>
      <trkpt lat="45.90311" lon="3.09755">
        <ele>341.4052734</ele>
        <time>2011-05-01T06:59:59Z</time>
      </trkpt>
      <trkpt lat="45.90296" lon="3.09768">
        <ele>339.9633789</ele>
        <time>2011-05-01T07:00:02Z</time>
      </trkpt>
      <trkpt lat="45.90284" lon="3.09785">
        <ele>338.5214844</ele>
        <time>2011-05-01T07:00:05Z</time>
      </trkpt>
      <trkpt lat="45.90288" lon="3.09805">
        <ele>339.482666</ele>
        <time>2011-05-01T07:00:08Z</time>
      </trkpt>
      <trkpt lat="45.90292" lon="3.09812">
        <ele>338.5214844</ele>
        <time>2011-05-01T07:00:09Z</time>
      </trkpt>
      <trkpt lat="45.90314" lon="3.09872">
        <ele>337.5600586</ele>
        <time>2011-05-01T07:00:17Z</time>
      </trkpt>
      <trkpt lat="45.90328" lon="3.09885">
        <ele>337.5600586</ele>
        <time>2011-05-01T07:00:21Z</time>
      </trkpt>
      <trkpt lat="45.90333" lon="3.09886">
        <ele>337.5600586</ele>
        <time>2011-05-01T07:00:22Z</time>
      </trkpt>
      <trkpt lat="45.9038" lon="3.09895">
        <ele>339.482666</ele>
        <time>2011-05-01T07:00:31Z</time>
      </trkpt>
      <trkpt lat="45.90386" lon="3.09896">
        <ele>339.9633789</ele>
        <time>2011-05-01T07:00:32Z</time>
      </trkpt>
      <trkpt lat="45.904" lon="3.09902">
        <ele>340.9246826</ele>
        <time>2011-05-01T07:00:35Z</time>
      </trkpt>
      <trkpt lat="45.90434" lon="3.09923">
        <ele>342.3666992</ele>
        <time>2011-05-01T07:00:43Z</time>
      </trkpt>
      <trkpt lat="45.90442" lon="3.09931">
        <ele>342.84729</ele>
        <time>2011-05-01T07:00:46Z</time>
      </trkpt>
      <trkpt lat="45.90439" lon="3.09954">
        <ele>341.4052734</ele>
        <time>2011-05-01T07:00:51Z</time>
      </trkpt>
      <trkpt lat="45.90438" lon="3.09958">
        <ele>341.4052734</ele>
        <time>2011-05-01T07:00:52Z</time>
      </trkpt>
      <trkpt lat="45.90433" lon="3.0998">
        <ele>339.9633789</ele>
        <time>2011-05-01T07:01:00Z</time>
      </trkpt>
      <trkpt lat="45.90432" lon="3.09987">
        <ele>339.9633789</ele>
        <time>2011-05-01T07:01:02Z</time>
      </trkpt>
      <trkpt lat="45.90444" lon="3.10004">
        <ele>340.4440918</ele>
        <time>2011-05-01T07:01:06Z</time>
      </trkpt>
      <trkpt lat="45.90449" lon="3.10006">
        <ele>340.4440918</ele>
        <time>2011-05-01T07:01:07Z</time>
      </trkpt>
      <trkpt lat="45.90491" lon="3.10025">
        <ele>340.4440918</ele>
        <time>2011-05-01T07:01:15Z</time>
      </trkpt>
      <trkpt lat="45.90523" lon="3.10044">
        <ele>341.4052734</ele>
        <time>2011-05-01T07:01:22Z</time>
      </trkpt>
      <trkpt lat="45.90573" lon="3.1007">
        <ele>342.3666992</ele>
        <time>2011-05-01T07:01:32Z</time>
      </trkpt>
      <trkpt lat="45.90604" lon="3.10084">
        <ele>342.3666992</ele>
        <time>2011-05-01T07:01:38Z</time>
      </trkpt>
      <trkpt lat="45.90629" lon="3.10095">
        <ele>342.84729</ele>
        <time>2011-05-01T07:01:43Z</time>
      </trkpt>
      <trkpt lat="45.90664" lon="3.10112">
        <ele>344.2894287</ele>
        <time>2011-05-01T07:01:50Z</time>
      </trkpt>
      <trkpt lat="45.90701" lon="3.10134">
        <ele>346.2120361</ele>
        <time>2011-05-01T07:01:58Z</time>
      </trkpt>
      <trkpt lat="45.90733" lon="3.10154">
        <ele>347.1732178</ele>
        <time>2011-05-01T07:02:05Z</time>
      </trkpt>
      <trkpt lat="45.90762" lon="3.10177">
        <ele>346.2120361</ele>
        <time>2011-05-01T07:02:11Z</time>
      </trkpt>
      <trkpt lat="45.90797" lon="3.10204">
        <ele>344.7700195</ele>
        <time>2011-05-01T07:02:17Z</time>
      </trkpt>
      <trkpt lat="45.90837" lon="3.10247">
        <ele>341.8859863</ele>
        <time>2011-05-01T07:02:24Z</time>
      </trkpt>
      <trkpt lat="45.90871" lon="3.10284">
        <ele>341.8859863</ele>
        <time>2011-05-01T07:02:30Z</time>
      </trkpt>
      <trkpt lat="45.90921" lon="3.10338">
        <ele>340.9246826</ele>
        <time>2011-05-01T07:02:39Z</time>
      </trkpt>
      <trkpt lat="45.90971" lon="3.10389">
        <ele>340.9246826</ele>
        <time>2011-05-01T07:02:48Z</time>
      </trkpt>
      <trkpt lat="45.91003" lon="3.10425">
        <ele>340.4440918</ele>
        <time>2011-05-01T07:02:54Z</time>
      </trkpt>
      <trkpt lat="45.91042" lon="3.10464">
        <ele>339.9633789</ele>
        <time>2011-05-01T07:03:01Z</time>
      </trkpt>
      <trkpt lat="45.9108" lon="3.10503">
        <ele>339.482666</ele>
        <time>2011-05-01T07:03:08Z</time>
      </trkpt>
      <trkpt lat="45.91108" lon="3.1053">
        <ele>339.0020752</ele>
        <time>2011-05-01T07:03:13Z</time>
      </trkpt>
      <trkpt lat="45.91145" lon="3.10573">
        <ele>338.5214844</ele>
        <time>2011-05-01T07:03:20Z</time>
      </trkpt>
      <trkpt lat="45.91181" lon="3.10611">
        <ele>339.482666</ele>
        <time>2011-05-01T07:03:27Z</time>
      </trkpt>
      <trkpt lat="45.91195" lon="3.10626">
        <ele>339.9633789</ele>
        <time>2011-05-01T07:03:30Z</time>
      </trkpt>
      <trkpt lat="45.91238" lon="3.10677">
        <ele>341.4052734</ele>
        <time>2011-05-01T07:03:40Z</time>
      </trkpt>
      <trkpt lat="45.91258" lon="3.10704">
        <ele>342.3666992</ele>
        <time>2011-05-01T07:03:45Z</time>
      </trkpt>
      <trkpt lat="45.91288" lon="3.10749">
        <ele>342.84729</ele>
        <time>2011-05-01T07:03:53Z</time>
      </trkpt>
      <trkpt lat="45.91304" lon="3.10778">
        <ele>344.2894287</ele>
        <time>2011-05-01T07:03:58Z</time>
      </trkpt>
      <trkpt lat="45.91308" lon="3.10784">
        <ele>344.7700195</ele>
        <time>2011-05-01T07:03:59Z</time>
      </trkpt>
      <trkpt lat="45.91325" lon="3.10811">
        <ele>345.7313232</ele>
        <time>2011-05-01T07:04:04Z</time>
      </trkpt>
      <trkpt lat="45.91342" lon="3.10839">
        <ele>345.7313232</ele>
        <time>2011-05-01T07:04:09Z</time>
      </trkpt>
      <trkpt lat="45.91374" lon="3.10881">
        <ele>346.692627</ele>
        <time>2011-05-01T07:04:17Z</time>
      </trkpt>
      <trkpt lat="45.91415" lon="3.10931">
        <ele>346.692627</ele>
        <time>2011-05-01T07:04:27Z</time>
      </trkpt>
      <trkpt lat="45.91451" lon="3.10972">
        <ele>348.6152344</ele>
        <time>2011-05-01T07:04:36Z</time>
      </trkpt>
      <trkpt lat="45.91498" lon="3.11033">
        <ele>350.5378418</ele>
        <time>2011-05-01T07:04:48Z</time>
      </trkpt>
      <trkpt lat="45.91543" lon="3.11089">
        <ele>350.5378418</ele>
        <time>2011-05-01T07:04:59Z</time>
      </trkpt>
      <trkpt lat="45.91561" lon="3.11108">
        <ele>351.0184326</ele>
        <time>2011-05-01T07:05:03Z</time>
      </trkpt>
      <trkpt lat="45.91582" lon="3.11123">
        <ele>350.5378418</ele>
        <time>2011-05-01T07:05:07Z</time>
      </trkpt>
      <trkpt lat="45.91606" lon="3.11143">
        <ele>350.5378418</ele>
        <time>2011-05-01T07:05:12Z</time>
      </trkpt>
      <trkpt lat="45.91652" lon="3.11172">
        <ele>349.5765381</ele>
        <time>2011-05-01T07:05:20Z</time>
      </trkpt>
      <trkpt lat="45.91697" lon="3.11203">
        <ele>349.5765381</ele>
        <time>2011-05-01T07:05:27Z</time>
      </trkpt>
      <trkpt lat="45.91733" lon="3.11242">
        <ele>350.057251</ele>
        <time>2011-05-01T07:05:34Z</time>
      </trkpt>
      <trkpt lat="45.91795" lon="3.113">
        <ele>351.0184326</ele>
        <time>2011-05-01T07:05:46Z</time>
      </trkpt>
      <trkpt lat="45.91834" lon="3.11341">
        <ele>351.9798584</ele>
        <time>2011-05-01T07:05:54Z</time>
      </trkpt>
      <trkpt lat="45.91874" lon="3.11382">
        <ele>351.4991455</ele>
        <time>2011-05-01T07:06:02Z</time>
      </trkpt>
      <trkpt lat="45.91915" lon="3.11424">
        <ele>351.9798584</ele>
        <time>2011-05-01T07:06:10Z</time>
      </trkpt>
      <trkpt lat="45.91967" lon="3.11473">
        <ele>352.4605713</ele>
        <time>2011-05-01T07:06:20Z</time>
      </trkpt>
      <trkpt lat="45.92011" lon="3.11502">
        <ele>352.9411621</ele>
        <time>2011-05-01T07:06:28Z</time>
      </trkpt>
      <trkpt lat="45.92034" lon="3.1151">
        <ele>351.9798584</ele>
        <time>2011-05-01T07:06:33Z</time>
      </trkpt>
      <trkpt lat="45.92036" lon="3.11522">
        <ele>351.9798584</ele>
        <time>2011-05-01T07:06:37Z</time>
      </trkpt>
      <trkpt lat="45.92031" lon="3.11523">
        <ele>350.5378418</ele>
        <time>2011-05-01T07:06:39Z</time>
      </trkpt>
      <trkpt lat="45.91987" lon="3.11525">
        <ele>350.057251</ele>
        <time>2011-05-01T07:06:47Z</time>
      </trkpt>
      <trkpt lat="45.91934" lon="3.11522">
        <ele>349.5765381</ele>
        <time>2011-05-01T07:06:55Z</time>
      </trkpt>
      <trkpt lat="45.9186" lon="3.11512">
        <ele>348.6152344</ele>
        <time>2011-05-01T07:07:06Z</time>
      </trkpt>
      <trkpt lat="45.9179" lon="3.1151">
        <ele>347.1732178</ele>
        <time>2011-05-01T07:07:16Z</time>
      </trkpt>
      <trkpt lat="45.9173" lon="3.1151">
        <ele>346.2120361</ele>
        <time>2011-05-01T07:07:25Z</time>
      </trkpt>
      <trkpt lat="45.91698" lon="3.11504">
        <ele>344.2894287</ele>
        <time>2011-05-01T07:07:30Z</time>
      </trkpt>
      <trkpt lat="45.9168" lon="3.11513">
        <ele>343.8085938</ele>
        <time>2011-05-01T07:07:34Z</time>
      </trkpt>
      <trkpt lat="45.91679" lon="3.11533">
        <ele>343.8085938</ele>
        <time>2011-05-01T07:07:37Z</time>
      </trkpt>
      <trkpt lat="45.9168" lon="3.1154">
        <ele>343.8085938</ele>
        <time>2011-05-01T07:07:38Z</time>
      </trkpt>
      <trkpt lat="45.91696" lon="3.11614">
        <ele>344.2894287</ele>
        <time>2011-05-01T07:07:47Z</time>
      </trkpt>
      <trkpt lat="45.91701" lon="3.11641">
        <ele>344.2894287</ele>
        <time>2011-05-01T07:07:50Z</time>
      </trkpt>
      <trkpt lat="45.9172" lon="3.11739">
        <ele>343.3278809</ele>
        <time>2011-05-01T07:08:01Z</time>
      </trkpt>
      <trkpt lat="45.91736" lon="3.11819">
        <ele>343.3278809</ele>
        <time>2011-05-01T07:08:10Z</time>
      </trkpt>
      <trkpt lat="45.91752" lon="3.11905">
        <ele>343.3278809</ele>
        <time>2011-05-01T07:08:20Z</time>
      </trkpt>
      <trkpt lat="45.91766" lon="3.11963">
        <ele>342.84729</ele>
        <time>2011-05-01T07:08:27Z</time>
      </trkpt>
      <trkpt lat="45.9178" lon="3.11989">
        <ele>342.84729</ele>
        <time>2011-05-01T07:08:31Z</time>
      </trkpt>
      <trkpt lat="45.91787" lon="3.11999">
        <ele>342.84729</ele>
        <time>2011-05-01T07:08:33Z</time>
      </trkpt>
      <trkpt lat="45.91792" lon="3.12027">
        <ele>342.3666992</ele>
        <time>2011-05-01T07:08:37Z</time>
      </trkpt>
      <trkpt lat="45.91791" lon="3.1206">
        <ele>342.3666992</ele>
        <time>2011-05-01T07:08:41Z</time>
      </trkpt>
      <trkpt lat="45.91795" lon="3.12108">
        <ele>341.8859863</ele>
        <time>2011-05-01T07:08:47Z</time>
      </trkpt>
      <trkpt lat="45.91806" lon="3.12154">
        <ele>342.3666992</ele>
        <time>2011-05-01T07:08:53Z</time>
      </trkpt>
      <trkpt lat="45.91815" lon="3.12197">
        <ele>343.3278809</ele>
        <time>2011-05-01T07:08:59Z</time>
      </trkpt>
      <trkpt lat="45.91828" lon="3.12211">
        <ele>343.8085938</ele>
        <time>2011-05-01T07:09:03Z</time>
      </trkpt>
      <trkpt lat="45.91842" lon="3.1221">
        <ele>343.8085938</ele>
        <time>2011-05-01T07:09:06Z</time>
      </trkpt>
      <trkpt lat="45.9188" lon="3.12202">
        <ele>344.2894287</ele>
        <time>2011-05-01T07:09:13Z</time>
      </trkpt>
      <trkpt lat="45.91919" lon="3.12196">
        <ele>344.7700195</ele>
        <time>2011-05-01T07:09:20Z</time>
      </trkpt>
      <trkpt lat="45.91968" lon="3.12188">
        <ele>345.2506104</ele>
        <time>2011-05-01T07:09:29Z</time>
      </trkpt>
      <trkpt lat="45.91985" lon="3.12173">
        <ele>345.2506104</ele>
        <time>2011-05-01T07:09:33Z</time>
      </trkpt>
      <trkpt lat="45.91989" lon="3.12157">
        <ele>343.8085938</ele>
        <time>2011-05-01T07:09:35Z</time>
      </trkpt>
      <trkpt lat="45.91999" lon="3.1213">
        <ele>343.8085938</ele>
        <time>2011-05-01T07:09:38Z</time>
      </trkpt>
      <trkpt lat="45.92017" lon="3.12104">
        <ele>343.3278809</ele>
        <time>2011-05-01T07:09:42Z</time>
      </trkpt>
      <trkpt lat="45.92042" lon="3.12085">
        <ele>343.3278809</ele>
        <time>2011-05-01T07:09:47Z</time>
      </trkpt>
      <trkpt lat="45.92062" lon="3.12086">
        <ele>343.8085938</ele>
        <time>2011-05-01T07:09:51Z</time>
      </trkpt>
      <trkpt lat="45.92084" lon="3.12094">
        <ele>344.2894287</ele>
        <time>2011-05-01T07:09:55Z</time>
      </trkpt>
      <trkpt lat="45.92118" lon="3.12095">
        <ele>344.7700195</ele>
        <time>2011-05-01T07:10:01Z</time>
      </trkpt>
      <trkpt lat="45.92135" lon="3.12092">
        <ele>344.2894287</ele>
        <time>2011-05-01T07:10:04Z</time>
      </trkpt>
      <trkpt lat="45.92174" lon="3.1207">
        <ele>344.2894287</ele>
        <time>2011-05-01T07:10:11Z</time>
      </trkpt>
      <trkpt lat="45.92185" lon="3.12062">
        <ele>344.2894287</ele>
        <time>2011-05-01T07:10:13Z</time>
      </trkpt>
      <trkpt lat="45.92234" lon="3.12032">
        <ele>344.7700195</ele>
        <time>2011-05-01T07:10:22Z</time>
      </trkpt>
      <trkpt lat="45.92238" lon="3.12029">
        <ele>344.7700195</ele>
        <time>2011-05-01T07:10:23Z</time>
      </trkpt>
      <trkpt lat="45.92257" lon="3.12001">
        <ele>344.7700195</ele>
        <time>2011-05-01T07:10:28Z</time>
      </trkpt>
      <trkpt lat="45.92267" lon="3.11982">
        <ele>344.7700195</ele>
        <time>2011-05-01T07:10:31Z</time>
      </trkpt>
      <trkpt lat="45.92285" lon="3.1196">
        <ele>344.7700195</ele>
        <time>2011-05-01T07:10:35Z</time>
      </trkpt>
      <trkpt lat="45.9229" lon="3.11957">
        <ele>345.2506104</ele>
        <time>2011-05-01T07:10:36Z</time>
      </trkpt>
      <trkpt lat="45.92307" lon="3.11951">
        <ele>344.7700195</ele>
        <time>2011-05-01T07:10:39Z</time>
      </trkpt>
      <trkpt lat="45.92324" lon="3.11934">
        <ele>345.7313232</ele>
        <time>2011-05-01T07:10:43Z</time>
      </trkpt>
      <trkpt lat="45.92347" lon="3.11858">
        <ele>346.692627</ele>
        <time>2011-05-01T07:10:53Z</time>
      </trkpt>
      <trkpt lat="45.9236" lon="3.11795">
        <ele>347.1732178</ele>
        <time>2011-05-01T07:11:01Z</time>
      </trkpt>
      <trkpt lat="45.92365" lon="3.1178">
        <ele>346.692627</ele>
        <time>2011-05-01T07:11:03Z</time>
      </trkpt>
      <trkpt lat="45.9237" lon="3.11766">
        <ele>347.1732178</ele>
        <time>2011-05-01T07:11:05Z</time>
      </trkpt>
      <trkpt lat="45.92397" lon="3.11714">
        <ele>348.1346436</ele>
        <time>2011-05-01T07:11:13Z</time>
      </trkpt>
      <trkpt lat="45.92418" lon="3.11677">
        <ele>348.6152344</ele>
        <time>2011-05-01T07:11:19Z</time>
      </trkpt>
      <trkpt lat="45.92444" lon="3.11645">
        <ele>349.0958252</ele>
        <time>2011-05-01T07:11:25Z</time>
      </trkpt>
      <trkpt lat="45.92465" lon="3.11621">
        <ele>349.5765381</ele>
        <time>2011-05-01T07:11:30Z</time>
      </trkpt>
      <trkpt lat="45.9249" lon="3.11585">
        <ele>349.5765381</ele>
        <time>2011-05-01T07:11:36Z</time>
      </trkpt>
      <trkpt lat="45.92501" lon="3.11568">
        <ele>350.057251</ele>
        <time>2011-05-01T07:11:39Z</time>
      </trkpt>
      <trkpt lat="45.92526" lon="3.11536">
        <ele>350.5378418</ele>
        <time>2011-05-01T07:11:46Z</time>
      </trkpt>
      <trkpt lat="45.92553" lon="3.11508">
        <ele>351.0184326</ele>
        <time>2011-05-01T07:11:52Z</time>
      </trkpt>
      <trkpt lat="45.92567" lon="3.11495">
        <ele>351.0184326</ele>
        <time>2011-05-01T07:11:55Z</time>
      </trkpt>
      <trkpt lat="45.92584" lon="3.11464">
        <ele>351.0184326</ele>
        <time>2011-05-01T07:12:00Z</time>
      </trkpt>
      <trkpt lat="45.92585" lon="3.11449">
        <ele>351.0184326</ele>
        <time>2011-05-01T07:12:02Z</time>
      </trkpt>
      <trkpt lat="45.92586" lon="3.11387">
        <ele>351.0184326</ele>
        <time>2011-05-01T07:12:10Z</time>
      </trkpt>
      <trkpt lat="45.92586" lon="3.1137">
        <ele>352.4605713</ele>
        <time>2011-05-01T07:12:14Z</time>
      </trkpt>
      <trkpt lat="45.92586" lon="3.11368">
        <ele>352.4605713</ele>
        <time>2011-05-01T07:12:15Z</time>
      </trkpt>
      <trkpt lat="45.92593" lon="3.11363">
        <ele>352.4605713</ele>
        <time>2011-05-01T07:12:19Z</time>
      </trkpt>
      <trkpt lat="45.92597" lon="3.11363">
        <ele>352.4605713</ele>
        <time>2011-05-01T07:12:20Z</time>
      </trkpt>
      <trkpt lat="45.92614" lon="3.11363">
        <ele>352.9411621</ele>
        <time>2011-05-01T07:12:24Z</time>
      </trkpt>
      <trkpt lat="45.92654" lon="3.11361">
        <ele>354.3831787</ele>
        <time>2011-05-01T07:12:33Z</time>
      </trkpt>
      <trkpt lat="45.92675" lon="3.11351">
        <ele>355.8251953</ele>
        <time>2011-05-01T07:12:39Z</time>
      </trkpt>
      <trkpt lat="45.92694" lon="3.11327">
        <ele>357.2670898</ele>
        <time>2011-05-01T07:12:46Z</time>
      </trkpt>
      <trkpt lat="45.92702" lon="3.11309">
        <ele>358.2283936</ele>
        <time>2011-05-01T07:12:50Z</time>
      </trkpt>
      <trkpt lat="45.92715" lon="3.11276">
        <ele>360.6317139</ele>
        <time>2011-05-01T07:12:57Z</time>
      </trkpt>
      <trkpt lat="45.92717" lon="3.11272">
        <ele>361.1124268</ele>
        <time>2011-05-01T07:12:58Z</time>
      </trkpt>
      <trkpt lat="45.92733" lon="3.1124">
        <ele>362.5543213</ele>
        <time>2011-05-01T07:13:06Z</time>
      </trkpt>
      <trkpt lat="45.92742" lon="3.11223">
        <ele>363.5157471</ele>
        <time>2011-05-01T07:13:10Z</time>
      </trkpt>
      <trkpt lat="45.92746" lon="3.11215">
        <ele>364.4769287</ele>
        <time>2011-05-01T07:13:12Z</time>
      </trkpt>
      <trkpt lat="45.9275" lon="3.11207">
        <ele>365.4383545</ele>
        <time>2011-05-01T07:13:14Z</time>
      </trkpt>
      <trkpt lat="45.92761" lon="3.11187">
        <ele>366.880249</ele>
        <time>2011-05-01T07:13:19Z</time>
      </trkpt>
      <trkpt lat="45.92773" lon="3.11165">
        <ele>368.3222656</ele>
        <time>2011-05-01T07:13:25Z</time>
      </trkpt>
      <trkpt lat="45.92776" lon="3.11159">
        <ele>368.8029785</ele>
        <time>2011-05-01T07:13:27Z</time>
      </trkpt>
      <trkpt lat="45.92786" lon="3.11132">
        <ele>370.244873</ele>
        <time>2011-05-01T07:13:35Z</time>
      </trkpt>
      <trkpt lat="45.92799" lon="3.11129">
        <ele>370.244873</ele>
        <time>2011-05-01T07:13:39Z</time>
      </trkpt>
      <trkpt lat="45.92821" lon="3.11129">
        <ele>370.7255859</ele>
        <time>2011-05-01T07:13:45Z</time>
      </trkpt>
      <trkpt lat="45.9285" lon="3.11124">
        <ele>371.2062988</ele>
        <time>2011-05-01T07:13:52Z</time>
      </trkpt>
      <trkpt lat="45.92886" lon="3.11115">
        <ele>372.6481934</ele>
        <time>2011-05-01T07:14:00Z</time>
      </trkpt>
      <trkpt lat="45.92926" lon="3.11107">
        <ele>374.0900879</ele>
        <time>2011-05-01T07:14:09Z</time>
      </trkpt>
      <trkpt lat="45.92935" lon="3.11106">
        <ele>374.0900879</ele>
        <time>2011-05-01T07:14:11Z</time>
      </trkpt>
      <trkpt lat="45.92967" lon="3.11096">
        <ele>374.5708008</ele>
        <time>2011-05-01T07:14:19Z</time>
      </trkpt>
      <trkpt lat="45.92969" lon="3.11094">
        <ele>375.0515137</ele>
        <time>2011-05-01T07:14:20Z</time>
      </trkpt>
      <trkpt lat="45.92978" lon="3.11077">
        <ele>375.0515137</ele>
        <time>2011-05-01T07:14:25Z</time>
      </trkpt>
      <trkpt lat="45.93008" lon="3.11036">
        <ele>375.5321045</ele>
        <time>2011-05-01T07:14:34Z</time>
      </trkpt>
      <trkpt lat="45.93018" lon="3.11023">
        <ele>376.0128174</ele>
        <time>2011-05-01T07:14:37Z</time>
      </trkpt>
      <trkpt lat="45.93045" lon="3.10975">
        <ele>376.0128174</ele>
        <time>2011-05-01T07:14:45Z</time>
      </trkpt>
      <trkpt lat="45.93073" lon="3.10925">
        <ele>376.4935303</ele>
        <time>2011-05-01T07:14:53Z</time>
      </trkpt>
      <trkpt lat="45.93102" lon="3.10871">
        <ele>376.0128174</ele>
        <time>2011-05-01T07:15:01Z</time>
      </trkpt>
      <trkpt lat="45.93119" lon="3.10816">
        <ele>376.0128174</ele>
        <time>2011-05-01T07:15:08Z</time>
      </trkpt>
      <trkpt lat="45.93123" lon="3.10757">
        <ele>376.4935303</ele>
        <time>2011-05-01T07:15:15Z</time>
      </trkpt>
      <trkpt lat="45.93128" lon="3.10707">
        <ele>376.4935303</ele>
        <time>2011-05-01T07:15:21Z</time>
      </trkpt>
      <trkpt lat="45.93143" lon="3.10645">
        <ele>377.454834</ele>
        <time>2011-05-01T07:15:29Z</time>
      </trkpt>
      <trkpt lat="45.93157" lon="3.10589">
        <ele>377.454834</ele>
        <time>2011-05-01T07:15:36Z</time>
      </trkpt>
      <trkpt lat="45.93175" lon="3.10501">
        <ele>377.454834</ele>
        <time>2011-05-01T07:15:47Z</time>
      </trkpt>
      <trkpt lat="45.93187" lon="3.10438">
        <ele>377.454834</ele>
        <time>2011-05-01T07:15:55Z</time>
      </trkpt>
      <trkpt lat="45.93192" lon="3.10423">
        <ele>377.9354248</ele>
        <time>2011-05-01T07:15:57Z</time>
      </trkpt>
      <trkpt lat="45.93219" lon="3.10372">
        <ele>377.9354248</ele>
        <time>2011-05-01T07:16:05Z</time>
      </trkpt>
      <trkpt lat="45.93247" lon="3.10321">
        <ele>378.4161377</ele>
        <time>2011-05-01T07:16:13Z</time>
      </trkpt>
      <trkpt lat="45.93274" lon="3.10272">
        <ele>378.4161377</ele>
        <time>2011-05-01T07:16:21Z</time>
      </trkpt>
      <trkpt lat="45.93291" lon="3.10241">
        <ele>378.8968506</ele>
        <time>2011-05-01T07:16:26Z</time>
      </trkpt>
      <trkpt lat="45.93311" lon="3.10202">
        <ele>379.3774414</ele>
        <time>2011-05-01T07:16:32Z</time>
      </trkpt>
      <trkpt lat="45.93341" lon="3.10152">
        <ele>379.3774414</ele>
        <time>2011-05-01T07:16:40Z</time>
      </trkpt>
      <trkpt lat="45.93361" lon="3.10111">
        <ele>379.8580322</ele>
        <time>2011-05-01T07:16:46Z</time>
      </trkpt>
      <trkpt lat="45.93387" lon="3.10054">
        <ele>379.8580322</ele>
        <time>2011-05-01T07:16:54Z</time>
      </trkpt>
      <trkpt lat="45.93401" lon="3.10024">
        <ele>378.4161377</ele>
        <time>2011-05-01T07:16:58Z</time>
      </trkpt>
      <trkpt lat="45.93416" lon="3.0999">
        <ele>376.9742432</ele>
        <time>2011-05-01T07:17:02Z</time>
      </trkpt>
      <trkpt lat="45.93436" lon="3.09926">
        <ele>376.4935303</ele>
        <time>2011-05-01T07:17:09Z</time>
      </trkpt>
      <trkpt lat="45.9345" lon="3.09894">
        <ele>376.0128174</ele>
        <time>2011-05-01T07:17:13Z</time>
      </trkpt>
      <trkpt lat="45.9348" lon="3.09837">
        <ele>377.454834</ele>
        <time>2011-05-01T07:17:21Z</time>
      </trkpt>
      <trkpt lat="45.93494" lon="3.0981">
        <ele>377.454834</ele>
        <time>2011-05-01T07:17:25Z</time>
      </trkpt>
      <trkpt lat="45.93507" lon="3.09761">
        <ele>378.8968506</ele>
        <time>2011-05-01T07:17:32Z</time>
      </trkpt>
      <trkpt lat="45.93518" lon="3.09698">
        <ele>378.8968506</ele>
        <time>2011-05-01T07:17:40Z</time>
      </trkpt>
      <trkpt lat="45.93525" lon="3.09667">
        <ele>379.8580322</ele>
        <time>2011-05-01T07:17:44Z</time>
      </trkpt>
      <trkpt lat="45.93528" lon="3.09651">
        <ele>380.3387451</ele>
        <time>2011-05-01T07:17:46Z</time>
      </trkpt>
      <trkpt lat="45.93538" lon="3.09621">
        <ele>379.8580322</ele>
        <time>2011-05-01T07:17:50Z</time>
      </trkpt>
      <trkpt lat="45.93549" lon="3.09593">
        <ele>379.8580322</ele>
        <time>2011-05-01T07:17:54Z</time>
      </trkpt>
      <trkpt lat="45.93564" lon="3.09555">
        <ele>380.3387451</ele>
        <time>2011-05-01T07:18:01Z</time>
      </trkpt>
      <trkpt lat="45.93564" lon="3.09548">
        <ele>380.3387451</ele>
        <time>2011-05-01T07:18:05Z</time>
      </trkpt>
      <trkpt lat="45.93563" lon="3.09531">
        <ele>380.819458</ele>
        <time>2011-05-01T07:18:09Z</time>
      </trkpt>
      <trkpt lat="45.9356" lon="3.0952">
        <ele>380.819458</ele>
        <time>2011-05-01T07:18:11Z</time>
      </trkpt>
      <trkpt lat="45.93557" lon="3.09507">
        <ele>381.3000488</ele>
        <time>2011-05-01T07:18:13Z</time>
      </trkpt>
      <trkpt lat="45.93556" lon="3.09457">
        <ele>381.7806396</ele>
        <time>2011-05-01T07:18:20Z</time>
      </trkpt>
      <trkpt lat="45.93559" lon="3.09437">
        <ele>382.2613525</ele>
        <time>2011-05-01T07:18:23Z</time>
      </trkpt>
      <trkpt lat="45.93574" lon="3.09428">
        <ele>382.2613525</ele>
        <time>2011-05-01T07:18:27Z</time>
      </trkpt>
      <trkpt lat="45.93594" lon="3.09416">
        <ele>381.7806396</ele>
        <time>2011-05-01T07:18:31Z</time>
      </trkpt>
      <trkpt lat="45.93598" lon="3.09412">
        <ele>381.7806396</ele>
        <time>2011-05-01T07:18:32Z</time>
      </trkpt>
      <trkpt lat="45.9363" lon="3.09379">
        <ele>378.4161377</ele>
        <time>2011-05-01T07:18:38Z</time>
      </trkpt>
      <trkpt lat="45.9365" lon="3.09359">
        <ele>375.0515137</ele>
        <time>2011-05-01T07:18:41Z</time>
      </trkpt>
      <trkpt lat="45.93665" lon="3.09343">
        <ele>374.0900879</ele>
        <time>2011-05-01T07:18:43Z</time>
      </trkpt>
      <trkpt lat="45.93694" lon="3.09309">
        <ele>370.7255859</ele>
        <time>2011-05-01T07:18:47Z</time>
      </trkpt>
      <trkpt lat="45.937" lon="3.09302">
        <ele>371.2062988</ele>
        <time>2011-05-01T07:18:48Z</time>
      </trkpt>
      <trkpt lat="45.93728" lon="3.09266">
        <ele>370.7255859</ele>
        <time>2011-05-01T07:18:53Z</time>
      </trkpt>
      <trkpt lat="45.93768" lon="3.09216">
        <ele>370.7255859</ele>
        <time>2011-05-01T07:19:01Z</time>
      </trkpt>
      <trkpt lat="45.93806" lon="3.09165">
        <ele>371.2062988</ele>
        <time>2011-05-01T07:19:09Z</time>
      </trkpt>
      <trkpt lat="45.93827" lon="3.09151">
        <ele>371.2062988</ele>
        <time>2011-05-01T07:19:13Z</time>
      </trkpt>
      <trkpt lat="45.93844" lon="3.09163">
        <ele>371.6868896</ele>
        <time>2011-05-01T07:19:16Z</time>
      </trkpt>
      <trkpt lat="45.93848" lon="3.0917">
        <ele>371.2062988</ele>
        <time>2011-05-01T07:19:17Z</time>
      </trkpt>
      <trkpt lat="45.93887" lon="3.09239">
        <ele>371.2062988</ele>
        <time>2011-05-01T07:19:26Z</time>
      </trkpt>
      <trkpt lat="45.93917" lon="3.09309">
        <ele>368.8029785</ele>
        <time>2011-05-01T07:19:34Z</time>
      </trkpt>
      <trkpt lat="45.93938" lon="3.09363">
        <ele>368.8029785</ele>
        <time>2011-05-01T07:19:40Z</time>
      </trkpt>
      <trkpt lat="45.93959" lon="3.0939">
        <ele>369.7642822</ele>
        <time>2011-05-01T07:19:44Z</time>
      </trkpt>
      <trkpt lat="45.93985" lon="3.09425">
        <ele>368.8029785</ele>
        <time>2011-05-01T07:19:49Z</time>
      </trkpt>
      <trkpt lat="45.93988" lon="3.09435">
        <ele>368.3222656</ele>
        <time>2011-05-01T07:19:50Z</time>
      </trkpt>
      <trkpt lat="45.94003" lon="3.09516">
        <ele>366.880249</ele>
        <time>2011-05-01T07:19:58Z</time>
      </trkpt>
      <trkpt lat="45.94012" lon="3.09557">
        <ele>366.3995361</ele>
        <time>2011-05-01T07:20:02Z</time>
      </trkpt>
      <trkpt lat="45.94013" lon="3.09609">
        <ele>365.4383545</ele>
        <time>2011-05-01T07:20:07Z</time>
      </trkpt>
      <trkpt lat="45.94021" lon="3.0967">
        <ele>364.9576416</ele>
        <time>2011-05-01T07:20:13Z</time>
      </trkpt>
      <trkpt lat="45.94042" lon="3.09708">
        <ele>363.9963379</ele>
        <time>2011-05-01T07:20:18Z</time>
      </trkpt>
      <trkpt lat="45.94056" lon="3.09727">
        <ele>364.4769287</ele>
        <time>2011-05-01T07:20:21Z</time>
      </trkpt>
      <trkpt lat="45.94088" lon="3.09758">
        <ele>363.9963379</ele>
        <time>2011-05-01T07:20:27Z</time>
      </trkpt>
      <trkpt lat="45.94101" lon="3.09776">
        <ele>363.9963379</ele>
        <time>2011-05-01T07:20:30Z</time>
      </trkpt>
      <trkpt lat="45.94122" lon="3.09791">
        <ele>363.9963379</ele>
        <time>2011-05-01T07:20:35Z</time>
      </trkpt>
      <trkpt lat="45.94138" lon="3.09782">
        <ele>363.9963379</ele>
        <time>2011-05-01T07:20:39Z</time>
      </trkpt>
      <trkpt lat="45.94143" lon="3.09773">
        <ele>364.9576416</ele>
        <time>2011-05-01T07:20:41Z</time>
      </trkpt>
      <trkpt lat="45.94162" lon="3.09742">
        <ele>365.4383545</ele>
        <time>2011-05-01T07:20:48Z</time>
      </trkpt>
      <trkpt lat="45.94183" lon="3.09722">
        <ele>366.3995361</ele>
        <time>2011-05-01T07:20:54Z</time>
      </trkpt>
      <trkpt lat="45.94196" lon="3.09709">
        <ele>367.8415527</ele>
        <time>2011-05-01T07:20:58Z</time>
      </trkpt>
      <trkpt lat="45.94202" lon="3.09703">
        <ele>369.2836914</ele>
        <time>2011-05-01T07:21:00Z</time>
      </trkpt>
      <trkpt lat="45.94205" lon="3.097">
        <ele>369.2836914</ele>
        <time>2011-05-01T07:21:01Z</time>
      </trkpt>
      <trkpt lat="45.94221" lon="3.09684">
        <ele>371.6868896</ele>
        <time>2011-05-01T07:21:07Z</time>
      </trkpt>
      <trkpt lat="45.94231" lon="3.09676">
        <ele>373.6094971</ele>
        <time>2011-05-01T07:21:11Z</time>
      </trkpt>
      <trkpt lat="45.94243" lon="3.09664">
        <ele>375.5321045</ele>
        <time>2011-05-01T07:21:16Z</time>
      </trkpt>
      <trkpt lat="45.94247" lon="3.0966">
        <ele>376.9742432</ele>
        <time>2011-05-01T07:21:18Z</time>
      </trkpt>
      <trkpt lat="45.94249" lon="3.09657">
        <ele>376.9742432</ele>
        <time>2011-05-01T07:21:19Z</time>
      </trkpt>
      <trkpt lat="45.94253" lon="3.09653">
        <ele>378.4161377</ele>
        <time>2011-05-01T07:21:21Z</time>
      </trkpt>
      <trkpt lat="45.94263" lon="3.09639">
        <ele>380.3387451</ele>
        <time>2011-05-01T07:21:26Z</time>
      </trkpt>
      <trkpt lat="45.94267" lon="3.09629">
        <ele>381.3000488</ele>
        <time>2011-05-01T07:21:29Z</time>
      </trkpt>
      <trkpt lat="45.94276" lon="3.0961">
        <ele>383.2226563</ele>
        <time>2011-05-01T07:21:35Z</time>
      </trkpt>
      <trkpt lat="45.94288" lon="3.09587">
        <ele>385.1453857</ele>
        <time>2011-05-01T07:21:43Z</time>
      </trkpt>
      <trkpt lat="45.94295" lon="3.09572">
        <ele>386.1066895</ele>
        <time>2011-05-01T07:21:47Z</time>
      </trkpt>
      <trkpt lat="45.94309" lon="3.0954">
        <ele>387.0679932</ele>
        <time>2011-05-01T07:21:54Z</time>
      </trkpt>
      <trkpt lat="45.94326" lon="3.09502">
        <ele>387.548584</ele>
        <time>2011-05-01T07:22:02Z</time>
      </trkpt>
      <trkpt lat="45.94346" lon="3.09457">
        <ele>389.4711914</ele>
        <time>2011-05-01T07:22:12Z</time>
      </trkpt>
      <trkpt lat="45.94369" lon="3.09414">
        <ele>390.913208</ele>
        <time>2011-05-01T07:22:21Z</time>
      </trkpt>
      <trkpt lat="45.9438" lon="3.09397">
        <ele>391.3937988</ele>
        <time>2011-05-01T07:22:25Z</time>
      </trkpt>
      <trkpt lat="45.94394" lon="3.09381">
        <ele>391.3937988</ele>
        <time>2011-05-01T07:22:29Z</time>
      </trkpt>
      <trkpt lat="45.94425" lon="3.09334">
        <ele>391.8745117</ele>
        <time>2011-05-01T07:22:39Z</time>
      </trkpt>
      <trkpt lat="45.94433" lon="3.09317">
        <ele>391.8745117</ele>
        <time>2011-05-01T07:22:42Z</time>
      </trkpt>
      <trkpt lat="45.94451" lon="3.0926">
        <ele>392.8359375</ele>
        <time>2011-05-01T07:22:52Z</time>
      </trkpt>
      <trkpt lat="45.94464" lon="3.09217">
        <ele>394.2779541</ele>
        <time>2011-05-01T07:22:59Z</time>
      </trkpt>
      <trkpt lat="45.94482" lon="3.09162">
        <ele>395.2391357</ele>
        <time>2011-05-01T07:23:08Z</time>
      </trkpt>
      <trkpt lat="45.94501" lon="3.09099">
        <ele>395.7198486</ele>
        <time>2011-05-01T07:23:18Z</time>
      </trkpt>
      <trkpt lat="45.94515" lon="3.09048">
        <ele>397.6424561</ele>
        <time>2011-05-01T07:23:26Z</time>
      </trkpt>
      <trkpt lat="45.94517" lon="3.09043">
        <ele>398.1231689</ele>
        <time>2011-05-01T07:23:27Z</time>
      </trkpt>
      <trkpt lat="45.94534" lon="3.08992">
        <ele>399.0843506</ele>
        <time>2011-05-01T07:23:36Z</time>
      </trkpt>
      <trkpt lat="45.94552" lon="3.08939">
        <ele>400.0458984</ele>
        <time>2011-05-01T07:23:45Z</time>
      </trkpt>
      <trkpt lat="45.94569" lon="3.08888">
        <ele>401.9685059</ele>
        <time>2011-05-01T07:23:54Z</time>
      </trkpt>
      <trkpt lat="45.94583" lon="3.0884">
        <ele>403.4104004</ele>
        <time>2011-05-01T07:24:03Z</time>
      </trkpt>
      <trkpt lat="45.94596" lon="3.08804">
        <ele>405.3330078</ele>
        <time>2011-05-01T07:24:10Z</time>
      </trkpt>
      <trkpt lat="45.94613" lon="3.08756">
        <ele>406.2943115</ele>
        <time>2011-05-01T07:24:19Z</time>
      </trkpt>
      <trkpt lat="45.94624" lon="3.08718">
        <ele>404.8522949</ele>
        <time>2011-05-01T07:24:25Z</time>
      </trkpt>
      <trkpt lat="45.94643" lon="3.08676">
        <ele>402.4490967</ele>
        <time>2011-05-01T07:24:31Z</time>
      </trkpt>
      <trkpt lat="45.94654" lon="3.08627">
        <ele>401.9685059</ele>
        <time>2011-05-01T07:24:36Z</time>
      </trkpt>
      <trkpt lat="45.94653" lon="3.08617">
        <ele>401.487793</ele>
        <time>2011-05-01T07:24:37Z</time>
      </trkpt>
      <trkpt lat="45.94643" lon="3.08547">
        <ele>401.0070801</ele>
        <time>2011-05-01T07:24:44Z</time>
      </trkpt>
      <trkpt lat="45.94642" lon="3.0852">
        <ele>401.487793</ele>
        <time>2011-05-01T07:24:47Z</time>
      </trkpt>
      <trkpt lat="45.94649" lon="3.08488">
        <ele>401.487793</ele>
        <time>2011-05-01T07:24:51Z</time>
      </trkpt>
      <trkpt lat="45.94681" lon="3.08414">
        <ele>401.9685059</ele>
        <time>2011-05-01T07:25:01Z</time>
      </trkpt>
      <trkpt lat="45.94693" lon="3.08361">
        <ele>402.4490967</ele>
        <time>2011-05-01T07:25:08Z</time>
      </trkpt>
      <trkpt lat="45.94703" lon="3.08305">
        <ele>403.8911133</ele>
        <time>2011-05-01T07:25:16Z</time>
      </trkpt>
      <trkpt lat="45.94707" lon="3.08275">
        <ele>404.3717041</ele>
        <time>2011-05-01T07:25:20Z</time>
      </trkpt>
      <trkpt lat="45.94713" lon="3.08224">
        <ele>404.8522949</ele>
        <time>2011-05-01T07:25:27Z</time>
      </trkpt>
      <trkpt lat="45.94719" lon="3.08166">
        <ele>405.8137207</ele>
        <time>2011-05-01T07:25:35Z</time>
      </trkpt>
      <trkpt lat="45.94717" lon="3.08108">
        <ele>407.2556152</ele>
        <time>2011-05-01T07:25:43Z</time>
      </trkpt>
      <trkpt lat="45.94717" lon="3.08079">
        <ele>407.2556152</ele>
        <time>2011-05-01T07:25:47Z</time>
      </trkpt>
      <trkpt lat="45.94716" lon="3.08041">
        <ele>408.6976318</ele>
        <time>2011-05-01T07:25:53Z</time>
      </trkpt>
      <trkpt lat="45.94716" lon="3.07997">
        <ele>409.6590576</ele>
        <time>2011-05-01T07:26:00Z</time>
      </trkpt>
      <trkpt lat="45.9471" lon="3.07967">
        <ele>411.1009521</ele>
        <time>2011-05-01T07:26:06Z</time>
      </trkpt>
      <trkpt lat="45.94701" lon="3.07922">
        <ele>413.9848633</ele>
        <time>2011-05-01T07:26:15Z</time>
      </trkpt>
      <trkpt lat="45.94705" lon="3.07904">
        <ele>415.4268799</ele>
        <time>2011-05-01T07:26:19Z</time>
      </trkpt>
      <trkpt lat="45.94707" lon="3.07899">
        <ele>415.4268799</ele>
        <time>2011-05-01T07:26:20Z</time>
      </trkpt>
      <trkpt lat="45.94715" lon="3.07879">
        <ele>417.3496094</ele>
        <time>2011-05-01T07:26:25Z</time>
      </trkpt>
      <trkpt lat="45.94722" lon="3.07868">
        <ele>417.8302002</ele>
        <time>2011-05-01T07:26:29Z</time>
      </trkpt>
      <trkpt lat="45.94736" lon="3.0787">
        <ele>417.8302002</ele>
        <time>2011-05-01T07:26:33Z</time>
      </trkpt>
      <trkpt lat="45.94763" lon="3.07881">
        <ele>415.4268799</ele>
        <time>2011-05-01T07:26:39Z</time>
      </trkpt>
      <trkpt lat="45.94782" lon="3.07881">
        <ele>415.4268799</ele>
        <time>2011-05-01T07:26:43Z</time>
      </trkpt>
      <trkpt lat="45.94791" lon="3.07878">
        <ele>415.4268799</ele>
        <time>2011-05-01T07:26:45Z</time>
      </trkpt>
      <trkpt lat="45.94799" lon="3.07875">
        <ele>414.946167</ele>
        <time>2011-05-01T07:26:47Z</time>
      </trkpt>
      <trkpt lat="45.94806" lon="3.07856">
        <ele>415.9074707</ele>
        <time>2011-05-01T07:26:51Z</time>
      </trkpt>
      <trkpt lat="45.94808" lon="3.07835">
        <ele>416.3881836</ele>
        <time>2011-05-01T07:26:55Z</time>
      </trkpt>
      <trkpt lat="45.94811" lon="3.07797">
        <ele>418.310791</ele>
        <time>2011-05-01T07:27:03Z</time>
      </trkpt>
      <trkpt lat="45.94815" lon="3.07767">
        <ele>420.7141113</ele>
        <time>2011-05-01T07:27:11Z</time>
      </trkpt>
      <trkpt lat="45.9482" lon="3.07739">
        <ele>423.5980225</ele>
        <time>2011-05-01T07:27:20Z</time>
      </trkpt>
      <trkpt lat="45.94823" lon="3.07724">
        <ele>425.0401611</ele>
        <time>2011-05-01T07:27:25Z</time>
      </trkpt>
      <trkpt lat="45.94826" lon="3.07708">
        <ele>426.9627686</ele>
        <time>2011-05-01T07:27:31Z</time>
      </trkpt>
      <trkpt lat="45.94828" lon="3.07703">
        <ele>427.9239502</ele>
        <time>2011-05-01T07:27:33Z</time>
      </trkpt>
      <trkpt lat="45.9483" lon="3.07691">
        <ele>429.8465576</ele>
        <time>2011-05-01T07:27:38Z</time>
      </trkpt>
      <trkpt lat="45.94832" lon="3.07685">
        <ele>431.2885742</ele>
        <time>2011-05-01T07:27:41Z</time>
      </trkpt>
      <trkpt lat="45.94833" lon="3.0768">
        <ele>431.769165</ele>
        <time>2011-05-01T07:27:43Z</time>
      </trkpt>
      <trkpt lat="45.94829" lon="3.07665">
        <ele>432.7307129</ele>
        <time>2011-05-01T07:27:48Z</time>
      </trkpt>
      <trkpt lat="45.94829" lon="3.07662">
        <ele>433.2113037</ele>
        <time>2011-05-01T07:27:49Z</time>
      </trkpt>
      <trkpt lat="45.94831" lon="3.0763">
        <ele>435.1339111</ele>
        <time>2011-05-01T07:27:58Z</time>
      </trkpt>
      <trkpt lat="45.94832" lon="3.0762">
        <ele>435.1339111</ele>
        <time>2011-05-01T07:28:01Z</time>
      </trkpt>
      <trkpt lat="45.94834" lon="3.07609">
        <ele>435.614502</ele>
        <time>2011-05-01T07:28:05Z</time>
      </trkpt>
      <trkpt lat="45.94835" lon="3.07605">
        <ele>436.0952148</ele>
        <time>2011-05-01T07:28:06Z</time>
      </trkpt>
      <trkpt lat="45.94838" lon="3.07585">
        <ele>437.5371094</ele>
        <time>2011-05-01T07:28:11Z</time>
      </trkpt>
      <trkpt lat="45.94848" lon="3.07581">
        <ele>438.0178223</ele>
        <time>2011-05-01T07:28:15Z</time>
      </trkpt>
      <trkpt lat="45.9487" lon="3.07594">
        <ele>438.0178223</ele>
        <time>2011-05-01T07:28:23Z</time>
      </trkpt>
      <trkpt lat="45.94887" lon="3.07604">
        <ele>436.5759277</ele>
        <time>2011-05-01T07:28:28Z</time>
      </trkpt>
      <trkpt lat="45.94889" lon="3.07605">
        <ele>436.0952148</ele>
        <time>2011-05-01T07:28:29Z</time>
      </trkpt>
      <trkpt lat="45.94897" lon="3.07593">
        <ele>436.5759277</ele>
        <time>2011-05-01T07:28:33Z</time>
      </trkpt>
      <trkpt lat="45.94898" lon="3.07586">
        <ele>437.5371094</ele>
        <time>2011-05-01T07:28:35Z</time>
      </trkpt>
      <trkpt lat="45.94902" lon="3.07567">
        <ele>438.979126</ele>
        <time>2011-05-01T07:28:41Z</time>
      </trkpt>
      <trkpt lat="45.94908" lon="3.07542">
        <ele>441.3824463</ele>
        <time>2011-05-01T07:28:48Z</time>
      </trkpt>
      <trkpt lat="45.94911" lon="3.07528">
        <ele>443.3050537</ele>
        <time>2011-05-01T07:28:52Z</time>
      </trkpt>
      <trkpt lat="45.94914" lon="3.07508">
        <ele>443.3050537</ele>
        <time>2011-05-01T07:28:58Z</time>
      </trkpt>
      <trkpt lat="45.94901" lon="3.07495">
        <ele>443.7857666</ele>
        <time>2011-05-01T07:29:04Z</time>
      </trkpt>
      <trkpt lat="45.94882" lon="3.07479">
        <ele>445.708374</ele>
        <time>2011-05-01T07:29:12Z</time>
      </trkpt>
      <trkpt lat="45.94861" lon="3.07468">
        <ele>447.1502686</ele>
        <time>2011-05-01T07:29:20Z</time>
      </trkpt>
      <trkpt lat="45.94847" lon="3.07458">
        <ele>448.5924072</ele>
        <time>2011-05-01T07:29:27Z</time>
      </trkpt>
      <trkpt lat="45.9484" lon="3.07456">
        <ele>449.072998</ele>
        <time>2011-05-01T07:29:31Z</time>
      </trkpt>
      <trkpt lat="45.94838" lon="3.0745">
        <ele>449.072998</ele>
        <time>2011-05-01T07:29:37Z</time>
      </trkpt>
      <trkpt lat="45.94839" lon="3.07451">
        <ele>448.5924072</ele>
        <time>2011-05-01T07:29:44Z</time>
      </trkpt>
      <trkpt lat="45.94848" lon="3.07458">
        <ele>448.5924072</ele>
        <time>2011-05-01T07:29:49Z</time>
      </trkpt>
      <trkpt lat="45.94867" lon="3.07472">
        <ele>447.6309814</ele>
        <time>2011-05-01T07:29:54Z</time>
      </trkpt>
      <trkpt lat="45.94882" lon="3.07481">
        <ele>446.6696777</ele>
        <time>2011-05-01T07:29:57Z</time>
      </trkpt>
      <trkpt lat="45.94903" lon="3.07498">
        <ele>444.2664795</ele>
        <time>2011-05-01T07:30:01Z</time>
      </trkpt>
      <trkpt lat="45.94917" lon="3.07498">
        <ele>443.3050537</ele>
        <time>2011-05-01T07:30:05Z</time>
      </trkpt>
      <trkpt lat="45.94922" lon="3.07479">
        <ele>441.8631592</ele>
        <time>2011-05-01T07:30:08Z</time>
      </trkpt>
      <trkpt lat="45.94921" lon="3.07449">
        <ele>439.9404297</ele>
        <time>2011-05-01T07:30:11Z</time>
      </trkpt>
      <trkpt lat="45.94919" lon="3.07424">
        <ele>438.979126</ele>
        <time>2011-05-01T07:30:13Z</time>
      </trkpt>
      <trkpt lat="45.94918" lon="3.07411">
        <ele>437.5371094</ele>
        <time>2011-05-01T07:30:14Z</time>
      </trkpt>
      <trkpt lat="45.9492" lon="3.07387">
        <ele>438.4985352</ele>
        <time>2011-05-01T07:30:16Z</time>
      </trkpt>
      <trkpt lat="45.94921" lon="3.07364">
        <ele>438.4985352</ele>
        <time>2011-05-01T07:30:18Z</time>
      </trkpt>
      <trkpt lat="45.9492" lon="3.0732">
        <ele>438.4985352</ele>
        <time>2011-05-01T07:30:23Z</time>
      </trkpt>
      <trkpt lat="45.94919" lon="3.0731">
        <ele>439.4597168</ele>
        <time>2011-05-01T07:30:25Z</time>
      </trkpt>
      <trkpt lat="45.94912" lon="3.07281">
        <ele>440.4212646</ele>
        <time>2011-05-01T07:30:32Z</time>
      </trkpt>
      <trkpt lat="45.94908" lon="3.0727">
        <ele>441.3824463</ele>
        <time>2011-05-01T07:30:35Z</time>
      </trkpt>
      <trkpt lat="45.94904" lon="3.07258">
        <ele>442.8244629</ele>
        <time>2011-05-01T07:30:38Z</time>
      </trkpt>
      <trkpt lat="45.949" lon="3.07248">
        <ele>443.7857666</ele>
        <time>2011-05-01T07:30:41Z</time>
      </trkpt>
      <trkpt lat="45.94898" lon="3.0724">
        <ele>445.2276611</ele>
        <time>2011-05-01T07:30:43Z</time>
      </trkpt>
      <trkpt lat="45.94895" lon="3.07221">
        <ele>445.708374</ele>
        <time>2011-05-01T07:30:48Z</time>
      </trkpt>
      <trkpt lat="45.94893" lon="3.07213">
        <ele>446.6696777</ele>
        <time>2011-05-01T07:30:50Z</time>
      </trkpt>
      <trkpt lat="45.94893" lon="3.0721">
        <ele>446.6696777</ele>
        <time>2011-05-01T07:30:51Z</time>
      </trkpt>
      <trkpt lat="45.9489" lon="3.07191">
        <ele>447.6309814</ele>
        <time>2011-05-01T07:30:56Z</time>
      </trkpt>
      <trkpt lat="45.94888" lon="3.07176">
        <ele>449.072998</ele>
        <time>2011-05-01T07:31:00Z</time>
      </trkpt>
      <trkpt lat="45.94888" lon="3.07172">
        <ele>449.5537109</ele>
        <time>2011-05-01T07:31:01Z</time>
      </trkpt>
      <trkpt lat="45.94886" lon="3.07153">
        <ele>450.9956055</ele>
        <time>2011-05-01T07:31:06Z</time>
      </trkpt>
      <trkpt lat="45.94882" lon="3.07118">
        <ele>451.9570313</ele>
        <time>2011-05-01T07:31:15Z</time>
      </trkpt>
      <trkpt lat="45.94878" lon="3.07088">
        <ele>454.3602295</ele>
        <time>2011-05-01T07:31:23Z</time>
      </trkpt>
      <trkpt lat="45.94874" lon="3.07057">
        <ele>455.8022461</ele>
        <time>2011-05-01T07:31:32Z</time>
      </trkpt>
      <trkpt lat="45.94862" lon="3.07027">
        <ele>454.8408203</ele>
        <time>2011-05-01T07:31:39Z</time>
      </trkpt>
      <trkpt lat="45.94855" lon="3.07007">
        <ele>454.8408203</ele>
        <time>2011-05-01T07:31:43Z</time>
      </trkpt>
      <trkpt lat="45.94852" lon="3.06994">
        <ele>453.8796387</ele>
        <time>2011-05-01T07:31:45Z</time>
      </trkpt>
      <trkpt lat="45.94848" lon="3.06978">
        <ele>453.3989258</ele>
        <time>2011-05-01T07:31:47Z</time>
      </trkpt>
      <trkpt lat="45.94837" lon="3.06954">
        <ele>450.9956055</ele>
        <time>2011-05-01T07:31:50Z</time>
      </trkpt>
      <trkpt lat="45.94824" lon="3.06928">
        <ele>449.5537109</ele>
        <time>2011-05-01T07:31:53Z</time>
      </trkpt>
      <trkpt lat="45.94821" lon="3.0691">
        <ele>450.0344238</ele>
        <time>2011-05-01T07:31:55Z</time>
      </trkpt>
      <trkpt lat="45.9482" lon="3.06897">
        <ele>449.5537109</ele>
        <time>2011-05-01T07:31:57Z</time>
      </trkpt>
      <trkpt lat="45.94821" lon="3.06895">
        <ele>450.0344238</ele>
        <time>2011-05-01T07:31:59Z</time>
      </trkpt>
      <trkpt lat="45.94828" lon="3.06897">
        <ele>449.5537109</ele>
        <time>2011-05-01T07:32:04Z</time>
      </trkpt>
      <trkpt lat="45.94837" lon="3.06893">
        <ele>450.0344238</ele>
        <time>2011-05-01T07:32:09Z</time>
      </trkpt>
      <trkpt lat="45.94845" lon="3.06889">
        <ele>450.5150146</ele>
        <time>2011-05-01T07:32:14Z</time>
      </trkpt>
      <trkpt lat="45.94851" lon="3.06884">
        <ele>450.5150146</ele>
        <time>2011-05-01T07:32:20Z</time>
      </trkpt>
      <trkpt lat="45.94858" lon="3.06876">
        <ele>451.9570313</ele>
        <time>2011-05-01T07:32:26Z</time>
      </trkpt>
      <trkpt lat="45.94865" lon="3.06868">
        <ele>453.3989258</ele>
        <time>2011-05-01T07:32:32Z</time>
      </trkpt>
      <trkpt lat="45.94875" lon="3.06858">
        <ele>455.3215332</ele>
        <time>2011-05-01T07:32:38Z</time>
      </trkpt>
      <trkpt lat="45.94884" lon="3.06855">
        <ele>456.7635498</ele>
        <time>2011-05-01T07:32:42Z</time>
      </trkpt>
      <trkpt lat="45.94889" lon="3.06854">
        <ele>457.7249756</ele>
        <time>2011-05-01T07:32:44Z</time>
      </trkpt>
      <trkpt lat="45.94902" lon="3.06853">
        <ele>459.1668701</ele>
        <time>2011-05-01T07:32:50Z</time>
      </trkpt>
      <trkpt lat="45.94914" lon="3.06853">
        <ele>459.647583</ele>
        <time>2011-05-01T07:32:55Z</time>
      </trkpt>
      <trkpt lat="45.94928" lon="3.0685">
        <ele>461.5701904</ele>
        <time>2011-05-01T07:33:02Z</time>
      </trkpt>
      <trkpt lat="45.94944" lon="3.06849">
        <ele>463.9733887</ele>
        <time>2011-05-01T07:33:10Z</time>
      </trkpt>
      <trkpt lat="45.94959" lon="3.06841">
        <ele>464.9348145</ele>
        <time>2011-05-01T07:33:16Z</time>
      </trkpt>
      <trkpt lat="45.94969" lon="3.06835">
        <ele>465.8961182</ele>
        <time>2011-05-01T07:33:21Z</time>
      </trkpt>
      <trkpt lat="45.94979" lon="3.06824">
        <ele>467.8187256</ele>
        <time>2011-05-01T07:33:26Z</time>
      </trkpt>
      <trkpt lat="45.94981" lon="3.06806">
        <ele>468.7800293</ele>
        <time>2011-05-01T07:33:31Z</time>
      </trkpt>
      <trkpt lat="45.9498" lon="3.06782">
        <ele>469.741333</ele>
        <time>2011-05-01T07:33:37Z</time>
      </trkpt>
      <trkpt lat="45.94975" lon="3.06762">
        <ele>471.1833496</ele>
        <time>2011-05-01T07:33:42Z</time>
      </trkpt>
      <trkpt lat="45.94968" lon="3.06748">
        <ele>472.1446533</ele>
        <time>2011-05-01T07:33:46Z</time>
      </trkpt>
      <trkpt lat="45.94966" lon="3.0673">
        <ele>473.1060791</ele>
        <time>2011-05-01T07:33:51Z</time>
      </trkpt>
      <trkpt lat="45.94968" lon="3.06708">
        <ele>474.5479736</ele>
        <time>2011-05-01T07:33:57Z</time>
      </trkpt>
      <trkpt lat="45.94966" lon="3.06691">
        <ele>475.9898682</ele>
        <time>2011-05-01T07:34:02Z</time>
      </trkpt>
      <trkpt lat="45.94966" lon="3.06688">
        <ele>476.4705811</ele>
        <time>2011-05-01T07:34:03Z</time>
      </trkpt>
      <trkpt lat="45.94962" lon="3.0667">
        <ele>476.9512939</ele>
        <time>2011-05-01T07:34:08Z</time>
      </trkpt>
      <trkpt lat="45.94959" lon="3.06649">
        <ele>478.3931885</ele>
        <time>2011-05-01T07:34:14Z</time>
      </trkpt>
      <trkpt lat="45.94954" lon="3.06625">
        <ele>480.7966309</ele>
        <time>2011-05-01T07:34:21Z</time>
      </trkpt>
      <trkpt lat="45.9495" lon="3.06605">
        <ele>483.1998291</ele>
        <time>2011-05-01T07:34:28Z</time>
      </trkpt>
      <trkpt lat="45.94949" lon="3.06585">
        <ele>484.1611328</ele>
        <time>2011-05-01T07:34:34Z</time>
      </trkpt>
      <trkpt lat="45.94945" lon="3.06572">
        <ele>484.6418457</ele>
        <time>2011-05-01T07:34:38Z</time>
      </trkpt>
      <trkpt lat="45.9494" lon="3.06551">
        <ele>486.5644531</ele>
        <time>2011-05-01T07:34:44Z</time>
      </trkpt>
      <trkpt lat="45.94933" lon="3.06526">
        <ele>487.0450439</ele>
        <time>2011-05-01T07:34:51Z</time>
      </trkpt>
      <trkpt lat="45.94923" lon="3.06507">
        <ele>488.4871826</ele>
        <time>2011-05-01T07:34:57Z</time>
      </trkpt>
      <trkpt lat="45.94908" lon="3.06491">
        <ele>488.4871826</ele>
        <time>2011-05-01T07:35:03Z</time>
      </trkpt>
      <trkpt lat="45.94895" lon="3.0648">
        <ele>488.9677734</ele>
        <time>2011-05-01T07:35:08Z</time>
      </trkpt>
      <trkpt lat="45.9488" lon="3.06475">
        <ele>489.9290771</ele>
        <time>2011-05-01T07:35:13Z</time>
      </trkpt>
      <trkpt lat="45.94861" lon="3.06479">
        <ele>490.8903809</ele>
        <time>2011-05-01T07:35:19Z</time>
      </trkpt>
      <trkpt lat="45.94855" lon="3.06482">
        <ele>490.40979</ele>
        <time>2011-05-01T07:35:21Z</time>
      </trkpt>
      <trkpt lat="45.94828" lon="3.06495">
        <ele>490.40979</ele>
        <time>2011-05-01T07:35:27Z</time>
      </trkpt>
      <trkpt lat="45.94818" lon="3.06497">
        <ele>489.9290771</ele>
        <time>2011-05-01T07:35:29Z</time>
      </trkpt>
      <trkpt lat="45.94798" lon="3.06488">
        <ele>490.40979</ele>
        <time>2011-05-01T07:35:34Z</time>
      </trkpt>
      <trkpt lat="45.94802" lon="3.0647">
        <ele>490.8903809</ele>
        <time>2011-05-01T07:35:37Z</time>
      </trkpt>
      <trkpt lat="45.94811" lon="3.06454">
        <ele>491.3709717</ele>
        <time>2011-05-01T07:35:41Z</time>
      </trkpt>
      <trkpt lat="45.94822" lon="3.06435">
        <ele>492.3323975</ele>
        <time>2011-05-01T07:35:46Z</time>
      </trkpt>
      <trkpt lat="45.94827" lon="3.06424">
        <ele>493.2935791</ele>
        <time>2011-05-01T07:35:50Z</time>
      </trkpt>
      <trkpt lat="45.94831" lon="3.06404">
        <ele>494.2550049</ele>
        <time>2011-05-01T07:35:56Z</time>
      </trkpt>
      <trkpt lat="45.94837" lon="3.06383">
        <ele>495.6968994</ele>
        <time>2011-05-01T07:36:01Z</time>
      </trkpt>
      <trkpt lat="45.94837" lon="3.06378">
        <ele>495.2161865</ele>
        <time>2011-05-01T07:36:02Z</time>
      </trkpt>
      <trkpt lat="45.94835" lon="3.06348">
        <ele>496.1777344</ele>
        <time>2011-05-01T07:36:08Z</time>
      </trkpt>
      <trkpt lat="45.94829" lon="3.06329">
        <ele>497.138916</ele>
        <time>2011-05-01T07:36:12Z</time>
      </trkpt>
      <trkpt lat="45.94822" lon="3.06306">
        <ele>497.6196289</ele>
        <time>2011-05-01T07:36:17Z</time>
      </trkpt>
      <trkpt lat="45.94818" lon="3.0629">
        <ele>498.1003418</ele>
        <time>2011-05-01T07:36:21Z</time>
      </trkpt>
      <trkpt lat="45.94812" lon="3.06269">
        <ele>499.0615234</ele>
        <time>2011-05-01T07:36:26Z</time>
      </trkpt>
      <trkpt lat="45.94805" lon="3.06249">
        <ele>500.50354</ele>
        <time>2011-05-01T07:36:31Z</time>
      </trkpt>
      <trkpt lat="45.948" lon="3.06231">
        <ele>500.9841309</ele>
        <time>2011-05-01T07:36:36Z</time>
      </trkpt>
      <trkpt lat="45.94788" lon="3.06211">
        <ele>502.4261475</ele>
        <time>2011-05-01T07:36:42Z</time>
      </trkpt>
      <trkpt lat="45.94778" lon="3.06199">
        <ele>503.8681641</ele>
        <time>2011-05-01T07:36:47Z</time>
      </trkpt>
      <trkpt lat="45.94769" lon="3.06191">
        <ele>504.8294678</ele>
        <time>2011-05-01T07:36:51Z</time>
      </trkpt>
      <trkpt lat="45.94755" lon="3.06184">
        <ele>505.7908936</ele>
        <time>2011-05-01T07:36:57Z</time>
      </trkpt>
      <trkpt lat="45.94743" lon="3.06184">
        <ele>506.7520752</ele>
        <time>2011-05-01T07:37:02Z</time>
      </trkpt>
      <trkpt lat="45.94728" lon="3.06181">
        <ele>507.713501</ele>
        <time>2011-05-01T07:37:08Z</time>
      </trkpt>
      <trkpt lat="45.9471" lon="3.06172">
        <ele>508.6746826</ele>
        <time>2011-05-01T07:37:15Z</time>
      </trkpt>
      <trkpt lat="45.94697" lon="3.06166">
        <ele>509.6361084</ele>
        <time>2011-05-01T07:37:20Z</time>
      </trkpt>
      <trkpt lat="45.94684" lon="3.06164">
        <ele>510.59729</ele>
        <time>2011-05-01T07:37:25Z</time>
      </trkpt>
      <trkpt lat="45.94678" lon="3.06166">
        <ele>511.5587158</ele>
        <time>2011-05-01T07:37:27Z</time>
      </trkpt>
      <trkpt lat="45.94664" lon="3.06152">
        <ele>513.0007324</ele>
        <time>2011-05-01T07:37:34Z</time>
      </trkpt>
      <trkpt lat="45.94651" lon="3.06141">
        <ele>514.9233398</ele>
        <time>2011-05-01T07:37:40Z</time>
      </trkpt>
      <trkpt lat="45.94638" lon="3.06133">
        <ele>516.8459473</ele>
        <time>2011-05-01T07:37:46Z</time>
      </trkpt>
      <trkpt lat="45.94625" lon="3.06125">
        <ele>517.807251</ele>
        <time>2011-05-01T07:37:52Z</time>
      </trkpt>
      <trkpt lat="45.94609" lon="3.06121">
        <ele>519.2492676</ele>
        <time>2011-05-01T07:37:58Z</time>
      </trkpt>
      <trkpt lat="45.94597" lon="3.06114">
        <ele>519.7298584</ele>
        <time>2011-05-01T07:38:03Z</time>
      </trkpt>
      <trkpt lat="45.94584" lon="3.06108">
        <ele>520.6912842</ele>
        <time>2011-05-01T07:38:09Z</time>
      </trkpt>
      <trkpt lat="45.94568" lon="3.06101">
        <ele>522.1331787</ele>
        <time>2011-05-01T07:38:15Z</time>
      </trkpt>
      <trkpt lat="45.94557" lon="3.06094">
        <ele>523.0946045</ele>
        <time>2011-05-01T07:38:20Z</time>
      </trkpt>
      <trkpt lat="45.94544" lon="3.06084">
        <ele>524.0557861</ele>
        <time>2011-05-01T07:38:26Z</time>
      </trkpt>
      <trkpt lat="45.94532" lon="3.06075">
        <ele>525.0172119</ele>
        <time>2011-05-01T07:38:31Z</time>
      </trkpt>
      <trkpt lat="45.94525" lon="3.06066">
        <ele>525.0172119</ele>
        <time>2011-05-01T07:38:34Z</time>
      </trkpt>
      <trkpt lat="45.94532" lon="3.06052">
        <ele>525.0172119</ele>
        <time>2011-05-01T07:38:38Z</time>
      </trkpt>
      <trkpt lat="45.94537" lon="3.06047">
        <ele>525.0172119</ele>
        <time>2011-05-01T07:38:40Z</time>
      </trkpt>
      <trkpt lat="45.94557" lon="3.06035">
        <ele>525.9783936</ele>
        <time>2011-05-01T07:38:46Z</time>
      </trkpt>
      <trkpt lat="45.94575" lon="3.06018">
        <ele>525.9783936</ele>
        <time>2011-05-01T07:38:52Z</time>
      </trkpt>
      <trkpt lat="45.9458" lon="3.06013">
        <ele>526.4591064</ele>
        <time>2011-05-01T07:38:54Z</time>
      </trkpt>
      <trkpt lat="45.94588" lon="3.05999">
        <ele>527.901001</ele>
        <time>2011-05-01T07:39:00Z</time>
      </trkpt>
      <trkpt lat="45.946" lon="3.05998">
        <ele>528.3818359</ele>
        <time>2011-05-01T07:39:04Z</time>
      </trkpt>
      <trkpt lat="45.94617" lon="3.05995">
        <ele>529.8237305</ele>
        <time>2011-05-01T07:39:10Z</time>
      </trkpt>
      <trkpt lat="45.94634" lon="3.05999">
        <ele>530.7851563</ele>
        <time>2011-05-01T07:39:15Z</time>
      </trkpt>
      <trkpt lat="45.94649" lon="3.06">
        <ele>531.7463379</ele>
        <time>2011-05-01T07:39:20Z</time>
      </trkpt>
      <trkpt lat="45.94665" lon="3.06002">
        <ele>532.2270508</ele>
        <time>2011-05-01T07:39:25Z</time>
      </trkpt>
      <trkpt lat="45.94683" lon="3.06001">
        <ele>532.7077637</ele>
        <time>2011-05-01T07:39:31Z</time>
      </trkpt>
      <trkpt lat="45.94699" lon="3.05996">
        <ele>533.1883545</ele>
        <time>2011-05-01T07:39:36Z</time>
      </trkpt>
      <trkpt lat="45.94712" lon="3.05984">
        <ele>534.1496582</ele>
        <time>2011-05-01T07:39:41Z</time>
      </trkpt>
      <trkpt lat="45.94714" lon="3.05965">
        <ele>535.1109619</ele>
        <time>2011-05-01T07:39:45Z</time>
      </trkpt>
      <trkpt lat="45.94712" lon="3.0595">
        <ele>535.5915527</ele>
        <time>2011-05-01T07:39:49Z</time>
      </trkpt>
      <trkpt lat="45.94707" lon="3.05931">
        <ele>537.0336914</ele>
        <time>2011-05-01T07:39:55Z</time>
      </trkpt>
      <trkpt lat="45.94698" lon="3.05919">
        <ele>538.475708</ele>
        <time>2011-05-01T07:40:00Z</time>
      </trkpt>
      <trkpt lat="45.94691" lon="3.05909">
        <ele>539.9176025</ele>
        <time>2011-05-01T07:40:04Z</time>
      </trkpt>
      <trkpt lat="45.94685" lon="3.059">
        <ele>540.8789063</ele>
        <time>2011-05-01T07:40:08Z</time>
      </trkpt>
      <trkpt lat="45.94682" lon="3.05895">
        <ele>541.3594971</ele>
        <time>2011-05-01T07:40:10Z</time>
      </trkpt>
      <trkpt lat="45.94673" lon="3.05889">
        <ele>541.3594971</ele>
        <time>2011-05-01T07:40:14Z</time>
      </trkpt>
      <trkpt lat="45.94654" lon="3.05879">
        <ele>543.2821045</ele>
        <time>2011-05-01T07:40:22Z</time>
      </trkpt>
      <trkpt lat="45.94652" lon="3.05878">
        <ele>543.7628174</ele>
        <time>2011-05-01T07:40:24Z</time>
      </trkpt>
      <trkpt lat="45.94642" lon="3.05886">
        <ele>546.1662598</ele>
        <time>2011-05-01T07:40:32Z</time>
      </trkpt>
      <trkpt lat="45.94635" lon="3.05894">
        <ele>547.6081543</ele>
        <time>2011-05-01T07:40:38Z</time>
      </trkpt>
      <trkpt lat="45.94625" lon="3.05901">
        <ele>548.5693359</ele>
        <time>2011-05-01T07:40:44Z</time>
      </trkpt>
      <trkpt lat="45.94612" lon="3.0591">
        <ele>549.5307617</ele>
        <time>2011-05-01T07:40:50Z</time>
      </trkpt>
      <trkpt lat="45.94608" lon="3.05912">
        <ele>550.0114746</ele>
        <time>2011-05-01T07:40:52Z</time>
      </trkpt>
      <trkpt lat="45.94593" lon="3.05919">
        <ele>550.4921875</ele>
        <time>2011-05-01T07:40:59Z</time>
      </trkpt>
      <trkpt lat="45.94579" lon="3.05926">
        <ele>551.4533691</ele>
        <time>2011-05-01T07:41:05Z</time>
      </trkpt>
      <trkpt lat="45.94566" lon="3.05931">
        <ele>552.8952637</ele>
        <time>2011-05-01T07:41:11Z</time>
      </trkpt>
      <trkpt lat="45.94559" lon="3.05934">
        <ele>555.298584</ele>
        <time>2011-05-01T07:41:15Z</time>
      </trkpt>
      <trkpt lat="45.94547" lon="3.05937">
        <ele>557.2214355</ele>
        <time>2011-05-01T07:41:22Z</time>
      </trkpt>
      <trkpt lat="45.94533" lon="3.05939">
        <ele>557.7021484</ele>
        <time>2011-05-01T07:41:28Z</time>
      </trkpt>
      <trkpt lat="45.94522" lon="3.05935">
        <ele>559.6247559</ele>
        <time>2011-05-01T07:41:34Z</time>
      </trkpt>
      <trkpt lat="45.94509" lon="3.05932">
        <ele>561.5473633</ele>
        <time>2011-05-01T07:41:40Z</time>
      </trkpt>
      <trkpt lat="45.94508" lon="3.05931">
        <ele>561.5473633</ele>
        <time>2011-05-01T07:41:41Z</time>
      </trkpt>
      <trkpt lat="45.94498" lon="3.05927">
        <ele>562.9892578</ele>
        <time>2011-05-01T07:41:47Z</time>
      </trkpt>
      <trkpt lat="45.94491" lon="3.05923">
        <ele>563.4699707</ele>
        <time>2011-05-01T07:41:51Z</time>
      </trkpt>
      <trkpt lat="45.94482" lon="3.05908">
        <ele>564.9118652</ele>
        <time>2011-05-01T07:42:00Z</time>
      </trkpt>
      <trkpt lat="45.94479" lon="3.05902">
        <ele>566.3537598</ele>
        <time>2011-05-01T07:42:03Z</time>
      </trkpt>
      <trkpt lat="45.9447" lon="3.05888">
        <ele>568.2763672</ele>
        <time>2011-05-01T07:42:10Z</time>
      </trkpt>
      <trkpt lat="45.9446" lon="3.05875">
        <ele>569.237793</ele>
        <time>2011-05-01T07:42:16Z</time>
      </trkpt>
      <trkpt lat="45.94448" lon="3.05866">
        <ele>570.6796875</ele>
        <time>2011-05-01T07:42:23Z</time>
      </trkpt>
      <trkpt lat="45.94439" lon="3.05866">
        <ele>572.1218262</ele>
        <time>2011-05-01T07:42:29Z</time>
      </trkpt>
      <trkpt lat="45.94435" lon="3.05864">
        <ele>573.5639648</ele>
        <time>2011-05-01T07:42:35Z</time>
      </trkpt>
      <trkpt lat="45.94433" lon="3.05864">
        <ele>575.0058594</ele>
        <time>2011-05-01T07:42:42Z</time>
      </trkpt>
      <trkpt lat="45.94429" lon="3.05865">
        <ele>576.9284668</ele>
        <time>2011-05-01T07:42:46Z</time>
      </trkpt>
      <trkpt lat="45.94422" lon="3.05867">
        <ele>578.8510742</ele>
        <time>2011-05-01T07:42:52Z</time>
      </trkpt>
      <trkpt lat="45.9442" lon="3.05867">
        <ele>579.331543</ele>
        <time>2011-05-01T07:42:54Z</time>
      </trkpt>
      <trkpt lat="45.94408" lon="3.05865">
        <ele>580.2929688</ele>
        <time>2011-05-01T07:43:02Z</time>
      </trkpt>
      <trkpt lat="45.94397" lon="3.05858">
        <ele>581.2543945</ele>
        <time>2011-05-01T07:43:10Z</time>
      </trkpt>
      <trkpt lat="45.94389" lon="3.05855">
        <ele>583.1767578</ele>
        <time>2011-05-01T07:43:17Z</time>
      </trkpt>
      <trkpt lat="45.94378" lon="3.05855">
        <ele>585.0996094</ele>
        <time>2011-05-01T07:43:25Z</time>
      </trkpt>
      <trkpt lat="45.94371" lon="3.05859">
        <ele>585.5800781</ele>
        <time>2011-05-01T07:43:32Z</time>
      </trkpt>
      <trkpt lat="45.94362" lon="3.05868">
        <ele>585.5800781</ele>
        <time>2011-05-01T07:43:38Z</time>
      </trkpt>
      <trkpt lat="45.94356" lon="3.05872">
        <ele>586.060791</ele>
        <time>2011-05-01T07:43:41Z</time>
      </trkpt>
      <trkpt lat="45.94341" lon="3.05874">
        <ele>587.9833984</ele>
        <time>2011-05-01T07:43:48Z</time>
      </trkpt>
      <trkpt lat="45.94338" lon="3.05875">
        <ele>587.9833984</ele>
        <time>2011-05-01T07:43:49Z</time>
      </trkpt>
      <trkpt lat="45.94323" lon="3.0588">
        <ele>589.90625</ele>
        <time>2011-05-01T07:43:56Z</time>
      </trkpt>
      <trkpt lat="45.9431" lon="3.05887">
        <ele>590.8674316</ele>
        <time>2011-05-01T07:44:03Z</time>
      </trkpt>
      <trkpt lat="45.94299" lon="3.05889">
        <ele>592.7902832</ele>
        <time>2011-05-01T07:44:10Z</time>
      </trkpt>
      <trkpt lat="45.94289" lon="3.05891">
        <ele>594.7126465</ele>
        <time>2011-05-01T07:44:16Z</time>
      </trkpt>
      <trkpt lat="45.94277" lon="3.05893">
        <ele>597.5966797</ele>
        <time>2011-05-01T07:44:24Z</time>
      </trkpt>
      <trkpt lat="45.94276" lon="3.05893">
        <ele>597.1159668</ele>
        <time>2011-05-01T07:44:25Z</time>
      </trkpt>
      <trkpt lat="45.94267" lon="3.05894">
        <ele>600.4807129</ele>
        <time>2011-05-01T07:44:32Z</time>
      </trkpt>
      <trkpt lat="45.94259" lon="3.05895">
        <ele>602.4030762</ele>
        <time>2011-05-01T07:44:39Z</time>
      </trkpt>
      <trkpt lat="45.94253" lon="3.05896">
        <ele>602.8837891</ele>
        <time>2011-05-01T07:44:43Z</time>
      </trkpt>
      <trkpt lat="45.94242" lon="3.05899">
        <ele>604.3261719</ele>
        <time>2011-05-01T07:44:50Z</time>
      </trkpt>
      <trkpt lat="45.94229" lon="3.05901">
        <ele>605.2873535</ele>
        <time>2011-05-01T07:44:57Z</time>
      </trkpt>
      <trkpt lat="45.94215" lon="3.05901">
        <ele>605.7680664</ele>
        <time>2011-05-01T07:45:03Z</time>
      </trkpt>
      <trkpt lat="45.94194" lon="3.05904">
        <ele>606.2485352</ele>
        <time>2011-05-01T07:45:10Z</time>
      </trkpt>
      <trkpt lat="45.94174" lon="3.05907">
        <ele>606.729248</ele>
        <time>2011-05-01T07:45:16Z</time>
      </trkpt>
      <trkpt lat="45.94152" lon="3.0591">
        <ele>606.729248</ele>
        <time>2011-05-01T07:45:22Z</time>
      </trkpt>
      <trkpt lat="45.94137" lon="3.0591">
        <ele>606.729248</ele>
        <time>2011-05-01T07:45:26Z</time>
      </trkpt>
      <trkpt lat="45.94115" lon="3.05912">
        <ele>606.2485352</ele>
        <time>2011-05-01T07:45:32Z</time>
      </trkpt>
      <trkpt lat="45.94102" lon="3.05902">
        <ele>606.729248</ele>
        <time>2011-05-01T07:45:36Z</time>
      </trkpt>
      <trkpt lat="45.94095" lon="3.05889">
        <ele>607.2099609</ele>
        <time>2011-05-01T07:45:40Z</time>
      </trkpt>
      <trkpt lat="45.94092" lon="3.05874">
        <ele>608.1713867</ele>
        <time>2011-05-01T07:45:45Z</time>
      </trkpt>
      <trkpt lat="45.94088" lon="3.05856">
        <ele>609.6132813</ele>
        <time>2011-05-01T07:45:51Z</time>
      </trkpt>
      <trkpt lat="45.94082" lon="3.05837">
        <ele>611.5358887</ele>
        <time>2011-05-01T07:45:57Z</time>
      </trkpt>
      <trkpt lat="45.94075" lon="3.05822">
        <ele>613.4584961</ele>
        <time>2011-05-01T07:46:03Z</time>
      </trkpt>
      <trkpt lat="45.94069" lon="3.05803">
        <ele>614.9003906</ele>
        <time>2011-05-01T07:46:10Z</time>
      </trkpt>
      <trkpt lat="45.94062" lon="3.05779">
        <ele>616.3422852</ele>
        <time>2011-05-01T07:46:18Z</time>
      </trkpt>
      <trkpt lat="45.94057" lon="3.05758">
        <ele>618.2648926</ele>
        <time>2011-05-01T07:46:25Z</time>
      </trkpt>
      <trkpt lat="45.94052" lon="3.05739">
        <ele>619.2263184</ele>
        <time>2011-05-01T07:46:31Z</time>
      </trkpt>
      <trkpt lat="45.94047" lon="3.05718">
        <ele>620.1877441</ele>
        <time>2011-05-01T07:46:37Z</time>
      </trkpt>
      <trkpt lat="45.9404" lon="3.05697">
        <ele>621.1491699</ele>
        <time>2011-05-01T07:46:43Z</time>
      </trkpt>
      <trkpt lat="45.94032" lon="3.05678">
        <ele>622.5910645</ele>
        <time>2011-05-01T07:46:49Z</time>
      </trkpt>
      <trkpt lat="45.94026" lon="3.05655">
        <ele>624.5136719</ele>
        <time>2011-05-01T07:46:56Z</time>
      </trkpt>
      <trkpt lat="45.9402" lon="3.05636">
        <ele>625.9555664</ele>
        <time>2011-05-01T07:47:01Z</time>
      </trkpt>
      <trkpt lat="45.94013" lon="3.05615">
        <ele>625.9555664</ele>
        <time>2011-05-01T07:47:07Z</time>
      </trkpt>
      <trkpt lat="45.94007" lon="3.05595">
        <ele>627.3977051</ele>
        <time>2011-05-01T07:47:13Z</time>
      </trkpt>
      <trkpt lat="45.94006" lon="3.05575">
        <ele>627.8781738</ele>
        <time>2011-05-01T07:47:18Z</time>
      </trkpt>
      <trkpt lat="45.94001" lon="3.0555">
        <ele>627.8781738</ele>
        <time>2011-05-01T07:47:24Z</time>
      </trkpt>
      <trkpt lat="45.93991" lon="3.05512">
        <ele>626.9169922</ele>
        <time>2011-05-01T07:47:30Z</time>
      </trkpt>
      <trkpt lat="45.93977" lon="3.0547">
        <ele>625.9555664</ele>
        <time>2011-05-01T07:47:36Z</time>
      </trkpt>
      <trkpt lat="45.93958" lon="3.05421">
        <ele>624.5136719</ele>
        <time>2011-05-01T07:47:43Z</time>
      </trkpt>
      <trkpt lat="45.93955" lon="3.05414">
        <ele>624.9943848</ele>
        <time>2011-05-01T07:47:44Z</time>
      </trkpt>
      <trkpt lat="45.93946" lon="3.0537">
        <ele>624.5136719</ele>
        <time>2011-05-01T07:47:50Z</time>
      </trkpt>
      <trkpt lat="45.93942" lon="3.05342">
        <ele>624.5136719</ele>
        <time>2011-05-01T07:47:54Z</time>
      </trkpt>
      <trkpt lat="45.93935" lon="3.05301">
        <ele>625.4748535</ele>
        <time>2011-05-01T07:48:00Z</time>
      </trkpt>
      <trkpt lat="45.93932" lon="3.05287">
        <ele>625.9555664</ele>
        <time>2011-05-01T07:48:02Z</time>
      </trkpt>
      <trkpt lat="45.93926" lon="3.05256">
        <ele>626.4362793</ele>
        <time>2011-05-01T07:48:07Z</time>
      </trkpt>
      <trkpt lat="45.93924" lon="3.05213">
        <ele>627.8781738</ele>
        <time>2011-05-01T07:48:15Z</time>
      </trkpt>
      <trkpt lat="45.93917" lon="3.05183">
        <ele>629.8007813</ele>
        <time>2011-05-01T07:48:23Z</time>
      </trkpt>
      <trkpt lat="45.93909" lon="3.05169">
        <ele>631.2429199</ele>
        <time>2011-05-01T07:48:28Z</time>
      </trkpt>
      <trkpt lat="45.93903" lon="3.05154">
        <ele>632.6848145</ele>
        <time>2011-05-01T07:48:33Z</time>
      </trkpt>
      <trkpt lat="45.93902" lon="3.05144">
        <ele>633.1652832</ele>
        <time>2011-05-01T07:48:36Z</time>
      </trkpt>
      <trkpt lat="45.93907" lon="3.05132">
        <ele>634.6074219</ele>
        <time>2011-05-01T07:48:40Z</time>
      </trkpt>
      <trkpt lat="45.9391" lon="3.05109">
        <ele>636.5302734</ele>
        <time>2011-05-01T07:48:48Z</time>
      </trkpt>
      <trkpt lat="45.93903" lon="3.05091">
        <ele>638.4528809</ele>
        <time>2011-05-01T07:48:55Z</time>
      </trkpt>
      <trkpt lat="45.93898" lon="3.05076">
        <ele>639.4140625</ele>
        <time>2011-05-01T07:49:01Z</time>
      </trkpt>
      <trkpt lat="45.9389" lon="3.05065">
        <ele>640.3754883</ele>
        <time>2011-05-01T07:49:07Z</time>
      </trkpt>
      <trkpt lat="45.93881" lon="3.0505">
        <ele>641.8173828</ele>
        <time>2011-05-01T07:49:13Z</time>
      </trkpt>
      <trkpt lat="45.93867" lon="3.05024">
        <ele>644.2207031</ele>
        <time>2011-05-01T07:49:22Z</time>
      </trkpt>
      <trkpt lat="45.93858" lon="3.05004">
        <ele>643.7399902</ele>
        <time>2011-05-01T07:49:29Z</time>
      </trkpt>
      <trkpt lat="45.93853" lon="3.04985">
        <ele>644.7011719</ele>
        <time>2011-05-01T07:49:36Z</time>
      </trkpt>
      <trkpt lat="45.93852" lon="3.04956">
        <ele>646.6240234</ele>
        <time>2011-05-01T07:49:42Z</time>
      </trkpt>
      <trkpt lat="45.93854" lon="3.04912">
        <ele>645.1818848</ele>
        <time>2011-05-01T07:49:50Z</time>
      </trkpt>
      <trkpt lat="45.93853" lon="3.04864">
        <ele>645.6625977</ele>
        <time>2011-05-01T07:49:57Z</time>
      </trkpt>
      <trkpt lat="45.9385" lon="3.048">
        <ele>644.7011719</ele>
        <time>2011-05-01T07:50:05Z</time>
      </trkpt>
      <trkpt lat="45.93846" lon="3.04761">
        <ele>644.2207031</ele>
        <time>2011-05-01T07:50:10Z</time>
      </trkpt>
      <trkpt lat="45.9384" lon="3.04741">
        <ele>644.7011719</ele>
        <time>2011-05-01T07:50:13Z</time>
      </trkpt>
      <trkpt lat="45.93825" lon="3.04685">
        <ele>644.7011719</ele>
        <time>2011-05-01T07:50:21Z</time>
      </trkpt>
      <trkpt lat="45.93813" lon="3.0462">
        <ele>645.1818848</ele>
        <time>2011-05-01T07:50:30Z</time>
      </trkpt>
      <trkpt lat="45.93801" lon="3.04544">
        <ele>645.6625977</ele>
        <time>2011-05-01T07:50:41Z</time>
      </trkpt>
      <trkpt lat="45.93786" lon="3.04485">
        <ele>648.065918</ele>
        <time>2011-05-01T07:50:51Z</time>
      </trkpt>
      <trkpt lat="45.93778" lon="3.04444">
        <ele>649.0270996</ele>
        <time>2011-05-01T07:50:58Z</time>
      </trkpt>
      <trkpt lat="45.93776" lon="3.04389">
        <ele>650.4692383</ele>
        <time>2011-05-01T07:51:06Z</time>
      </trkpt>
      <trkpt lat="45.93783" lon="3.04337">
        <ele>650.949707</ele>
        <time>2011-05-01T07:51:14Z</time>
      </trkpt>
      <trkpt lat="45.93795" lon="3.04281">
        <ele>652.3918457</ele>
        <time>2011-05-01T07:51:24Z</time>
      </trkpt>
      <trkpt lat="45.938" lon="3.04256">
        <ele>653.8339844</ele>
        <time>2011-05-01T07:51:29Z</time>
      </trkpt>
      <trkpt lat="45.9381" lon="3.04219">
        <ele>655.2758789</ele>
        <time>2011-05-01T07:51:37Z</time>
      </trkpt>
      <trkpt lat="45.93818" lon="3.04183">
        <ele>658.1599121</ele>
        <time>2011-05-01T07:51:46Z</time>
      </trkpt>
      <trkpt lat="45.93818" lon="3.04176">
        <ele>658.6403809</ele>
        <time>2011-05-01T07:51:48Z</time>
      </trkpt>
      <trkpt lat="45.93821" lon="3.04143">
        <ele>660.0822754</ele>
        <time>2011-05-01T07:51:56Z</time>
      </trkpt>
      <trkpt lat="45.93823" lon="3.04107">
        <ele>661.5244141</ele>
        <time>2011-05-01T07:52:04Z</time>
      </trkpt>
      <trkpt lat="45.93824" lon="3.04058">
        <ele>663.9274902</ele>
        <time>2011-05-01T07:52:15Z</time>
      </trkpt>
      <trkpt lat="45.93827" lon="3.0402">
        <ele>664.4082031</ele>
        <time>2011-05-01T07:52:23Z</time>
      </trkpt>
      <trkpt lat="45.93836" lon="3.0398">
        <ele>662.4855957</ele>
        <time>2011-05-01T07:52:29Z</time>
      </trkpt>
      <trkpt lat="45.93843" lon="3.03957">
        <ele>662.4855957</ele>
        <time>2011-05-01T07:52:32Z</time>
      </trkpt>
      <trkpt lat="45.93851" lon="3.03917">
        <ele>662.005127</ele>
        <time>2011-05-01T07:52:37Z</time>
      </trkpt>
      <trkpt lat="45.93865" lon="3.03876">
        <ele>660.0822754</ele>
        <time>2011-05-01T07:52:42Z</time>
      </trkpt>
      <trkpt lat="45.93878" lon="3.03839">
        <ele>657.6791992</ele>
        <time>2011-05-01T07:52:46Z</time>
      </trkpt>
      <trkpt lat="45.93898" lon="3.03793">
        <ele>657.1984863</ele>
        <time>2011-05-01T07:52:51Z</time>
      </trkpt>
      <trkpt lat="45.93902" lon="3.03784">
        <ele>656.7177734</ele>
        <time>2011-05-01T07:52:52Z</time>
      </trkpt>
      <trkpt lat="45.93909" lon="3.03767">
        <ele>656.7177734</ele>
        <time>2011-05-01T07:52:54Z</time>
      </trkpt>
      <trkpt lat="45.93915" lon="3.03751">
        <ele>656.7177734</ele>
        <time>2011-05-01T07:52:56Z</time>
      </trkpt>
      <trkpt lat="45.93921" lon="3.03708">
        <ele>656.7177734</ele>
        <time>2011-05-01T07:53:01Z</time>
      </trkpt>
      <trkpt lat="45.93928" lon="3.0365">
        <ele>658.1599121</ele>
        <time>2011-05-01T07:53:08Z</time>
      </trkpt>
      <trkpt lat="45.93933" lon="3.03629">
        <ele>657.6791992</ele>
        <time>2011-05-01T07:53:11Z</time>
      </trkpt>
      <trkpt lat="45.93947" lon="3.03612">
        <ele>658.1599121</ele>
        <time>2011-05-01T07:53:15Z</time>
      </trkpt>
      <trkpt lat="45.93957" lon="3.03613">
        <ele>659.1210938</ele>
        <time>2011-05-01T07:53:17Z</time>
      </trkpt>
      <trkpt lat="45.93967" lon="3.03616">
        <ele>659.1210938</ele>
        <time>2011-05-01T07:53:19Z</time>
      </trkpt>
      <trkpt lat="45.93981" lon="3.03618">
        <ele>659.1210938</ele>
        <time>2011-05-01T07:53:22Z</time>
      </trkpt>
      <trkpt lat="45.94001" lon="3.03622">
        <ele>657.6791992</ele>
        <time>2011-05-01T07:53:26Z</time>
      </trkpt>
      <trkpt lat="45.94007" lon="3.03623">
        <ele>657.6791992</ele>
        <time>2011-05-01T07:53:27Z</time>
      </trkpt>
      <trkpt lat="45.94036" lon="3.03641">
        <ele>654.3146973</ele>
        <time>2011-05-01T07:53:32Z</time>
      </trkpt>
      <trkpt lat="45.94052" lon="3.03672">
        <ele>654.795166</ele>
        <time>2011-05-01T07:53:37Z</time>
      </trkpt>
      <trkpt lat="45.9405" lon="3.03679">
        <ele>653.3532715</ele>
        <time>2011-05-01T07:53:38Z</time>
      </trkpt>
      <trkpt lat="45.94031" lon="3.03737">
        <ele>653.3532715</ele>
        <time>2011-05-01T07:53:46Z</time>
      </trkpt>
      <trkpt lat="45.94029" lon="3.03768">
        <ele>650.949707</ele>
        <time>2011-05-01T07:53:50Z</time>
      </trkpt>
      <trkpt lat="45.94035" lon="3.03782">
        <ele>649.9885254</ele>
        <time>2011-05-01T07:53:52Z</time>
      </trkpt>
      <trkpt lat="45.94039" lon="3.0379">
        <ele>649.0270996</ele>
        <time>2011-05-01T07:53:53Z</time>
      </trkpt>
      <trkpt lat="45.94048" lon="3.03806">
        <ele>648.065918</ele>
        <time>2011-05-01T07:53:55Z</time>
      </trkpt>
      <trkpt lat="45.94062" lon="3.03838">
        <ele>645.6625977</ele>
        <time>2011-05-01T07:53:58Z</time>
      </trkpt>
      <trkpt lat="45.94071" lon="3.03862">
        <ele>644.2207031</ele>
        <time>2011-05-01T07:54:00Z</time>
      </trkpt>
      <trkpt lat="45.94081" lon="3.03888">
        <ele>642.2980957</ele>
        <time>2011-05-01T07:54:02Z</time>
      </trkpt>
      <trkpt lat="45.94091" lon="3.03913">
        <ele>639.4140625</ele>
        <time>2011-05-01T07:54:04Z</time>
      </trkpt>
      <trkpt lat="45.94104" lon="3.03942">
        <ele>635.5686035</ele>
        <time>2011-05-01T07:54:07Z</time>
      </trkpt>
      <trkpt lat="45.94107" lon="3.03949">
        <ele>634.126709</ele>
        <time>2011-05-01T07:54:08Z</time>
      </trkpt>
      <trkpt lat="45.94121" lon="3.03962">
        <ele>631.7233887</ele>
        <time>2011-05-01T07:54:12Z</time>
      </trkpt>
      <trkpt lat="45.94128" lon="3.03954">
        <ele>631.7233887</ele>
        <time>2011-05-01T07:54:14Z</time>
      </trkpt>
      <trkpt lat="45.94151" lon="3.03908">
        <ele>632.2041016</ele>
        <time>2011-05-01T07:54:21Z</time>
      </trkpt>
      <trkpt lat="45.94167" lon="3.03881">
        <ele>631.7233887</ele>
        <time>2011-05-01T07:54:25Z</time>
      </trkpt>
      <trkpt lat="45.94184" lon="3.03853">
        <ele>631.2429199</ele>
        <time>2011-05-01T07:54:29Z</time>
      </trkpt>
      <trkpt lat="45.94221" lon="3.03807">
        <ele>628.8395996</ele>
        <time>2011-05-01T07:54:36Z</time>
      </trkpt>
      <trkpt lat="45.94231" lon="3.03792">
        <ele>627.8781738</ele>
        <time>2011-05-01T07:54:38Z</time>
      </trkpt>
      <trkpt lat="45.94239" lon="3.03775">
        <ele>626.9169922</ele>
        <time>2011-05-01T07:54:40Z</time>
      </trkpt>
      <trkpt lat="45.94244" lon="3.03766">
        <ele>625.9555664</ele>
        <time>2011-05-01T07:54:41Z</time>
      </trkpt>
      <trkpt lat="45.94257" lon="3.03709">
        <ele>624.9943848</ele>
        <time>2011-05-01T07:54:46Z</time>
      </trkpt>
      <trkpt lat="45.94257" lon="3.03684">
        <ele>623.0717773</ele>
        <time>2011-05-01T07:54:48Z</time>
      </trkpt>
      <trkpt lat="45.94258" lon="3.03655">
        <ele>621.1491699</ele>
        <time>2011-05-01T07:54:51Z</time>
      </trkpt>
      <trkpt lat="45.94266" lon="3.03646">
        <ele>621.1491699</ele>
        <time>2011-05-01T07:54:53Z</time>
      </trkpt>
      <trkpt lat="45.9428" lon="3.03655">
        <ele>621.1491699</ele>
        <time>2011-05-01T07:54:56Z</time>
      </trkpt>
      <trkpt lat="45.94299" lon="3.03678">
        <ele>621.1491699</ele>
        <time>2011-05-01T07:55:01Z</time>
      </trkpt>
      <trkpt lat="45.94313" lon="3.03681">
        <ele>622.1103516</ele>
        <time>2011-05-01T07:55:04Z</time>
      </trkpt>
      <trkpt lat="45.94343" lon="3.03672">
        <ele>621.6296387</ele>
        <time>2011-05-01T07:55:10Z</time>
      </trkpt>
      <trkpt lat="45.94381" lon="3.03675">
        <ele>621.6296387</ele>
        <time>2011-05-01T07:55:17Z</time>
      </trkpt>
      <trkpt lat="45.94405" lon="3.03679">
        <ele>621.6296387</ele>
        <time>2011-05-01T07:55:21Z</time>
      </trkpt>
      <trkpt lat="45.94417" lon="3.0368">
        <ele>621.1491699</ele>
        <time>2011-05-01T07:55:23Z</time>
      </trkpt>
      <trkpt lat="45.94432" lon="3.03676">
        <ele>619.7070313</ele>
        <time>2011-05-01T07:55:26Z</time>
      </trkpt>
      <trkpt lat="45.94439" lon="3.0366">
        <ele>617.7841797</ele>
        <time>2011-05-01T07:55:29Z</time>
      </trkpt>
      <trkpt lat="45.94436" lon="3.03627">
        <ele>616.3422852</ele>
        <time>2011-05-01T07:55:33Z</time>
      </trkpt>
      <trkpt lat="45.94436" lon="3.03609">
        <ele>615.3811035</ele>
        <time>2011-05-01T07:55:35Z</time>
      </trkpt>
      <trkpt lat="45.94444" lon="3.03574">
        <ele>614.4196777</ele>
        <time>2011-05-01T07:55:39Z</time>
      </trkpt>
      <trkpt lat="45.94453" lon="3.03549">
        <ele>614.9003906</ele>
        <time>2011-05-01T07:55:42Z</time>
      </trkpt>
      <trkpt lat="45.94473" lon="3.03527">
        <ele>612.9777832</ele>
        <time>2011-05-01T07:55:46Z</time>
      </trkpt>
      <trkpt lat="45.94483" lon="3.03526">
        <ele>613.4584961</ele>
        <time>2011-05-01T07:55:48Z</time>
      </trkpt>
      <trkpt lat="45.94497" lon="3.03529">
        <ele>614.9003906</ele>
        <time>2011-05-01T07:55:52Z</time>
      </trkpt>
      <trkpt lat="45.94505" lon="3.0355">
        <ele>616.3422852</ele>
        <time>2011-05-01T07:55:57Z</time>
      </trkpt>
      <trkpt lat="45.94515" lon="3.03585">
        <ele>616.3422852</ele>
        <time>2011-05-01T07:56:04Z</time>
      </trkpt>
      <trkpt lat="45.9452" lon="3.0361">
        <ele>616.3422852</ele>
        <time>2011-05-01T07:56:09Z</time>
      </trkpt>
      <trkpt lat="45.94524" lon="3.03637">
        <ele>617.3037109</ele>
        <time>2011-05-01T07:56:14Z</time>
      </trkpt>
      <trkpt lat="45.94528" lon="3.03666">
        <ele>619.2263184</ele>
        <time>2011-05-01T07:56:20Z</time>
      </trkpt>
      <trkpt lat="45.94531" lon="3.03694">
        <ele>620.668457</ele>
        <time>2011-05-01T07:56:26Z</time>
      </trkpt>
      <trkpt lat="45.94539" lon="3.03724">
        <ele>622.1103516</ele>
        <time>2011-05-01T07:56:33Z</time>
      </trkpt>
      <trkpt lat="45.94551" lon="3.03741">
        <ele>624.032959</ele>
        <time>2011-05-01T07:56:39Z</time>
      </trkpt>
      <trkpt lat="45.94564" lon="3.03745">
        <ele>625.4748535</ele>
        <time>2011-05-01T07:56:45Z</time>
      </trkpt>
      <trkpt lat="45.94573" lon="3.03736">
        <ele>626.9169922</ele>
        <time>2011-05-01T07:56:51Z</time>
      </trkpt>
      <trkpt lat="45.94583" lon="3.03722">
        <ele>628.3588867</ele>
        <time>2011-05-01T07:56:58Z</time>
      </trkpt>
      <trkpt lat="45.9459" lon="3.03709">
        <ele>629.3200684</ele>
        <time>2011-05-01T07:57:04Z</time>
      </trkpt>
      <trkpt lat="45.94601" lon="3.03691">
        <ele>629.8007813</ele>
        <time>2011-05-01T07:57:11Z</time>
      </trkpt>
      <trkpt lat="45.94609" lon="3.0367">
        <ele>631.2429199</ele>
        <time>2011-05-01T07:57:17Z</time>
      </trkpt>
      <trkpt lat="45.94621" lon="3.03629">
        <ele>632.6848145</ele>
        <time>2011-05-01T07:57:27Z</time>
      </trkpt>
      <trkpt lat="45.94629" lon="3.03598">
        <ele>633.6459961</ele>
        <time>2011-05-01T07:57:35Z</time>
      </trkpt>
      <trkpt lat="45.94636" lon="3.0357">
        <ele>635.5686035</ele>
        <time>2011-05-01T07:57:43Z</time>
      </trkpt>
      <trkpt lat="45.94642" lon="3.03552">
        <ele>637.0107422</ele>
        <time>2011-05-01T07:57:48Z</time>
      </trkpt>
      <trkpt lat="45.94649" lon="3.03532">
        <ele>638.9335938</ele>
        <time>2011-05-01T07:57:54Z</time>
      </trkpt>
      <trkpt lat="45.94657" lon="3.03523">
        <ele>639.4140625</ele>
        <time>2011-05-01T07:57:59Z</time>
      </trkpt>
      <trkpt lat="45.9466" lon="3.0351">
        <ele>639.4140625</ele>
        <time>2011-05-01T07:58:03Z</time>
      </trkpt>
      <trkpt lat="45.94655" lon="3.03477">
        <ele>641.8173828</ele>
        <time>2011-05-01T07:58:11Z</time>
      </trkpt>
      <trkpt lat="45.94654" lon="3.03446">
        <ele>642.2980957</ele>
        <time>2011-05-01T07:58:18Z</time>
      </trkpt>
      <trkpt lat="45.94656" lon="3.03407">
        <ele>644.2207031</ele>
        <time>2011-05-01T07:58:27Z</time>
      </trkpt>
      <trkpt lat="45.94657" lon="3.03372">
        <ele>646.1433105</ele>
        <time>2011-05-01T07:58:35Z</time>
      </trkpt>
      <trkpt lat="45.94663" lon="3.0333">
        <ele>646.6240234</ele>
        <time>2011-05-01T07:58:44Z</time>
      </trkpt>
      <trkpt lat="45.94677" lon="3.03299">
        <ele>648.5463867</ele>
        <time>2011-05-01T07:58:51Z</time>
      </trkpt>
      <trkpt lat="45.94684" lon="3.03283">
        <ele>649.5078125</ele>
        <time>2011-05-01T07:58:55Z</time>
      </trkpt>
      <trkpt lat="45.94699" lon="3.03259">
        <ele>650.4692383</ele>
        <time>2011-05-01T07:59:02Z</time>
      </trkpt>
      <trkpt lat="45.94714" lon="3.0323">
        <ele>651.9111328</ele>
        <time>2011-05-01T07:59:10Z</time>
      </trkpt>
      <trkpt lat="45.94736" lon="3.03205">
        <ele>653.8339844</ele>
        <time>2011-05-01T07:59:19Z</time>
      </trkpt>
      <trkpt lat="45.94763" lon="3.03178">
        <ele>654.795166</ele>
        <time>2011-05-01T07:59:27Z</time>
      </trkpt>
      <trkpt lat="45.94798" lon="3.03144">
        <ele>655.7565918</ele>
        <time>2011-05-01T07:59:37Z</time>
      </trkpt>
      <trkpt lat="45.94832" lon="3.03109">
        <ele>656.7177734</ele>
        <time>2011-05-01T07:59:47Z</time>
      </trkpt>
      <trkpt lat="45.94843" lon="3.03092">
        <ele>656.7177734</ele>
        <time>2011-05-01T07:59:51Z</time>
      </trkpt>
      <trkpt lat="45.94865" lon="3.03045">
        <ele>656.7177734</ele>
        <time>2011-05-01T07:59:59Z</time>
      </trkpt>
      <trkpt lat="45.94883" lon="3.02997">
        <ele>658.1599121</ele>
        <time>2011-05-01T08:00:07Z</time>
      </trkpt>
      <trkpt lat="45.94897" lon="3.02969">
        <ele>657.6791992</ele>
        <time>2011-05-01T08:00:12Z</time>
      </trkpt>
      <trkpt lat="45.94914" lon="3.02916">
        <ele>658.1599121</ele>
        <time>2011-05-01T08:00:20Z</time>
      </trkpt>
      <trkpt lat="45.94924" lon="3.02866">
        <ele>657.1984863</ele>
        <time>2011-05-01T08:00:27Z</time>
      </trkpt>
      <trkpt lat="45.94935" lon="3.02817">
        <ele>657.6791992</ele>
        <time>2011-05-01T08:00:34Z</time>
      </trkpt>
      <trkpt lat="45.94956" lon="3.02783">
        <ele>656.7177734</ele>
        <time>2011-05-01T08:00:40Z</time>
      </trkpt>
      <trkpt lat="45.94975" lon="3.02757">
        <ele>655.7565918</ele>
        <time>2011-05-01T08:00:44Z</time>
      </trkpt>
      <trkpt lat="45.94993" lon="3.02723">
        <ele>655.7565918</ele>
        <time>2011-05-01T08:00:49Z</time>
      </trkpt>
      <trkpt lat="45.94996" lon="3.02716">
        <ele>655.7565918</ele>
        <time>2011-05-01T08:00:50Z</time>
      </trkpt>
      <trkpt lat="45.95013" lon="3.02697">
        <ele>654.795166</ele>
        <time>2011-05-01T08:00:54Z</time>
      </trkpt>
      <trkpt lat="45.95032" lon="3.02693">
        <ele>656.7177734</ele>
        <time>2011-05-01T08:00:58Z</time>
      </trkpt>
      <trkpt lat="45.95078" lon="3.02695">
        <ele>655.7565918</ele>
        <time>2011-05-01T08:01:07Z</time>
      </trkpt>
      <trkpt lat="45.95104" lon="3.02695">
        <ele>654.3146973</ele>
        <time>2011-05-01T08:01:12Z</time>
      </trkpt>
      <trkpt lat="45.95118" lon="3.02691">
        <ele>653.3532715</ele>
        <time>2011-05-01T08:01:16Z</time>
      </trkpt>
      <trkpt lat="45.95131" lon="3.02687">
        <ele>651.4304199</ele>
        <time>2011-05-01T08:01:19Z</time>
      </trkpt>
      <trkpt lat="45.95136" lon="3.02685">
        <ele>650.949707</ele>
        <time>2011-05-01T08:01:20Z</time>
      </trkpt>
      <trkpt lat="45.95158" lon="3.02666">
        <ele>649.5078125</ele>
        <time>2011-05-01T08:01:24Z</time>
      </trkpt>
      <trkpt lat="45.95165" lon="3.0266">
        <ele>649.0270996</ele>
        <time>2011-05-01T08:01:25Z</time>
      </trkpt>
      <trkpt lat="45.9518" lon="3.02645">
        <ele>647.1044922</ele>
        <time>2011-05-01T08:01:29Z</time>
      </trkpt>
      <trkpt lat="45.95187" lon="3.02653">
        <ele>644.7011719</ele>
        <time>2011-05-01T08:01:32Z</time>
      </trkpt>
      <trkpt lat="45.95188" lon="3.02659">
        <ele>644.7011719</ele>
        <time>2011-05-01T08:01:33Z</time>
      </trkpt>
      <trkpt lat="45.95189" lon="3.02666">
        <ele>643.7399902</ele>
        <time>2011-05-01T08:01:34Z</time>
      </trkpt>
      <trkpt lat="45.95201" lon="3.02711">
        <ele>640.855957</ele>
        <time>2011-05-01T08:01:39Z</time>
      </trkpt>
      <trkpt lat="45.95211" lon="3.02727">
        <ele>638.9335938</ele>
        <time>2011-05-01T08:01:41Z</time>
      </trkpt>
      <trkpt lat="45.95223" lon="3.0274">
        <ele>637.972168</ele>
        <time>2011-05-01T08:01:43Z</time>
      </trkpt>
      <trkpt lat="45.95237" lon="3.02754">
        <ele>637.4914551</ele>
        <time>2011-05-01T08:01:45Z</time>
      </trkpt>
      <trkpt lat="45.95248" lon="3.02783">
        <ele>638.4528809</ele>
        <time>2011-05-01T08:01:49Z</time>
      </trkpt>
      <trkpt lat="45.95248" lon="3.02809">
        <ele>638.9335938</ele>
        <time>2011-05-01T08:01:53Z</time>
      </trkpt>
      <trkpt lat="45.9525" lon="3.0282">
        <ele>639.8947754</ele>
        <time>2011-05-01T08:01:55Z</time>
      </trkpt>
      <trkpt lat="45.95252" lon="3.02832">
        <ele>640.855957</ele>
        <time>2011-05-01T08:01:57Z</time>
      </trkpt>
      <trkpt lat="45.95255" lon="3.02848">
        <ele>641.8173828</ele>
        <time>2011-05-01T08:02:00Z</time>
      </trkpt>
      <trkpt lat="45.95259" lon="3.02864">
        <ele>641.8173828</ele>
        <time>2011-05-01T08:02:03Z</time>
      </trkpt>
      <trkpt lat="45.95265" lon="3.02877">
        <ele>642.7788086</ele>
        <time>2011-05-01T08:02:06Z</time>
      </trkpt>
      <trkpt lat="45.95271" lon="3.02891">
        <ele>643.7399902</ele>
        <time>2011-05-01T08:02:09Z</time>
      </trkpt>
      <trkpt lat="45.9528" lon="3.02909">
        <ele>644.2207031</ele>
        <time>2011-05-01T08:02:13Z</time>
      </trkpt>
      <trkpt lat="45.953" lon="3.02945">
        <ele>645.6625977</ele>
        <time>2011-05-01T08:02:21Z</time>
      </trkpt>
      <trkpt lat="45.95309" lon="3.02957">
        <ele>646.1433105</ele>
        <time>2011-05-01T08:02:24Z</time>
      </trkpt>
      <trkpt lat="45.95325" lon="3.02991">
        <ele>647.1044922</ele>
        <time>2011-05-01T08:02:31Z</time>
      </trkpt>
      <trkpt lat="45.95338" lon="3.03021">
        <ele>647.5852051</ele>
        <time>2011-05-01T08:02:37Z</time>
      </trkpt>
      <trkpt lat="45.95349" lon="3.03044">
        <ele>648.5463867</ele>
        <time>2011-05-01T08:02:43Z</time>
      </trkpt>
      <trkpt lat="45.95347" lon="3.03045">
        <ele>648.065918</ele>
        <time>2011-05-01T08:02:47Z</time>
      </trkpt>
      <trkpt lat="45.95352" lon="3.0303">
        <ele>649.0270996</ele>
        <time>2011-05-01T08:02:51Z</time>
      </trkpt>
      <trkpt lat="45.95358" lon="3.03023">
        <ele>649.5078125</ele>
        <time>2011-05-01T08:02:54Z</time>
      </trkpt>
      <trkpt lat="45.95379" lon="3.03008">
        <ele>651.4304199</ele>
        <time>2011-05-01T08:03:04Z</time>
      </trkpt>
      <trkpt lat="45.95389" lon="3.02998">
        <ele>653.3532715</ele>
        <time>2011-05-01T08:03:10Z</time>
      </trkpt>
      <trkpt lat="45.95397" lon="3.02987">
        <ele>654.795166</ele>
        <time>2011-05-01T08:03:16Z</time>
      </trkpt>
      <trkpt lat="45.95412" lon="3.02965">
        <ele>656.2370605</ele>
        <time>2011-05-01T08:03:26Z</time>
      </trkpt>
      <trkpt lat="45.95422" lon="3.02945">
        <ele>658.1599121</ele>
        <time>2011-05-01T08:03:34Z</time>
      </trkpt>
      <trkpt lat="45.95431" lon="3.02928">
        <ele>660.5629883</ele>
        <time>2011-05-01T08:03:41Z</time>
      </trkpt>
      <trkpt lat="45.95442" lon="3.02912">
        <ele>661.5244141</ele>
        <time>2011-05-01T08:03:49Z</time>
      </trkpt>
      <trkpt lat="45.95456" lon="3.02895">
        <ele>662.9663086</ele>
        <time>2011-05-01T08:03:57Z</time>
      </trkpt>
      <trkpt lat="45.95461" lon="3.02874">
        <ele>664.888916</ele>
        <time>2011-05-01T08:04:04Z</time>
      </trkpt>
      <trkpt lat="45.95465" lon="3.02849">
        <ele>666.8115234</ele>
        <time>2011-05-01T08:04:12Z</time>
      </trkpt>
      <trkpt lat="45.95464" lon="3.02826">
        <ele>668.2536621</ele>
        <time>2011-05-01T08:04:19Z</time>
      </trkpt>
      <trkpt lat="45.95464" lon="3.02793">
        <ele>669.6958008</ele>
        <time>2011-05-01T08:04:28Z</time>
      </trkpt>
      <trkpt lat="45.95465" lon="3.02782">
        <ele>671.1376953</ele>
        <time>2011-05-01T08:04:31Z</time>
      </trkpt>
      <trkpt lat="45.95472" lon="3.02758">
        <ele>672.098877</ele>
        <time>2011-05-01T08:04:38Z</time>
      </trkpt>
      <trkpt lat="45.95487" lon="3.02732">
        <ele>673.0603027</ele>
        <time>2011-05-01T08:04:47Z</time>
      </trkpt>
      <trkpt lat="45.95504" lon="3.02697">
        <ele>674.9829102</ele>
        <time>2011-05-01T08:04:58Z</time>
      </trkpt>
      <trkpt lat="45.95512" lon="3.02669">
        <ele>676.9055176</ele>
        <time>2011-05-01T08:05:06Z</time>
      </trkpt>
      <trkpt lat="45.95523" lon="3.02629">
        <ele>676.9055176</ele>
        <time>2011-05-01T08:05:16Z</time>
      </trkpt>
      <trkpt lat="45.95534" lon="3.02581">
        <ele>676.4248047</ele>
        <time>2011-05-01T08:05:26Z</time>
      </trkpt>
      <trkpt lat="45.95535" lon="3.02576">
        <ele>676.4248047</ele>
        <time>2011-05-01T08:05:27Z</time>
      </trkpt>
      <trkpt lat="45.95551" lon="3.02541">
        <ele>674.9829102</ele>
        <time>2011-05-01T08:05:33Z</time>
      </trkpt>
      <trkpt lat="45.95558" lon="3.02521">
        <ele>674.9829102</ele>
        <time>2011-05-01T08:05:36Z</time>
      </trkpt>
      <trkpt lat="45.95562" lon="3.02498">
        <ele>674.9829102</ele>
        <time>2011-05-01T08:05:39Z</time>
      </trkpt>
      <trkpt lat="45.95556" lon="3.02466">
        <ele>674.9829102</ele>
        <time>2011-05-01T08:05:44Z</time>
      </trkpt>
      <trkpt lat="45.95547" lon="3.02452">
        <ele>675.4633789</ele>
        <time>2011-05-01T08:05:47Z</time>
      </trkpt>
      <trkpt lat="45.95533" lon="3.02418">
        <ele>675.9440918</ele>
        <time>2011-05-01T08:05:53Z</time>
      </trkpt>
      <trkpt lat="45.95528" lon="3.02407">
        <ele>676.4248047</ele>
        <time>2011-05-01T08:05:55Z</time>
      </trkpt>
      <trkpt lat="45.95522" lon="3.02382">
        <ele>676.4248047</ele>
        <time>2011-05-01T08:05:59Z</time>
      </trkpt>
      <trkpt lat="45.95518" lon="3.02369">
        <ele>675.9440918</ele>
        <time>2011-05-01T08:06:01Z</time>
      </trkpt>
      <trkpt lat="45.95512" lon="3.02351">
        <ele>676.4248047</ele>
        <time>2011-05-01T08:06:04Z</time>
      </trkpt>
      <trkpt lat="45.955" lon="3.02321">
        <ele>675.9440918</ele>
        <time>2011-05-01T08:06:10Z</time>
      </trkpt>
      <trkpt lat="45.95492" lon="3.02293">
        <ele>673.5410156</ele>
        <time>2011-05-01T08:06:14Z</time>
      </trkpt>
      <trkpt lat="45.95471" lon="3.02254">
        <ele>672.098877</ele>
        <time>2011-05-01T08:06:19Z</time>
      </trkpt>
      <trkpt lat="45.95459" lon="3.0223">
        <ele>670.6569824</ele>
        <time>2011-05-01T08:06:22Z</time>
      </trkpt>
      <trkpt lat="45.95456" lon="3.02202">
        <ele>669.2150879</ele>
        <time>2011-05-01T08:06:26Z</time>
      </trkpt>
      <trkpt lat="45.95465" lon="3.02189">
        <ele>670.1762695</ele>
        <time>2011-05-01T08:06:29Z</time>
      </trkpt>
      <trkpt lat="45.95471" lon="3.02175">
        <ele>670.6569824</ele>
        <time>2011-05-01T08:06:33Z</time>
      </trkpt>
      <trkpt lat="45.95472" lon="3.02171">
        <ele>671.1376953</ele>
        <time>2011-05-01T08:06:34Z</time>
      </trkpt>
      <trkpt lat="45.95482" lon="3.02142">
        <ele>672.5795898</ele>
        <time>2011-05-01T08:06:42Z</time>
      </trkpt>
      <trkpt lat="45.95486" lon="3.02129">
        <ele>673.5410156</ele>
        <time>2011-05-01T08:06:46Z</time>
      </trkpt>
      <trkpt lat="45.95487" lon="3.02122">
        <ele>674.9829102</ele>
        <time>2011-05-01T08:06:48Z</time>
      </trkpt>
      <trkpt lat="45.95488" lon="3.02118">
        <ele>675.4633789</ele>
        <time>2011-05-01T08:06:49Z</time>
      </trkpt>
      <trkpt lat="45.9549" lon="3.02105">
        <ele>676.4248047</ele>
        <time>2011-05-01T08:06:53Z</time>
      </trkpt>
      <trkpt lat="45.95492" lon="3.02094">
        <ele>677.3862305</ele>
        <time>2011-05-01T08:06:56Z</time>
      </trkpt>
      <trkpt lat="45.95492" lon="3.02091">
        <ele>677.8666992</ele>
        <time>2011-05-01T08:06:57Z</time>
      </trkpt>
      <trkpt lat="45.95497" lon="3.02066">
        <ele>678.3474121</ele>
        <time>2011-05-01T08:07:04Z</time>
      </trkpt>
      <trkpt lat="45.95506" lon="3.02045">
        <ele>680.2700195</ele>
        <time>2011-05-01T08:07:10Z</time>
      </trkpt>
      <trkpt lat="45.95517" lon="3.02028">
        <ele>680.7507324</ele>
        <time>2011-05-01T08:07:15Z</time>
      </trkpt>
      <trkpt lat="45.95534" lon="3.02005">
        <ele>681.2314453</ele>
        <time>2011-05-01T08:07:21Z</time>
      </trkpt>
      <trkpt lat="45.95549" lon="3.01991">
        <ele>680.2700195</ele>
        <time>2011-05-01T08:07:26Z</time>
      </trkpt>
      <trkpt lat="45.95557" lon="3.01984">
        <ele>680.7507324</ele>
        <time>2011-05-01T08:07:29Z</time>
      </trkpt>
      <trkpt lat="45.95568" lon="3.01956">
        <ele>681.7119141</ele>
        <time>2011-05-01T08:07:34Z</time>
      </trkpt>
      <trkpt lat="45.95571" lon="3.01909">
        <ele>681.2314453</ele>
        <time>2011-05-01T08:07:41Z</time>
      </trkpt>
      <trkpt lat="45.95573" lon="3.01881">
        <ele>681.7119141</ele>
        <time>2011-05-01T08:07:45Z</time>
      </trkpt>
      <trkpt lat="45.95576" lon="3.01824">
        <ele>682.192627</ele>
        <time>2011-05-01T08:07:53Z</time>
      </trkpt>
      <trkpt lat="45.95583" lon="3.0177">
        <ele>682.6733398</ele>
        <time>2011-05-01T08:08:01Z</time>
      </trkpt>
      <trkpt lat="45.95583" lon="3.01731">
        <ele>684.1154785</ele>
        <time>2011-05-01T08:08:07Z</time>
      </trkpt>
      <trkpt lat="45.95582" lon="3.01693">
        <ele>685.0769043</ele>
        <time>2011-05-01T08:08:13Z</time>
      </trkpt>
      <trkpt lat="45.95583" lon="3.01673">
        <ele>685.557373</ele>
        <time>2011-05-01T08:08:16Z</time>
      </trkpt>
      <trkpt lat="45.95596" lon="3.01597">
        <ele>684.5961914</ele>
        <time>2011-05-01T08:08:26Z</time>
      </trkpt>
      <trkpt lat="45.95603" lon="3.0157">
        <ele>684.5961914</ele>
        <time>2011-05-01T08:08:30Z</time>
      </trkpt>
      <trkpt lat="45.95602" lon="3.01541">
        <ele>685.0769043</ele>
        <time>2011-05-01T08:08:34Z</time>
      </trkpt>
      <trkpt lat="45.95596" lon="3.01528">
        <ele>685.0769043</ele>
        <time>2011-05-01T08:08:36Z</time>
      </trkpt>
      <trkpt lat="45.95573" lon="3.01488">
        <ele>684.5961914</ele>
        <time>2011-05-01T08:08:43Z</time>
      </trkpt>
      <trkpt lat="45.95571" lon="3.01482">
        <ele>685.0769043</ele>
        <time>2011-05-01T08:08:44Z</time>
      </trkpt>
      <trkpt lat="45.95564" lon="3.01472">
        <ele>685.0769043</ele>
        <time>2011-05-01T08:08:46Z</time>
      </trkpt>
      <trkpt lat="45.95548" lon="3.01433">
        <ele>685.0769043</ele>
        <time>2011-05-01T08:08:53Z</time>
      </trkpt>
      <trkpt lat="45.95538" lon="3.01382">
        <ele>685.557373</ele>
        <time>2011-05-01T08:09:01Z</time>
      </trkpt>
      <trkpt lat="45.95535" lon="3.0137">
        <ele>686.0380859</ele>
        <time>2011-05-01T08:09:03Z</time>
      </trkpt>
      <trkpt lat="45.95526" lon="3.01336">
        <ele>686.9992676</ele>
        <time>2011-05-01T08:09:08Z</time>
      </trkpt>
      <trkpt lat="45.95518" lon="3.01311">
        <ele>686.9992676</ele>
        <time>2011-05-01T08:09:12Z</time>
      </trkpt>
      <trkpt lat="45.95516" lon="3.01289">
        <ele>688.4414063</ele>
        <time>2011-05-01T08:09:16Z</time>
      </trkpt>
      <trkpt lat="45.95517" lon="3.01284">
        <ele>688.4414063</ele>
        <time>2011-05-01T08:09:17Z</time>
      </trkpt>
      <trkpt lat="45.9552" lon="3.01258">
        <ele>688.9221191</ele>
        <time>2011-05-01T08:09:22Z</time>
      </trkpt>
      <trkpt lat="45.95511" lon="3.01235">
        <ele>690.3640137</ele>
        <time>2011-05-01T08:09:27Z</time>
      </trkpt>
      <trkpt lat="45.95496" lon="3.01206">
        <ele>691.8059082</ele>
        <time>2011-05-01T08:09:34Z</time>
      </trkpt>
      <trkpt lat="45.95491" lon="3.01185">
        <ele>692.2866211</ele>
        <time>2011-05-01T08:09:39Z</time>
      </trkpt>
      <trkpt lat="45.9549" lon="3.01165">
        <ele>692.767334</ele>
        <time>2011-05-01T08:09:43Z</time>
      </trkpt>
      <trkpt lat="45.95488" lon="3.01127">
        <ele>693.7285156</ele>
        <time>2011-05-01T08:09:50Z</time>
      </trkpt>
      <trkpt lat="45.95484" lon="3.0109">
        <ele>695.651123</ele>
        <time>2011-05-01T08:09:58Z</time>
      </trkpt>
      <trkpt lat="45.95481" lon="3.01053">
        <ele>697.0930176</ele>
        <time>2011-05-01T08:10:06Z</time>
      </trkpt>
      <trkpt lat="45.95475" lon="3.01014">
        <ele>699.015625</ele>
        <time>2011-05-01T08:10:15Z</time>
      </trkpt>
      <trkpt lat="45.95468" lon="3.00981">
        <ele>701.4191895</ele>
        <time>2011-05-01T08:10:23Z</time>
      </trkpt>
      <trkpt lat="45.9546" lon="3.00948">
        <ele>703.3417969</ele>
        <time>2011-05-01T08:10:31Z</time>
      </trkpt>
      <trkpt lat="45.95458" lon="3.00937">
        <ele>704.7836914</ele>
        <time>2011-05-01T08:10:34Z</time>
      </trkpt>
      <trkpt lat="45.9545" lon="3.00893">
        <ele>707.6677246</ele>
        <time>2011-05-01T08:10:45Z</time>
      </trkpt>
      <trkpt lat="45.95448" lon="3.00856">
        <ele>708.1484375</ele>
        <time>2011-05-01T08:10:53Z</time>
      </trkpt>
      <trkpt lat="45.95443" lon="3.00809">
        <ele>710.5515137</ele>
        <time>2011-05-01T08:11:02Z</time>
      </trkpt>
      <trkpt lat="45.95442" lon="3.00804">
        <ele>710.5515137</ele>
        <time>2011-05-01T08:11:03Z</time>
      </trkpt>
      <trkpt lat="45.95432" lon="3.00771">
        <ele>711.0322266</ele>
        <time>2011-05-01T08:11:11Z</time>
      </trkpt>
      <trkpt lat="45.95417" lon="3.00734">
        <ele>713.4355469</ele>
        <time>2011-05-01T08:11:21Z</time>
      </trkpt>
      <trkpt lat="45.95402" lon="3.00711">
        <ele>715.3581543</ele>
        <time>2011-05-01T08:11:28Z</time>
      </trkpt>
      <trkpt lat="45.95399" lon="3.00707">
        <ele>715.3581543</ele>
        <time>2011-05-01T08:11:29Z</time>
      </trkpt>
      <trkpt lat="45.95377" lon="3.00678">
        <ele>716.3195801</ele>
        <time>2011-05-01T08:11:36Z</time>
      </trkpt>
      <trkpt lat="45.95361" lon="3.00655">
        <ele>716.800293</ele>
        <time>2011-05-01T08:11:41Z</time>
      </trkpt>
      <trkpt lat="45.95348" lon="3.00627">
        <ele>717.2810059</ele>
        <time>2011-05-01T08:11:46Z</time>
      </trkpt>
      <trkpt lat="45.95345" lon="3.00609">
        <ele>717.2810059</ele>
        <time>2011-05-01T08:11:49Z</time>
      </trkpt>
      <trkpt lat="45.95337" lon="3.00568">
        <ele>717.2810059</ele>
        <time>2011-05-01T08:11:55Z</time>
      </trkpt>
      <trkpt lat="45.95328" lon="3.00531">
        <ele>715.8388672</ele>
        <time>2011-05-01T08:12:00Z</time>
      </trkpt>
      <trkpt lat="45.9532" lon="3.00498">
        <ele>714.3967285</ele>
        <time>2011-05-01T08:12:04Z</time>
      </trkpt>
      <trkpt lat="45.95316" lon="3.0048">
        <ele>714.3967285</ele>
        <time>2011-05-01T08:12:06Z</time>
      </trkpt>
      <trkpt lat="45.95311" lon="3.00461">
        <ele>712.954834</ele>
        <time>2011-05-01T08:12:08Z</time>
      </trkpt>
      <trkpt lat="45.95294" lon="3.00426">
        <ele>711.0322266</ele>
        <time>2011-05-01T08:12:12Z</time>
      </trkpt>
      <trkpt lat="45.95283" lon="3.00412">
        <ele>711.9936523</ele>
        <time>2011-05-01T08:12:14Z</time>
      </trkpt>
      <trkpt lat="45.95269" lon="3.00379">
        <ele>709.590332</ele>
        <time>2011-05-01T08:12:18Z</time>
      </trkpt>
      <trkpt lat="45.95267" lon="3.0037">
        <ele>709.590332</ele>
        <time>2011-05-01T08:12:19Z</time>
      </trkpt>
      <trkpt lat="45.95255" lon="3.00303">
        <ele>708.1484375</ele>
        <time>2011-05-01T08:12:26Z</time>
      </trkpt>
      <trkpt lat="45.95253" lon="3.00239">
        <ele>707.1870117</ele>
        <time>2011-05-01T08:12:32Z</time>
      </trkpt>
      <trkpt lat="45.95254" lon="3.00228">
        <ele>706.2255859</ele>
        <time>2011-05-01T08:12:33Z</time>
      </trkpt>
      <trkpt lat="45.95257" lon="3.00206">
        <ele>705.2644043</ele>
        <time>2011-05-01T08:12:35Z</time>
      </trkpt>
      <trkpt lat="45.95272" lon="3.00177">
        <ele>703.3417969</ele>
        <time>2011-05-01T08:12:38Z</time>
      </trkpt>
      <trkpt lat="45.95291" lon="3.00147">
        <ele>701.8999023</ele>
        <time>2011-05-01T08:12:41Z</time>
      </trkpt>
      <trkpt lat="45.95305" lon="3.00102">
        <ele>698.5349121</ele>
        <time>2011-05-01T08:12:45Z</time>
      </trkpt>
      <trkpt lat="45.95306" lon="3.0009">
        <ele>698.5349121</ele>
        <time>2011-05-01T08:12:46Z</time>
      </trkpt>
      <trkpt lat="45.95304" lon="3.00068">
        <ele>698.5349121</ele>
        <time>2011-05-01T08:12:48Z</time>
      </trkpt>
      <trkpt lat="45.95295" lon="3.00009">
        <ele>699.4963379</ele>
        <time>2011-05-01T08:12:54Z</time>
      </trkpt>
      <trkpt lat="45.95286" lon="2.99974">
        <ele>699.4963379</ele>
        <time>2011-05-01T08:12:58Z</time>
      </trkpt>
      <trkpt lat="45.95284" lon="2.99965">
        <ele>700.4580078</ele>
        <time>2011-05-01T08:12:59Z</time>
      </trkpt>
      <trkpt lat="45.95271" lon="2.9992">
        <ele>699.4963379</ele>
        <time>2011-05-01T08:13:04Z</time>
      </trkpt>
      <trkpt lat="45.95254" lon="2.99887">
        <ele>698.5349121</ele>
        <time>2011-05-01T08:13:08Z</time>
      </trkpt>
      <trkpt lat="45.95232" lon="2.99839">
        <ele>699.015625</ele>
        <time>2011-05-01T08:13:14Z</time>
      </trkpt>
      <trkpt lat="45.95218" lon="2.99797">
        <ele>699.9770508</ele>
        <time>2011-05-01T08:13:20Z</time>
      </trkpt>
      <trkpt lat="45.95217" lon="2.99791">
        <ele>700.4580078</ele>
        <time>2011-05-01T08:13:21Z</time>
      </trkpt>
      <trkpt lat="45.95211" lon="2.99752">
        <ele>702.3803711</ele>
        <time>2011-05-01T08:13:27Z</time>
      </trkpt>
      <trkpt lat="45.95211" lon="2.99746">
        <ele>702.861084</ele>
        <time>2011-05-01T08:13:28Z</time>
      </trkpt>
      <trkpt lat="45.95209" lon="2.99727">
        <ele>702.3803711</ele>
        <time>2011-05-01T08:13:31Z</time>
      </trkpt>
      <trkpt lat="45.95206" lon="2.99708">
        <ele>702.861084</ele>
        <time>2011-05-01T08:13:34Z</time>
      </trkpt>
      <trkpt lat="45.95205" lon="2.99702">
        <ele>703.3417969</ele>
        <time>2011-05-01T08:13:35Z</time>
      </trkpt>
      <trkpt lat="45.95205" lon="2.99695">
        <ele>703.3417969</ele>
        <time>2011-05-01T08:13:36Z</time>
      </trkpt>
      <trkpt lat="45.95203" lon="2.99683">
        <ele>703.8225098</ele>
        <time>2011-05-01T08:13:38Z</time>
      </trkpt>
      <trkpt lat="45.95202" lon="2.99676">
        <ele>703.8225098</ele>
        <time>2011-05-01T08:13:39Z</time>
      </trkpt>
      <trkpt lat="45.95199" lon="2.99612">
        <ele>704.7836914</ele>
        <time>2011-05-01T08:13:49Z</time>
      </trkpt>
      <trkpt lat="45.95197" lon="2.99572">
        <ele>707.1870117</ele>
        <time>2011-05-01T08:13:56Z</time>
      </trkpt>
      <trkpt lat="45.95194" lon="2.99523">
        <ele>709.1096191</ele>
        <time>2011-05-01T08:14:07Z</time>
      </trkpt>
      <trkpt lat="45.95192" lon="2.99494">
        <ele>711.5129395</ele>
        <time>2011-05-01T08:14:14Z</time>
      </trkpt>
      <trkpt lat="45.95191" lon="2.99489">
        <ele>711.9936523</ele>
        <time>2011-05-01T08:14:15Z</time>
      </trkpt>
      <trkpt lat="45.95185" lon="2.99452">
        <ele>712.954834</ele>
        <time>2011-05-01T08:14:23Z</time>
      </trkpt>
      <trkpt lat="45.95181" lon="2.99437">
        <ele>714.3967285</ele>
        <time>2011-05-01T08:14:26Z</time>
      </trkpt>
      <trkpt lat="45.95172" lon="2.99406">
        <ele>714.8774414</ele>
        <time>2011-05-01T08:14:32Z</time>
      </trkpt>
      <trkpt lat="45.95166" lon="2.99383">
        <ele>714.8774414</ele>
        <time>2011-05-01T08:14:36Z</time>
      </trkpt>
      <trkpt lat="45.95154" lon="2.99343">
        <ele>714.3967285</ele>
        <time>2011-05-01T08:14:42Z</time>
      </trkpt>
      <trkpt lat="45.95152" lon="2.99335">
        <ele>714.3967285</ele>
        <time>2011-05-01T08:14:43Z</time>
      </trkpt>
      <trkpt lat="45.95151" lon="2.99283">
        <ele>715.8388672</ele>
        <time>2011-05-01T08:14:50Z</time>
      </trkpt>
      <trkpt lat="45.95151" lon="2.99261">
        <ele>716.3195801</ele>
        <time>2011-05-01T08:14:53Z</time>
      </trkpt>
      <trkpt lat="45.95144" lon="2.99213">
        <ele>716.800293</ele>
        <time>2011-05-01T08:15:00Z</time>
      </trkpt>
      <trkpt lat="45.95127" lon="2.99159">
        <ele>716.800293</ele>
        <time>2011-05-01T08:15:08Z</time>
      </trkpt>
      <trkpt lat="45.95112" lon="2.99124">
        <ele>715.8388672</ele>
        <time>2011-05-01T08:15:13Z</time>
      </trkpt>
      <trkpt lat="45.95088" lon="2.99096">
        <ele>714.8774414</ele>
        <time>2011-05-01T08:15:18Z</time>
      </trkpt>
      <trkpt lat="45.95051" lon="2.99076">
        <ele>714.3967285</ele>
        <time>2011-05-01T08:15:25Z</time>
      </trkpt>
      <trkpt lat="45.95045" lon="2.99072">
        <ele>713.9160156</ele>
        <time>2011-05-01T08:15:26Z</time>
      </trkpt>
      <trkpt lat="45.95016" lon="2.99062">
        <ele>712.954834</ele>
        <time>2011-05-01T08:15:31Z</time>
      </trkpt>
      <trkpt lat="45.94988" lon="2.99072">
        <ele>714.3967285</ele>
        <time>2011-05-01T08:15:36Z</time>
      </trkpt>
      <trkpt lat="45.94967" lon="2.99072">
        <ele>714.3967285</ele>
        <time>2011-05-01T08:15:40Z</time>
      </trkpt>
      <trkpt lat="45.94963" lon="2.99069">
        <ele>714.3967285</ele>
        <time>2011-05-01T08:15:41Z</time>
      </trkpt>
      <trkpt lat="45.94955" lon="2.99063">
        <ele>714.8774414</ele>
        <time>2011-05-01T08:15:43Z</time>
      </trkpt>
      <trkpt lat="45.94926" lon="2.99036">
        <ele>715.3581543</ele>
        <time>2011-05-01T08:15:51Z</time>
      </trkpt>
      <trkpt lat="45.94904" lon="2.99023">
        <ele>716.3195801</ele>
        <time>2011-05-01T08:15:58Z</time>
      </trkpt>
      <trkpt lat="45.94894" lon="2.99008">
        <ele>718.7229004</ele>
        <time>2011-05-01T08:16:03Z</time>
      </trkpt>
      <trkpt lat="45.94894" lon="2.99003">
        <ele>718.7229004</ele>
        <time>2011-05-01T08:16:04Z</time>
      </trkpt>
      <trkpt lat="45.94891" lon="2.98987">
        <ele>719.2036133</ele>
        <time>2011-05-01T08:16:08Z</time>
      </trkpt>
      <trkpt lat="45.94883" lon="2.98976">
        <ele>720.1647949</ele>
        <time>2011-05-01T08:16:12Z</time>
      </trkpt>
      <trkpt lat="45.94864" lon="2.98967">
        <ele>722.0874023</ele>
        <time>2011-05-01T08:16:19Z</time>
      </trkpt>
      <trkpt lat="45.94847" lon="2.98949">
        <ele>724.0100098</ele>
        <time>2011-05-01T08:16:27Z</time>
      </trkpt>
      <trkpt lat="45.94842" lon="2.98926">
        <ele>725.4519043</ele>
        <time>2011-05-01T08:16:33Z</time>
      </trkpt>
      <trkpt lat="45.94834" lon="2.98902">
        <ele>724.9714355</ele>
        <time>2011-05-01T08:16:38Z</time>
      </trkpt>
      <trkpt lat="45.94832" lon="2.98891">
        <ele>725.4519043</ele>
        <time>2011-05-01T08:16:40Z</time>
      </trkpt>
      <trkpt lat="45.94823" lon="2.98871">
        <ele>725.9326172</ele>
        <time>2011-05-01T08:16:44Z</time>
      </trkpt>
      <trkpt lat="45.94807" lon="2.98854">
        <ele>726.4133301</ele>
        <time>2011-05-01T08:16:49Z</time>
      </trkpt>
      <trkpt lat="45.94791" lon="2.98844">
        <ele>727.3747559</ele>
        <time>2011-05-01T08:16:54Z</time>
      </trkpt>
      <trkpt lat="45.94774" lon="2.9884">
        <ele>728.8166504</ele>
        <time>2011-05-01T08:17:00Z</time>
      </trkpt>
      <trkpt lat="45.94757" lon="2.9883">
        <ele>730.2585449</ele>
        <time>2011-05-01T08:17:06Z</time>
      </trkpt>
      <trkpt lat="45.94733" lon="2.98806">
        <ele>732.1813965</ele>
        <time>2011-05-01T08:17:15Z</time>
      </trkpt>
      <trkpt lat="45.94716" lon="2.98782">
        <ele>733.623291</ele>
        <time>2011-05-01T08:17:23Z</time>
      </trkpt>
      <trkpt lat="45.94698" lon="2.98747">
        <ele>736.0266113</ele>
        <time>2011-05-01T08:17:33Z</time>
      </trkpt>
      <trkpt lat="45.94681" lon="2.98721">
        <ele>737.4685059</ele>
        <time>2011-05-01T08:17:41Z</time>
      </trkpt>
      <trkpt lat="45.94664" lon="2.98695">
        <ele>739.8718262</ele>
        <time>2011-05-01T08:17:49Z</time>
      </trkpt>
      <trkpt lat="45.94645" lon="2.98671">
        <ele>741.3137207</ele>
        <time>2011-05-01T08:17:57Z</time>
      </trkpt>
      <trkpt lat="45.94623" lon="2.98648">
        <ele>743.717041</ele>
        <time>2011-05-01T08:18:06Z</time>
      </trkpt>
      <trkpt lat="45.94608" lon="2.98628">
        <ele>745.6396484</ele>
        <time>2011-05-01T08:18:13Z</time>
      </trkpt>
      <trkpt lat="45.94588" lon="2.98608">
        <ele>747.081543</ele>
        <time>2011-05-01T08:18:21Z</time>
      </trkpt>
      <trkpt lat="45.94576" lon="2.98588">
        <ele>748.5236816</ele>
        <time>2011-05-01T08:18:27Z</time>
      </trkpt>
      <trkpt lat="45.94566" lon="2.98556">
        <ele>748.5236816</ele>
        <time>2011-05-01T08:18:34Z</time>
      </trkpt>
      <trkpt lat="45.94554" lon="2.98534">
        <ele>748.5236816</ele>
        <time>2011-05-01T08:18:39Z</time>
      </trkpt>
      <trkpt lat="45.94546" lon="2.98514">
        <ele>748.5236816</ele>
        <time>2011-05-01T08:18:43Z</time>
      </trkpt>
      <trkpt lat="45.94547" lon="2.98508">
        <ele>748.5236816</ele>
        <time>2011-05-01T08:18:44Z</time>
      </trkpt>
      <trkpt lat="45.94552" lon="2.98479">
        <ele>749.0043945</ele>
        <time>2011-05-01T08:18:49Z</time>
      </trkpt>
      <trkpt lat="45.94556" lon="2.98435">
        <ele>750.4465332</ele>
        <time>2011-05-01T08:18:56Z</time>
      </trkpt>
      <trkpt lat="45.9456" lon="2.98416">
        <ele>749.9658203</ele>
        <time>2011-05-01T08:18:59Z</time>
      </trkpt>
      <trkpt lat="45.94561" lon="2.98384">
        <ele>750.927002</ele>
        <time>2011-05-01T08:19:04Z</time>
      </trkpt>
      <trkpt lat="45.9456" lon="2.98351">
        <ele>752.3688965</ele>
        <time>2011-05-01T08:19:09Z</time>
      </trkpt>
      <trkpt lat="45.94561" lon="2.98297">
        <ele>753.8110352</ele>
        <time>2011-05-01T08:19:18Z</time>
      </trkpt>
      <trkpt lat="45.94564" lon="2.98259">
        <ele>754.291748</ele>
        <time>2011-05-01T08:19:24Z</time>
      </trkpt>
      <trkpt lat="45.94564" lon="2.98203">
        <ele>755.2529297</ele>
        <time>2011-05-01T08:19:32Z</time>
      </trkpt>
      <trkpt lat="45.94563" lon="2.9818">
        <ele>754.7722168</ele>
        <time>2011-05-01T08:19:35Z</time>
      </trkpt>
      <trkpt lat="45.94556" lon="2.98123">
        <ele>755.2529297</ele>
        <time>2011-05-01T08:19:43Z</time>
      </trkpt>
      <trkpt lat="45.94551" lon="2.98076">
        <ele>756.2141113</ele>
        <time>2011-05-01T08:19:50Z</time>
      </trkpt>
      <trkpt lat="45.94539" lon="2.98029">
        <ele>756.2141113</ele>
        <time>2011-05-01T08:19:57Z</time>
      </trkpt>
      <trkpt lat="45.94529" lon="2.97982">
        <ele>757.1755371</ele>
        <time>2011-05-01T08:20:04Z</time>
      </trkpt>
      <trkpt lat="45.94526" lon="2.97963">
        <ele>757.65625</ele>
        <time>2011-05-01T08:20:07Z</time>
      </trkpt>
      <trkpt lat="45.94522" lon="2.97909">
        <ele>758.6174316</ele>
        <time>2011-05-01T08:20:16Z</time>
      </trkpt>
      <trkpt lat="45.94521" lon="2.97898">
        <ele>759.0981445</ele>
        <time>2011-05-01T08:20:18Z</time>
      </trkpt>
      <trkpt lat="45.94515" lon="2.97865">
        <ele>760.0593262</ele>
        <time>2011-05-01T08:20:24Z</time>
      </trkpt>
      <trkpt lat="45.94497" lon="2.9784">
        <ele>761.020752</ele>
        <time>2011-05-01T08:20:30Z</time>
      </trkpt>
      <trkpt lat="45.94493" lon="2.97837">
        <ele>760.5400391</ele>
        <time>2011-05-01T08:20:31Z</time>
      </trkpt>
      <trkpt lat="45.94468" lon="2.9781">
        <ele>761.9821777</ele>
        <time>2011-05-01T08:20:39Z</time>
      </trkpt>
      <trkpt lat="45.94451" lon="2.97793">
        <ele>763.904541</ele>
        <time>2011-05-01T08:20:45Z</time>
      </trkpt>
      <trkpt lat="45.94432" lon="2.97774">
        <ele>765.3469238</ele>
        <time>2011-05-01T08:20:52Z</time>
      </trkpt>
      <trkpt lat="45.9441" lon="2.97751">
        <ele>766.3081055</ele>
        <time>2011-05-01T08:21:00Z</time>
      </trkpt>
      <trkpt lat="45.94386" lon="2.97731">
        <ele>767.2695313</ele>
        <time>2011-05-01T08:21:08Z</time>
      </trkpt>
      <trkpt lat="45.94365" lon="2.97721">
        <ele>768.7114258</ele>
        <time>2011-05-01T08:21:15Z</time>
      </trkpt>
      <trkpt lat="45.94343" lon="2.97712">
        <ele>769.6728516</ele>
        <time>2011-05-01T08:21:22Z</time>
      </trkpt>
      <trkpt lat="45.94322" lon="2.97705">
        <ele>770.6340332</ele>
        <time>2011-05-01T08:21:29Z</time>
      </trkpt>
      <trkpt lat="45.94301" lon="2.97696">
        <ele>772.0759277</ele>
        <time>2011-05-01T08:21:36Z</time>
      </trkpt>
      <trkpt lat="45.94284" lon="2.97689">
        <ele>774.9599609</ele>
        <time>2011-05-01T08:21:42Z</time>
      </trkpt>
      <trkpt lat="45.94261" lon="2.9768">
        <ele>775.9211426</ele>
        <time>2011-05-01T08:21:50Z</time>
      </trkpt>
      <trkpt lat="45.94237" lon="2.97672">
        <ele>777.84375</ele>
        <time>2011-05-01T08:21:58Z</time>
      </trkpt>
      <trkpt lat="45.94208" lon="2.97661">
        <ele>779.7663574</ele>
        <time>2011-05-01T08:22:08Z</time>
      </trkpt>
      <trkpt lat="45.94184" lon="2.97648">
        <ele>781.2087402</ele>
        <time>2011-05-01T08:22:16Z</time>
      </trkpt>
      <trkpt lat="45.9416" lon="2.97629">
        <ele>781.689209</ele>
        <time>2011-05-01T08:22:24Z</time>
      </trkpt>
      <trkpt lat="45.94142" lon="2.9761">
        <ele>782.1699219</ele>
        <time>2011-05-01T08:22:31Z</time>
      </trkpt>
      <trkpt lat="45.94123" lon="2.97589">
        <ele>783.6118164</ele>
        <time>2011-05-01T08:22:39Z</time>
      </trkpt>
      <trkpt lat="45.94104" lon="2.97572">
        <ele>785.0539551</ele>
        <time>2011-05-01T08:22:46Z</time>
      </trkpt>
      <trkpt lat="45.9408" lon="2.97556">
        <ele>786.4958496</ele>
        <time>2011-05-01T08:22:55Z</time>
      </trkpt>
      <trkpt lat="45.94055" lon="2.97536">
        <ele>789.3796387</ele>
        <time>2011-05-01T08:23:05Z</time>
      </trkpt>
      <trkpt lat="45.94032" lon="2.97513">
        <ele>791.782959</ele>
        <time>2011-05-01T08:23:15Z</time>
      </trkpt>
      <trkpt lat="45.9402" lon="2.97501">
        <ele>792.7443848</ele>
        <time>2011-05-01T08:23:20Z</time>
      </trkpt>
      <trkpt lat="45.93999" lon="2.97478">
        <ele>794.666748</ele>
        <time>2011-05-01T08:23:29Z</time>
      </trkpt>
      <trkpt lat="45.93983" lon="2.97457">
        <ele>796.5898438</ele>
        <time>2011-05-01T08:23:36Z</time>
      </trkpt>
      <trkpt lat="45.93966" lon="2.97427">
        <ele>796.5898438</ele>
        <time>2011-05-01T08:23:44Z</time>
      </trkpt>
      <trkpt lat="45.93947" lon="2.97394">
        <ele>796.5898438</ele>
        <time>2011-05-01T08:23:51Z</time>
      </trkpt>
      <trkpt lat="45.93943" lon="2.97389">
        <ele>796.5898438</ele>
        <time>2011-05-01T08:23:52Z</time>
      </trkpt>
      <trkpt lat="45.93918" lon="2.97362">
        <ele>796.5898438</ele>
        <time>2011-05-01T08:23:59Z</time>
      </trkpt>
      <trkpt lat="45.93894" lon="2.9734">
        <ele>795.6281738</ele>
        <time>2011-05-01T08:24:04Z</time>
      </trkpt>
      <trkpt lat="45.93863" lon="2.97308">
        <ele>794.666748</ele>
        <time>2011-05-01T08:24:10Z</time>
      </trkpt>
      <trkpt lat="45.93835" lon="2.97282">
        <ele>794.1862793</ele>
        <time>2011-05-01T08:24:15Z</time>
      </trkpt>
      <trkpt lat="45.93815" lon="2.97263">
        <ele>793.7055664</ele>
        <time>2011-05-01T08:24:19Z</time>
      </trkpt>
      <trkpt lat="45.93806" lon="2.97254">
        <ele>793.7055664</ele>
        <time>2011-05-01T08:24:21Z</time>
      </trkpt>
      <trkpt lat="45.93778" lon="2.97228">
        <ele>793.2248535</ele>
        <time>2011-05-01T08:24:28Z</time>
      </trkpt>
      <trkpt lat="45.93765" lon="2.97207">
        <ele>794.1862793</ele>
        <time>2011-05-01T08:24:32Z</time>
      </trkpt>
      <trkpt lat="45.93746" lon="2.97192">
        <ele>795.1474609</ele>
        <time>2011-05-01T08:24:37Z</time>
      </trkpt>
      <trkpt lat="45.93742" lon="2.97192">
        <ele>795.1474609</ele>
        <time>2011-05-01T08:24:38Z</time>
      </trkpt>
      <trkpt lat="45.9372" lon="2.9719">
        <ele>796.1091309</ele>
        <time>2011-05-01T08:24:45Z</time>
      </trkpt>
      <trkpt lat="45.93704" lon="2.9719">
        <ele>797.5510254</ele>
        <time>2011-05-01T08:24:51Z</time>
      </trkpt>
      <trkpt lat="45.93693" lon="2.97192">
        <ele>798.9929199</ele>
        <time>2011-05-01T08:24:55Z</time>
      </trkpt>
      <trkpt lat="45.93676" lon="2.97198">
        <ele>801.3962402</ele>
        <time>2011-05-01T08:25:02Z</time>
      </trkpt>
      <trkpt lat="45.93671" lon="2.972">
        <ele>802.3574219</ele>
        <time>2011-05-01T08:25:04Z</time>
      </trkpt>
      <trkpt lat="45.93657" lon="2.97205">
        <ele>803.7995605</ele>
        <time>2011-05-01T08:25:11Z</time>
      </trkpt>
      <trkpt lat="45.93642" lon="2.97205">
        <ele>805.722168</ele>
        <time>2011-05-01T08:25:18Z</time>
      </trkpt>
      <trkpt lat="45.93628" lon="2.97197">
        <ele>807.6447754</ele>
        <time>2011-05-01T08:25:25Z</time>
      </trkpt>
      <trkpt lat="45.93618" lon="2.97191">
        <ele>809.0866699</ele>
        <time>2011-05-01T08:25:30Z</time>
      </trkpt>
      <trkpt lat="45.93602" lon="2.97181">
        <ele>810.0478516</ele>
        <time>2011-05-01T08:25:38Z</time>
      </trkpt>
      <trkpt lat="45.93582" lon="2.97172">
        <ele>811.4899902</ele>
        <time>2011-05-01T08:25:47Z</time>
      </trkpt>
      <trkpt lat="45.93561" lon="2.97167">
        <ele>813.8933105</ele>
        <time>2011-05-01T08:25:56Z</time>
      </trkpt>
      <trkpt lat="45.9354" lon="2.97168">
        <ele>815.8161621</ele>
        <time>2011-05-01T08:26:05Z</time>
      </trkpt>
      <trkpt lat="45.9352" lon="2.97174">
        <ele>816.7773438</ele>
        <time>2011-05-01T08:26:13Z</time>
      </trkpt>
      <trkpt lat="45.93495" lon="2.97185">
        <ele>819.1806641</ele>
        <time>2011-05-01T08:26:23Z</time>
      </trkpt>
      <trkpt lat="45.93485" lon="2.97189">
        <ele>819.661377</ele>
        <time>2011-05-01T08:26:27Z</time>
      </trkpt>
      <trkpt lat="45.93459" lon="2.97199">
        <ele>821.1032715</ele>
        <time>2011-05-01T08:26:37Z</time>
      </trkpt>
      <trkpt lat="45.93435" lon="2.97202">
        <ele>821.5837402</ele>
        <time>2011-05-01T08:26:45Z</time>
      </trkpt>
      <trkpt lat="45.93409" lon="2.97201">
        <ele>820.6225586</ele>
        <time>2011-05-01T08:26:51Z</time>
      </trkpt>
      <trkpt lat="45.93372" lon="2.97192">
        <ele>821.1032715</ele>
        <time>2011-05-01T08:26:59Z</time>
      </trkpt>
      <trkpt lat="45.93333" lon="2.97183">
        <ele>821.1032715</ele>
        <time>2011-05-01T08:27:08Z</time>
      </trkpt>
      <trkpt lat="45.93302" lon="2.97173">
        <ele>823.0258789</ele>
        <time>2011-05-01T08:27:16Z</time>
      </trkpt>
      <trkpt lat="45.93281" lon="2.97166">
        <ele>823.0258789</ele>
        <time>2011-05-01T08:27:22Z</time>
      </trkpt>
      <trkpt lat="45.93259" lon="2.97155">
        <ele>823.9870605</ele>
        <time>2011-05-01T08:27:29Z</time>
      </trkpt>
      <trkpt lat="45.93252" lon="2.9715">
        <ele>824.9484863</ele>
        <time>2011-05-01T08:27:32Z</time>
      </trkpt>
      <trkpt lat="45.93237" lon="2.97138">
        <ele>827.3518066</ele>
        <time>2011-05-01T08:27:39Z</time>
      </trkpt>
      <trkpt lat="45.93227" lon="2.97128">
        <ele>829.755127</ele>
        <time>2011-05-01T08:27:44Z</time>
      </trkpt>
      <trkpt lat="45.93223" lon="2.97122">
        <ele>830.2358398</ele>
        <time>2011-05-01T08:27:47Z</time>
      </trkpt>
      <trkpt lat="45.93213" lon="2.97109">
        <ele>831.1972656</ele>
        <time>2011-05-01T08:27:53Z</time>
      </trkpt>
      <trkpt lat="45.93201" lon="2.97088">
        <ele>832.1584473</ele>
        <time>2011-05-01T08:28:02Z</time>
      </trkpt>
      <trkpt lat="45.932" lon="2.97085">
        <ele>833.1196289</ele>
        <time>2011-05-01T08:28:03Z</time>
      </trkpt>
      <trkpt lat="45.93192" lon="2.9707">
        <ele>834.5617676</ele>
        <time>2011-05-01T08:28:09Z</time>
      </trkpt>
      <trkpt lat="45.93181" lon="2.97051">
        <ele>836.0036621</ele>
        <time>2011-05-01T08:28:16Z</time>
      </trkpt>
      <trkpt lat="45.93164" lon="2.97029">
        <ele>836.484375</ele>
        <time>2011-05-01T08:28:23Z</time>
      </trkpt>
      <trkpt lat="45.93137" lon="2.97006">
        <ele>837.9262695</ele>
        <time>2011-05-01T08:28:32Z</time>
      </trkpt>
      <trkpt lat="45.93108" lon="2.96981">
        <ele>837.9262695</ele>
        <time>2011-05-01T08:28:41Z</time>
      </trkpt>
      <trkpt lat="45.93079" lon="2.96959">
        <ele>837.9262695</ele>
        <time>2011-05-01T08:28:48Z</time>
      </trkpt>
      <trkpt lat="45.9305" lon="2.96936">
        <ele>837.4455566</ele>
        <time>2011-05-01T08:28:54Z</time>
      </trkpt>
      <trkpt lat="45.93032" lon="2.96918">
        <ele>836.484375</ele>
        <time>2011-05-01T08:28:58Z</time>
      </trkpt>
      <trkpt lat="45.93012" lon="2.96901">
        <ele>836.9648438</ele>
        <time>2011-05-01T08:29:02Z</time>
      </trkpt>
      <trkpt lat="45.92986" lon="2.96882">
        <ele>836.0036621</ele>
        <time>2011-05-01T08:29:07Z</time>
      </trkpt>
      <trkpt lat="45.92975" lon="2.96873">
        <ele>836.0036621</ele>
        <time>2011-05-01T08:29:09Z</time>
      </trkpt>
      <trkpt lat="45.92939" lon="2.96826">
        <ele>835.5229492</ele>
        <time>2011-05-01T08:29:17Z</time>
      </trkpt>
      <trkpt lat="45.92915" lon="2.96795">
        <ele>837.4455566</ele>
        <time>2011-05-01T08:29:24Z</time>
      </trkpt>
      <trkpt lat="45.92894" lon="2.96769">
        <ele>838.4069824</ele>
        <time>2011-05-01T08:29:31Z</time>
      </trkpt>
      <trkpt lat="45.92884" lon="2.96755">
        <ele>839.848877</ele>
        <time>2011-05-01T08:29:35Z</time>
      </trkpt>
      <trkpt lat="45.92875" lon="2.96744">
        <ele>841.2907715</ele>
        <time>2011-05-01T08:29:39Z</time>
      </trkpt>
      <trkpt lat="45.92872" lon="2.96742">
        <ele>841.2907715</ele>
        <time>2011-05-01T08:29:40Z</time>
      </trkpt>
      <trkpt lat="45.92863" lon="2.96732">
        <ele>843.2133789</ele>
        <time>2011-05-01T08:29:44Z</time>
      </trkpt>
      <trkpt lat="45.92853" lon="2.96721">
        <ele>843.6940918</ele>
        <time>2011-05-01T08:29:48Z</time>
      </trkpt>
      <trkpt lat="45.92848" lon="2.96716">
        <ele>844.6555176</ele>
        <time>2011-05-01T08:29:50Z</time>
      </trkpt>
      <trkpt lat="45.92833" lon="2.96703">
        <ele>845.1362305</ele>
        <time>2011-05-01T08:29:55Z</time>
      </trkpt>
      <trkpt lat="45.92808" lon="2.96678">
        <ele>846.5783691</ele>
        <time>2011-05-01T08:30:04Z</time>
      </trkpt>
      <trkpt lat="45.92786" lon="2.96649">
        <ele>847.5395508</ele>
        <time>2011-05-01T08:30:12Z</time>
      </trkpt>
      <trkpt lat="45.92768" lon="2.96623">
        <ele>848.0202637</ele>
        <time>2011-05-01T08:30:18Z</time>
      </trkpt>
      <trkpt lat="45.92754" lon="2.96594">
        <ele>848.5007324</ele>
        <time>2011-05-01T08:30:24Z</time>
      </trkpt>
      <trkpt lat="45.92743" lon="2.96555">
        <ele>848.5007324</ele>
        <time>2011-05-01T08:30:31Z</time>
      </trkpt>
      <trkpt lat="45.92742" lon="2.96549">
        <ele>848.5007324</ele>
        <time>2011-05-01T08:30:32Z</time>
      </trkpt>
      <trkpt lat="45.92734" lon="2.96489">
        <ele>848.9814453</ele>
        <time>2011-05-01T08:30:42Z</time>
      </trkpt>
      <trkpt lat="45.92727" lon="2.96438">
        <ele>848.0202637</ele>
        <time>2011-05-01T08:30:49Z</time>
      </trkpt>
      <trkpt lat="45.92728" lon="2.96423">
        <ele>848.0202637</ele>
        <time>2011-05-01T08:30:51Z</time>
      </trkpt>
      <trkpt lat="45.92723" lon="2.96402">
        <ele>848.5007324</ele>
        <time>2011-05-01T08:30:55Z</time>
      </trkpt>
      <trkpt lat="45.92701" lon="2.96383">
        <ele>849.4621582</ele>
        <time>2011-05-01T08:31:02Z</time>
      </trkpt>
      <trkpt lat="45.92674" lon="2.9636">
        <ele>849.4621582</ele>
        <time>2011-05-01T08:31:11Z</time>
      </trkpt>
      <trkpt lat="45.92655" lon="2.96341">
        <ele>851.8654785</ele>
        <time>2011-05-01T08:31:18Z</time>
      </trkpt>
      <trkpt lat="45.92636" lon="2.96324">
        <ele>852.8266602</ele>
        <time>2011-05-01T08:31:25Z</time>
      </trkpt>
      <trkpt lat="45.92618" lon="2.96306">
        <ele>854.7492676</ele>
        <time>2011-05-01T08:31:32Z</time>
      </trkpt>
      <trkpt lat="45.92603" lon="2.96293">
        <ele>857.1525879</ele>
        <time>2011-05-01T08:31:38Z</time>
      </trkpt>
      <trkpt lat="45.9258" lon="2.96281">
        <ele>857.1525879</ele>
        <time>2011-05-01T08:31:46Z</time>
      </trkpt>
      <trkpt lat="45.92551" lon="2.96269">
        <ele>858.5944824</ele>
        <time>2011-05-01T08:31:55Z</time>
      </trkpt>
      <trkpt lat="45.92525" lon="2.96255">
        <ele>859.5559082</ele>
        <time>2011-05-01T08:32:03Z</time>
      </trkpt>
      <trkpt lat="45.92503" lon="2.96239">
        <ele>859.5559082</ele>
        <time>2011-05-01T08:32:09Z</time>
      </trkpt>
      <trkpt lat="45.92499" lon="2.96236">
        <ele>859.0751953</ele>
        <time>2011-05-01T08:32:10Z</time>
      </trkpt>
      <trkpt lat="45.92471" lon="2.96218">
        <ele>859.0751953</ele>
        <time>2011-05-01T08:32:16Z</time>
      </trkpt>
      <trkpt lat="45.9243" lon="2.96187">
        <ele>857.6333008</ele>
        <time>2011-05-01T08:32:24Z</time>
      </trkpt>
      <trkpt lat="45.92411" lon="2.96169">
        <ele>857.1525879</ele>
        <time>2011-05-01T08:32:28Z</time>
      </trkpt>
      <trkpt lat="45.92395" lon="2.96151">
        <ele>856.671875</ele>
        <time>2011-05-01T08:32:32Z</time>
      </trkpt>
      <trkpt lat="45.92392" lon="2.96147">
        <ele>856.1911621</ele>
        <time>2011-05-01T08:32:33Z</time>
      </trkpt>
      <trkpt lat="45.92362" lon="2.96128">
        <ele>857.6333008</ele>
        <time>2011-05-01T08:32:40Z</time>
      </trkpt>
      <trkpt lat="45.92332" lon="2.96113">
        <ele>858.5944824</ele>
        <time>2011-05-01T08:32:47Z</time>
      </trkpt>
      <trkpt lat="45.92307" lon="2.96098">
        <ele>860.0366211</ele>
        <time>2011-05-01T08:32:54Z</time>
      </trkpt>
      <trkpt lat="45.92287" lon="2.96083">
        <ele>859.0751953</ele>
        <time>2011-05-01T08:32:59Z</time>
      </trkpt>
      <trkpt lat="45.92278" lon="2.96078">
        <ele>859.5559082</ele>
        <time>2011-05-01T08:33:01Z</time>
      </trkpt>
      <trkpt lat="45.92237" lon="2.96071">
        <ele>859.5559082</ele>
        <time>2011-05-01T08:33:09Z</time>
      </trkpt>
      <trkpt lat="45.92191" lon="2.96066">
        <ele>859.5559082</ele>
        <time>2011-05-01T08:33:18Z</time>
      </trkpt>
      <trkpt lat="45.92156" lon="2.96063">
        <ele>860.0366211</ele>
        <time>2011-05-01T08:33:25Z</time>
      </trkpt>
      <trkpt lat="45.92099" lon="2.96059">
        <ele>858.1140137</ele>
        <time>2011-05-01T08:33:36Z</time>
      </trkpt>
      <trkpt lat="45.92088" lon="2.96057">
        <ele>856.1911621</ele>
        <time>2011-05-01T08:33:38Z</time>
      </trkpt>
      <trkpt lat="45.9207" lon="2.96055">
        <ele>856.1911621</ele>
        <time>2011-05-01T08:33:41Z</time>
      </trkpt>
      <trkpt lat="45.92058" lon="2.96053">
        <ele>855.2299805</ele>
        <time>2011-05-01T08:33:43Z</time>
      </trkpt>
      <trkpt lat="45.92032" lon="2.96049">
        <ele>853.7880859</ele>
        <time>2011-05-01T08:33:47Z</time>
      </trkpt>
      <trkpt lat="45.92013" lon="2.96045">
        <ele>853.7880859</ele>
        <time>2011-05-01T08:33:50Z</time>
      </trkpt>
      <trkpt lat="45.9199" lon="2.9604">
        <ele>853.307373</ele>
        <time>2011-05-01T08:33:54Z</time>
      </trkpt>
      <trkpt lat="45.91971" lon="2.96037">
        <ele>852.8266602</ele>
        <time>2011-05-01T08:33:58Z</time>
      </trkpt>
      <trkpt lat="45.9195" lon="2.96035">
        <ele>852.8266602</ele>
        <time>2011-05-01T08:34:04Z</time>
      </trkpt>
      <trkpt lat="45.91945" lon="2.96036">
        <ele>853.307373</ele>
        <time>2011-05-01T08:34:08Z</time>
      </trkpt>
      <trkpt lat="45.91944" lon="2.96038">
        <ele>853.307373</ele>
        <time>2011-05-01T08:34:11Z</time>
      </trkpt>
      <trkpt lat="45.91944" lon="2.96038">
        <ele>853.7880859</ele>
        <time>2011-05-01T08:34:14Z</time>
      </trkpt>
      <trkpt lat="45.91944" lon="2.96038">
        <ele>852.3459473</ele>
        <time>2011-05-01T08:34:15Z</time>
      </trkpt>
      <trkpt lat="45.91946" lon="2.96039">
        <ele>853.307373</ele>
        <time>2011-05-01T08:35:17Z</time>
      </trkpt>
      <trkpt lat="45.91946" lon="2.96048">
        <ele>853.7880859</ele>
        <time>2011-05-01T08:35:22Z</time>
      </trkpt>
      <trkpt lat="45.91945" lon="2.9605">
        <ele>853.7880859</ele>
        <time>2011-05-01T08:35:23Z</time>
      </trkpt>
      <trkpt lat="45.91942" lon="2.96056">
        <ele>853.7880859</ele>
        <time>2011-05-01T08:35:25Z</time>
      </trkpt>
      <trkpt lat="45.91929" lon="2.96084">
        <ele>854.7492676</ele>
        <time>2011-05-01T08:35:32Z</time>
      </trkpt>
      <trkpt lat="45.91912" lon="2.96117">
        <ele>856.1911621</ele>
        <time>2011-05-01T08:35:39Z</time>
      </trkpt>
      <trkpt lat="45.91902" lon="2.96129">
        <ele>856.671875</ele>
        <time>2011-05-01T08:35:42Z</time>
      </trkpt>
      <trkpt lat="45.91891" lon="2.96137">
        <ele>857.1525879</ele>
        <time>2011-05-01T08:35:45Z</time>
      </trkpt>
      <trkpt lat="45.91884" lon="2.96142">
        <ele>856.1911621</ele>
        <time>2011-05-01T08:35:47Z</time>
      </trkpt>
      <trkpt lat="45.91876" lon="2.96147">
        <ele>856.1911621</ele>
        <time>2011-05-01T08:35:49Z</time>
      </trkpt>
      <trkpt lat="45.91868" lon="2.96151">
        <ele>855.7106934</ele>
        <time>2011-05-01T08:35:51Z</time>
      </trkpt>
      <trkpt lat="45.91858" lon="2.96158">
        <ele>855.2299805</ele>
        <time>2011-05-01T08:35:53Z</time>
      </trkpt>
      <trkpt lat="45.91847" lon="2.96167">
        <ele>854.7492676</ele>
        <time>2011-05-01T08:35:55Z</time>
      </trkpt>
      <trkpt lat="45.91821" lon="2.96204">
        <ele>853.307373</ele>
        <time>2011-05-01T08:36:00Z</time>
      </trkpt>
      <trkpt lat="45.91803" lon="2.96227">
        <ele>849.9428711</ele>
        <time>2011-05-01T08:36:03Z</time>
      </trkpt>
      <trkpt lat="45.91778" lon="2.96241">
        <ele>845.6169434</ele>
        <time>2011-05-01T08:36:06Z</time>
      </trkpt>
      <trkpt lat="45.91749" lon="2.96249">
        <ele>842.7329102</ele>
        <time>2011-05-01T08:36:09Z</time>
      </trkpt>
      <trkpt lat="45.91739" lon="2.96251">
        <ele>839.3681641</ele>
        <time>2011-05-01T08:36:10Z</time>
      </trkpt>
      <trkpt lat="45.91706" lon="2.96266">
        <ele>835.5229492</ele>
        <time>2011-05-01T08:36:14Z</time>
      </trkpt>
      <trkpt lat="45.91698" lon="2.96271">
        <ele>835.5229492</ele>
        <time>2011-05-01T08:36:15Z</time>
      </trkpt>
      <trkpt lat="45.91676" lon="2.96288">
        <ele>833.1196289</ele>
        <time>2011-05-01T08:36:18Z</time>
      </trkpt>
      <trkpt lat="45.9167" lon="2.96294">
        <ele>832.1584473</ele>
        <time>2011-05-01T08:36:19Z</time>
      </trkpt>
      <trkpt lat="45.91663" lon="2.963">
        <ele>832.6391602</ele>
        <time>2011-05-01T08:36:20Z</time>
      </trkpt>
      <trkpt lat="45.91641" lon="2.96312">
        <ele>827.8322754</ele>
        <time>2011-05-01T08:36:23Z</time>
      </trkpt>
      <trkpt lat="45.91633" lon="2.96314">
        <ele>826.8710938</ele>
        <time>2011-05-01T08:36:24Z</time>
      </trkpt>
      <trkpt lat="45.91616" lon="2.96315">
        <ele>824.4677734</ele>
        <time>2011-05-01T08:36:26Z</time>
      </trkpt>
      <trkpt lat="45.91582" lon="2.96318">
        <ele>824.4677734</ele>
        <time>2011-05-01T08:36:30Z</time>
      </trkpt>
      <trkpt lat="45.91574" lon="2.96319">
        <ele>823.9870605</ele>
        <time>2011-05-01T08:36:31Z</time>
      </trkpt>
      <trkpt lat="45.91535" lon="2.96319">
        <ele>823.0258789</ele>
        <time>2011-05-01T08:36:36Z</time>
      </trkpt>
      <trkpt lat="45.91505" lon="2.96324">
        <ele>822.0644531</ele>
        <time>2011-05-01T08:36:40Z</time>
      </trkpt>
      <trkpt lat="45.91461" lon="2.96338">
        <ele>821.1032715</ele>
        <time>2011-05-01T08:36:46Z</time>
      </trkpt>
      <trkpt lat="45.91433" lon="2.96353">
        <ele>820.6225586</ele>
        <time>2011-05-01T08:36:50Z</time>
      </trkpt>
      <trkpt lat="45.91421" lon="2.9636">
        <ele>819.661377</ele>
        <time>2011-05-01T08:36:52Z</time>
      </trkpt>
      <trkpt lat="45.91414" lon="2.96362">
        <ele>820.1418457</ele>
        <time>2011-05-01T08:36:53Z</time>
      </trkpt>
      <trkpt lat="45.91404" lon="2.96368">
        <ele>821.1032715</ele>
        <time>2011-05-01T08:36:55Z</time>
      </trkpt>
      <trkpt lat="45.91402" lon="2.96376">
        <ele>820.6225586</ele>
        <time>2011-05-01T08:36:58Z</time>
      </trkpt>
      <trkpt lat="45.91405" lon="2.96377">
        <ele>820.6225586</ele>
        <time>2011-05-01T08:36:59Z</time>
      </trkpt>
      <trkpt lat="45.91432" lon="2.96387">
        <ele>819.1806641</ele>
        <time>2011-05-01T08:37:04Z</time>
      </trkpt>
      <trkpt lat="45.91451" lon="2.96413">
        <ele>817.7385254</ele>
        <time>2011-05-01T08:37:08Z</time>
      </trkpt>
      <trkpt lat="45.91454" lon="2.96422">
        <ele>817.2580566</ele>
        <time>2011-05-01T08:37:09Z</time>
      </trkpt>
      <trkpt lat="45.91458" lon="2.9644">
        <ele>816.2966309</ele>
        <time>2011-05-01T08:37:11Z</time>
      </trkpt>
      <trkpt lat="45.91471" lon="2.96506">
        <ele>815.8161621</ele>
        <time>2011-05-01T08:37:18Z</time>
      </trkpt>
      <trkpt lat="45.91474" lon="2.96526">
        <ele>815.3354492</ele>
        <time>2011-05-01T08:37:20Z</time>
      </trkpt>
      <trkpt lat="45.91484" lon="2.96584">
        <ele>816.2966309</ele>
        <time>2011-05-01T08:37:26Z</time>
      </trkpt>
      <trkpt lat="45.91495" lon="2.96651">
        <ele>816.2966309</ele>
        <time>2011-05-01T08:37:34Z</time>
      </trkpt>
      <trkpt lat="45.91501" lon="2.96687">
        <ele>817.7385254</ele>
        <time>2011-05-01T08:37:39Z</time>
      </trkpt>
      <trkpt lat="45.91503" lon="2.96701">
        <ele>818.2192383</ele>
        <time>2011-05-01T08:37:41Z</time>
      </trkpt>
      <trkpt lat="45.91508" lon="2.96737">
        <ele>818.6999512</ele>
        <time>2011-05-01T08:37:46Z</time>
      </trkpt>
      <trkpt lat="45.9151" lon="2.96752">
        <ele>819.661377</ele>
        <time>2011-05-01T08:37:48Z</time>
      </trkpt>
      <trkpt lat="45.91512" lon="2.96759">
        <ele>820.1418457</ele>
        <time>2011-05-01T08:37:49Z</time>
      </trkpt>
      <trkpt lat="45.91516" lon="2.96787">
        <ele>820.6225586</ele>
        <time>2011-05-01T08:37:53Z</time>
      </trkpt>
      <trkpt lat="45.91518" lon="2.96804">
        <ele>819.661377</ele>
        <time>2011-05-01T08:37:55Z</time>
      </trkpt>
      <trkpt lat="45.91521" lon="2.96851">
        <ele>818.6999512</ele>
        <time>2011-05-01T08:38:00Z</time>
      </trkpt>
      <trkpt lat="45.91523" lon="2.96883">
        <ele>816.7773438</ele>
        <time>2011-05-01T08:38:03Z</time>
      </trkpt>
      <trkpt lat="45.91525" lon="2.96959">
        <ele>814.8547363</ele>
        <time>2011-05-01T08:38:10Z</time>
      </trkpt>
      <trkpt lat="45.91524" lon="2.97046">
        <ele>813.4128418</ele>
        <time>2011-05-01T08:38:18Z</time>
      </trkpt>
      <trkpt lat="45.9152" lon="2.97101">
        <ele>811.4899902</ele>
        <time>2011-05-01T08:38:23Z</time>
      </trkpt>
      <trkpt lat="45.91516" lon="2.9717">
        <ele>810.0478516</ele>
        <time>2011-05-01T08:38:29Z</time>
      </trkpt>
      <trkpt lat="45.91513" lon="2.97214">
        <ele>809.5673828</ele>
        <time>2011-05-01T08:38:33Z</time>
      </trkpt>
      <trkpt lat="45.91512" lon="2.97235">
        <ele>808.605957</ele>
        <time>2011-05-01T08:38:35Z</time>
      </trkpt>
      <trkpt lat="45.91512" lon="2.97256">
        <ele>808.1254883</ele>
        <time>2011-05-01T08:38:37Z</time>
      </trkpt>
      <trkpt lat="45.91515" lon="2.97278">
        <ele>805.2414551</ele>
        <time>2011-05-01T08:38:39Z</time>
      </trkpt>
      <trkpt lat="45.91517" lon="2.97287">
        <ele>804.2802734</ele>
        <time>2011-05-01T08:38:40Z</time>
      </trkpt>
      <trkpt lat="45.91521" lon="2.97295">
        <ele>803.3188477</ele>
        <time>2011-05-01T08:38:41Z</time>
      </trkpt>
      <trkpt lat="45.91534" lon="2.97314">
        <ele>800.4350586</ele>
        <time>2011-05-01T08:38:44Z</time>
      </trkpt>
      <trkpt lat="45.91553" lon="2.97333">
        <ele>798.9929199</ele>
        <time>2011-05-01T08:38:47Z</time>
      </trkpt>
      <trkpt lat="45.91564" lon="2.97352">
        <ele>796.1091309</ele>
        <time>2011-05-01T08:38:49Z</time>
      </trkpt>
      <trkpt lat="45.91586" lon="2.97399">
        <ele>792.7443848</ele>
        <time>2011-05-01T08:38:53Z</time>
      </trkpt>
      <trkpt lat="45.91609" lon="2.97451">
        <ele>787.9377441</ele>
        <time>2011-05-01T08:38:57Z</time>
      </trkpt>
      <trkpt lat="45.91629" lon="2.97501">
        <ele>784.0925293</ele>
        <time>2011-05-01T08:39:01Z</time>
      </trkpt>
      <trkpt lat="45.91631" lon="2.97531">
        <ele>780.7280273</ele>
        <time>2011-05-01T08:39:05Z</time>
      </trkpt>
      <trkpt lat="45.91615" lon="2.97544">
        <ele>780.2473145</ele>
        <time>2011-05-01T08:39:08Z</time>
      </trkpt>
      <trkpt lat="45.91584" lon="2.97556">
        <ele>780.2473145</ele>
        <time>2011-05-01T08:39:13Z</time>
      </trkpt>
      <trkpt lat="45.91558" lon="2.97559">
        <ele>780.7280273</ele>
        <time>2011-05-01T08:39:17Z</time>
      </trkpt>
      <trkpt lat="45.91552" lon="2.97558">
        <ele>779.7663574</ele>
        <time>2011-05-01T08:39:18Z</time>
      </trkpt>
      <trkpt lat="45.91512" lon="2.97554">
        <ele>778.3244629</ele>
        <time>2011-05-01T08:39:24Z</time>
      </trkpt>
      <trkpt lat="45.91504" lon="2.97554">
        <ele>777.84375</ele>
        <time>2011-05-01T08:39:25Z</time>
      </trkpt>
      <trkpt lat="45.91479" lon="2.97556">
        <ele>775.9211426</ele>
        <time>2011-05-01T08:39:28Z</time>
      </trkpt>
      <trkpt lat="45.91463" lon="2.9756">
        <ele>775.9211426</ele>
        <time>2011-05-01T08:39:30Z</time>
      </trkpt>
      <trkpt lat="45.91438" lon="2.97581">
        <ele>773.9985352</ele>
        <time>2011-05-01T08:39:34Z</time>
      </trkpt>
      <trkpt lat="45.91431" lon="2.97606">
        <ele>773.0373535</ele>
        <time>2011-05-01T08:39:37Z</time>
      </trkpt>
      <trkpt lat="45.91437" lon="2.97637">
        <ele>772.0759277</ele>
        <time>2011-05-01T08:39:40Z</time>
      </trkpt>
      <trkpt lat="45.91444" lon="2.97668">
        <ele>772.0759277</ele>
        <time>2011-05-01T08:39:43Z</time>
      </trkpt>
      <trkpt lat="45.91435" lon="2.97698">
        <ele>773.5180664</ele>
        <time>2011-05-01T08:39:47Z</time>
      </trkpt>
      <trkpt lat="45.91414" lon="2.97729">
        <ele>773.9985352</ele>
        <time>2011-05-01T08:39:52Z</time>
      </trkpt>
      <trkpt lat="45.91399" lon="2.97743">
        <ele>773.9985352</ele>
        <time>2011-05-01T08:39:55Z</time>
      </trkpt>
      <trkpt lat="45.91393" lon="2.97746">
        <ele>773.9985352</ele>
        <time>2011-05-01T08:39:56Z</time>
      </trkpt>
      <trkpt lat="45.91354" lon="2.97758">
        <ele>773.9985352</ele>
        <time>2011-05-01T08:40:03Z</time>
      </trkpt>
      <trkpt lat="45.9133" lon="2.97762">
        <ele>774.479248</ele>
        <time>2011-05-01T08:40:07Z</time>
      </trkpt>
      <trkpt lat="45.913" lon="2.9776">
        <ele>773.5180664</ele>
        <time>2011-05-01T08:40:12Z</time>
      </trkpt>
      <trkpt lat="45.91274" lon="2.97755">
        <ele>773.0373535</ele>
        <time>2011-05-01T08:40:16Z</time>
      </trkpt>
      <trkpt lat="45.91261" lon="2.97751">
        <ele>773.0373535</ele>
        <time>2011-05-01T08:40:18Z</time>
      </trkpt>
      <trkpt lat="45.9124" lon="2.97741">
        <ele>771.5952148</ele>
        <time>2011-05-01T08:40:21Z</time>
      </trkpt>
      <trkpt lat="45.91187" lon="2.97707">
        <ele>769.6728516</ele>
        <time>2011-05-01T08:40:29Z</time>
      </trkpt>
      <trkpt lat="45.91173" lon="2.97699">
        <ele>769.1921387</ele>
        <time>2011-05-01T08:40:31Z</time>
      </trkpt>
      <trkpt lat="45.91129" lon="2.97693">
        <ele>769.1921387</ele>
        <time>2011-05-01T08:40:37Z</time>
      </trkpt>
      <trkpt lat="45.91094" lon="2.97696">
        <ele>769.1921387</ele>
        <time>2011-05-01T08:40:42Z</time>
      </trkpt>
      <trkpt lat="45.91066" lon="2.977">
        <ele>770.1533203</ele>
        <time>2011-05-01T08:40:47Z</time>
      </trkpt>
      <trkpt lat="45.91048" lon="2.97706">
        <ele>771.5952148</ele>
        <time>2011-05-01T08:40:52Z</time>
      </trkpt>
      <trkpt lat="45.91043" lon="2.97713">
        <ele>773.0373535</ele>
        <time>2011-05-01T08:40:54Z</time>
      </trkpt>
      <trkpt lat="45.91041" lon="2.97734">
        <ele>773.5180664</ele>
        <time>2011-05-01T08:40:58Z</time>
      </trkpt>
      <trkpt lat="45.91047" lon="2.97787">
        <ele>773.5180664</ele>
        <time>2011-05-01T08:41:06Z</time>
      </trkpt>
      <trkpt lat="45.91054" lon="2.97833">
        <ele>773.5180664</ele>
        <time>2011-05-01T08:41:12Z</time>
      </trkpt>
      <trkpt lat="45.91058" lon="2.97855">
        <ele>773.9985352</ele>
        <time>2011-05-01T08:41:15Z</time>
      </trkpt>
      <trkpt lat="45.91056" lon="2.97913">
        <ele>775.4404297</ele>
        <time>2011-05-01T08:41:23Z</time>
      </trkpt>
      <trkpt lat="45.91054" lon="2.97934">
        <ele>775.9211426</ele>
        <time>2011-05-01T08:41:26Z</time>
      </trkpt>
      <trkpt lat="45.91044" lon="2.98018">
        <ele>775.4404297</ele>
        <time>2011-05-01T08:41:37Z</time>
      </trkpt>
      <trkpt lat="45.9104" lon="2.9809">
        <ele>774.479248</ele>
        <time>2011-05-01T08:41:45Z</time>
      </trkpt>
      <trkpt lat="45.91036" lon="2.98154">
        <ele>773.5180664</ele>
        <time>2011-05-01T08:41:52Z</time>
      </trkpt>
      <trkpt lat="45.91047" lon="2.98183">
        <ele>773.5180664</ele>
        <time>2011-05-01T08:41:56Z</time>
      </trkpt>
      <trkpt lat="45.91052" lon="2.98187">
        <ele>773.5180664</ele>
        <time>2011-05-01T08:41:57Z</time>
      </trkpt>
      <trkpt lat="45.91066" lon="2.98199">
        <ele>773.0373535</ele>
        <time>2011-05-01T08:42:00Z</time>
      </trkpt>
      <trkpt lat="45.91097" lon="2.98215">
        <ele>773.9985352</ele>
        <time>2011-05-01T08:42:06Z</time>
      </trkpt>
      <trkpt lat="45.9112" lon="2.9823">
        <ele>773.9985352</ele>
        <time>2011-05-01T08:42:11Z</time>
      </trkpt>
      <trkpt lat="45.91162" lon="2.98244">
        <ele>776.4018555</ele>
        <time>2011-05-01T08:42:20Z</time>
      </trkpt>
      <trkpt lat="45.91183" lon="2.98247">
        <ele>776.8825684</ele>
        <time>2011-05-01T08:42:24Z</time>
      </trkpt>
      <trkpt lat="45.91227" lon="2.9826">
        <ele>776.4018555</ele>
        <time>2011-05-01T08:42:32Z</time>
      </trkpt>
      <trkpt lat="45.91269" lon="2.98264">
        <ele>777.3632813</ele>
        <time>2011-05-01T08:42:40Z</time>
      </trkpt>
      <trkpt lat="45.91297" lon="2.98281">
        <ele>777.84375</ele>
        <time>2011-05-01T08:42:47Z</time>
      </trkpt>
      <trkpt lat="45.91318" lon="2.98299">
        <ele>780.2473145</ele>
        <time>2011-05-01T08:42:53Z</time>
      </trkpt>
      <trkpt lat="45.91337" lon="2.9832">
        <ele>781.689209</ele>
        <time>2011-05-01T08:42:59Z</time>
      </trkpt>
      <trkpt lat="45.91366" lon="2.98351">
        <ele>782.1699219</ele>
        <time>2011-05-01T08:43:07Z</time>
      </trkpt>
      <trkpt lat="45.91399" lon="2.9838">
        <ele>780.7280273</ele>
        <time>2011-05-01T08:43:14Z</time>
      </trkpt>
      <trkpt lat="45.91437" lon="2.98398">
        <ele>778.8051758</ele>
        <time>2011-05-01T08:43:20Z</time>
      </trkpt>
      <trkpt lat="45.9145" lon="2.98404">
        <ele>777.84375</ele>
        <time>2011-05-01T08:43:22Z</time>
      </trkpt>
      <trkpt lat="45.91472" lon="2.98426">
        <ele>775.4404297</ele>
        <time>2011-05-01T08:43:26Z</time>
      </trkpt>
      <trkpt lat="45.91485" lon="2.98456">
        <ele>773.0373535</ele>
        <time>2011-05-01T08:43:31Z</time>
      </trkpt>
      <trkpt lat="45.91502" lon="2.9849">
        <ele>771.1147461</ele>
        <time>2011-05-01T08:43:35Z</time>
      </trkpt>
      <trkpt lat="45.9152" lon="2.98515">
        <ele>768.2307129</ele>
        <time>2011-05-01T08:43:38Z</time>
      </trkpt>
      <trkpt lat="45.9154" lon="2.9856">
        <ele>765.8276367</ele>
        <time>2011-05-01T08:43:42Z</time>
      </trkpt>
      <trkpt lat="45.91545" lon="2.98586">
        <ele>764.8662109</ele>
        <time>2011-05-01T08:43:44Z</time>
      </trkpt>
      <trkpt lat="45.91549" lon="2.98654">
        <ele>761.9821777</ele>
        <time>2011-05-01T08:43:49Z</time>
      </trkpt>
      <trkpt lat="45.91549" lon="2.98681">
        <ele>760.5400391</ele>
        <time>2011-05-01T08:43:51Z</time>
      </trkpt>
      <trkpt lat="45.91552" lon="2.98722">
        <ele>758.6174316</ele>
        <time>2011-05-01T08:43:54Z</time>
      </trkpt>
      <trkpt lat="45.91555" lon="2.98759">
        <ele>755.2529297</ele>
        <time>2011-05-01T08:43:57Z</time>
      </trkpt>
      <trkpt lat="45.91558" lon="2.98782">
        <ele>753.8110352</ele>
        <time>2011-05-01T08:43:59Z</time>
      </trkpt>
      <trkpt lat="45.91572" lon="2.98813">
        <ele>752.3688965</ele>
        <time>2011-05-01T08:44:03Z</time>
      </trkpt>
      <trkpt lat="45.91578" lon="2.98817">
        <ele>752.8496094</ele>
        <time>2011-05-01T08:44:04Z</time>
      </trkpt>
      <trkpt lat="45.91598" lon="2.98825">
        <ele>751.4077148</ele>
        <time>2011-05-01T08:44:07Z</time>
      </trkpt>
      <trkpt lat="45.9161" lon="2.98829">
        <ele>749.9658203</ele>
        <time>2011-05-01T08:44:09Z</time>
      </trkpt>
      <trkpt lat="45.91616" lon="2.98851">
        <ele>749.0043945</ele>
        <time>2011-05-01T08:44:13Z</time>
      </trkpt>
      <trkpt lat="45.91615" lon="2.98859">
        <ele>749.4851074</ele>
        <time>2011-05-01T08:44:14Z</time>
      </trkpt>
      <trkpt lat="45.91609" lon="2.98894">
        <ele>749.4851074</ele>
        <time>2011-05-01T08:44:18Z</time>
      </trkpt>
      <trkpt lat="45.9161" lon="2.98953">
        <ele>749.4851074</ele>
        <time>2011-05-01T08:44:24Z</time>
      </trkpt>
      <trkpt lat="45.91604" lon="2.98992">
        <ele>748.0432129</ele>
        <time>2011-05-01T08:44:28Z</time>
      </trkpt>
      <trkpt lat="45.91596" lon="2.99008">
        <ele>748.5236816</ele>
        <time>2011-05-01T08:44:30Z</time>
      </trkpt>
      <trkpt lat="45.91575" lon="2.99066">
        <ele>747.081543</ele>
        <time>2011-05-01T08:44:36Z</time>
      </trkpt>
      <trkpt lat="45.91561" lon="2.99122">
        <ele>744.6782227</ele>
        <time>2011-05-01T08:44:41Z</time>
      </trkpt>
      <trkpt lat="45.91547" lon="2.99175">
        <ele>744.1977539</ele>
        <time>2011-05-01T08:44:46Z</time>
      </trkpt>
      <trkpt lat="45.91545" lon="2.99219">
        <ele>744.1977539</ele>
        <time>2011-05-01T08:44:50Z</time>
      </trkpt>
      <trkpt lat="45.91557" lon="2.99295">
        <ele>741.7944336</ele>
        <time>2011-05-01T08:44:57Z</time>
      </trkpt>
      <trkpt lat="45.91571" lon="2.99387">
        <ele>741.3137207</ele>
        <time>2011-05-01T08:45:06Z</time>
      </trkpt>
      <trkpt lat="45.91567" lon="2.99425">
        <ele>740.3525391</ele>
        <time>2011-05-01T08:45:10Z</time>
      </trkpt>
      <trkpt lat="45.91561" lon="2.99441">
        <ele>740.3525391</ele>
        <time>2011-05-01T08:45:12Z</time>
      </trkpt>
      <trkpt lat="45.91556" lon="2.99464">
        <ele>740.8330078</ele>
        <time>2011-05-01T08:45:15Z</time>
      </trkpt>
      <trkpt lat="45.91552" lon="2.99487">
        <ele>742.2751465</ele>
        <time>2011-05-01T08:45:18Z</time>
      </trkpt>
      <trkpt lat="45.91546" lon="2.99522">
        <ele>744.1977539</ele>
        <time>2011-05-01T08:45:23Z</time>
      </trkpt>
      <trkpt lat="45.91541" lon="2.99535">
        <ele>744.6782227</ele>
        <time>2011-05-01T08:45:25Z</time>
      </trkpt>
      <trkpt lat="45.91529" lon="2.99557">
        <ele>745.1589355</ele>
        <time>2011-05-01T08:45:29Z</time>
      </trkpt>
      <trkpt lat="45.91525" lon="2.99561">
        <ele>745.1589355</ele>
        <time>2011-05-01T08:45:30Z</time>
      </trkpt>
      <trkpt lat="45.91498" lon="2.9958">
        <ele>745.6396484</ele>
        <time>2011-05-01T08:45:36Z</time>
      </trkpt>
      <trkpt lat="45.91485" lon="2.99588">
        <ele>746.6010742</ele>
        <time>2011-05-01T08:45:39Z</time>
      </trkpt>
      <trkpt lat="45.91451" lon="2.99614">
        <ele>748.0432129</ele>
        <time>2011-05-01T08:45:47Z</time>
      </trkpt>
      <trkpt lat="45.9142" lon="2.99646">
        <ele>748.0432129</ele>
        <time>2011-05-01T08:45:54Z</time>
      </trkpt>
      <trkpt lat="45.91389" lon="2.99688">
        <ele>747.5622559</ele>
        <time>2011-05-01T08:46:01Z</time>
      </trkpt>
      <trkpt lat="45.91364" lon="2.99723">
        <ele>746.6010742</ele>
        <time>2011-05-01T08:46:07Z</time>
      </trkpt>
      <trkpt lat="45.91356" lon="2.99753">
        <ele>746.6010742</ele>
        <time>2011-05-01T08:46:12Z</time>
      </trkpt>
      <trkpt lat="45.91356" lon="2.99766">
        <ele>747.081543</ele>
        <time>2011-05-01T08:46:14Z</time>
      </trkpt>
      <trkpt lat="45.91348" lon="2.99805">
        <ele>748.0432129</ele>
        <time>2011-05-01T08:46:20Z</time>
      </trkpt>
      <trkpt lat="45.91337" lon="2.99854">
        <ele>747.5622559</ele>
        <time>2011-05-01T08:46:27Z</time>
      </trkpt>
      <trkpt lat="45.91327" lon="2.99901">
        <ele>747.081543</ele>
        <time>2011-05-01T08:46:33Z</time>
      </trkpt>
      <trkpt lat="45.9131" lon="2.99967">
        <ele>745.6396484</ele>
        <time>2011-05-01T08:46:41Z</time>
      </trkpt>
      <trkpt lat="45.91307" lon="2.99983">
        <ele>746.1203613</ele>
        <time>2011-05-01T08:46:43Z</time>
      </trkpt>
      <trkpt lat="45.91299" lon="3.00021">
        <ele>746.1203613</ele>
        <time>2011-05-01T08:46:48Z</time>
      </trkpt>
      <trkpt lat="45.91288" lon="3.00078">
        <ele>746.1203613</ele>
        <time>2011-05-01T08:46:55Z</time>
      </trkpt>
      <trkpt lat="45.91283" lon="3.00117">
        <ele>747.081543</ele>
        <time>2011-05-01T08:47:00Z</time>
      </trkpt>
      <trkpt lat="45.91277" lon="3.00163">
        <ele>747.5622559</ele>
        <time>2011-05-01T08:47:06Z</time>
      </trkpt>
      <trkpt lat="45.91265" lon="3.0023">
        <ele>748.5236816</ele>
        <time>2011-05-01T08:47:14Z</time>
      </trkpt>
      <trkpt lat="45.91256" lon="3.00283">
        <ele>748.0432129</ele>
        <time>2011-05-01T08:47:20Z</time>
      </trkpt>
      <trkpt lat="45.91253" lon="3.00298">
        <ele>747.5622559</ele>
        <time>2011-05-01T08:47:22Z</time>
      </trkpt>
      <trkpt lat="45.91254" lon="3.00336">
        <ele>747.081543</ele>
        <time>2011-05-01T08:47:27Z</time>
      </trkpt>
      <trkpt lat="45.91254" lon="3.00344">
        <ele>747.081543</ele>
        <time>2011-05-01T08:47:28Z</time>
      </trkpt>
      <trkpt lat="45.91251" lon="3.00375">
        <ele>745.1589355</ele>
        <time>2011-05-01T08:47:33Z</time>
      </trkpt>
      <trkpt lat="45.9124" lon="3.00413">
        <ele>744.6782227</ele>
        <time>2011-05-01T08:47:38Z</time>
      </trkpt>
      <trkpt lat="45.91223" lon="3.0046">
        <ele>743.2363281</ele>
        <time>2011-05-01T08:47:43Z</time>
      </trkpt>
      <trkpt lat="45.91213" lon="3.00492">
        <ele>742.2751465</ele>
        <time>2011-05-01T08:47:46Z</time>
      </trkpt>
      <trkpt lat="45.9119" lon="3.00555">
        <ele>739.3911133</ele>
        <time>2011-05-01T08:47:52Z</time>
      </trkpt>
      <trkpt lat="45.91162" lon="3.006">
        <ele>737.9492188</ele>
        <time>2011-05-01T08:47:57Z</time>
      </trkpt>
      <trkpt lat="45.91131" lon="3.00639">
        <ele>735.5458984</ele>
        <time>2011-05-01T08:48:02Z</time>
      </trkpt>
      <trkpt lat="45.91117" lon="3.00653">
        <ele>735.0654297</ele>
        <time>2011-05-01T08:48:04Z</time>
      </trkpt>
      <trkpt lat="45.91091" lon="3.00698">
        <ele>735.0654297</ele>
        <time>2011-05-01T08:48:09Z</time>
      </trkpt>
      <trkpt lat="45.91069" lon="3.00757">
        <ele>734.5847168</ele>
        <time>2011-05-01T08:48:15Z</time>
      </trkpt>
      <trkpt lat="45.91036" lon="3.00817">
        <ele>734.1040039</ele>
        <time>2011-05-01T08:48:22Z</time>
      </trkpt>
      <trkpt lat="45.91012" lon="3.00863">
        <ele>734.5847168</ele>
        <time>2011-05-01T08:48:28Z</time>
      </trkpt>
      <trkpt lat="45.90996" lon="3.00912">
        <ele>735.5458984</ele>
        <time>2011-05-01T08:48:34Z</time>
      </trkpt>
      <trkpt lat="45.90995" lon="3.00955">
        <ele>736.987793</ele>
        <time>2011-05-01T08:48:39Z</time>
      </trkpt>
      <trkpt lat="45.91006" lon="3.01005">
        <ele>737.4685059</ele>
        <time>2011-05-01T08:48:45Z</time>
      </trkpt>
      <trkpt lat="45.91013" lon="3.01048">
        <ele>738.4299316</ele>
        <time>2011-05-01T08:48:50Z</time>
      </trkpt>
      <trkpt lat="45.91023" lon="3.0111">
        <ele>738.9106445</ele>
        <time>2011-05-01T08:48:57Z</time>
      </trkpt>
      <trkpt lat="45.91026" lon="3.01128">
        <ele>739.8718262</ele>
        <time>2011-05-01T08:48:59Z</time>
      </trkpt>
      <trkpt lat="45.91042" lon="3.01197">
        <ele>740.3525391</ele>
        <time>2011-05-01T08:49:07Z</time>
      </trkpt>
      <trkpt lat="45.91066" lon="3.01263">
        <ele>740.3525391</ele>
        <time>2011-05-01T08:49:15Z</time>
      </trkpt>
      <trkpt lat="45.9109" lon="3.01322">
        <ele>738.9106445</ele>
        <time>2011-05-01T08:49:22Z</time>
      </trkpt>
      <trkpt lat="45.91094" lon="3.0133">
        <ele>738.4299316</ele>
        <time>2011-05-01T08:49:23Z</time>
      </trkpt>
      <trkpt lat="45.91123" lon="3.01364">
        <ele>738.4299316</ele>
        <time>2011-05-01T08:49:29Z</time>
      </trkpt>
      <trkpt lat="45.91139" lon="3.01377">
        <ele>737.4685059</ele>
        <time>2011-05-01T08:49:32Z</time>
      </trkpt>
      <trkpt lat="45.91158" lon="3.01403">
        <ele>736.0266113</ele>
        <time>2011-05-01T08:49:37Z</time>
      </trkpt>
      <trkpt lat="45.91159" lon="3.01428">
        <ele>735.0654297</ele>
        <time>2011-05-01T08:49:41Z</time>
      </trkpt>
      <trkpt lat="45.91156" lon="3.01441">
        <ele>735.0654297</ele>
        <time>2011-05-01T08:49:43Z</time>
      </trkpt>
      <trkpt lat="45.91155" lon="3.01447">
        <ele>735.5458984</ele>
        <time>2011-05-01T08:49:44Z</time>
      </trkpt>
      <trkpt lat="45.91147" lon="3.01464">
        <ele>734.1040039</ele>
        <time>2011-05-01T08:49:47Z</time>
      </trkpt>
      <trkpt lat="45.91143" lon="3.01469">
        <ele>734.5847168</ele>
        <time>2011-05-01T08:49:48Z</time>
      </trkpt>
      <trkpt lat="45.91139" lon="3.01473">
        <ele>734.1040039</ele>
        <time>2011-05-01T08:49:49Z</time>
      </trkpt>
      <trkpt lat="45.91128" lon="3.01472">
        <ele>733.623291</ele>
        <time>2011-05-01T08:49:53Z</time>
      </trkpt>
      <trkpt lat="45.91128" lon="3.01471">
        <ele>733.623291</ele>
        <time>2011-05-01T08:49:58Z</time>
      </trkpt>
      <trkpt lat="45.91129" lon="3.01468">
        <ele>733.623291</ele>
        <time>2011-05-01T08:50:04Z</time>
      </trkpt>
      <trkpt lat="45.91134" lon="3.01467">
        <ele>734.5847168</ele>
        <time>2011-05-01T08:53:15Z</time>
      </trkpt>
      <trkpt lat="45.91134" lon="3.01467">
        <ele>735.0654297</ele>
        <time>2011-05-01T08:53:16Z</time>
      </trkpt>
      <trkpt lat="45.91128" lon="3.01468">
        <ele>734.5847168</ele>
        <time>2011-05-01T08:54:16Z</time>
      </trkpt>
      <trkpt lat="45.9113" lon="3.01476">
        <ele>735.0654297</ele>
        <time>2011-05-01T08:54:20Z</time>
      </trkpt>
      <trkpt lat="45.91147" lon="3.01486">
        <ele>734.5847168</ele>
        <time>2011-05-01T08:54:25Z</time>
      </trkpt>
      <trkpt lat="45.91155" lon="3.01494">
        <ele>733.1425781</ele>
        <time>2011-05-01T08:54:27Z</time>
      </trkpt>
      <trkpt lat="45.91164" lon="3.01506">
        <ele>732.1813965</ele>
        <time>2011-05-01T08:54:30Z</time>
      </trkpt>
      <trkpt lat="45.91162" lon="3.01526">
        <ele>731.7004395</ele>
        <time>2011-05-01T08:54:34Z</time>
      </trkpt>
      <trkpt lat="45.9116" lon="3.0153">
        <ele>731.7004395</ele>
        <time>2011-05-01T08:54:35Z</time>
      </trkpt>
      <trkpt lat="45.91129" lon="3.01565">
        <ele>729.2971191</ele>
        <time>2011-05-01T08:54:43Z</time>
      </trkpt>
      <trkpt lat="45.91099" lon="3.01596">
        <ele>727.8552246</ele>
        <time>2011-05-01T08:54:48Z</time>
      </trkpt>
      <trkpt lat="45.91079" lon="3.01613">
        <ele>725.4519043</ele>
        <time>2011-05-01T08:54:51Z</time>
      </trkpt>
      <trkpt lat="45.91053" lon="3.01633">
        <ele>724.4907227</ele>
        <time>2011-05-01T08:54:55Z</time>
      </trkpt>
      <trkpt lat="45.91039" lon="3.01644">
        <ele>723.0488281</ele>
        <time>2011-05-01T08:54:57Z</time>
      </trkpt>
      <trkpt lat="45.91016" lon="3.01674">
        <ele>722.5681152</ele>
        <time>2011-05-01T08:55:01Z</time>
      </trkpt>
      <trkpt lat="45.91012" lon="3.01684">
        <ele>722.0874023</ele>
        <time>2011-05-01T08:55:02Z</time>
      </trkpt>
      <trkpt lat="45.90992" lon="3.0173">
        <ele>721.6066895</ele>
        <time>2011-05-01T08:55:07Z</time>
      </trkpt>
      <trkpt lat="45.90983" lon="3.01745">
        <ele>720.1647949</ele>
        <time>2011-05-01T08:55:09Z</time>
      </trkpt>
      <trkpt lat="45.90954" lon="3.01801">
        <ele>719.6843262</ele>
        <time>2011-05-01T08:55:16Z</time>
      </trkpt>
      <trkpt lat="45.90943" lon="3.01828">
        <ele>719.2036133</ele>
        <time>2011-05-01T08:55:19Z</time>
      </trkpt>
      <trkpt lat="45.90923" lon="3.0188">
        <ele>719.2036133</ele>
        <time>2011-05-01T08:55:25Z</time>
      </trkpt>
      <trkpt lat="45.9092" lon="3.01889">
        <ele>718.7229004</ele>
        <time>2011-05-01T08:55:26Z</time>
      </trkpt>
      <trkpt lat="45.90913" lon="3.01907">
        <ele>719.2036133</ele>
        <time>2011-05-01T08:55:28Z</time>
      </trkpt>
      <trkpt lat="45.90887" lon="3.01951">
        <ele>718.7229004</ele>
        <time>2011-05-01T08:55:34Z</time>
      </trkpt>
      <trkpt lat="45.90861" lon="3.01984">
        <ele>719.2036133</ele>
        <time>2011-05-01T08:55:40Z</time>
      </trkpt>
      <trkpt lat="45.90854" lon="3.01995">
        <ele>720.6455078</ele>
        <time>2011-05-01T08:55:42Z</time>
      </trkpt>
      <trkpt lat="45.90843" lon="3.02019">
        <ele>721.6066895</ele>
        <time>2011-05-01T08:55:46Z</time>
      </trkpt>
      <trkpt lat="45.90838" lon="3.0204">
        <ele>722.5681152</ele>
        <time>2011-05-01T08:55:49Z</time>
      </trkpt>
      <trkpt lat="45.90829" lon="3.02087">
        <ele>721.6066895</ele>
        <time>2011-05-01T08:55:56Z</time>
      </trkpt>
      <trkpt lat="45.9082" lon="3.02132">
        <ele>723.529541</ele>
        <time>2011-05-01T08:56:03Z</time>
      </trkpt>
      <trkpt lat="45.9081" lon="3.02175">
        <ele>723.529541</ele>
        <time>2011-05-01T08:56:10Z</time>
      </trkpt>
      <trkpt lat="45.908" lon="3.0222">
        <ele>724.4907227</ele>
        <time>2011-05-01T08:56:18Z</time>
      </trkpt>
      <trkpt lat="45.90792" lon="3.02265">
        <ele>725.9326172</ele>
        <time>2011-05-01T08:56:27Z</time>
      </trkpt>
      <trkpt lat="45.90785" lon="3.02309">
        <ele>728.8166504</ele>
        <time>2011-05-01T08:56:37Z</time>
      </trkpt>
      <trkpt lat="45.90779" lon="3.02352">
        <ele>731.2199707</ele>
        <time>2011-05-01T08:56:47Z</time>
      </trkpt>
      <trkpt lat="45.90775" lon="3.02381">
        <ele>732.6621094</ele>
        <time>2011-05-01T08:56:54Z</time>
      </trkpt>
      <trkpt lat="45.9077" lon="3.02408">
        <ele>735.0654297</ele>
        <time>2011-05-01T08:57:02Z</time>
      </trkpt>
      <trkpt lat="45.90766" lon="3.02429">
        <ele>737.4685059</ele>
        <time>2011-05-01T08:57:09Z</time>
      </trkpt>
      <trkpt lat="45.90759" lon="3.02447">
        <ele>740.8330078</ele>
        <time>2011-05-01T08:57:16Z</time>
      </trkpt>
      <trkpt lat="45.90757" lon="3.02452">
        <ele>741.3137207</ele>
        <time>2011-05-01T08:57:18Z</time>
      </trkpt>
      <trkpt lat="45.90747" lon="3.02452">
        <ele>741.7944336</ele>
        <time>2011-05-01T08:57:23Z</time>
      </trkpt>
      <trkpt lat="45.90733" lon="3.02443">
        <ele>741.3137207</ele>
        <time>2011-05-01T08:57:29Z</time>
      </trkpt>
      <trkpt lat="45.90726" lon="3.02456">
        <ele>740.8330078</ele>
        <time>2011-05-01T08:57:32Z</time>
      </trkpt>
      <trkpt lat="45.90724" lon="3.02464">
        <ele>740.3525391</ele>
        <time>2011-05-01T08:57:33Z</time>
      </trkpt>
      <trkpt lat="45.90718" lon="3.02508">
        <ele>738.9106445</ele>
        <time>2011-05-01T08:57:38Z</time>
      </trkpt>
      <trkpt lat="45.90706" lon="3.02547">
        <ele>736.5073242</ele>
        <time>2011-05-01T08:57:42Z</time>
      </trkpt>
      <trkpt lat="45.90697" lon="3.02569">
        <ele>735.5458984</ele>
        <time>2011-05-01T08:57:45Z</time>
      </trkpt>
      <trkpt lat="45.90686" lon="3.02579">
        <ele>734.1040039</ele>
        <time>2011-05-01T08:57:48Z</time>
      </trkpt>
      <trkpt lat="45.90682" lon="3.02582">
        <ele>734.1040039</ele>
        <time>2011-05-01T08:57:51Z</time>
      </trkpt>
      <trkpt lat="45.90685" lon="3.02586">
        <ele>734.5847168</ele>
        <time>2011-05-01T08:57:53Z</time>
      </trkpt>
      <trkpt lat="45.9069" lon="3.02605">
        <ele>735.5458984</ele>
        <time>2011-05-01T08:57:58Z</time>
      </trkpt>
      <trkpt lat="45.90694" lon="3.02648">
        <ele>736.5073242</ele>
        <time>2011-05-01T08:58:06Z</time>
      </trkpt>
      <trkpt lat="45.90703" lon="3.02696">
        <ele>737.4685059</ele>
        <time>2011-05-01T08:58:14Z</time>
      </trkpt>
      <trkpt lat="45.90711" lon="3.02719">
        <ele>737.9492188</ele>
        <time>2011-05-01T08:58:18Z</time>
      </trkpt>
      <trkpt lat="45.90729" lon="3.02768">
        <ele>736.987793</ele>
        <time>2011-05-01T08:58:25Z</time>
      </trkpt>
      <trkpt lat="45.90736" lon="3.02783">
        <ele>736.5073242</ele>
        <time>2011-05-01T08:58:27Z</time>
      </trkpt>
      <trkpt lat="45.90744" lon="3.02817">
        <ele>736.5073242</ele>
        <time>2011-05-01T08:58:31Z</time>
      </trkpt>
      <trkpt lat="45.90757" lon="3.02863">
        <ele>735.0654297</ele>
        <time>2011-05-01T08:58:36Z</time>
      </trkpt>
      <trkpt lat="45.90759" lon="3.02902">
        <ele>734.1040039</ele>
        <time>2011-05-01T08:58:40Z</time>
      </trkpt>
      <trkpt lat="45.90759" lon="3.0293">
        <ele>733.623291</ele>
        <time>2011-05-01T08:58:43Z</time>
      </trkpt>
      <trkpt lat="45.90767" lon="3.02966">
        <ele>733.623291</ele>
        <time>2011-05-01T08:58:47Z</time>
      </trkpt>
      <trkpt lat="45.9078" lon="3.02989">
        <ele>732.6621094</ele>
        <time>2011-05-01T08:58:50Z</time>
      </trkpt>
      <trkpt lat="45.90788" lon="3.03015">
        <ele>732.1813965</ele>
        <time>2011-05-01T08:58:53Z</time>
      </trkpt>
      <trkpt lat="45.9079" lon="3.03031">
        <ele>730.2585449</ele>
        <time>2011-05-01T08:58:55Z</time>
      </trkpt>
      <trkpt lat="45.90789" lon="3.03049">
        <ele>728.3359375</ele>
        <time>2011-05-01T08:58:57Z</time>
      </trkpt>
      <trkpt lat="45.90785" lon="3.03083">
        <ele>725.4519043</ele>
        <time>2011-05-01T08:59:00Z</time>
      </trkpt>
      <trkpt lat="45.90784" lon="3.03096">
        <ele>725.4519043</ele>
        <time>2011-05-01T08:59:01Z</time>
      </trkpt>
      <trkpt lat="45.9078" lon="3.03137">
        <ele>720.6455078</ele>
        <time>2011-05-01T08:59:04Z</time>
      </trkpt>
      <trkpt lat="45.90779" lon="3.0315">
        <ele>720.6455078</ele>
        <time>2011-05-01T08:59:05Z</time>
      </trkpt>
      <trkpt lat="45.90776" lon="3.03184">
        <ele>718.2421875</ele>
        <time>2011-05-01T08:59:08Z</time>
      </trkpt>
      <trkpt lat="45.90778" lon="3.03204">
        <ele>715.8388672</ele>
        <time>2011-05-01T08:59:10Z</time>
      </trkpt>
      <trkpt lat="45.90784" lon="3.03225">
        <ele>713.9160156</ele>
        <time>2011-05-01T08:59:12Z</time>
      </trkpt>
      <trkpt lat="45.90797" lon="3.03259">
        <ele>711.9936523</ele>
        <time>2011-05-01T08:59:15Z</time>
      </trkpt>
      <trkpt lat="45.90809" lon="3.03294">
        <ele>707.6677246</ele>
        <time>2011-05-01T08:59:18Z</time>
      </trkpt>
      <trkpt lat="45.90813" lon="3.03318">
        <ele>706.7062988</ele>
        <time>2011-05-01T08:59:20Z</time>
      </trkpt>
      <trkpt lat="45.90816" lon="3.03343">
        <ele>705.7451172</ele>
        <time>2011-05-01T08:59:22Z</time>
      </trkpt>
      <trkpt lat="45.90817" lon="3.03379">
        <ele>704.7836914</ele>
        <time>2011-05-01T08:59:25Z</time>
      </trkpt>
      <trkpt lat="45.90819" lon="3.03414">
        <ele>701.8999023</ele>
        <time>2011-05-01T08:59:28Z</time>
      </trkpt>
      <trkpt lat="45.90823" lon="3.03458">
        <ele>698.5349121</ele>
        <time>2011-05-01T08:59:32Z</time>
      </trkpt>
      <trkpt lat="45.90832" lon="3.0348">
        <ele>696.6125488</ele>
        <time>2011-05-01T08:59:35Z</time>
      </trkpt>
      <trkpt lat="45.90841" lon="3.03508">
        <ele>692.2866211</ele>
        <time>2011-05-01T08:59:38Z</time>
      </trkpt>
      <trkpt lat="45.90848" lon="3.03528">
        <ele>690.3640137</ele>
        <time>2011-05-01T08:59:40Z</time>
      </trkpt>
      <trkpt lat="45.90865" lon="3.03555">
        <ele>686.9992676</ele>
        <time>2011-05-01T08:59:44Z</time>
      </trkpt>
      <trkpt lat="45.9088" lon="3.03585">
        <ele>681.2314453</ele>
        <time>2011-05-01T08:59:49Z</time>
      </trkpt>
      <trkpt lat="45.90881" lon="3.03593">
        <ele>680.2700195</ele>
        <time>2011-05-01T08:59:50Z</time>
      </trkpt>
      <trkpt lat="45.90894" lon="3.03627">
        <ele>676.4248047</ele>
        <time>2011-05-01T08:59:55Z</time>
      </trkpt>
      <trkpt lat="45.90899" lon="3.03635">
        <ele>675.4633789</ele>
        <time>2011-05-01T08:59:56Z</time>
      </trkpt>
      <trkpt lat="45.90909" lon="3.03653">
        <ele>674.5021973</ele>
        <time>2011-05-01T08:59:58Z</time>
      </trkpt>
      <trkpt lat="45.90913" lon="3.03663">
        <ele>673.0603027</ele>
        <time>2011-05-01T08:59:59Z</time>
      </trkpt>
      <trkpt lat="45.90924" lon="3.03677">
        <ele>672.098877</ele>
        <time>2011-05-01T09:00:01Z</time>
      </trkpt>
      <trkpt lat="45.90939" lon="3.03685">
        <ele>671.1376953</ele>
        <time>2011-05-01T09:00:03Z</time>
      </trkpt>
      <trkpt lat="45.90954" lon="3.03696">
        <ele>670.1762695</ele>
        <time>2011-05-01T09:00:05Z</time>
      </trkpt>
      <trkpt lat="45.90987" lon="3.03719">
        <ele>667.2922363</ele>
        <time>2011-05-01T09:00:09Z</time>
      </trkpt>
      <trkpt lat="45.91014" lon="3.03735">
        <ele>665.3696289</ele>
        <time>2011-05-01T09:00:12Z</time>
      </trkpt>
      <trkpt lat="45.91039" lon="3.03746">
        <ele>662.4855957</ele>
        <time>2011-05-01T09:00:15Z</time>
      </trkpt>
      <trkpt lat="45.91055" lon="3.03747">
        <ele>661.0437012</ele>
        <time>2011-05-01T09:00:18Z</time>
      </trkpt>
      <trkpt lat="45.91065" lon="3.03751">
        <ele>657.6791992</ele>
        <time>2011-05-01T09:00:20Z</time>
      </trkpt>
      <trkpt lat="45.91074" lon="3.0376">
        <ele>655.2758789</ele>
        <time>2011-05-01T09:00:22Z</time>
      </trkpt>
      <trkpt lat="45.91085" lon="3.03785">
        <ele>651.4304199</ele>
        <time>2011-05-01T09:00:26Z</time>
      </trkpt>
      <trkpt lat="45.91086" lon="3.03793">
        <ele>650.949707</ele>
        <time>2011-05-01T09:00:27Z</time>
      </trkpt>
      <trkpt lat="45.91098" lon="3.03836">
        <ele>645.6625977</ele>
        <time>2011-05-01T09:00:32Z</time>
      </trkpt>
      <trkpt lat="45.911" lon="3.03843">
        <ele>644.7011719</ele>
        <time>2011-05-01T09:00:33Z</time>
      </trkpt>
      <trkpt lat="45.91103" lon="3.03878">
        <ele>640.3754883</ele>
        <time>2011-05-01T09:00:38Z</time>
      </trkpt>
      <trkpt lat="45.911" lon="3.03898">
        <ele>637.972168</ele>
        <time>2011-05-01T09:00:41Z</time>
      </trkpt>
      <trkpt lat="45.91095" lon="3.03913">
        <ele>635.0881348</ele>
        <time>2011-05-01T09:00:43Z</time>
      </trkpt>
      <trkpt lat="45.91088" lon="3.03933">
        <ele>632.2041016</ele>
        <time>2011-05-01T09:00:46Z</time>
      </trkpt>
      <trkpt lat="45.91087" lon="3.03968">
        <ele>628.3588867</ele>
        <time>2011-05-01T09:00:50Z</time>
      </trkpt>
      <trkpt lat="45.91089" lon="3.03988">
        <ele>626.9169922</ele>
        <time>2011-05-01T09:00:52Z</time>
      </trkpt>
      <trkpt lat="45.91099" lon="3.04038">
        <ele>624.5136719</ele>
        <time>2011-05-01T09:00:57Z</time>
      </trkpt>
      <trkpt lat="45.91105" lon="3.04072">
        <ele>621.1491699</ele>
        <time>2011-05-01T09:01:00Z</time>
      </trkpt>
      <trkpt lat="45.9111" lon="3.0409">
        <ele>618.7456055</ele>
        <time>2011-05-01T09:01:02Z</time>
      </trkpt>
      <trkpt lat="45.91117" lon="3.04126">
        <ele>614.4196777</ele>
        <time>2011-05-01T09:01:07Z</time>
      </trkpt>
      <trkpt lat="45.91119" lon="3.04151">
        <ele>612.4970703</ele>
        <time>2011-05-01T09:01:10Z</time>
      </trkpt>
      <trkpt lat="45.91121" lon="3.04166">
        <ele>611.5358887</ele>
        <time>2011-05-01T09:01:12Z</time>
      </trkpt>
      <trkpt lat="45.91123" lon="3.04178">
        <ele>610.09375</ele>
        <time>2011-05-01T09:01:14Z</time>
      </trkpt>
      <trkpt lat="45.91124" lon="3.042">
        <ele>607.2099609</ele>
        <time>2011-05-01T09:01:17Z</time>
      </trkpt>
      <trkpt lat="45.91122" lon="3.0422">
        <ele>605.7680664</ele>
        <time>2011-05-01T09:01:19Z</time>
      </trkpt>
      <trkpt lat="45.91123" lon="3.04265">
        <ele>600.4807129</ele>
        <time>2011-05-01T09:01:24Z</time>
      </trkpt>
      <trkpt lat="45.91124" lon="3.04279">
        <ele>599.0385742</ele>
        <time>2011-05-01T09:01:26Z</time>
      </trkpt>
      <trkpt lat="45.91123" lon="3.04302">
        <ele>596.635498</ele>
        <time>2011-05-01T09:01:29Z</time>
      </trkpt>
      <trkpt lat="45.9112" lon="3.0432">
        <ele>593.270752</ele>
        <time>2011-05-01T09:01:32Z</time>
      </trkpt>
      <trkpt lat="45.91115" lon="3.04343">
        <ele>589.90625</ele>
        <time>2011-05-01T09:01:36Z</time>
      </trkpt>
      <trkpt lat="45.91113" lon="3.04352">
        <ele>587.9833984</ele>
        <time>2011-05-01T09:01:38Z</time>
      </trkpt>
      <trkpt lat="45.91103" lon="3.04361">
        <ele>585.0996094</ele>
        <time>2011-05-01T09:01:43Z</time>
      </trkpt>
      <trkpt lat="45.91094" lon="3.04357">
        <ele>583.6574707</ele>
        <time>2011-05-01T09:01:45Z</time>
      </trkpt>
      <trkpt lat="45.91071" lon="3.04343">
        <ele>578.3703613</ele>
        <time>2011-05-01T09:01:50Z</time>
      </trkpt>
      <trkpt lat="45.91063" lon="3.04337">
        <ele>576.4477539</ele>
        <time>2011-05-01T09:01:52Z</time>
      </trkpt>
      <trkpt lat="45.9105" lon="3.04329">
        <ele>574.5251465</ele>
        <time>2011-05-01T09:01:55Z</time>
      </trkpt>
      <trkpt lat="45.91044" lon="3.04334">
        <ele>573.083252</ele>
        <time>2011-05-01T09:01:57Z</time>
      </trkpt>
      <trkpt lat="45.91045" lon="3.04351">
        <ele>570.1989746</ele>
        <time>2011-05-01T09:02:00Z</time>
      </trkpt>
      <trkpt lat="45.9105" lon="3.04375">
        <ele>567.7956543</ele>
        <time>2011-05-01T09:02:04Z</time>
      </trkpt>
      <trkpt lat="45.91053" lon="3.04382">
        <ele>567.3151855</ele>
        <time>2011-05-01T09:02:05Z</time>
      </trkpt>
      <trkpt lat="45.91067" lon="3.04402">
        <ele>564.9118652</ele>
        <time>2011-05-01T09:02:09Z</time>
      </trkpt>
      <trkpt lat="45.91074" lon="3.04411">
        <ele>562.5085449</ele>
        <time>2011-05-01T09:02:11Z</time>
      </trkpt>
      <trkpt lat="45.91085" lon="3.04427">
        <ele>558.6633301</ele>
        <time>2011-05-01T09:02:14Z</time>
      </trkpt>
      <trkpt lat="45.91099" lon="3.0444">
        <ele>556.2600098</ele>
        <time>2011-05-01T09:02:18Z</time>
      </trkpt>
      <trkpt lat="45.91107" lon="3.04447">
        <ele>554.8178711</ele>
        <time>2011-05-01T09:02:20Z</time>
      </trkpt>
      <trkpt lat="45.91116" lon="3.04457">
        <ele>552.4145508</ele>
        <time>2011-05-01T09:02:22Z</time>
      </trkpt>
      <trkpt lat="45.91125" lon="3.04473">
        <ele>550.4921875</ele>
        <time>2011-05-01T09:02:25Z</time>
      </trkpt>
      <trkpt lat="45.9114" lon="3.04498">
        <ele>546.1662598</ele>
        <time>2011-05-01T09:02:30Z</time>
      </trkpt>
      <trkpt lat="45.91144" lon="3.04508">
        <ele>544.7242432</ele>
        <time>2011-05-01T09:02:32Z</time>
      </trkpt>
      <trkpt lat="45.9113" lon="3.04535">
        <ele>540.3983154</ele>
        <time>2011-05-01T09:02:37Z</time>
      </trkpt>
      <trkpt lat="45.91123" lon="3.04546">
        <ele>537.9949951</ele>
        <time>2011-05-01T09:02:39Z</time>
      </trkpt>
      <trkpt lat="45.9111" lon="3.04567">
        <ele>534.1496582</ele>
        <time>2011-05-01T09:02:43Z</time>
      </trkpt>
      <trkpt lat="45.91099" lon="3.04586">
        <ele>529.8237305</ele>
        <time>2011-05-01T09:02:47Z</time>
      </trkpt>
      <trkpt lat="45.91091" lon="3.04602">
        <ele>525.9783936</ele>
        <time>2011-05-01T09:02:50Z</time>
      </trkpt>
      <trkpt lat="45.91084" lon="3.04613">
        <ele>523.0946045</ele>
        <time>2011-05-01T09:02:53Z</time>
      </trkpt>
      <trkpt lat="45.91073" lon="3.04609">
        <ele>521.1719971</ele>
        <time>2011-05-01T09:02:57Z</time>
      </trkpt>
      <trkpt lat="45.91056" lon="3.04588">
        <ele>521.1719971</ele>
        <time>2011-05-01T09:03:01Z</time>
      </trkpt>
      <trkpt lat="45.91033" lon="3.04556">
        <ele>520.6912842</ele>
        <time>2011-05-01T09:03:07Z</time>
      </trkpt>
      <trkpt lat="45.9103" lon="3.04549">
        <ele>520.6912842</ele>
        <time>2011-05-01T09:03:08Z</time>
      </trkpt>
      <trkpt lat="45.91016" lon="3.04518">
        <ele>523.5751953</ele>
        <time>2011-05-01T09:03:14Z</time>
      </trkpt>
      <trkpt lat="45.9101" lon="3.04502">
        <ele>525.4978027</ele>
        <time>2011-05-01T09:03:18Z</time>
      </trkpt>
      <trkpt lat="45.91011" lon="3.04487">
        <ele>525.0172119</ele>
        <time>2011-05-01T09:03:21Z</time>
      </trkpt>
      <trkpt lat="45.91" lon="3.0448">
        <ele>525.9783936</ele>
        <time>2011-05-01T09:03:25Z</time>
      </trkpt>
      <trkpt lat="45.90998" lon="3.04477">
        <ele>526.4591064</ele>
        <time>2011-05-01T09:03:26Z</time>
      </trkpt>
      <trkpt lat="45.90994" lon="3.04468">
        <ele>525.9783936</ele>
        <time>2011-05-01T09:03:28Z</time>
      </trkpt>
      <trkpt lat="45.90988" lon="3.04457">
        <ele>525.0172119</ele>
        <time>2011-05-01T09:03:30Z</time>
      </trkpt>
      <trkpt lat="45.90974" lon="3.04432">
        <ele>525.9783936</ele>
        <time>2011-05-01T09:03:35Z</time>
      </trkpt>
      <trkpt lat="45.90966" lon="3.04421">
        <ele>525.9783936</ele>
        <time>2011-05-01T09:03:38Z</time>
      </trkpt>
      <trkpt lat="45.90953" lon="3.04404">
        <ele>524.536499</ele>
        <time>2011-05-01T09:03:41Z</time>
      </trkpt>
      <trkpt lat="45.90937" lon="3.04386">
        <ele>522.6138916</ele>
        <time>2011-05-01T09:03:44Z</time>
      </trkpt>
      <trkpt lat="45.90931" lon="3.0438">
        <ele>521.6525879</ele>
        <time>2011-05-01T09:03:45Z</time>
      </trkpt>
      <trkpt lat="45.90921" lon="3.04348">
        <ele>519.2492676</ele>
        <time>2011-05-01T09:03:50Z</time>
      </trkpt>
      <trkpt lat="45.90921" lon="3.04335">
        <ele>521.1719971</ele>
        <time>2011-05-01T09:03:53Z</time>
      </trkpt>
      <trkpt lat="45.90918" lon="3.04334">
        <ele>522.1331787</ele>
        <time>2011-05-01T09:03:55Z</time>
      </trkpt>
      <trkpt lat="45.90916" lon="3.04334">
        <ele>522.1331787</ele>
        <time>2011-05-01T09:03:56Z</time>
      </trkpt>
      <trkpt lat="45.909" lon="3.04343">
        <ele>518.7685547</ele>
        <time>2011-05-01T09:04:02Z</time>
      </trkpt>
      <trkpt lat="45.90891" lon="3.04331">
        <ele>517.807251</ele>
        <time>2011-05-01T09:04:06Z</time>
      </trkpt>
      <trkpt lat="45.90888" lon="3.04329">
        <ele>517.807251</ele>
        <time>2011-05-01T09:04:07Z</time>
      </trkpt>
      <trkpt lat="45.90887" lon="3.04328">
        <ele>517.3266602</ele>
        <time>2011-05-01T09:04:09Z</time>
      </trkpt>
      <trkpt lat="45.9089" lon="3.04337">
        <ele>514.9233398</ele>
        <time>2011-05-01T09:04:13Z</time>
      </trkpt>
      <trkpt lat="45.90893" lon="3.04341">
        <ele>514.9233398</ele>
        <time>2011-05-01T09:04:14Z</time>
      </trkpt>
      <trkpt lat="45.90906" lon="3.04353">
        <ele>514.442627</ele>
        <time>2011-05-01T09:04:17Z</time>
      </trkpt>
      <trkpt lat="45.90916" lon="3.04375">
        <ele>512.0394287</ele>
        <time>2011-05-01T09:04:22Z</time>
      </trkpt>
      <trkpt lat="45.90915" lon="3.04389">
        <ele>512.5200195</ele>
        <time>2011-05-01T09:04:25Z</time>
      </trkpt>
      <trkpt lat="45.90922" lon="3.04412">
        <ele>513.9620361</ele>
        <time>2011-05-01T09:04:30Z</time>
      </trkpt>
      <trkpt lat="45.90927" lon="3.04437">
        <ele>513.0007324</ele>
        <time>2011-05-01T09:04:34Z</time>
      </trkpt>
      <trkpt lat="45.90936" lon="3.04461">
        <ele>509.6361084</ele>
        <time>2011-05-01T09:04:37Z</time>
      </trkpt>
      <trkpt lat="45.90946" lon="3.04472">
        <ele>507.2327881</ele>
        <time>2011-05-01T09:04:40Z</time>
      </trkpt>
      <trkpt lat="45.90951" lon="3.04475">
        <ele>507.2327881</ele>
        <time>2011-05-01T09:04:41Z</time>
      </trkpt>
      <trkpt lat="45.9096" lon="3.04486">
        <ele>503.8681641</ele>
        <time>2011-05-01T09:04:45Z</time>
      </trkpt>
      <trkpt lat="45.90956" lon="3.04485">
        <ele>503.3874512</ele>
        <time>2011-05-01T09:04:46Z</time>
      </trkpt>
      <trkpt lat="45.90939" lon="3.04488">
        <ele>500.9841309</ele>
        <time>2011-05-01T09:04:50Z</time>
      </trkpt>
      <trkpt lat="45.90934" lon="3.04494">
        <ele>499.5422363</ele>
        <time>2011-05-01T09:04:52Z</time>
      </trkpt>
      <trkpt lat="45.90942" lon="3.04512">
        <ele>496.1777344</ele>
        <time>2011-05-01T09:04:57Z</time>
      </trkpt>
      <trkpt lat="45.90955" lon="3.04532">
        <ele>496.1777344</ele>
        <time>2011-05-01T09:05:01Z</time>
      </trkpt>
      <trkpt lat="45.9096" lon="3.04558">
        <ele>493.774292</ele>
        <time>2011-05-01T09:05:06Z</time>
      </trkpt>
      <trkpt lat="45.90966" lon="3.04574">
        <ele>491.8516846</ele>
        <time>2011-05-01T09:05:09Z</time>
      </trkpt>
      <trkpt lat="45.90971" lon="3.04591">
        <ele>491.3709717</ele>
        <time>2011-05-01T09:05:12Z</time>
      </trkpt>
      <trkpt lat="45.90971" lon="3.04605">
        <ele>490.40979</ele>
        <time>2011-05-01T09:05:14Z</time>
      </trkpt>
      <trkpt lat="45.90973" lon="3.04611">
        <ele>489.9290771</ele>
        <time>2011-05-01T09:05:15Z</time>
      </trkpt>
      <trkpt lat="45.90975" lon="3.04624">
        <ele>488.0064697</ele>
        <time>2011-05-01T09:05:17Z</time>
      </trkpt>
      <trkpt lat="45.90986" lon="3.04653">
        <ele>484.6418457</ele>
        <time>2011-05-01T09:05:22Z</time>
      </trkpt>
      <trkpt lat="45.90987" lon="3.04659">
        <ele>484.6418457</ele>
        <time>2011-05-01T09:05:23Z</time>
      </trkpt>
      <trkpt lat="45.90989" lon="3.04676">
        <ele>483.6804199</ele>
        <time>2011-05-01T09:05:27Z</time>
      </trkpt>
      <trkpt lat="45.90991" lon="3.0468">
        <ele>483.1998291</ele>
        <time>2011-05-01T09:05:28Z</time>
      </trkpt>
      <trkpt lat="45.90987" lon="3.04708">
        <ele>482.7192383</ele>
        <time>2011-05-01T09:05:35Z</time>
      </trkpt>
      <trkpt lat="45.90988" lon="3.04725">
        <ele>484.6418457</ele>
        <time>2011-05-01T09:05:39Z</time>
      </trkpt>
      <trkpt lat="45.90994" lon="3.04737">
        <ele>484.6418457</ele>
        <time>2011-05-01T09:05:42Z</time>
      </trkpt>
      <trkpt lat="45.90997" lon="3.04742">
        <ele>484.1611328</ele>
        <time>2011-05-01T09:05:43Z</time>
      </trkpt>
      <trkpt lat="45.91013" lon="3.04758">
        <ele>483.1998291</ele>
        <time>2011-05-01T09:05:47Z</time>
      </trkpt>
      <trkpt lat="45.91026" lon="3.04774">
        <ele>483.1998291</ele>
        <time>2011-05-01T09:05:50Z</time>
      </trkpt>
      <trkpt lat="45.91033" lon="3.04786">
        <ele>483.6804199</ele>
        <time>2011-05-01T09:05:52Z</time>
      </trkpt>
      <trkpt lat="45.91045" lon="3.04817">
        <ele>481.2772217</ele>
        <time>2011-05-01T09:05:57Z</time>
      </trkpt>
      <trkpt lat="45.91047" lon="3.04824">
        <ele>479.835083</ele>
        <time>2011-05-01T09:05:58Z</time>
      </trkpt>
      <trkpt lat="45.91049" lon="3.04836">
        <ele>477.9124756</ele>
        <time>2011-05-01T09:06:01Z</time>
      </trkpt>
      <trkpt lat="45.9105" lon="3.04837">
        <ele>477.9124756</ele>
        <time>2011-05-01T09:06:07Z</time>
      </trkpt>
      <trkpt lat="45.91042" lon="3.04831">
        <ele>478.8739014</ele>
        <time>2011-05-01T09:06:14Z</time>
      </trkpt>
      <trkpt lat="45.91042" lon="3.0483">
        <ele>478.8739014</ele>
        <time>2011-05-01T09:06:19Z</time>
      </trkpt>
      <trkpt lat="45.91042" lon="3.04832">
        <ele>479.3544922</ele>
        <time>2011-05-01T09:06:22Z</time>
      </trkpt>
      <trkpt lat="45.91043" lon="3.04843">
        <ele>476.9512939</ele>
        <time>2011-05-01T09:06:26Z</time>
      </trkpt>
      <trkpt lat="45.91047" lon="3.0486">
        <ele>475.9898682</ele>
        <time>2011-05-01T09:06:30Z</time>
      </trkpt>
      <trkpt lat="45.91049" lon="3.04869">
        <ele>475.0286865</ele>
        <time>2011-05-01T09:06:32Z</time>
      </trkpt>
      <trkpt lat="45.91064" lon="3.04889">
        <ele>474.0672607</ele>
        <time>2011-05-01T09:06:38Z</time>
      </trkpt>
      <trkpt lat="45.91066" lon="3.04889">
        <ele>475.0286865</ele>
        <time>2011-05-01T09:06:40Z</time>
      </trkpt>
      <trkpt lat="45.91067" lon="3.0489">
        <ele>475.5092773</ele>
        <time>2011-05-01T09:06:41Z</time>
      </trkpt>
      <trkpt lat="45.91075" lon="3.04902">
        <ele>474.5479736</ele>
        <time>2011-05-01T09:06:45Z</time>
      </trkpt>
      <trkpt lat="45.9109" lon="3.04911">
        <ele>473.5866699</ele>
        <time>2011-05-01T09:06:49Z</time>
      </trkpt>
      <trkpt lat="45.91102" lon="3.04936">
        <ele>473.1060791</ele>
        <time>2011-05-01T09:06:54Z</time>
      </trkpt>
      <trkpt lat="45.91116" lon="3.0498">
        <ele>471.6639404</ele>
        <time>2011-05-01T09:07:01Z</time>
      </trkpt>
      <trkpt lat="45.91121" lon="3.04991">
        <ele>472.1446533</ele>
        <time>2011-05-01T09:07:04Z</time>
      </trkpt>
      <trkpt lat="45.91126" lon="3.05003">
        <ele>471.6639404</ele>
        <time>2011-05-01T09:07:06Z</time>
      </trkpt>
      <trkpt lat="45.91128" lon="3.05029">
        <ele>471.1833496</ele>
        <time>2011-05-01T09:07:11Z</time>
      </trkpt>
      <trkpt lat="45.91126" lon="3.05055">
        <ele>470.7026367</ele>
        <time>2011-05-01T09:07:15Z</time>
      </trkpt>
      <trkpt lat="45.9113" lon="3.05089">
        <ele>467.3381348</ele>
        <time>2011-05-01T09:07:19Z</time>
      </trkpt>
      <trkpt lat="45.91142" lon="3.05128">
        <ele>466.8574219</ele>
        <time>2011-05-01T09:07:23Z</time>
      </trkpt>
      <trkpt lat="45.91148" lon="3.05155">
        <ele>470.2219238</ele>
        <time>2011-05-01T09:07:27Z</time>
      </trkpt>
      <trkpt lat="45.91148" lon="3.05162">
        <ele>471.6639404</ele>
        <time>2011-05-01T09:07:30Z</time>
      </trkpt>
      <trkpt lat="45.91148" lon="3.05163">
        <ele>471.6639404</ele>
        <time>2011-05-01T09:07:31Z</time>
      </trkpt>
      <trkpt lat="45.91153" lon="3.0516">
        <ele>470.7026367</ele>
        <time>2011-05-01T09:07:34Z</time>
      </trkpt>
      <trkpt lat="45.91156" lon="3.05158">
        <ele>470.7026367</ele>
        <time>2011-05-01T09:07:35Z</time>
      </trkpt>
      <trkpt lat="45.91167" lon="3.05145">
        <ele>470.7026367</ele>
        <time>2011-05-01T09:07:39Z</time>
      </trkpt>
      <trkpt lat="45.91187" lon="3.05135">
        <ele>471.1833496</ele>
        <time>2011-05-01T09:07:44Z</time>
      </trkpt>
      <trkpt lat="45.91205" lon="3.05143">
        <ele>471.1833496</ele>
        <time>2011-05-01T09:07:48Z</time>
      </trkpt>
      <trkpt lat="45.91242" lon="3.05175">
        <ele>473.5866699</ele>
        <time>2011-05-01T09:07:58Z</time>
      </trkpt>
      <trkpt lat="45.91246" lon="3.05178">
        <ele>473.5866699</ele>
        <time>2011-05-01T09:07:59Z</time>
      </trkpt>
      <trkpt lat="45.91261" lon="3.05189">
        <ele>474.5479736</ele>
        <time>2011-05-01T09:08:03Z</time>
      </trkpt>
      <trkpt lat="45.9129" lon="3.05217">
        <ele>475.9898682</ele>
        <time>2011-05-01T09:08:11Z</time>
      </trkpt>
      <trkpt lat="45.91316" lon="3.05236">
        <ele>477.4318848</ele>
        <time>2011-05-01T09:08:18Z</time>
      </trkpt>
      <trkpt lat="45.91341" lon="3.05247">
        <ele>478.3931885</ele>
        <time>2011-05-01T09:08:24Z</time>
      </trkpt>
      <trkpt lat="45.91362" lon="3.05252">
        <ele>479.3544922</ele>
        <time>2011-05-01T09:08:30Z</time>
      </trkpt>
      <trkpt lat="45.91369" lon="3.05254">
        <ele>479.3544922</ele>
        <time>2011-05-01T09:08:34Z</time>
      </trkpt>
      <trkpt lat="45.91366" lon="3.05261">
        <ele>479.3544922</ele>
        <time>2011-05-01T09:08:39Z</time>
      </trkpt>
      <trkpt lat="45.91361" lon="3.05255">
        <ele>479.835083</ele>
        <time>2011-05-01T09:08:42Z</time>
      </trkpt>
      <trkpt lat="45.9135" lon="3.0525">
        <ele>479.3544922</ele>
        <time>2011-05-01T09:08:47Z</time>
      </trkpt>
      <trkpt lat="45.91335" lon="3.05241">
        <ele>478.3931885</ele>
        <time>2011-05-01T09:08:52Z</time>
      </trkpt>
      <trkpt lat="45.91324" lon="3.05237">
        <ele>477.9124756</ele>
        <time>2011-05-01T09:08:55Z</time>
      </trkpt>
      <trkpt lat="45.91314" lon="3.05232">
        <ele>477.4318848</ele>
        <time>2011-05-01T09:08:58Z</time>
      </trkpt>
      <trkpt lat="45.91307" lon="3.05226">
        <ele>476.9512939</ele>
        <time>2011-05-01T09:09:00Z</time>
      </trkpt>
      <trkpt lat="45.91295" lon="3.05215">
        <ele>476.9512939</ele>
        <time>2011-05-01T09:09:03Z</time>
      </trkpt>
      <trkpt lat="45.91291" lon="3.05212">
        <ele>476.4705811</ele>
        <time>2011-05-01T09:09:04Z</time>
      </trkpt>
      <trkpt lat="45.91269" lon="3.05193">
        <ele>475.0286865</ele>
        <time>2011-05-01T09:09:09Z</time>
      </trkpt>
      <trkpt lat="45.91239" lon="3.05167">
        <ele>474.0672607</ele>
        <time>2011-05-01T09:09:16Z</time>
      </trkpt>
      <trkpt lat="45.91222" lon="3.05153">
        <ele>473.1060791</ele>
        <time>2011-05-01T09:09:20Z</time>
      </trkpt>
      <trkpt lat="45.91218" lon="3.0515">
        <ele>473.1060791</ele>
        <time>2011-05-01T09:09:21Z</time>
      </trkpt>
      <trkpt lat="45.91215" lon="3.05147">
        <ele>472.1446533</ele>
        <time>2011-05-01T09:09:22Z</time>
      </trkpt>
      <trkpt lat="45.91201" lon="3.05135">
        <ele>471.6639404</ele>
        <time>2011-05-01T09:09:26Z</time>
      </trkpt>
      <trkpt lat="45.91198" lon="3.05133">
        <ele>471.1833496</ele>
        <time>2011-05-01T09:09:27Z</time>
      </trkpt>
      <trkpt lat="45.91194" lon="3.05138">
        <ele>471.1833496</ele>
        <time>2011-05-01T09:09:31Z</time>
      </trkpt>
      <trkpt lat="45.91198" lon="3.05141">
        <ele>471.1833496</ele>
        <time>2011-05-01T09:09:34Z</time>
      </trkpt>
      <trkpt lat="45.91203" lon="3.05141">
        <ele>471.1833496</ele>
        <time>2011-05-01T09:09:37Z</time>
      </trkpt>
      <trkpt lat="45.9121" lon="3.05148">
        <ele>471.1833496</ele>
        <time>2011-05-01T09:09:40Z</time>
      </trkpt>
      <trkpt lat="45.91226" lon="3.05163">
        <ele>473.5866699</ele>
        <time>2011-05-01T09:09:44Z</time>
      </trkpt>
      <trkpt lat="45.91234" lon="3.0517">
        <ele>473.5866699</ele>
        <time>2011-05-01T09:09:46Z</time>
      </trkpt>
      <trkpt lat="45.91243" lon="3.05176">
        <ele>474.0672607</ele>
        <time>2011-05-01T09:09:48Z</time>
      </trkpt>
      <trkpt lat="45.91253" lon="3.05185">
        <ele>474.0672607</ele>
        <time>2011-05-01T09:09:50Z</time>
      </trkpt>
      <trkpt lat="45.91269" lon="3.05199">
        <ele>475.9898682</ele>
        <time>2011-05-01T09:09:53Z</time>
      </trkpt>
      <trkpt lat="45.91275" lon="3.05204">
        <ele>475.9898682</ele>
        <time>2011-05-01T09:09:54Z</time>
      </trkpt>
      <trkpt lat="45.91286" lon="3.05214">
        <ele>476.9512939</ele>
        <time>2011-05-01T09:09:56Z</time>
      </trkpt>
      <trkpt lat="45.91291" lon="3.05218">
        <ele>476.9512939</ele>
        <time>2011-05-01T09:09:57Z</time>
      </trkpt>
      <trkpt lat="45.91297" lon="3.05222">
        <ele>477.9124756</ele>
        <time>2011-05-01T09:09:58Z</time>
      </trkpt>
      <trkpt lat="45.91307" lon="3.0523">
        <ele>478.3931885</ele>
        <time>2011-05-01T09:10:00Z</time>
      </trkpt>
      <trkpt lat="45.91312" lon="3.05234">
        <ele>478.8739014</ele>
        <time>2011-05-01T09:10:01Z</time>
      </trkpt>
      <trkpt lat="45.91331" lon="3.05242">
        <ele>478.3931885</ele>
        <time>2011-05-01T09:10:05Z</time>
      </trkpt>
      <trkpt lat="45.91335" lon="3.05244">
        <ele>479.3544922</ele>
        <time>2011-05-01T09:10:06Z</time>
      </trkpt>
      <trkpt lat="45.91347" lon="3.05249">
        <ele>478.8739014</ele>
        <time>2011-05-01T09:10:09Z</time>
      </trkpt>
      <trkpt lat="45.91377" lon="3.05256">
        <ele>479.835083</ele>
        <time>2011-05-01T09:10:16Z</time>
      </trkpt>
      <trkpt lat="45.91385" lon="3.05257">
        <ele>480.315918</ele>
        <time>2011-05-01T09:10:18Z</time>
      </trkpt>
      <trkpt lat="45.9143" lon="3.05268">
        <ele>483.1998291</ele>
        <time>2011-05-01T09:10:29Z</time>
      </trkpt>
      <trkpt lat="45.91469" lon="3.05288">
        <ele>484.1611328</ele>
        <time>2011-05-01T09:10:39Z</time>
      </trkpt>
      <trkpt lat="45.91488" lon="3.05282">
        <ele>485.6030273</ele>
        <time>2011-05-01T09:10:44Z</time>
      </trkpt>
      <trkpt lat="45.91505" lon="3.05258">
        <ele>486.0837402</ele>
        <time>2011-05-01T09:10:50Z</time>
      </trkpt>
      <trkpt lat="45.91524" lon="3.05218">
        <ele>488.0064697</ele>
        <time>2011-05-01T09:10:58Z</time>
      </trkpt>
      <trkpt lat="45.91539" lon="3.05179">
        <ele>489.4483643</ele>
        <time>2011-05-01T09:11:06Z</time>
      </trkpt>
      <trkpt lat="45.91538" lon="3.05153">
        <ele>490.8903809</ele>
        <time>2011-05-01T09:11:11Z</time>
      </trkpt>
      <trkpt lat="45.91526" lon="3.05133">
        <ele>491.8516846</ele>
        <time>2011-05-01T09:11:16Z</time>
      </trkpt>
      <trkpt lat="45.915" lon="3.05117">
        <ele>491.8516846</ele>
        <time>2011-05-01T09:11:23Z</time>
      </trkpt>
      <trkpt lat="45.91465" lon="3.051">
        <ele>493.774292</ele>
        <time>2011-05-01T09:11:32Z</time>
      </trkpt>
      <trkpt lat="45.91442" lon="3.05076">
        <ele>495.6968994</ele>
        <time>2011-05-01T09:11:39Z</time>
      </trkpt>
      <trkpt lat="45.91436" lon="3.05055">
        <ele>494.7355957</ele>
        <time>2011-05-01T09:11:43Z</time>
      </trkpt>
      <trkpt lat="45.91435" lon="3.05018">
        <ele>491.3709717</ele>
        <time>2011-05-01T09:11:47Z</time>
      </trkpt>
      <trkpt lat="45.91442" lon="3.04995">
        <ele>488.9677734</ele>
        <time>2011-05-01T09:11:50Z</time>
      </trkpt>
      <trkpt lat="45.91451" lon="3.04984">
        <ele>488.4871826</ele>
        <time>2011-05-01T09:11:52Z</time>
      </trkpt>
      <trkpt lat="45.91474" lon="3.04963">
        <ele>486.0837402</ele>
        <time>2011-05-01T09:11:56Z</time>
      </trkpt>
      <trkpt lat="45.91481" lon="3.04958">
        <ele>486.0837402</ele>
        <time>2011-05-01T09:11:57Z</time>
      </trkpt>
      <trkpt lat="45.91488" lon="3.04954">
        <ele>485.1224365</ele>
        <time>2011-05-01T09:11:58Z</time>
      </trkpt>
      <trkpt lat="45.91501" lon="3.04947">
        <ele>483.1998291</ele>
        <time>2011-05-01T09:12:00Z</time>
      </trkpt>
      <trkpt lat="45.91516" lon="3.04933">
        <ele>481.2772217</ele>
        <time>2011-05-01T09:12:03Z</time>
      </trkpt>
      <trkpt lat="45.91524" lon="3.0492">
        <ele>480.315918</ele>
        <time>2011-05-01T09:12:05Z</time>
      </trkpt>
      <trkpt lat="45.91528" lon="3.04911">
        <ele>479.835083</ele>
        <time>2011-05-01T09:12:06Z</time>
      </trkpt>
      <trkpt lat="45.91544" lon="3.04846">
        <ele>477.4318848</ele>
        <time>2011-05-01T09:12:12Z</time>
      </trkpt>
      <trkpt lat="45.91547" lon="3.04835">
        <ele>477.4318848</ele>
        <time>2011-05-01T09:12:13Z</time>
      </trkpt>
      <trkpt lat="45.91551" lon="3.04802">
        <ele>475.5092773</ele>
        <time>2011-05-01T09:12:16Z</time>
      </trkpt>
      <trkpt lat="45.91544" lon="3.04774">
        <ele>474.5479736</ele>
        <time>2011-05-01T09:12:19Z</time>
      </trkpt>
      <trkpt lat="45.91529" lon="3.04729">
        <ele>473.5866699</ele>
        <time>2011-05-01T09:12:24Z</time>
      </trkpt>
      <trkpt lat="45.91528" lon="3.04702">
        <ele>473.1060791</ele>
        <time>2011-05-01T09:12:27Z</time>
      </trkpt>
      <trkpt lat="45.91538" lon="3.04666">
        <ele>474.0672607</ele>
        <time>2011-05-01T09:12:32Z</time>
      </trkpt>
      <trkpt lat="45.91549" lon="3.04647">
        <ele>473.5866699</ele>
        <time>2011-05-01T09:12:35Z</time>
      </trkpt>
      <trkpt lat="45.91552" lon="3.04639">
        <ele>473.5866699</ele>
        <time>2011-05-01T09:12:36Z</time>
      </trkpt>
      <trkpt lat="45.91559" lon="3.04614">
        <ele>473.1060791</ele>
        <time>2011-05-01T09:12:39Z</time>
      </trkpt>
      <trkpt lat="45.91564" lon="3.04571">
        <ele>473.5866699</ele>
        <time>2011-05-01T09:12:44Z</time>
      </trkpt>
      <trkpt lat="45.91566" lon="3.04553">
        <ele>473.5866699</ele>
        <time>2011-05-01T09:12:46Z</time>
      </trkpt>
      <trkpt lat="45.91569" lon="3.04498">
        <ele>473.1060791</ele>
        <time>2011-05-01T09:12:52Z</time>
      </trkpt>
      <trkpt lat="45.91568" lon="3.04482">
        <ele>474.0672607</ele>
        <time>2011-05-01T09:12:54Z</time>
      </trkpt>
      <trkpt lat="45.91565" lon="3.04467">
        <ele>474.5479736</ele>
        <time>2011-05-01T09:12:56Z</time>
      </trkpt>
      <trkpt lat="45.91557" lon="3.04432">
        <ele>473.5866699</ele>
        <time>2011-05-01T09:13:00Z</time>
      </trkpt>
      <trkpt lat="45.91559" lon="3.04399">
        <ele>473.5866699</ele>
        <time>2011-05-01T09:13:04Z</time>
      </trkpt>
      <trkpt lat="45.9156" lon="3.04358">
        <ele>474.0672607</ele>
        <time>2011-05-01T09:13:09Z</time>
      </trkpt>
      <trkpt lat="45.91561" lon="3.04341">
        <ele>474.0672607</ele>
        <time>2011-05-01T09:13:11Z</time>
      </trkpt>
      <trkpt lat="45.91565" lon="3.04317">
        <ele>474.5479736</ele>
        <time>2011-05-01T09:13:14Z</time>
      </trkpt>
      <trkpt lat="45.91564" lon="3.04281">
        <ele>474.5479736</ele>
        <time>2011-05-01T09:13:18Z</time>
      </trkpt>
      <trkpt lat="45.91566" lon="3.04242">
        <ele>475.9898682</ele>
        <time>2011-05-01T09:13:23Z</time>
      </trkpt>
      <trkpt lat="45.91569" lon="3.0422">
        <ele>476.4705811</ele>
        <time>2011-05-01T09:13:26Z</time>
      </trkpt>
      <trkpt lat="45.91574" lon="3.04188">
        <ele>475.9898682</ele>
        <time>2011-05-01T09:13:30Z</time>
      </trkpt>
      <trkpt lat="45.91565" lon="3.04155">
        <ele>475.5092773</ele>
        <time>2011-05-01T09:13:34Z</time>
      </trkpt>
      <trkpt lat="45.9156" lon="3.04127">
        <ele>475.0286865</ele>
        <time>2011-05-01T09:13:37Z</time>
      </trkpt>
      <trkpt lat="45.91562" lon="3.04087">
        <ele>475.5092773</ele>
        <time>2011-05-01T09:13:43Z</time>
      </trkpt>
      <trkpt lat="45.91561" lon="3.04082">
        <ele>475.9898682</ele>
        <time>2011-05-01T09:13:44Z</time>
      </trkpt>
      <trkpt lat="45.91557" lon="3.04074">
        <ele>475.9898682</ele>
        <time>2011-05-01T09:13:48Z</time>
      </trkpt>
      <trkpt lat="45.91555" lon="3.04066">
        <ele>476.4705811</ele>
        <time>2011-05-01T09:13:53Z</time>
      </trkpt>
      <trkpt lat="45.91555" lon="3.04065">
        <ele>476.4705811</ele>
        <time>2011-05-01T09:13:54Z</time>
      </trkpt>
      <trkpt lat="45.91554" lon="3.04065">
        <ele>476.4705811</ele>
        <time>2011-05-01T09:13:55Z</time>
      </trkpt>
      <trkpt lat="45.91553" lon="3.04068">
        <ele>476.4705811</ele>
        <time>2011-05-01T09:14:01Z</time>
      </trkpt>
      <trkpt lat="45.91552" lon="3.04069">
        <ele>476.4705811</ele>
        <time>2011-05-01T09:14:02Z</time>
      </trkpt>
      <trkpt lat="45.91553" lon="3.04073">
        <ele>475.9898682</ele>
        <time>2011-05-01T09:14:05Z</time>
      </trkpt>
      <trkpt lat="45.91556" lon="3.04068">
        <ele>475.0286865</ele>
        <time>2011-05-01T09:14:10Z</time>
      </trkpt>
      <trkpt lat="45.91558" lon="3.04064">
        <ele>475.9898682</ele>
        <time>2011-05-01T09:14:23Z</time>
      </trkpt>
      <trkpt lat="45.91557" lon="3.04061">
        <ele>475.5092773</ele>
        <time>2011-05-01T09:14:47Z</time>
      </trkpt>
      <trkpt lat="45.91559" lon="3.04057">
        <ele>475.0286865</ele>
        <time>2011-05-01T09:14:54Z</time>
      </trkpt>
      <trkpt lat="45.91557" lon="3.04044">
        <ele>474.0672607</ele>
        <time>2011-05-01T09:14:58Z</time>
      </trkpt>
      <trkpt lat="45.91559" lon="3.04036">
        <ele>473.5866699</ele>
        <time>2011-05-01T09:15:01Z</time>
      </trkpt>
      <trkpt lat="45.91561" lon="3.04033">
        <ele>473.1060791</ele>
        <time>2011-05-01T09:15:03Z</time>
      </trkpt>
      <trkpt lat="45.91563" lon="3.04031">
        <ele>473.1060791</ele>
        <time>2011-05-01T09:15:06Z</time>
      </trkpt>
      <trkpt lat="45.91564" lon="3.04024">
        <ele>472.6253662</ele>
        <time>2011-05-01T09:15:10Z</time>
      </trkpt>
      <trkpt lat="45.91568" lon="3.04019">
        <ele>473.5866699</ele>
        <time>2011-05-01T09:15:16Z</time>
      </trkpt>
      <trkpt lat="45.91568" lon="3.04019">
        <ele>473.5866699</ele>
        <time>2011-05-01T09:15:21Z</time>
      </trkpt>
      <trkpt lat="45.91568" lon="3.0402">
        <ele>473.1060791</ele>
        <time>2011-05-01T09:15:22Z</time>
      </trkpt>
      <trkpt lat="45.91572" lon="3.04028">
        <ele>474.0672607</ele>
        <time>2011-05-01T09:15:27Z</time>
      </trkpt>
      <trkpt lat="45.91572" lon="3.04029">
        <ele>473.5866699</ele>
        <time>2011-05-01T09:15:28Z</time>
      </trkpt>
      <trkpt lat="45.91576" lon="3.04042">
        <ele>473.5866699</ele>
        <time>2011-05-01T09:15:32Z</time>
      </trkpt>
      <trkpt lat="45.91586" lon="3.04065">
        <ele>474.0672607</ele>
        <time>2011-05-01T09:15:37Z</time>
      </trkpt>
      <trkpt lat="45.91596" lon="3.04083">
        <ele>472.6253662</ele>
        <time>2011-05-01T09:15:41Z</time>
      </trkpt>
      <trkpt lat="45.91604" lon="3.04096">
        <ele>472.1446533</ele>
        <time>2011-05-01T09:15:44Z</time>
      </trkpt>
      <trkpt lat="45.91615" lon="3.04129">
        <ele>472.1446533</ele>
        <time>2011-05-01T09:15:49Z</time>
      </trkpt>
      <trkpt lat="45.91617" lon="3.04154">
        <ele>471.6639404</ele>
        <time>2011-05-01T09:15:52Z</time>
      </trkpt>
      <trkpt lat="45.91619" lon="3.04182">
        <ele>469.741333</ele>
        <time>2011-05-01T09:15:55Z</time>
      </trkpt>
      <trkpt lat="45.9162" lon="3.04223">
        <ele>469.741333</ele>
        <time>2011-05-01T09:15:59Z</time>
      </trkpt>
      <trkpt lat="45.91619" lon="3.04293">
        <ele>468.2993164</ele>
        <time>2011-05-01T09:16:06Z</time>
      </trkpt>
      <trkpt lat="45.91619" lon="3.04304">
        <ele>468.2993164</ele>
        <time>2011-05-01T09:16:07Z</time>
      </trkpt>
      <trkpt lat="45.9162" lon="3.04324">
        <ele>466.8574219</ele>
        <time>2011-05-01T09:16:09Z</time>
      </trkpt>
      <trkpt lat="45.91625" lon="3.04366">
        <ele>465.8961182</ele>
        <time>2011-05-01T09:16:13Z</time>
      </trkpt>
      <trkpt lat="45.91631" lon="3.04395">
        <ele>466.376709</ele>
        <time>2011-05-01T09:16:16Z</time>
      </trkpt>
      <trkpt lat="45.91625" lon="3.0443">
        <ele>463.9733887</ele>
        <time>2011-05-01T09:16:19Z</time>
      </trkpt>
      <trkpt lat="45.91622" lon="3.04443">
        <ele>463.4927979</ele>
        <time>2011-05-01T09:16:20Z</time>
      </trkpt>
      <trkpt lat="45.9162" lon="3.04457">
        <ele>463.4927979</ele>
        <time>2011-05-01T09:16:21Z</time>
      </trkpt>
      <trkpt lat="45.91619" lon="3.04482">
        <ele>462.5313721</ele>
        <time>2011-05-01T09:16:23Z</time>
      </trkpt>
      <trkpt lat="45.91626" lon="3.04529">
        <ele>460.6087646</ele>
        <time>2011-05-01T09:16:27Z</time>
      </trkpt>
      <trkpt lat="45.91629" lon="3.04539">
        <ele>460.6087646</ele>
        <time>2011-05-01T09:16:28Z</time>
      </trkpt>
      <trkpt lat="45.91642" lon="3.04559">
        <ele>460.1281738</ele>
        <time>2011-05-01T09:16:31Z</time>
      </trkpt>
      <trkpt lat="45.91645" lon="3.04587">
        <ele>458.6861572</ele>
        <time>2011-05-01T09:16:34Z</time>
      </trkpt>
      <trkpt lat="45.91645" lon="3.04624">
        <ele>458.6861572</ele>
        <time>2011-05-01T09:16:38Z</time>
      </trkpt>
      <trkpt lat="45.91651" lon="3.04655">
        <ele>458.2055664</ele>
        <time>2011-05-01T09:16:41Z</time>
      </trkpt>
      <trkpt lat="45.91647" lon="3.04707">
        <ele>455.3215332</ele>
        <time>2011-05-01T09:16:46Z</time>
      </trkpt>
      <trkpt lat="45.91641" lon="3.04736">
        <ele>454.8408203</ele>
        <time>2011-05-01T09:16:49Z</time>
      </trkpt>
      <trkpt lat="45.91634" lon="3.04754">
        <ele>454.3602295</ele>
        <time>2011-05-01T09:16:53Z</time>
      </trkpt>
      <trkpt lat="45.91633" lon="3.04759">
        <ele>453.8796387</ele>
        <time>2011-05-01T09:16:57Z</time>
      </trkpt>
      <trkpt lat="45.91632" lon="3.0476">
        <ele>453.8796387</ele>
        <time>2011-05-01T09:16:58Z</time>
      </trkpt>
      <trkpt lat="45.91634" lon="3.04764">
        <ele>454.3602295</ele>
        <time>2011-05-01T09:17:05Z</time>
      </trkpt>
      <trkpt lat="45.91633" lon="3.04764">
        <ele>454.3602295</ele>
        <time>2011-05-01T09:17:07Z</time>
      </trkpt>
      <trkpt lat="45.91624" lon="3.04778">
        <ele>453.8796387</ele>
        <time>2011-05-01T09:17:12Z</time>
      </trkpt>
      <trkpt lat="45.9162" lon="3.04794">
        <ele>453.3989258</ele>
        <time>2011-05-01T09:17:17Z</time>
      </trkpt>
      <trkpt lat="45.91618" lon="3.04792">
        <ele>453.8796387</ele>
        <time>2011-05-01T09:17:20Z</time>
      </trkpt>
      <trkpt lat="45.91626" lon="3.04778">
        <ele>453.3989258</ele>
        <time>2011-05-01T09:17:24Z</time>
      </trkpt>
      <trkpt lat="45.91634" lon="3.04757">
        <ele>454.3602295</ele>
        <time>2011-05-01T09:17:28Z</time>
      </trkpt>
      <trkpt lat="45.91641" lon="3.04748">
        <ele>455.8022461</ele>
        <time>2011-05-01T09:17:31Z</time>
      </trkpt>
      <trkpt lat="45.91654" lon="3.04756">
        <ele>456.282959</ele>
        <time>2011-05-01T09:17:35Z</time>
      </trkpt>
      <trkpt lat="45.91664" lon="3.04767">
        <ele>456.7635498</ele>
        <time>2011-05-01T09:17:38Z</time>
      </trkpt>
      <trkpt lat="45.91667" lon="3.04771">
        <ele>457.2442627</ele>
        <time>2011-05-01T09:17:39Z</time>
      </trkpt>
      <trkpt lat="45.91669" lon="3.04776">
        <ele>457.7249756</ele>
        <time>2011-05-01T09:17:40Z</time>
      </trkpt>
      <trkpt lat="45.91671" lon="3.04787">
        <ele>457.7249756</ele>
        <time>2011-05-01T09:17:42Z</time>
      </trkpt>
      <trkpt lat="45.91673" lon="3.04797">
        <ele>457.7249756</ele>
        <time>2011-05-01T09:17:44Z</time>
      </trkpt>
      <trkpt lat="45.91676" lon="3.04821">
        <ele>458.6861572</ele>
        <time>2011-05-01T09:17:48Z</time>
      </trkpt>
      <trkpt lat="45.91676" lon="3.04828">
        <ele>458.2055664</ele>
        <time>2011-05-01T09:17:49Z</time>
      </trkpt>
      <trkpt lat="45.91674" lon="3.04858">
        <ele>458.6861572</ele>
        <time>2011-05-01T09:17:54Z</time>
      </trkpt>
      <trkpt lat="45.91673" lon="3.04864">
        <ele>458.2055664</ele>
        <time>2011-05-01T09:17:55Z</time>
      </trkpt>
      <trkpt lat="45.9167" lon="3.04878">
        <ele>457.2442627</ele>
        <time>2011-05-01T09:17:57Z</time>
      </trkpt>
      <trkpt lat="45.91667" lon="3.04896">
        <ele>456.282959</ele>
        <time>2011-05-01T09:17:59Z</time>
      </trkpt>
      <trkpt lat="45.91661" lon="3.04936">
        <ele>452.9182129</ele>
        <time>2011-05-01T09:18:03Z</time>
      </trkpt>
      <trkpt lat="45.91657" lon="3.04955">
        <ele>450.9956055</ele>
        <time>2011-05-01T09:18:05Z</time>
      </trkpt>
      <trkpt lat="45.91648" lon="3.04987">
        <ele>449.5537109</ele>
        <time>2011-05-01T09:18:08Z</time>
      </trkpt>
      <trkpt lat="45.91643" lon="3.0505">
        <ele>447.1502686</ele>
        <time>2011-05-01T09:18:13Z</time>
      </trkpt>
      <trkpt lat="45.91639" lon="3.05099">
        <ele>446.6696777</ele>
        <time>2011-05-01T09:18:18Z</time>
      </trkpt>
      <trkpt lat="45.91641" lon="3.05114">
        <ele>445.708374</ele>
        <time>2011-05-01T09:18:22Z</time>
      </trkpt>
      <trkpt lat="45.91639" lon="3.05112">
        <ele>445.708374</ele>
        <time>2011-05-01T09:18:24Z</time>
      </trkpt>
      <trkpt lat="45.91638" lon="3.05102">
        <ele>445.708374</ele>
        <time>2011-05-01T09:18:28Z</time>
      </trkpt>
      <trkpt lat="45.91638" lon="3.05092">
        <ele>445.2276611</ele>
        <time>2011-05-01T09:18:30Z</time>
      </trkpt>
      <trkpt lat="45.91639" lon="3.05078">
        <ele>446.1890869</ele>
        <time>2011-05-01T09:18:33Z</time>
      </trkpt>
      <trkpt lat="45.91648" lon="3.05073">
        <ele>447.1502686</ele>
        <time>2011-05-01T09:18:38Z</time>
      </trkpt>
      <trkpt lat="45.9165" lon="3.05074">
        <ele>446.6696777</ele>
        <time>2011-05-01T09:18:39Z</time>
      </trkpt>
      <trkpt lat="45.91666" lon="3.05078">
        <ele>447.1502686</ele>
        <time>2011-05-01T09:18:46Z</time>
      </trkpt>
      <trkpt lat="45.91675" lon="3.0508">
        <ele>448.1118164</ele>
        <time>2011-05-01T09:18:50Z</time>
      </trkpt>
      <trkpt lat="45.91685" lon="3.05079">
        <ele>449.5537109</ele>
        <time>2011-05-01T09:18:55Z</time>
      </trkpt>
      <trkpt lat="45.91692" lon="3.05076">
        <ele>450.0344238</ele>
        <time>2011-05-01T09:18:58Z</time>
      </trkpt>
      <trkpt lat="45.91697" lon="3.05074">
        <ele>450.9956055</ele>
        <time>2011-05-01T09:19:01Z</time>
      </trkpt>
      <trkpt lat="45.917" lon="3.05073">
        <ele>451.4763184</ele>
        <time>2011-05-01T09:19:03Z</time>
      </trkpt>
      <trkpt lat="45.91703" lon="3.05072">
        <ele>451.9570313</ele>
        <time>2011-05-01T09:19:05Z</time>
      </trkpt>
      <trkpt lat="45.91712" lon="3.05075">
        <ele>453.3989258</ele>
        <time>2011-05-01T09:19:09Z</time>
      </trkpt>
      <trkpt lat="45.91718" lon="3.05076">
        <ele>455.3215332</ele>
        <time>2011-05-01T09:19:12Z</time>
      </trkpt>
      <trkpt lat="45.91721" lon="3.05077">
        <ele>457.2442627</ele>
        <time>2011-05-01T09:19:15Z</time>
      </trkpt>
      <trkpt lat="45.91724" lon="3.05078">
        <ele>458.6861572</ele>
        <time>2011-05-01T09:19:19Z</time>
      </trkpt>
      <trkpt lat="45.91724" lon="3.05083">
        <ele>460.1281738</ele>
        <time>2011-05-01T09:19:27Z</time>
      </trkpt>
      <trkpt lat="45.91723" lon="3.05087">
        <ele>459.647583</ele>
        <time>2011-05-01T09:19:30Z</time>
      </trkpt>
      <trkpt lat="45.91724" lon="3.051">
        <ele>460.6087646</ele>
        <time>2011-05-01T09:19:36Z</time>
      </trkpt>
      <trkpt lat="45.91718" lon="3.05114">
        <ele>460.6087646</ele>
        <time>2011-05-01T09:19:41Z</time>
      </trkpt>
      <trkpt lat="45.91713" lon="3.05123">
        <ele>460.6087646</ele>
        <time>2011-05-01T09:19:44Z</time>
      </trkpt>
      <trkpt lat="45.91712" lon="3.05137">
        <ele>463.012085</ele>
        <time>2011-05-01T09:19:51Z</time>
      </trkpt>
      <trkpt lat="45.91712" lon="3.05142">
        <ele>463.9733887</ele>
        <time>2011-05-01T09:19:55Z</time>
      </trkpt>
      <trkpt lat="45.91713" lon="3.05144">
        <ele>464.4541016</ele>
        <time>2011-05-01T09:20:00Z</time>
      </trkpt>
      <trkpt lat="45.91714" lon="3.05147">
        <ele>466.376709</ele>
        <time>2011-05-01T09:20:08Z</time>
      </trkpt>
      <trkpt lat="45.91715" lon="3.05148">
        <ele>467.3381348</ele>
        <time>2011-05-01T09:20:15Z</time>
      </trkpt>
      <trkpt lat="45.91716" lon="3.05154">
        <ele>467.8187256</ele>
        <time>2011-05-01T09:20:23Z</time>
      </trkpt>
      <trkpt lat="45.91721" lon="3.05162">
        <ele>468.7800293</ele>
        <time>2011-05-01T09:20:29Z</time>
      </trkpt>
      <trkpt lat="45.91722" lon="3.05164">
        <ele>469.2607422</ele>
        <time>2011-05-01T09:20:31Z</time>
      </trkpt>
      <trkpt lat="45.91728" lon="3.05171">
        <ele>470.2219238</ele>
        <time>2011-05-01T09:20:38Z</time>
      </trkpt>
      <trkpt lat="45.91733" lon="3.05175">
        <ele>472.1446533</ele>
        <time>2011-05-01T09:20:44Z</time>
      </trkpt>
      <trkpt lat="45.91736" lon="3.05176">
        <ele>474.0672607</ele>
        <time>2011-05-01T09:20:50Z</time>
      </trkpt>
      <trkpt lat="45.91739" lon="3.05178">
        <ele>474.0672607</ele>
        <time>2011-05-01T09:20:54Z</time>
      </trkpt>
      <trkpt lat="45.91745" lon="3.05179">
        <ele>474.5479736</ele>
        <time>2011-05-01T09:20:58Z</time>
      </trkpt>
      <trkpt lat="45.91752" lon="3.05182">
        <ele>475.9898682</ele>
        <time>2011-05-01T09:21:05Z</time>
      </trkpt>
      <trkpt lat="45.91756" lon="3.05185">
        <ele>477.4318848</ele>
        <time>2011-05-01T09:21:13Z</time>
      </trkpt>
      <trkpt lat="45.91759" lon="3.05193">
        <ele>480.315918</ele>
        <time>2011-05-01T09:21:21Z</time>
      </trkpt>
      <trkpt lat="45.91764" lon="3.05197">
        <ele>481.2772217</ele>
        <time>2011-05-01T09:21:29Z</time>
      </trkpt>
      <trkpt lat="45.91767" lon="3.05203">
        <ele>481.7578125</ele>
        <time>2011-05-01T09:21:35Z</time>
      </trkpt>
      <trkpt lat="45.91769" lon="3.05206">
        <ele>482.7192383</ele>
        <time>2011-05-01T09:21:41Z</time>
      </trkpt>
      <trkpt lat="45.91772" lon="3.05212">
        <ele>483.1998291</ele>
        <time>2011-05-01T09:21:48Z</time>
      </trkpt>
      <trkpt lat="45.91775" lon="3.05217">
        <ele>485.1224365</ele>
        <time>2011-05-01T09:21:55Z</time>
      </trkpt>
      <trkpt lat="45.91777" lon="3.05225">
        <ele>488.0064697</ele>
        <time>2011-05-01T09:22:06Z</time>
      </trkpt>
      <trkpt lat="45.91777" lon="3.05226">
        <ele>488.0064697</ele>
        <time>2011-05-01T09:22:07Z</time>
      </trkpt>
      <trkpt lat="45.91782" lon="3.05232">
        <ele>489.4483643</ele>
        <time>2011-05-01T09:22:13Z</time>
      </trkpt>
      <trkpt lat="45.91787" lon="3.05238">
        <ele>490.8903809</ele>
        <time>2011-05-01T09:22:22Z</time>
      </trkpt>
      <trkpt lat="45.91791" lon="3.05244">
        <ele>492.3323975</ele>
        <time>2011-05-01T09:22:28Z</time>
      </trkpt>
      <trkpt lat="45.91795" lon="3.0525">
        <ele>494.2550049</ele>
        <time>2011-05-01T09:22:36Z</time>
      </trkpt>
      <trkpt lat="45.91798" lon="3.05259">
        <ele>496.6583252</ele>
        <time>2011-05-01T09:22:45Z</time>
      </trkpt>
      <trkpt lat="45.91801" lon="3.05268">
        <ele>498.5809326</ele>
        <time>2011-05-01T09:22:54Z</time>
      </trkpt>
      <trkpt lat="45.91806" lon="3.05277">
        <ele>500.0229492</ele>
        <time>2011-05-01T09:23:02Z</time>
      </trkpt>
      <trkpt lat="45.9181" lon="3.05284">
        <ele>501.4648438</ele>
        <time>2011-05-01T09:23:09Z</time>
      </trkpt>
      <trkpt lat="45.91811" lon="3.05285">
        <ele>501.4648438</ele>
        <time>2011-05-01T09:23:17Z</time>
      </trkpt>
      <trkpt lat="45.91815" lon="3.05289">
        <ele>502.4261475</ele>
        <time>2011-05-01T09:23:24Z</time>
      </trkpt>
      <trkpt lat="45.91828" lon="3.05299">
        <ele>503.8681641</ele>
        <time>2011-05-01T09:23:33Z</time>
      </trkpt>
      <trkpt lat="45.91835" lon="3.0531">
        <ele>505.7908936</ele>
        <time>2011-05-01T09:23:39Z</time>
      </trkpt>
      <trkpt lat="45.91838" lon="3.05316">
        <ele>506.7520752</ele>
        <time>2011-05-01T09:23:44Z</time>
      </trkpt>
      <trkpt lat="45.91842" lon="3.05322">
        <ele>508.1940918</ele>
        <time>2011-05-01T09:23:51Z</time>
      </trkpt>
      <trkpt lat="45.91845" lon="3.05326">
        <ele>509.1553955</ele>
        <time>2011-05-01T09:23:58Z</time>
      </trkpt>
      <trkpt lat="45.91846" lon="3.05327">
        <ele>508.6746826</ele>
        <time>2011-05-01T09:23:59Z</time>
      </trkpt>
      <trkpt lat="45.91854" lon="3.05337">
        <ele>510.59729</ele>
        <time>2011-05-01T09:24:08Z</time>
      </trkpt>
      <trkpt lat="45.91857" lon="3.05341">
        <ele>512.0394287</ele>
        <time>2011-05-01T09:24:13Z</time>
      </trkpt>
      <trkpt lat="45.91863" lon="3.05346">
        <ele>513.0007324</ele>
        <time>2011-05-01T09:24:19Z</time>
      </trkpt>
      <trkpt lat="45.91873" lon="3.05345">
        <ele>513.4814453</ele>
        <time>2011-05-01T09:24:25Z</time>
      </trkpt>
      <trkpt lat="45.91888" lon="3.05339">
        <ele>513.9620361</ele>
        <time>2011-05-01T09:24:32Z</time>
      </trkpt>
      <trkpt lat="45.91904" lon="3.05337">
        <ele>513.9620361</ele>
        <time>2011-05-01T09:24:38Z</time>
      </trkpt>
      <trkpt lat="45.91916" lon="3.0534">
        <ele>514.9233398</ele>
        <time>2011-05-01T09:24:43Z</time>
      </trkpt>
      <trkpt lat="45.91932" lon="3.0534">
        <ele>515.8846436</ele>
        <time>2011-05-01T09:24:49Z</time>
      </trkpt>
      <trkpt lat="45.91944" lon="3.05331">
        <ele>516.3652344</ele>
        <time>2011-05-01T09:24:54Z</time>
      </trkpt>
      <trkpt lat="45.91956" lon="3.05321">
        <ele>516.8459473</ele>
        <time>2011-05-01T09:24:59Z</time>
      </trkpt>
      <trkpt lat="45.91967" lon="3.0532">
        <ele>516.8459473</ele>
        <time>2011-05-01T09:25:03Z</time>
      </trkpt>
      <trkpt lat="45.91983" lon="3.05322">
        <ele>517.3266602</ele>
        <time>2011-05-01T09:25:08Z</time>
      </trkpt>
      <trkpt lat="45.92001" lon="3.05324">
        <ele>518.2878418</ele>
        <time>2011-05-01T09:25:13Z</time>
      </trkpt>
      <trkpt lat="45.92016" lon="3.05324">
        <ele>519.7298584</ele>
        <time>2011-05-01T09:25:18Z</time>
      </trkpt>
      <trkpt lat="45.92037" lon="3.05329">
        <ele>520.6912842</ele>
        <time>2011-05-01T09:25:24Z</time>
      </trkpt>
      <trkpt lat="45.92066" lon="3.05345">
        <ele>522.1331787</ele>
        <time>2011-05-01T09:25:32Z</time>
      </trkpt>
      <trkpt lat="45.92084" lon="3.05355">
        <ele>523.0946045</ele>
        <time>2011-05-01T09:25:38Z</time>
      </trkpt>
      <trkpt lat="45.92097" lon="3.05357">
        <ele>524.536499</ele>
        <time>2011-05-01T09:25:42Z</time>
      </trkpt>
      <trkpt lat="45.92107" lon="3.0535">
        <ele>525.0172119</ele>
        <time>2011-05-01T09:25:46Z</time>
      </trkpt>
      <trkpt lat="45.92123" lon="3.05333">
        <ele>525.9783936</ele>
        <time>2011-05-01T09:25:52Z</time>
      </trkpt>
      <trkpt lat="45.92132" lon="3.05322">
        <ele>526.9398193</ele>
        <time>2011-05-01T09:25:57Z</time>
      </trkpt>
      <trkpt lat="45.92142" lon="3.05306">
        <ele>528.3818359</ele>
        <time>2011-05-01T09:26:04Z</time>
      </trkpt>
      <trkpt lat="45.92146" lon="3.05297">
        <ele>528.8625488</ele>
        <time>2011-05-01T09:26:10Z</time>
      </trkpt>
      <trkpt lat="45.92148" lon="3.05294">
        <ele>529.3431396</ele>
        <time>2011-05-01T09:26:17Z</time>
      </trkpt>
      <trkpt lat="45.92148" lon="3.05293">
        <ele>529.3431396</ele>
        <time>2011-05-01T09:26:18Z</time>
      </trkpt>
      <trkpt lat="45.92151" lon="3.05285">
        <ele>532.2270508</ele>
        <time>2011-05-01T09:26:25Z</time>
      </trkpt>
      <trkpt lat="45.92152" lon="3.0528">
        <ele>533.1883545</ele>
        <time>2011-05-01T09:26:29Z</time>
      </trkpt>
      <trkpt lat="45.92154" lon="3.05275">
        <ele>535.1109619</ele>
        <time>2011-05-01T09:26:36Z</time>
      </trkpt>
      <trkpt lat="45.92157" lon="3.0527">
        <ele>536.0723877</ele>
        <time>2011-05-01T09:26:43Z</time>
      </trkpt>
      <trkpt lat="45.92157" lon="3.05265">
        <ele>537.5142822</ele>
        <time>2011-05-01T09:26:47Z</time>
      </trkpt>
      <trkpt lat="45.92158" lon="3.05256">
        <ele>538.475708</ele>
        <time>2011-05-01T09:26:54Z</time>
      </trkpt>
      <trkpt lat="45.92161" lon="3.05252">
        <ele>539.9176025</ele>
        <time>2011-05-01T09:26:59Z</time>
      </trkpt>
      <trkpt lat="45.92166" lon="3.05249">
        <ele>541.3594971</ele>
        <time>2011-05-01T09:27:06Z</time>
      </trkpt>
      <trkpt lat="45.92173" lon="3.05244">
        <ele>542.8015137</ele>
        <time>2011-05-01T09:27:13Z</time>
      </trkpt>
      <trkpt lat="45.92179" lon="3.0524">
        <ele>544.7242432</ele>
        <time>2011-05-01T09:27:20Z</time>
      </trkpt>
      <trkpt lat="45.92185" lon="3.05238">
        <ele>546.1662598</ele>
        <time>2011-05-01T09:27:27Z</time>
      </trkpt>
      <trkpt lat="45.92192" lon="3.05237">
        <ele>547.6081543</ele>
        <time>2011-05-01T09:27:35Z</time>
      </trkpt>
      <trkpt lat="45.92201" lon="3.05237">
        <ele>549.5307617</ele>
        <time>2011-05-01T09:27:44Z</time>
      </trkpt>
      <trkpt lat="45.92208" lon="3.05235">
        <ele>550.4921875</ele>
        <time>2011-05-01T09:27:52Z</time>
      </trkpt>
      <trkpt lat="45.92214" lon="3.05236">
        <ele>552.4145508</ele>
        <time>2011-05-01T09:28:00Z</time>
      </trkpt>
      <trkpt lat="45.92219" lon="3.05239">
        <ele>554.3374023</ele>
        <time>2011-05-01T09:28:06Z</time>
      </trkpt>
      <trkpt lat="45.92222" lon="3.05243">
        <ele>554.8178711</ele>
        <time>2011-05-01T09:28:13Z</time>
      </trkpt>
      <trkpt lat="45.92222" lon="3.05244">
        <ele>554.3374023</ele>
        <time>2011-05-01T09:28:14Z</time>
      </trkpt>
      <trkpt lat="45.92228" lon="3.05261">
        <ele>555.298584</ele>
        <time>2011-05-01T09:28:21Z</time>
      </trkpt>
      <trkpt lat="45.92239" lon="3.05288">
        <ele>555.298584</ele>
        <time>2011-05-01T09:28:28Z</time>
      </trkpt>
      <trkpt lat="45.92252" lon="3.05318">
        <ele>557.2214355</ele>
        <time>2011-05-01T09:28:35Z</time>
      </trkpt>
      <trkpt lat="45.92267" lon="3.05344">
        <ele>559.144043</ele>
        <time>2011-05-01T09:28:42Z</time>
      </trkpt>
      <trkpt lat="45.92283" lon="3.05361">
        <ele>559.144043</ele>
        <time>2011-05-01T09:28:48Z</time>
      </trkpt>
      <trkpt lat="45.92307" lon="3.05379">
        <ele>560.1052246</ele>
        <time>2011-05-01T09:28:56Z</time>
      </trkpt>
      <trkpt lat="45.92328" lon="3.05392">
        <ele>561.5473633</ele>
        <time>2011-05-01T09:29:03Z</time>
      </trkpt>
      <trkpt lat="45.9235" lon="3.05402">
        <ele>562.9892578</ele>
        <time>2011-05-01T09:29:10Z</time>
      </trkpt>
      <trkpt lat="45.92365" lon="3.05409">
        <ele>564.4311523</ele>
        <time>2011-05-01T09:29:15Z</time>
      </trkpt>
      <trkpt lat="45.92381" lon="3.05416">
        <ele>565.3925781</ele>
        <time>2011-05-01T09:29:20Z</time>
      </trkpt>
      <trkpt lat="45.92398" lon="3.05422">
        <ele>566.3537598</ele>
        <time>2011-05-01T09:29:26Z</time>
      </trkpt>
      <trkpt lat="45.92415" lon="3.05428">
        <ele>566.8344727</ele>
        <time>2011-05-01T09:29:31Z</time>
      </trkpt>
      <trkpt lat="45.92436" lon="3.05434">
        <ele>568.7570801</ele>
        <time>2011-05-01T09:29:37Z</time>
      </trkpt>
      <trkpt lat="45.92455" lon="3.05441">
        <ele>569.237793</ele>
        <time>2011-05-01T09:29:43Z</time>
      </trkpt>
      <trkpt lat="45.92475" lon="3.05446">
        <ele>570.6796875</ele>
        <time>2011-05-01T09:29:49Z</time>
      </trkpt>
      <trkpt lat="45.92492" lon="3.05446">
        <ele>570.6796875</ele>
        <time>2011-05-01T09:29:54Z</time>
      </trkpt>
      <trkpt lat="45.92513" lon="3.05444">
        <ele>571.1604004</ele>
        <time>2011-05-01T09:29:59Z</time>
      </trkpt>
      <trkpt lat="45.92528" lon="3.05435">
        <ele>571.6408691</ele>
        <time>2011-05-01T09:30:04Z</time>
      </trkpt>
      <trkpt lat="45.92541" lon="3.05412">
        <ele>571.6408691</ele>
        <time>2011-05-01T09:30:09Z</time>
      </trkpt>
      <trkpt lat="45.92546" lon="3.05398">
        <ele>571.1604004</ele>
        <time>2011-05-01T09:30:12Z</time>
      </trkpt>
      <trkpt lat="45.92557" lon="3.05381">
        <ele>570.1989746</ele>
        <time>2011-05-01T09:30:16Z</time>
      </trkpt>
      <trkpt lat="45.92581" lon="3.05359">
        <ele>570.6796875</ele>
        <time>2011-05-01T09:30:22Z</time>
      </trkpt>
      <trkpt lat="45.92603" lon="3.05341">
        <ele>568.2763672</ele>
        <time>2011-05-01T09:30:27Z</time>
      </trkpt>
      <trkpt lat="45.92612" lon="3.0533">
        <ele>566.3537598</ele>
        <time>2011-05-01T09:30:30Z</time>
      </trkpt>
      <trkpt lat="45.92613" lon="3.05327">
        <ele>566.3537598</ele>
        <time>2011-05-01T09:30:31Z</time>
      </trkpt>
      <trkpt lat="45.92616" lon="3.05313">
        <ele>566.3537598</ele>
        <time>2011-05-01T09:30:36Z</time>
      </trkpt>
      <trkpt lat="45.92616" lon="3.05302">
        <ele>567.3151855</ele>
        <time>2011-05-01T09:30:39Z</time>
      </trkpt>
      <trkpt lat="45.92616" lon="3.05284">
        <ele>569.7185059</ele>
        <time>2011-05-01T09:30:44Z</time>
      </trkpt>
      <trkpt lat="45.92616" lon="3.05281">
        <ele>570.1989746</ele>
        <time>2011-05-01T09:30:45Z</time>
      </trkpt>
      <trkpt lat="45.92618" lon="3.0527">
        <ele>571.6408691</ele>
        <time>2011-05-01T09:30:49Z</time>
      </trkpt>
      <trkpt lat="45.9262" lon="3.05254">
        <ele>573.083252</ele>
        <time>2011-05-01T09:30:54Z</time>
      </trkpt>
      <trkpt lat="45.92627" lon="3.05247">
        <ele>574.5251465</ele>
        <time>2011-05-01T09:30:58Z</time>
      </trkpt>
      <trkpt lat="45.92638" lon="3.0526">
        <ele>574.5251465</ele>
        <time>2011-05-01T09:31:03Z</time>
      </trkpt>
      <trkpt lat="45.92643" lon="3.0527">
        <ele>574.0444336</ele>
        <time>2011-05-01T09:31:05Z</time>
      </trkpt>
      <trkpt lat="45.92655" lon="3.05301">
        <ele>573.083252</ele>
        <time>2011-05-01T09:31:10Z</time>
      </trkpt>
      <trkpt lat="45.92662" lon="3.05322">
        <ele>572.1218262</ele>
        <time>2011-05-01T09:31:13Z</time>
      </trkpt>
      <trkpt lat="45.92682" lon="3.05387">
        <ele>571.1604004</ele>
        <time>2011-05-01T09:31:21Z</time>
      </trkpt>
      <trkpt lat="45.92695" lon="3.05428">
        <ele>569.237793</ele>
        <time>2011-05-01T09:31:26Z</time>
      </trkpt>
      <trkpt lat="45.92707" lon="3.05461">
        <ele>569.237793</ele>
        <time>2011-05-01T09:31:30Z</time>
      </trkpt>
      <trkpt lat="45.92722" lon="3.05512">
        <ele>568.2763672</ele>
        <time>2011-05-01T09:31:36Z</time>
      </trkpt>
      <trkpt lat="45.92733" lon="3.05549">
        <ele>568.7570801</ele>
        <time>2011-05-01T09:31:40Z</time>
      </trkpt>
      <trkpt lat="45.92746" lon="3.05597">
        <ele>566.3537598</ele>
        <time>2011-05-01T09:31:45Z</time>
      </trkpt>
      <trkpt lat="45.92753" lon="3.05615">
        <ele>564.4311523</ele>
        <time>2011-05-01T09:31:48Z</time>
      </trkpt>
      <trkpt lat="45.92755" lon="3.05622">
        <ele>563.4699707</ele>
        <time>2011-05-01T09:31:50Z</time>
      </trkpt>
      <trkpt lat="45.92755" lon="3.05626">
        <ele>562.5085449</ele>
        <time>2011-05-01T09:31:52Z</time>
      </trkpt>
      <trkpt lat="45.92749" lon="3.05643">
        <ele>561.0666504</ele>
        <time>2011-05-01T09:31:56Z</time>
      </trkpt>
      <trkpt lat="45.92745" lon="3.05666">
        <ele>559.144043</ele>
        <time>2011-05-01T09:32:00Z</time>
      </trkpt>
      <trkpt lat="45.92748" lon="3.05676">
        <ele>556.7407227</ele>
        <time>2011-05-01T09:32:02Z</time>
      </trkpt>
      <trkpt lat="45.9276" lon="3.05714">
        <ele>553.3759766</ele>
        <time>2011-05-01T09:32:06Z</time>
      </trkpt>
      <trkpt lat="45.92767" lon="3.05736">
        <ele>550.9726563</ele>
        <time>2011-05-01T09:32:09Z</time>
      </trkpt>
      <trkpt lat="45.92775" lon="3.05755">
        <ele>549.5307617</ele>
        <time>2011-05-01T09:32:12Z</time>
      </trkpt>
      <trkpt lat="45.92783" lon="3.0578">
        <ele>547.6081543</ele>
        <time>2011-05-01T09:32:15Z</time>
      </trkpt>
      <trkpt lat="45.9279" lon="3.05798">
        <ele>545.6855469</ele>
        <time>2011-05-01T09:32:17Z</time>
      </trkpt>
      <trkpt lat="45.92798" lon="3.05828">
        <ele>542.8015137</ele>
        <time>2011-05-01T09:32:20Z</time>
      </trkpt>
      <trkpt lat="45.92803" lon="3.05847">
        <ele>541.84021</ele>
        <time>2011-05-01T09:32:22Z</time>
      </trkpt>
      <trkpt lat="45.92813" lon="3.05872">
        <ele>539.9176025</ele>
        <time>2011-05-01T09:32:25Z</time>
      </trkpt>
      <trkpt lat="45.9283" lon="3.05898">
        <ele>536.5531006</ele>
        <time>2011-05-01T09:32:29Z</time>
      </trkpt>
      <trkpt lat="45.92846" lon="3.05928">
        <ele>531.7463379</ele>
        <time>2011-05-01T09:32:33Z</time>
      </trkpt>
      <trkpt lat="45.92863" lon="3.05951">
        <ele>529.3431396</ele>
        <time>2011-05-01T09:32:37Z</time>
      </trkpt>
      <trkpt lat="45.92864" lon="3.05964">
        <ele>526.9398193</ele>
        <time>2011-05-01T09:32:41Z</time>
      </trkpt>
      <trkpt lat="45.92856" lon="3.05962">
        <ele>526.4591064</ele>
        <time>2011-05-01T09:32:43Z</time>
      </trkpt>
      <trkpt lat="45.92847" lon="3.05956">
        <ele>525.9783936</ele>
        <time>2011-05-01T09:32:45Z</time>
      </trkpt>
      <trkpt lat="45.92833" lon="3.05962">
        <ele>524.0557861</ele>
        <time>2011-05-01T09:32:49Z</time>
      </trkpt>
      <trkpt lat="45.92836" lon="3.05979">
        <ele>520.2105713</ele>
        <time>2011-05-01T09:32:52Z</time>
      </trkpt>
      <trkpt lat="45.92843" lon="3.05992">
        <ele>519.2492676</ele>
        <time>2011-05-01T09:32:55Z</time>
      </trkpt>
      <trkpt lat="45.92851" lon="3.06007">
        <ele>516.8459473</ele>
        <time>2011-05-01T09:32:58Z</time>
      </trkpt>
      <trkpt lat="45.92869" lon="3.06034">
        <ele>513.9620361</ele>
        <time>2011-05-01T09:33:03Z</time>
      </trkpt>
      <trkpt lat="45.92875" lon="3.06046">
        <ele>512.0394287</ele>
        <time>2011-05-01T09:33:05Z</time>
      </trkpt>
      <trkpt lat="45.92894" lon="3.06077">
        <ele>509.1553955</ele>
        <time>2011-05-01T09:33:09Z</time>
      </trkpt>
      <trkpt lat="45.92903" lon="3.0609">
        <ele>506.7520752</ele>
        <time>2011-05-01T09:33:11Z</time>
      </trkpt>
      <trkpt lat="45.92932" lon="3.06122">
        <ele>502.9067383</ele>
        <time>2011-05-01T09:33:16Z</time>
      </trkpt>
      <trkpt lat="45.92942" lon="3.06134">
        <ele>501.9455566</ele>
        <time>2011-05-01T09:33:18Z</time>
      </trkpt>
      <trkpt lat="45.9295" lon="3.06145">
        <ele>500.9841309</ele>
        <time>2011-05-01T09:33:20Z</time>
      </trkpt>
      <trkpt lat="45.92955" lon="3.06155">
        <ele>499.0615234</ele>
        <time>2011-05-01T09:33:22Z</time>
      </trkpt>
      <trkpt lat="45.92961" lon="3.06184">
        <ele>497.138916</ele>
        <time>2011-05-01T09:33:26Z</time>
      </trkpt>
      <trkpt lat="45.92961" lon="3.06206">
        <ele>493.774292</ele>
        <time>2011-05-01T09:33:30Z</time>
      </trkpt>
      <trkpt lat="45.92969" lon="3.06214">
        <ele>493.2935791</ele>
        <time>2011-05-01T09:33:33Z</time>
      </trkpt>
      <trkpt lat="45.9297" lon="3.06217">
        <ele>493.2935791</ele>
        <time>2011-05-01T09:33:34Z</time>
      </trkpt>
      <trkpt lat="45.92974" lon="3.06237">
        <ele>491.3709717</ele>
        <time>2011-05-01T09:33:38Z</time>
      </trkpt>
      <trkpt lat="45.92978" lon="3.06252">
        <ele>489.9290771</ele>
        <time>2011-05-01T09:33:40Z</time>
      </trkpt>
      <trkpt lat="45.9298" lon="3.06259">
        <ele>488.9677734</ele>
        <time>2011-05-01T09:33:41Z</time>
      </trkpt>
      <trkpt lat="45.92981" lon="3.06264">
        <ele>488.9677734</ele>
        <time>2011-05-01T09:33:42Z</time>
      </trkpt>
      <trkpt lat="45.92983" lon="3.06273">
        <ele>488.0064697</ele>
        <time>2011-05-01T09:33:45Z</time>
      </trkpt>
      <trkpt lat="45.92983" lon="3.06276">
        <ele>487.5256348</ele>
        <time>2011-05-01T09:33:46Z</time>
      </trkpt>
      <trkpt lat="45.92996" lon="3.06293">
        <ele>483.1998291</ele>
        <time>2011-05-01T09:33:51Z</time>
      </trkpt>
      <trkpt lat="45.92998" lon="3.06298">
        <ele>482.7192383</ele>
        <time>2011-05-01T09:33:52Z</time>
      </trkpt>
      <trkpt lat="45.9301" lon="3.06326">
        <ele>476.4705811</ele>
        <time>2011-05-01T09:33:57Z</time>
      </trkpt>
      <trkpt lat="45.93017" lon="3.06348">
        <ele>472.6253662</ele>
        <time>2011-05-01T09:34:01Z</time>
      </trkpt>
      <trkpt lat="45.93018" lon="3.06355">
        <ele>472.1446533</ele>
        <time>2011-05-01T09:34:03Z</time>
      </trkpt>
      <trkpt lat="45.93022" lon="3.06357">
        <ele>471.1833496</ele>
        <time>2011-05-01T09:34:05Z</time>
      </trkpt>
      <trkpt lat="45.93028" lon="3.06372">
        <ele>467.8187256</ele>
        <time>2011-05-01T09:34:09Z</time>
      </trkpt>
      <trkpt lat="45.93028" lon="3.0639">
        <ele>463.012085</ele>
        <time>2011-05-01T09:34:13Z</time>
      </trkpt>
      <trkpt lat="45.93029" lon="3.0641">
        <ele>461.0894775</ele>
        <time>2011-05-01T09:34:18Z</time>
      </trkpt>
      <trkpt lat="45.93033" lon="3.06416">
        <ele>459.647583</ele>
        <time>2011-05-01T09:34:19Z</time>
      </trkpt>
      <trkpt lat="45.93044" lon="3.06436">
        <ele>454.8408203</ele>
        <time>2011-05-01T09:34:23Z</time>
      </trkpt>
      <trkpt lat="45.93045" lon="3.0644">
        <ele>454.8408203</ele>
        <time>2011-05-01T09:34:24Z</time>
      </trkpt>
      <trkpt lat="45.93038" lon="3.06453">
        <ele>454.3602295</ele>
        <time>2011-05-01T09:34:28Z</time>
      </trkpt>
      <trkpt lat="45.93024" lon="3.06464">
        <ele>454.3602295</ele>
        <time>2011-05-01T09:34:31Z</time>
      </trkpt>
      <trkpt lat="45.92996" lon="3.06473">
        <ele>455.3215332</ele>
        <time>2011-05-01T09:34:36Z</time>
      </trkpt>
      <trkpt lat="45.9298" lon="3.06479">
        <ele>455.3215332</ele>
        <time>2011-05-01T09:34:39Z</time>
      </trkpt>
      <trkpt lat="45.9297" lon="3.06498">
        <ele>454.3602295</ele>
        <time>2011-05-01T09:34:43Z</time>
      </trkpt>
      <trkpt lat="45.92978" lon="3.06514">
        <ele>452.9182129</ele>
        <time>2011-05-01T09:34:46Z</time>
      </trkpt>
      <trkpt lat="45.9298" lon="3.06522">
        <ele>452.9182129</ele>
        <time>2011-05-01T09:34:47Z</time>
      </trkpt>
      <trkpt lat="45.92984" lon="3.06541">
        <ele>450.9956055</ele>
        <time>2011-05-01T09:34:49Z</time>
      </trkpt>
      <trkpt lat="45.92992" lon="3.06577">
        <ele>445.708374</ele>
        <time>2011-05-01T09:34:53Z</time>
      </trkpt>
      <trkpt lat="45.92997" lon="3.06601">
        <ele>442.3438721</ele>
        <time>2011-05-01T09:34:56Z</time>
      </trkpt>
      <trkpt lat="45.93006" lon="3.06645">
        <ele>438.4985352</ele>
        <time>2011-05-01T09:35:01Z</time>
      </trkpt>
      <trkpt lat="45.93016" lon="3.0669">
        <ele>435.614502</ele>
        <time>2011-05-01T09:35:05Z</time>
      </trkpt>
      <trkpt lat="45.93023" lon="3.06723">
        <ele>430.8079834</ele>
        <time>2011-05-01T09:35:08Z</time>
      </trkpt>
      <trkpt lat="45.93025" lon="3.06733">
        <ele>430.8079834</ele>
        <time>2011-05-01T09:35:09Z</time>
      </trkpt>
      <trkpt lat="45.93031" lon="3.06759">
        <ele>428.4046631</ele>
        <time>2011-05-01T09:35:13Z</time>
      </trkpt>
      <trkpt lat="45.9303" lon="3.06763">
        <ele>427.4433594</ele>
        <time>2011-05-01T09:35:14Z</time>
      </trkpt>
      <trkpt lat="45.93023" lon="3.06771">
        <ele>427.9239502</ele>
        <time>2011-05-01T09:35:18Z</time>
      </trkpt>
      <trkpt lat="45.9302" lon="3.06771">
        <ele>427.9239502</ele>
        <time>2011-05-01T09:35:22Z</time>
      </trkpt>
      <trkpt lat="45.93014" lon="3.06771">
        <ele>428.4046631</ele>
        <time>2011-05-01T09:35:26Z</time>
      </trkpt>
      <trkpt lat="45.93002" lon="3.06775">
        <ele>430.3272705</ele>
        <time>2011-05-01T09:35:31Z</time>
      </trkpt>
      <trkpt lat="45.92999" lon="3.06775">
        <ele>430.8079834</ele>
        <time>2011-05-01T09:35:32Z</time>
      </trkpt>
      <trkpt lat="45.92984" lon="3.06781">
        <ele>432.7307129</ele>
        <time>2011-05-01T09:35:37Z</time>
      </trkpt>
      <trkpt lat="45.92981" lon="3.06782">
        <ele>432.7307129</ele>
        <time>2011-05-01T09:35:38Z</time>
      </trkpt>
      <trkpt lat="45.92972" lon="3.06787">
        <ele>434.1726074</ele>
        <time>2011-05-01T09:35:41Z</time>
      </trkpt>
      <trkpt lat="45.92969" lon="3.06789">
        <ele>434.1726074</ele>
        <time>2011-05-01T09:35:42Z</time>
      </trkpt>
      <trkpt lat="45.9296" lon="3.06796">
        <ele>434.6533203</ele>
        <time>2011-05-01T09:35:45Z</time>
      </trkpt>
      <trkpt lat="45.92952" lon="3.06803">
        <ele>435.1339111</ele>
        <time>2011-05-01T09:35:48Z</time>
      </trkpt>
      <trkpt lat="45.92932" lon="3.06813">
        <ele>436.0952148</ele>
        <time>2011-05-01T09:35:54Z</time>
      </trkpt>
      <trkpt lat="45.92914" lon="3.06808">
        <ele>436.0952148</ele>
        <time>2011-05-01T09:35:59Z</time>
      </trkpt>
      <trkpt lat="45.92901" lon="3.06803">
        <ele>438.0178223</ele>
        <time>2011-05-01T09:36:03Z</time>
      </trkpt>
      <trkpt lat="45.92877" lon="3.06801">
        <ele>439.4597168</ele>
        <time>2011-05-01T09:36:11Z</time>
      </trkpt>
      <trkpt lat="45.92856" lon="3.06793">
        <ele>441.3824463</ele>
        <time>2011-05-01T09:36:18Z</time>
      </trkpt>
      <trkpt lat="45.92838" lon="3.06791">
        <ele>442.8244629</ele>
        <time>2011-05-01T09:36:24Z</time>
      </trkpt>
      <trkpt lat="45.92815" lon="3.06803">
        <ele>443.7857666</ele>
        <time>2011-05-01T09:36:31Z</time>
      </trkpt>
      <trkpt lat="45.92785" lon="3.06822">
        <ele>445.708374</ele>
        <time>2011-05-01T09:36:40Z</time>
      </trkpt>
      <trkpt lat="45.92765" lon="3.06831">
        <ele>446.6696777</ele>
        <time>2011-05-01T09:36:47Z</time>
      </trkpt>
      <trkpt lat="45.92763" lon="3.06833">
        <ele>446.6696777</ele>
        <time>2011-05-01T09:36:48Z</time>
      </trkpt>
      <trkpt lat="45.92766" lon="3.06841">
        <ele>448.1118164</ele>
        <time>2011-05-01T09:36:52Z</time>
      </trkpt>
      <trkpt lat="45.92772" lon="3.06852">
        <ele>448.1118164</ele>
        <time>2011-05-01T09:36:55Z</time>
      </trkpt>
      <trkpt lat="45.9279" lon="3.06892">
        <ele>447.6309814</ele>
        <time>2011-05-01T09:37:04Z</time>
      </trkpt>
      <trkpt lat="45.92808" lon="3.06932">
        <ele>447.1502686</ele>
        <time>2011-05-01T09:37:11Z</time>
      </trkpt>
      <trkpt lat="45.92823" lon="3.06981">
        <ele>446.6696777</ele>
        <time>2011-05-01T09:37:18Z</time>
      </trkpt>
      <trkpt lat="45.92831" lon="3.07014">
        <ele>445.708374</ele>
        <time>2011-05-01T09:37:22Z</time>
      </trkpt>
      <trkpt lat="45.92834" lon="3.0704">
        <ele>445.2276611</ele>
        <time>2011-05-01T09:37:25Z</time>
      </trkpt>
      <trkpt lat="45.92836" lon="3.07067">
        <ele>444.7470703</ele>
        <time>2011-05-01T09:37:28Z</time>
      </trkpt>
      <trkpt lat="45.92838" lon="3.07094">
        <ele>443.3050537</ele>
        <time>2011-05-01T09:37:31Z</time>
      </trkpt>
      <trkpt lat="45.92843" lon="3.07135">
        <ele>440.9018555</ele>
        <time>2011-05-01T09:37:35Z</time>
      </trkpt>
      <trkpt lat="45.92847" lon="3.07167">
        <ele>439.9404297</ele>
        <time>2011-05-01T09:37:38Z</time>
      </trkpt>
      <trkpt lat="45.92863" lon="3.07216">
        <ele>438.979126</ele>
        <time>2011-05-01T09:37:43Z</time>
      </trkpt>
      <trkpt lat="45.92884" lon="3.07273">
        <ele>437.5371094</ele>
        <time>2011-05-01T09:37:49Z</time>
      </trkpt>
      <trkpt lat="45.92907" lon="3.07319">
        <ele>435.1339111</ele>
        <time>2011-05-01T09:37:54Z</time>
      </trkpt>
      <trkpt lat="45.92919" lon="3.07349">
        <ele>433.2113037</ele>
        <time>2011-05-01T09:37:57Z</time>
      </trkpt>
      <trkpt lat="45.92927" lon="3.07369">
        <ele>432.7307129</ele>
        <time>2011-05-01T09:37:59Z</time>
      </trkpt>
      <trkpt lat="45.92951" lon="3.07414">
        <ele>430.8079834</ele>
        <time>2011-05-01T09:38:04Z</time>
      </trkpt>
      <trkpt lat="45.92967" lon="3.07453">
        <ele>427.4433594</ele>
        <time>2011-05-01T09:38:08Z</time>
      </trkpt>
      <trkpt lat="45.92983" lon="3.07488">
        <ele>421.675415</ele>
        <time>2011-05-01T09:38:12Z</time>
      </trkpt>
      <trkpt lat="45.92995" lon="3.07519">
        <ele>419.2722168</ele>
        <time>2011-05-01T09:38:16Z</time>
      </trkpt>
      <trkpt lat="45.92999" lon="3.07533">
        <ele>417.8302002</ele>
        <time>2011-05-01T09:38:19Z</time>
      </trkpt>
      <trkpt lat="45.93002" lon="3.0754">
        <ele>417.8302002</ele>
        <time>2011-05-01T09:38:23Z</time>
      </trkpt>
      <trkpt lat="45.93007" lon="3.07544">
        <ele>417.3496094</ele>
        <time>2011-05-01T09:38:25Z</time>
      </trkpt>
      <trkpt lat="45.93027" lon="3.07575">
        <ele>417.3496094</ele>
        <time>2011-05-01T09:38:31Z</time>
      </trkpt>
      <trkpt lat="45.93041" lon="3.07599">
        <ele>417.8302002</ele>
        <time>2011-05-01T09:38:35Z</time>
      </trkpt>
      <trkpt lat="45.93045" lon="3.07613">
        <ele>417.3496094</ele>
        <time>2011-05-01T09:38:37Z</time>
      </trkpt>
      <trkpt lat="45.93048" lon="3.0762">
        <ele>416.8688965</ele>
        <time>2011-05-01T09:38:38Z</time>
      </trkpt>
      <trkpt lat="45.93053" lon="3.07642">
        <ele>417.3496094</ele>
        <time>2011-05-01T09:38:41Z</time>
      </trkpt>
      <trkpt lat="45.93052" lon="3.0765">
        <ele>417.3496094</ele>
        <time>2011-05-01T09:38:42Z</time>
      </trkpt>
      <trkpt lat="45.93048" lon="3.07709">
        <ele>418.310791</ele>
        <time>2011-05-01T09:38:49Z</time>
      </trkpt>
      <trkpt lat="45.93047" lon="3.07778">
        <ele>417.3496094</ele>
        <time>2011-05-01T09:38:56Z</time>
      </trkpt>
      <trkpt lat="45.93043" lon="3.07892">
        <ele>415.4268799</ele>
        <time>2011-05-01T09:39:07Z</time>
      </trkpt>
      <trkpt lat="45.93041" lon="3.07955">
        <ele>413.9848633</ele>
        <time>2011-05-01T09:39:13Z</time>
      </trkpt>
      <trkpt lat="45.93037" lon="3.08052">
        <ele>412.5428467</ele>
        <time>2011-05-01T09:39:22Z</time>
      </trkpt>
      <trkpt lat="45.93037" lon="3.08109">
        <ele>410.6202393</ele>
        <time>2011-05-01T09:39:27Z</time>
      </trkpt>
      <trkpt lat="45.93048" lon="3.08177">
        <ele>410.1396484</ele>
        <time>2011-05-01T09:39:33Z</time>
      </trkpt>
      <trkpt lat="45.93063" lon="3.08231">
        <ele>409.1783447</ele>
        <time>2011-05-01T09:39:38Z</time>
      </trkpt>
      <trkpt lat="45.93076" lon="3.08269">
        <ele>408.217041</ele>
        <time>2011-05-01T09:39:42Z</time>
      </trkpt>
      <trkpt lat="45.93076" lon="3.08321">
        <ele>404.8522949</ele>
        <time>2011-05-01T09:39:47Z</time>
      </trkpt>
      <trkpt lat="45.93059" lon="3.08397">
        <ele>405.3330078</ele>
        <time>2011-05-01T09:39:54Z</time>
      </trkpt>
      <trkpt lat="45.93052" lon="3.08474">
        <ele>404.3717041</ele>
        <time>2011-05-01T09:40:01Z</time>
      </trkpt>
      <trkpt lat="45.93047" lon="3.08508">
        <ele>402.9296875</ele>
        <time>2011-05-01T09:40:05Z</time>
      </trkpt>
      <trkpt lat="45.93041" lon="3.08503">
        <ele>402.9296875</ele>
        <time>2011-05-01T09:40:10Z</time>
      </trkpt>
      <trkpt lat="45.9303" lon="3.08511">
        <ele>403.4104004</ele>
        <time>2011-05-01T09:40:14Z</time>
      </trkpt>
      <trkpt lat="45.93019" lon="3.08525">
        <ele>403.4104004</ele>
        <time>2011-05-01T09:40:17Z</time>
      </trkpt>
      <trkpt lat="45.9301" lon="3.08536">
        <ele>403.4104004</ele>
        <time>2011-05-01T09:40:19Z</time>
      </trkpt>
      <trkpt lat="45.93002" lon="3.08548">
        <ele>403.4104004</ele>
        <time>2011-05-01T09:40:21Z</time>
      </trkpt>
      <trkpt lat="45.92979" lon="3.08587">
        <ele>403.8911133</ele>
        <time>2011-05-01T09:40:27Z</time>
      </trkpt>
      <trkpt lat="45.92957" lon="3.08623">
        <ele>405.3330078</ele>
        <time>2011-05-01T09:40:33Z</time>
      </trkpt>
      <trkpt lat="45.92945" lon="3.08648">
        <ele>405.8137207</ele>
        <time>2011-05-01T09:40:37Z</time>
      </trkpt>
      <trkpt lat="45.92931" lon="3.0871">
        <ele>404.8522949</ele>
        <time>2011-05-01T09:40:45Z</time>
      </trkpt>
      <trkpt lat="45.92909" lon="3.08748">
        <ele>405.3330078</ele>
        <time>2011-05-01T09:40:51Z</time>
      </trkpt>
      <trkpt lat="45.92867" lon="3.08792">
        <ele>403.8911133</ele>
        <time>2011-05-01T09:40:59Z</time>
      </trkpt>
      <trkpt lat="45.92828" lon="3.0884">
        <ele>404.3717041</ele>
        <time>2011-05-01T09:41:07Z</time>
      </trkpt>
      <trkpt lat="45.92807" lon="3.0887">
        <ele>405.3330078</ele>
        <time>2011-05-01T09:41:12Z</time>
      </trkpt>
      <trkpt lat="45.92789" lon="3.08891">
        <ele>405.3330078</ele>
        <time>2011-05-01T09:41:17Z</time>
      </trkpt>
      <trkpt lat="45.92779" lon="3.08896">
        <ele>405.3330078</ele>
        <time>2011-05-01T09:41:21Z</time>
      </trkpt>
      <trkpt lat="45.92761" lon="3.08897">
        <ele>405.8137207</ele>
        <time>2011-05-01T09:41:26Z</time>
      </trkpt>
      <trkpt lat="45.92734" lon="3.08885">
        <ele>406.7749023</ele>
        <time>2011-05-01T09:41:33Z</time>
      </trkpt>
      <trkpt lat="45.92708" lon="3.08863">
        <ele>407.7363281</ele>
        <time>2011-05-01T09:41:39Z</time>
      </trkpt>
      <trkpt lat="45.92699" lon="3.08855">
        <ele>408.217041</ele>
        <time>2011-05-01T09:41:41Z</time>
      </trkpt>
      <trkpt lat="45.92669" lon="3.08821">
        <ele>408.217041</ele>
        <time>2011-05-01T09:41:48Z</time>
      </trkpt>
      <trkpt lat="45.9264" lon="3.088">
        <ele>408.6976318</ele>
        <time>2011-05-01T09:41:54Z</time>
      </trkpt>
      <trkpt lat="45.92604" lon="3.08775">
        <ele>408.6976318</ele>
        <time>2011-05-01T09:42:01Z</time>
      </trkpt>
      <trkpt lat="45.92569" lon="3.08759">
        <ele>408.6976318</ele>
        <time>2011-05-01T09:42:07Z</time>
      </trkpt>
      <trkpt lat="45.92556" lon="3.08754">
        <ele>408.217041</ele>
        <time>2011-05-01T09:42:09Z</time>
      </trkpt>
      <trkpt lat="45.92494" lon="3.08716">
        <ele>406.7749023</ele>
        <time>2011-05-01T09:42:19Z</time>
      </trkpt>
      <trkpt lat="45.92476" lon="3.08708">
        <ele>405.8137207</ele>
        <time>2011-05-01T09:42:22Z</time>
      </trkpt>
      <trkpt lat="45.92457" lon="3.08697">
        <ele>404.3717041</ele>
        <time>2011-05-01T09:42:25Z</time>
      </trkpt>
      <trkpt lat="45.92432" lon="3.08681">
        <ele>403.4104004</ele>
        <time>2011-05-01T09:42:29Z</time>
      </trkpt>
      <trkpt lat="45.9242" lon="3.08672">
        <ele>403.4104004</ele>
        <time>2011-05-01T09:42:31Z</time>
      </trkpt>
      <trkpt lat="45.92401" lon="3.08659">
        <ele>401.487793</ele>
        <time>2011-05-01T09:42:34Z</time>
      </trkpt>
      <trkpt lat="45.92367" lon="3.08643">
        <ele>401.0070801</ele>
        <time>2011-05-01T09:42:39Z</time>
      </trkpt>
      <trkpt lat="45.92333" lon="3.08623">
        <ele>399.5650635</ele>
        <time>2011-05-01T09:42:44Z</time>
      </trkpt>
      <trkpt lat="45.92327" lon="3.08619">
        <ele>398.6037598</ele>
        <time>2011-05-01T09:42:45Z</time>
      </trkpt>
      <trkpt lat="45.92312" lon="3.08594">
        <ele>397.6424561</ele>
        <time>2011-05-01T09:42:49Z</time>
      </trkpt>
      <trkpt lat="45.92312" lon="3.08586">
        <ele>397.6424561</ele>
        <time>2011-05-01T09:42:50Z</time>
      </trkpt>
      <trkpt lat="45.92311" lon="3.08539">
        <ele>396.2005615</ele>
        <time>2011-05-01T09:42:56Z</time>
      </trkpt>
      <trkpt lat="45.92313" lon="3.08527">
        <ele>396.6811523</ele>
        <time>2011-05-01T09:42:59Z</time>
      </trkpt>
      <trkpt lat="45.92304" lon="3.08506">
        <ele>395.7198486</ele>
        <time>2011-05-01T09:43:03Z</time>
      </trkpt>
      <trkpt lat="45.92299" lon="3.08479">
        <ele>395.2391357</ele>
        <time>2011-05-01T09:43:06Z</time>
      </trkpt>
      <trkpt lat="45.92294" lon="3.08458">
        <ele>393.3165283</ele>
        <time>2011-05-01T09:43:08Z</time>
      </trkpt>
      <trkpt lat="45.92292" lon="3.08447">
        <ele>393.3165283</ele>
        <time>2011-05-01T09:43:09Z</time>
      </trkpt>
      <trkpt lat="45.92284" lon="3.08414">
        <ele>391.8745117</ele>
        <time>2011-05-01T09:43:12Z</time>
      </trkpt>
      <trkpt lat="45.92282" lon="3.08403">
        <ele>391.3937988</ele>
        <time>2011-05-01T09:43:13Z</time>
      </trkpt>
      <trkpt lat="45.92277" lon="3.08359">
        <ele>389.9519043</ele>
        <time>2011-05-01T09:43:17Z</time>
      </trkpt>
      <trkpt lat="45.92264" lon="3.08296">
        <ele>389.4711914</ele>
        <time>2011-05-01T09:43:23Z</time>
      </trkpt>
      <trkpt lat="45.92253" lon="3.08226">
        <ele>389.4711914</ele>
        <time>2011-05-01T09:43:30Z</time>
      </trkpt>
      <trkpt lat="45.92247" lon="3.08199">
        <ele>390.4326172</ele>
        <time>2011-05-01T09:43:33Z</time>
      </trkpt>
      <trkpt lat="45.92238" lon="3.08156">
        <ele>392.8359375</ele>
        <time>2011-05-01T09:43:38Z</time>
      </trkpt>
      <trkpt lat="45.92232" lon="3.08131">
        <ele>392.3553467</ele>
        <time>2011-05-01T09:43:41Z</time>
      </trkpt>
      <trkpt lat="45.92218" lon="3.08074">
        <ele>393.3165283</ele>
        <time>2011-05-01T09:43:48Z</time>
      </trkpt>
      <trkpt lat="45.92216" lon="3.08065">
        <ele>393.7972412</ele>
        <time>2011-05-01T09:43:49Z</time>
      </trkpt>
      <trkpt lat="45.92206" lon="3.08025">
        <ele>392.8359375</ele>
        <time>2011-05-01T09:43:54Z</time>
      </trkpt>
      <trkpt lat="45.92198" lon="3.07984">
        <ele>393.3165283</ele>
        <time>2011-05-01T09:43:59Z</time>
      </trkpt>
      <trkpt lat="45.92181" lon="3.07912">
        <ele>394.7585449</ele>
        <time>2011-05-01T09:44:08Z</time>
      </trkpt>
      <trkpt lat="45.92169" lon="3.07856">
        <ele>395.2391357</ele>
        <time>2011-05-01T09:44:15Z</time>
      </trkpt>
      <trkpt lat="45.92161" lon="3.07787">
        <ele>396.2005615</ele>
        <time>2011-05-01T09:44:24Z</time>
      </trkpt>
      <trkpt lat="45.92158" lon="3.07766">
        <ele>397.6424561</ele>
        <time>2011-05-01T09:44:27Z</time>
      </trkpt>
      <trkpt lat="45.92158" lon="3.0776">
        <ele>397.1617432</ele>
        <time>2011-05-01T09:44:28Z</time>
      </trkpt>
      <trkpt lat="45.92146" lon="3.07739">
        <ele>397.6424561</ele>
        <time>2011-05-01T09:44:33Z</time>
      </trkpt>
      <trkpt lat="45.9214" lon="3.07746">
        <ele>398.1231689</ele>
        <time>2011-05-01T09:44:35Z</time>
      </trkpt>
      <trkpt lat="45.92132" lon="3.07764">
        <ele>397.1617432</ele>
        <time>2011-05-01T09:44:38Z</time>
      </trkpt>
      <trkpt lat="45.92111" lon="3.07803">
        <ele>398.1231689</ele>
        <time>2011-05-01T09:44:44Z</time>
      </trkpt>
      <trkpt lat="45.92091" lon="3.07844">
        <ele>397.1617432</ele>
        <time>2011-05-01T09:44:50Z</time>
      </trkpt>
      <trkpt lat="45.92085" lon="3.07862">
        <ele>396.6811523</ele>
        <time>2011-05-01T09:44:54Z</time>
      </trkpt>
      <trkpt lat="45.92084" lon="3.07858">
        <ele>396.2005615</ele>
        <time>2011-05-01T09:44:57Z</time>
      </trkpt>
      <trkpt lat="45.92082" lon="3.07842">
        <ele>395.7198486</ele>
        <time>2011-05-01T09:45:02Z</time>
      </trkpt>
      <trkpt lat="45.9208" lon="3.07837">
        <ele>395.2391357</ele>
        <time>2011-05-01T09:45:03Z</time>
      </trkpt>
      <trkpt lat="45.92076" lon="3.07819">
        <ele>394.7585449</ele>
        <time>2011-05-01T09:45:06Z</time>
      </trkpt>
      <trkpt lat="45.92065" lon="3.078">
        <ele>394.7585449</ele>
        <time>2011-05-01T09:45:10Z</time>
      </trkpt>
      <trkpt lat="45.92062" lon="3.0779">
        <ele>394.7585449</ele>
        <time>2011-05-01T09:45:13Z</time>
      </trkpt>
      <trkpt lat="45.92056" lon="3.07762">
        <ele>395.2391357</ele>
        <time>2011-05-01T09:45:18Z</time>
      </trkpt>
      <trkpt lat="45.92052" lon="3.07753">
        <ele>395.2391357</ele>
        <time>2011-05-01T09:45:20Z</time>
      </trkpt>
      <trkpt lat="45.92045" lon="3.07722">
        <ele>395.7198486</ele>
        <time>2011-05-01T09:45:25Z</time>
      </trkpt>
      <trkpt lat="45.92048" lon="3.0771">
        <ele>396.2005615</ele>
        <time>2011-05-01T09:45:27Z</time>
      </trkpt>
      <trkpt lat="45.92051" lon="3.07697">
        <ele>396.6811523</ele>
        <time>2011-05-01T09:45:29Z</time>
      </trkpt>
      <trkpt lat="45.92052" lon="3.07677">
        <ele>396.6811523</ele>
        <time>2011-05-01T09:45:32Z</time>
      </trkpt>
      <trkpt lat="45.92058" lon="3.07657">
        <ele>397.6424561</ele>
        <time>2011-05-01T09:45:35Z</time>
      </trkpt>
      <trkpt lat="45.92062" lon="3.07646">
        <ele>397.6424561</ele>
        <time>2011-05-01T09:45:37Z</time>
      </trkpt>
      <trkpt lat="45.92064" lon="3.07622">
        <ele>398.6037598</ele>
        <time>2011-05-01T09:45:41Z</time>
      </trkpt>
      <trkpt lat="45.92064" lon="3.07616">
        <ele>398.6037598</ele>
        <time>2011-05-01T09:45:42Z</time>
      </trkpt>
      <trkpt lat="45.92057" lon="3.07586">
        <ele>399.0843506</ele>
        <time>2011-05-01T09:45:47Z</time>
      </trkpt>
      <trkpt lat="45.92054" lon="3.07581">
        <ele>399.0843506</ele>
        <time>2011-05-01T09:45:48Z</time>
      </trkpt>
      <trkpt lat="45.92047" lon="3.07571">
        <ele>398.6037598</ele>
        <time>2011-05-01T09:45:50Z</time>
      </trkpt>
      <trkpt lat="45.92032" lon="3.07558">
        <ele>399.0843506</ele>
        <time>2011-05-01T09:45:54Z</time>
      </trkpt>
      <trkpt lat="45.92018" lon="3.07547">
        <ele>398.1231689</ele>
        <time>2011-05-01T09:45:58Z</time>
      </trkpt>
      <trkpt lat="45.91996" lon="3.0755">
        <ele>400.5264893</ele>
        <time>2011-05-01T09:46:04Z</time>
      </trkpt>
      <trkpt lat="45.91983" lon="3.07549">
        <ele>402.4490967</ele>
        <time>2011-05-01T09:46:09Z</time>
      </trkpt>
      <trkpt lat="45.91979" lon="3.07538">
        <ele>403.4104004</ele>
        <time>2011-05-01T09:46:13Z</time>
      </trkpt>
      <trkpt lat="45.91981" lon="3.07503">
        <ele>402.9296875</ele>
        <time>2011-05-01T09:46:20Z</time>
      </trkpt>
      <trkpt lat="45.9198" lon="3.07468">
        <ele>403.4104004</ele>
        <time>2011-05-01T09:46:26Z</time>
      </trkpt>
      <trkpt lat="45.91978" lon="3.07449">
        <ele>403.4104004</ele>
        <time>2011-05-01T09:46:29Z</time>
      </trkpt>
      <trkpt lat="45.91965" lon="3.07388">
        <ele>404.3717041</ele>
        <time>2011-05-01T09:46:38Z</time>
      </trkpt>
      <trkpt lat="45.91952" lon="3.07333">
        <ele>405.8137207</ele>
        <time>2011-05-01T09:46:47Z</time>
      </trkpt>
      <trkpt lat="45.91943" lon="3.07301">
        <ele>406.7749023</ele>
        <time>2011-05-01T09:46:53Z</time>
      </trkpt>
      <trkpt lat="45.91939" lon="3.07294">
        <ele>407.2556152</ele>
        <time>2011-05-01T09:46:56Z</time>
      </trkpt>
      <trkpt lat="45.91938" lon="3.0728">
        <ele>406.7749023</ele>
        <time>2011-05-01T09:47:01Z</time>
      </trkpt>
      <trkpt lat="45.91935" lon="3.07268">
        <ele>407.2556152</ele>
        <time>2011-05-01T09:47:04Z</time>
      </trkpt>
      <trkpt lat="45.91928" lon="3.0727">
        <ele>407.2556152</ele>
        <time>2011-05-01T09:47:06Z</time>
      </trkpt>
      <trkpt lat="45.91907" lon="3.07276">
        <ele>407.7363281</ele>
        <time>2011-05-01T09:47:11Z</time>
      </trkpt>
      <trkpt lat="45.91872" lon="3.07281">
        <ele>409.1783447</ele>
        <time>2011-05-01T09:47:19Z</time>
      </trkpt>
      <trkpt lat="45.91844" lon="3.0729">
        <ele>411.1009521</ele>
        <time>2011-05-01T09:47:27Z</time>
      </trkpt>
      <trkpt lat="45.91834" lon="3.07292">
        <ele>411.581665</ele>
        <time>2011-05-01T09:47:30Z</time>
      </trkpt>
      <trkpt lat="45.91826" lon="3.07273">
        <ele>413.0235596</ele>
        <time>2011-05-01T09:47:35Z</time>
      </trkpt>
      <trkpt lat="45.91826" lon="3.07268">
        <ele>413.0235596</ele>
        <time>2011-05-01T09:47:36Z</time>
      </trkpt>
      <trkpt lat="45.91825" lon="3.07231">
        <ele>413.9848633</ele>
        <time>2011-05-01T09:47:43Z</time>
      </trkpt>
      <trkpt lat="45.91823" lon="3.07197">
        <ele>414.946167</ele>
        <time>2011-05-01T09:47:50Z</time>
      </trkpt>
      <trkpt lat="45.91819" lon="3.07159">
        <ele>415.4268799</ele>
        <time>2011-05-01T09:47:58Z</time>
      </trkpt>
      <trkpt lat="45.91816" lon="3.07127">
        <ele>417.8302002</ele>
        <time>2011-05-01T09:48:05Z</time>
      </trkpt>
      <trkpt lat="45.91813" lon="3.07087">
        <ele>419.7528076</ele>
        <time>2011-05-01T09:48:14Z</time>
      </trkpt>
      <trkpt lat="45.91811" lon="3.07065">
        <ele>420.7141113</ele>
        <time>2011-05-01T09:48:20Z</time>
      </trkpt>
      <trkpt lat="45.91808" lon="3.07031">
        <ele>423.1174316</ele>
        <time>2011-05-01T09:48:29Z</time>
      </trkpt>
      <trkpt lat="45.91803" lon="3.06998">
        <ele>426.0013428</ele>
        <time>2011-05-01T09:48:38Z</time>
      </trkpt>
      <trkpt lat="45.91801" lon="3.06978">
        <ele>426.9627686</ele>
        <time>2011-05-01T09:48:44Z</time>
      </trkpt>
      <trkpt lat="45.91801" lon="3.06952">
        <ele>427.9239502</ele>
        <time>2011-05-01T09:48:51Z</time>
      </trkpt>
      <trkpt lat="45.91801" lon="3.06917">
        <ele>428.885376</ele>
        <time>2011-05-01T09:48:59Z</time>
      </trkpt>
      <trkpt lat="45.91808" lon="3.06889">
        <ele>429.3659668</ele>
        <time>2011-05-01T09:49:06Z</time>
      </trkpt>
      <trkpt lat="45.91815" lon="3.06868">
        <ele>427.9239502</ele>
        <time>2011-05-01T09:49:09Z</time>
      </trkpt>
      <trkpt lat="45.91821" lon="3.06828">
        <ele>427.4433594</ele>
        <time>2011-05-01T09:49:14Z</time>
      </trkpt>
      <trkpt lat="45.91818" lon="3.06815">
        <ele>427.4433594</ele>
        <time>2011-05-01T09:49:16Z</time>
      </trkpt>
      <trkpt lat="45.91814" lon="3.06778">
        <ele>428.885376</ele>
        <time>2011-05-01T09:49:23Z</time>
      </trkpt>
      <trkpt lat="45.91813" lon="3.06739">
        <ele>429.3659668</ele>
        <time>2011-05-01T09:49:30Z</time>
      </trkpt>
      <trkpt lat="45.9181" lon="3.06712">
        <ele>430.3272705</ele>
        <time>2011-05-01T09:49:35Z</time>
      </trkpt>
      <trkpt lat="45.91806" lon="3.06693">
        <ele>432.7307129</ele>
        <time>2011-05-01T09:49:40Z</time>
      </trkpt>
      <trkpt lat="45.91803" lon="3.0668">
        <ele>434.6533203</ele>
        <time>2011-05-01T09:49:46Z</time>
      </trkpt>
      <trkpt lat="45.91796" lon="3.06662">
        <ele>437.0565186</ele>
        <time>2011-05-01T09:49:52Z</time>
      </trkpt>
      <trkpt lat="45.91794" lon="3.06649">
        <ele>438.0178223</ele>
        <time>2011-05-01T09:49:57Z</time>
      </trkpt>
      <trkpt lat="45.91797" lon="3.0664">
        <ele>438.0178223</ele>
        <time>2011-05-01T09:50:01Z</time>
      </trkpt>
      <trkpt lat="45.91806" lon="3.06635">
        <ele>439.9404297</ele>
        <time>2011-05-01T09:50:07Z</time>
      </trkpt>
      <trkpt lat="45.91815" lon="3.06639">
        <ele>440.4212646</ele>
        <time>2011-05-01T09:50:12Z</time>
      </trkpt>
      <trkpt lat="45.91831" lon="3.06634">
        <ele>442.3438721</ele>
        <time>2011-05-01T09:50:20Z</time>
      </trkpt>
      <trkpt lat="45.9184" lon="3.06615">
        <ele>442.8244629</ele>
        <time>2011-05-01T09:50:26Z</time>
      </trkpt>
      <trkpt lat="45.9184" lon="3.06588">
        <ele>443.7857666</ele>
        <time>2011-05-01T09:50:34Z</time>
      </trkpt>
      <trkpt lat="45.91834" lon="3.06557">
        <ele>444.2664795</ele>
        <time>2011-05-01T09:50:41Z</time>
      </trkpt>
      <trkpt lat="45.91828" lon="3.06536">
        <ele>444.7470703</ele>
        <time>2011-05-01T09:50:46Z</time>
      </trkpt>
      <trkpt lat="45.91816" lon="3.06526">
        <ele>444.7470703</ele>
        <time>2011-05-01T09:50:50Z</time>
      </trkpt>
      <trkpt lat="45.918" lon="3.06535">
        <ele>445.708374</ele>
        <time>2011-05-01T09:50:55Z</time>
      </trkpt>
      <trkpt lat="45.91783" lon="3.06541">
        <ele>446.1890869</ele>
        <time>2011-05-01T09:51:00Z</time>
      </trkpt>
      <trkpt lat="45.91765" lon="3.06547">
        <ele>448.1118164</ele>
        <time>2011-05-01T09:51:05Z</time>
      </trkpt>
      <trkpt lat="45.91743" lon="3.0655">
        <ele>448.1118164</ele>
        <time>2011-05-01T09:51:11Z</time>
      </trkpt>
      <trkpt lat="45.91708" lon="3.06554">
        <ele>450.5150146</ele>
        <time>2011-05-01T09:51:21Z</time>
      </trkpt>
      <trkpt lat="45.91688" lon="3.06556">
        <ele>450.9956055</ele>
        <time>2011-05-01T09:51:28Z</time>
      </trkpt>
      <trkpt lat="45.91683" lon="3.06557">
        <ele>451.4763184</ele>
        <time>2011-05-01T09:51:30Z</time>
      </trkpt>
      <trkpt lat="45.91672" lon="3.06554">
        <ele>452.9182129</ele>
        <time>2011-05-01T09:51:35Z</time>
      </trkpt>
      <trkpt lat="45.91649" lon="3.0656">
        <ele>456.282959</ele>
        <time>2011-05-01T09:51:45Z</time>
      </trkpt>
      <trkpt lat="45.91634" lon="3.06562">
        <ele>459.1668701</ele>
        <time>2011-05-01T09:51:52Z</time>
      </trkpt>
      <trkpt lat="45.91629" lon="3.06562">
        <ele>460.1281738</ele>
        <time>2011-05-01T09:51:54Z</time>
      </trkpt>
      <trkpt lat="45.91625" lon="3.06562">
        <ele>461.0894775</ele>
        <time>2011-05-01T09:51:56Z</time>
      </trkpt>
      <trkpt lat="45.9162" lon="3.06562">
        <ele>462.0507813</ele>
        <time>2011-05-01T09:51:58Z</time>
      </trkpt>
      <trkpt lat="45.91607" lon="3.06566">
        <ele>463.012085</ele>
        <time>2011-05-01T09:52:04Z</time>
      </trkpt>
      <trkpt lat="45.91601" lon="3.06567">
        <ele>465.8961182</ele>
        <time>2011-05-01T09:52:10Z</time>
      </trkpt>
      <trkpt lat="45.916" lon="3.06567">
        <ele>465.4155273</ele>
        <time>2011-05-01T09:52:11Z</time>
      </trkpt>
      <trkpt lat="45.91599" lon="3.06557">
        <ele>466.376709</ele>
        <time>2011-05-01T09:52:16Z</time>
      </trkpt>
      <trkpt lat="45.91598" lon="3.06555">
        <ele>466.376709</ele>
        <time>2011-05-01T09:52:17Z</time>
      </trkpt>
      <trkpt lat="45.91596" lon="3.06534">
        <ele>467.3381348</ele>
        <time>2011-05-01T09:52:23Z</time>
      </trkpt>
      <trkpt lat="45.91593" lon="3.06503">
        <ele>469.2607422</ele>
        <time>2011-05-01T09:52:31Z</time>
      </trkpt>
      <trkpt lat="45.91589" lon="3.06471">
        <ele>470.7026367</ele>
        <time>2011-05-01T09:52:39Z</time>
      </trkpt>
      <trkpt lat="45.91589" lon="3.06463">
        <ele>471.1833496</ele>
        <time>2011-05-01T09:52:41Z</time>
      </trkpt>
      <trkpt lat="45.91585" lon="3.06426">
        <ele>472.6253662</ele>
        <time>2011-05-01T09:52:50Z</time>
      </trkpt>
      <trkpt lat="45.91581" lon="3.06395">
        <ele>475.0286865</ele>
        <time>2011-05-01T09:52:58Z</time>
      </trkpt>
      <trkpt lat="45.91578" lon="3.06367">
        <ele>477.4318848</ele>
        <time>2011-05-01T09:53:05Z</time>
      </trkpt>
      <trkpt lat="45.91573" lon="3.06337">
        <ele>477.9124756</ele>
        <time>2011-05-01T09:53:12Z</time>
      </trkpt>
      <trkpt lat="45.91566" lon="3.06308">
        <ele>477.9124756</ele>
        <time>2011-05-01T09:53:18Z</time>
      </trkpt>
      <trkpt lat="45.91559" lon="3.06276">
        <ele>477.4318848</ele>
        <time>2011-05-01T09:53:24Z</time>
      </trkpt>
      <trkpt lat="45.91549" lon="3.06234">
        <ele>475.9898682</ele>
        <time>2011-05-01T09:53:30Z</time>
      </trkpt>
      <trkpt lat="45.91546" lon="3.06185">
        <ele>474.5479736</ele>
        <time>2011-05-01T09:53:35Z</time>
      </trkpt>
      <trkpt lat="45.9154" lon="3.06116">
        <ele>475.5092773</ele>
        <time>2011-05-01T09:53:42Z</time>
      </trkpt>
      <trkpt lat="45.91534" lon="3.06052">
        <ele>476.9512939</ele>
        <time>2011-05-01T09:53:49Z</time>
      </trkpt>
      <trkpt lat="45.91525" lon="3.06001">
        <ele>477.4318848</ele>
        <time>2011-05-01T09:53:55Z</time>
      </trkpt>
      <trkpt lat="45.91514" lon="3.05958">
        <ele>478.3931885</ele>
        <time>2011-05-01T09:54:00Z</time>
      </trkpt>
      <trkpt lat="45.91499" lon="3.0591">
        <ele>477.9124756</ele>
        <time>2011-05-01T09:54:06Z</time>
      </trkpt>
      <trkpt lat="45.91483" lon="3.05864">
        <ele>477.4318848</ele>
        <time>2011-05-01T09:54:11Z</time>
      </trkpt>
      <trkpt lat="45.91446" lon="3.05807">
        <ele>475.5092773</ele>
        <time>2011-05-01T09:54:18Z</time>
      </trkpt>
      <trkpt lat="45.91425" lon="3.05768">
        <ele>473.1060791</ele>
        <time>2011-05-01T09:54:22Z</time>
      </trkpt>
      <trkpt lat="45.9142" lon="3.05758">
        <ele>472.6253662</ele>
        <time>2011-05-01T09:54:23Z</time>
      </trkpt>
      <trkpt lat="45.91399" lon="3.05719">
        <ele>471.1833496</ele>
        <time>2011-05-01T09:54:27Z</time>
      </trkpt>
      <trkpt lat="45.91388" lon="3.057">
        <ele>471.6639404</ele>
        <time>2011-05-01T09:54:29Z</time>
      </trkpt>
      <trkpt lat="45.91371" lon="3.05674">
        <ele>470.7026367</ele>
        <time>2011-05-01T09:54:32Z</time>
      </trkpt>
      <trkpt lat="45.91345" lon="3.0565">
        <ele>471.6639404</ele>
        <time>2011-05-01T09:54:36Z</time>
      </trkpt>
      <trkpt lat="45.91339" lon="3.05646">
        <ele>471.6639404</ele>
        <time>2011-05-01T09:54:37Z</time>
      </trkpt>
      <trkpt lat="45.91328" lon="3.05636">
        <ele>470.2219238</ele>
        <time>2011-05-01T09:54:39Z</time>
      </trkpt>
      <trkpt lat="45.91321" lon="3.05626">
        <ele>468.7800293</ele>
        <time>2011-05-01T09:54:41Z</time>
      </trkpt>
      <trkpt lat="45.91317" lon="3.05605">
        <ele>468.7800293</ele>
        <time>2011-05-01T09:54:45Z</time>
      </trkpt>
      <trkpt lat="45.91308" lon="3.05605">
        <ele>469.741333</ele>
        <time>2011-05-01T09:54:48Z</time>
      </trkpt>
      <trkpt lat="45.91297" lon="3.05621">
        <ele>469.741333</ele>
        <time>2011-05-01T09:54:51Z</time>
      </trkpt>
      <trkpt lat="45.91286" lon="3.05623">
        <ele>470.2219238</ele>
        <time>2011-05-01T09:54:53Z</time>
      </trkpt>
      <trkpt lat="45.9127" lon="3.05622">
        <ele>471.1833496</ele>
        <time>2011-05-01T09:54:56Z</time>
      </trkpt>
      <trkpt lat="45.91252" lon="3.05617">
        <ele>472.1446533</ele>
        <time>2011-05-01T09:54:59Z</time>
      </trkpt>
      <trkpt lat="45.91235" lon="3.05615">
        <ele>472.1446533</ele>
        <time>2011-05-01T09:55:02Z</time>
      </trkpt>
      <trkpt lat="45.91229" lon="3.05614">
        <ele>471.6639404</ele>
        <time>2011-05-01T09:55:03Z</time>
      </trkpt>
      <trkpt lat="45.91199" lon="3.05605">
        <ele>472.6253662</ele>
        <time>2011-05-01T09:55:08Z</time>
      </trkpt>
      <trkpt lat="45.91176" lon="3.05596">
        <ele>472.1446533</ele>
        <time>2011-05-01T09:55:12Z</time>
      </trkpt>
      <trkpt lat="45.91159" lon="3.0559">
        <ele>473.1060791</ele>
        <time>2011-05-01T09:55:15Z</time>
      </trkpt>
      <trkpt lat="45.91124" lon="3.05574">
        <ele>474.0672607</ele>
        <time>2011-05-01T09:55:22Z</time>
      </trkpt>
      <trkpt lat="45.91114" lon="3.05566">
        <ele>472.6253662</ele>
        <time>2011-05-01T09:55:24Z</time>
      </trkpt>
      <trkpt lat="45.91082" lon="3.05553">
        <ele>471.6639404</ele>
        <time>2011-05-01T09:55:29Z</time>
      </trkpt>
      <trkpt lat="45.91069" lon="3.05551">
        <ele>471.6639404</ele>
        <time>2011-05-01T09:55:31Z</time>
      </trkpt>
      <trkpt lat="45.91041" lon="3.05537">
        <ele>472.6253662</ele>
        <time>2011-05-01T09:55:36Z</time>
      </trkpt>
      <trkpt lat="45.9102" lon="3.0553">
        <ele>471.6639404</ele>
        <time>2011-05-01T09:55:40Z</time>
      </trkpt>
      <trkpt lat="45.90972" lon="3.05519">
        <ele>471.1833496</ele>
        <time>2011-05-01T09:55:48Z</time>
      </trkpt>
      <trkpt lat="45.90949" lon="3.05516">
        <ele>470.2219238</ele>
        <time>2011-05-01T09:55:52Z</time>
      </trkpt>
      <trkpt lat="45.90934" lon="3.05518">
        <ele>468.7800293</ele>
        <time>2011-05-01T09:55:55Z</time>
      </trkpt>
      <trkpt lat="45.90931" lon="3.05516">
        <ele>468.2993164</ele>
        <time>2011-05-01T09:55:57Z</time>
      </trkpt>
      <trkpt lat="45.90933" lon="3.05515">
        <ele>468.2993164</ele>
        <time>2011-05-01T09:55:59Z</time>
      </trkpt>
      <trkpt lat="45.90936" lon="3.05516">
        <ele>468.7800293</ele>
        <time>2011-05-01T09:56:01Z</time>
      </trkpt>
      <trkpt lat="45.90941" lon="3.05505">
        <ele>470.7026367</ele>
        <time>2011-05-01T09:56:06Z</time>
      </trkpt>
      <trkpt lat="45.90944" lon="3.05497">
        <ele>472.1446533</ele>
        <time>2011-05-01T09:56:09Z</time>
      </trkpt>
      <trkpt lat="45.90952" lon="3.05478">
        <ele>474.5479736</ele>
        <time>2011-05-01T09:56:17Z</time>
      </trkpt>
      <trkpt lat="45.90955" lon="3.05464">
        <ele>476.4705811</ele>
        <time>2011-05-01T09:56:23Z</time>
      </trkpt>
      <trkpt lat="45.90956" lon="3.05453">
        <ele>477.4318848</ele>
        <time>2011-05-01T09:56:28Z</time>
      </trkpt>
      <trkpt lat="45.90959" lon="3.05445">
        <ele>479.3544922</ele>
        <time>2011-05-01T09:56:33Z</time>
      </trkpt>
      <trkpt lat="45.90962" lon="3.05436">
        <ele>482.2385254</ele>
        <time>2011-05-01T09:56:38Z</time>
      </trkpt>
      <trkpt lat="45.90963" lon="3.05433">
        <ele>482.7192383</ele>
        <time>2011-05-01T09:56:40Z</time>
      </trkpt>
      <trkpt lat="45.90965" lon="3.05429">
        <ele>483.1998291</ele>
        <time>2011-05-01T09:56:46Z</time>
      </trkpt>
      <trkpt lat="45.90967" lon="3.05425">
        <ele>484.1611328</ele>
        <time>2011-05-01T09:56:52Z</time>
      </trkpt>
      <trkpt lat="45.90967" lon="3.05422">
        <ele>485.6030273</ele>
        <time>2011-05-01T09:56:55Z</time>
      </trkpt>
      <trkpt lat="45.90966" lon="3.0542">
        <ele>485.6030273</ele>
        <time>2011-05-01T09:56:57Z</time>
      </trkpt>
      <trkpt lat="45.90966" lon="3.05419">
        <ele>485.6030273</ele>
        <time>2011-05-01T09:56:58Z</time>
      </trkpt>
      <trkpt lat="45.90965" lon="3.05417">
        <ele>486.0837402</ele>
        <time>2011-05-01T09:57:01Z</time>
      </trkpt>
      <trkpt lat="45.90964" lon="3.05415">
        <ele>487.5256348</ele>
        <time>2011-05-01T09:57:05Z</time>
      </trkpt>
      <trkpt lat="45.9096" lon="3.0541">
        <ele>489.4483643</ele>
        <time>2011-05-01T09:57:12Z</time>
      </trkpt>
      <trkpt lat="45.90959" lon="3.05401">
        <ele>490.40979</ele>
        <time>2011-05-01T09:57:19Z</time>
      </trkpt>
      <trkpt lat="45.9096" lon="3.05398">
        <ele>490.8903809</ele>
        <time>2011-05-01T09:57:23Z</time>
      </trkpt>
      <trkpt lat="45.90964" lon="3.05397">
        <ele>491.8516846</ele>
        <time>2011-05-01T09:57:29Z</time>
      </trkpt>
      <trkpt lat="45.90963" lon="3.0539">
        <ele>491.8516846</ele>
        <time>2011-05-01T09:57:35Z</time>
      </trkpt>
      <trkpt lat="45.90963" lon="3.05384">
        <ele>491.8516846</ele>
        <time>2011-05-01T09:57:41Z</time>
      </trkpt>
      <trkpt lat="45.90963" lon="3.05384">
        <ele>491.8516846</ele>
        <time>2011-05-01T09:57:43Z</time>
      </trkpt>
      <trkpt lat="45.90974" lon="3.05387">
        <ele>492.3323975</ele>
        <time>2011-05-01T09:57:50Z</time>
      </trkpt>
      <trkpt lat="45.90976" lon="3.05388">
        <ele>492.3323975</ele>
        <time>2011-05-01T09:57:54Z</time>
      </trkpt>
      <trkpt lat="45.90973" lon="3.05388">
        <ele>492.8129883</ele>
        <time>2011-05-01T09:57:58Z</time>
      </trkpt>
      <trkpt lat="45.90964" lon="3.05387">
        <ele>492.3323975</ele>
        <time>2011-05-01T09:58:06Z</time>
      </trkpt>
      <trkpt lat="45.90962" lon="3.0539">
        <ele>492.3323975</ele>
        <time>2011-05-01T09:58:10Z</time>
      </trkpt>
      <trkpt lat="45.90962" lon="3.05389">
        <ele>492.8129883</ele>
        <time>2011-05-01T09:58:15Z</time>
      </trkpt>
      <trkpt lat="45.90962" lon="3.05389">
        <ele>493.774292</ele>
        <time>2011-05-01T09:58:22Z</time>
      </trkpt>
      <trkpt lat="45.90962" lon="3.05389">
        <ele>493.2935791</ele>
        <time>2011-05-01T09:58:31Z</time>
      </trkpt>
      <trkpt lat="45.90962" lon="3.05389">
        <ele>493.2935791</ele>
        <time>2011-05-01T09:58:37Z</time>
      </trkpt>
      <trkpt lat="45.90961" lon="3.0539">
        <ele>493.774292</ele>
        <time>2011-05-01T09:58:47Z</time>
      </trkpt>
      <trkpt lat="45.90953" lon="3.05393">
        <ele>493.2935791</ele>
        <time>2011-05-01T09:58:52Z</time>
      </trkpt>
      <trkpt lat="45.9095" lon="3.05392">
        <ele>493.2935791</ele>
        <time>2011-05-01T09:58:53Z</time>
      </trkpt>
      <trkpt lat="45.9094" lon="3.05389">
        <ele>493.774292</ele>
        <time>2011-05-01T09:58:56Z</time>
      </trkpt>
      <trkpt lat="45.90933" lon="3.05387">
        <ele>493.2935791</ele>
        <time>2011-05-01T09:58:58Z</time>
      </trkpt>
      <trkpt lat="45.90929" lon="3.05387">
        <ele>492.8129883</ele>
        <time>2011-05-01T09:58:59Z</time>
      </trkpt>
      <trkpt lat="45.90912" lon="3.05381">
        <ele>491.8516846</ele>
        <time>2011-05-01T09:59:04Z</time>
      </trkpt>
      <trkpt lat="45.90894" lon="3.05373">
        <ele>491.8516846</ele>
        <time>2011-05-01T09:59:10Z</time>
      </trkpt>
      <trkpt lat="45.90869" lon="3.05361">
        <ele>491.8516846</ele>
        <time>2011-05-01T09:59:17Z</time>
      </trkpt>
      <trkpt lat="45.90839" lon="3.05339">
        <ele>491.8516846</ele>
        <time>2011-05-01T09:59:25Z</time>
      </trkpt>
      <trkpt lat="45.90827" lon="3.05331">
        <ele>491.8516846</ele>
        <time>2011-05-01T09:59:28Z</time>
      </trkpt>
      <trkpt lat="45.90808" lon="3.05315">
        <ele>491.8516846</ele>
        <time>2011-05-01T09:59:33Z</time>
      </trkpt>
      <trkpt lat="45.90766" lon="3.05298">
        <ele>494.2550049</ele>
        <time>2011-05-01T09:59:43Z</time>
      </trkpt>
      <trkpt lat="45.90745" lon="3.05291">
        <ele>495.2161865</ele>
        <time>2011-05-01T09:59:48Z</time>
      </trkpt>
      <trkpt lat="45.90723" lon="3.05284">
        <ele>496.6583252</ele>
        <time>2011-05-01T09:59:53Z</time>
      </trkpt>
      <trkpt lat="45.90706" lon="3.05278">
        <ele>497.138916</ele>
        <time>2011-05-01T09:59:57Z</time>
      </trkpt>
      <trkpt lat="45.90702" lon="3.05277">
        <ele>497.138916</ele>
        <time>2011-05-01T09:59:58Z</time>
      </trkpt>
      <trkpt lat="45.90676" lon="3.05272">
        <ele>497.6196289</ele>
        <time>2011-05-01T10:00:04Z</time>
      </trkpt>
      <trkpt lat="45.90659" lon="3.05269">
        <ele>500.0229492</ele>
        <time>2011-05-01T10:00:08Z</time>
      </trkpt>
      <trkpt lat="45.90625" lon="3.05271">
        <ele>501.9455566</ele>
        <time>2011-05-01T10:00:16Z</time>
      </trkpt>
      <trkpt lat="45.90596" lon="3.05281">
        <ele>502.4261475</ele>
        <time>2011-05-01T10:00:23Z</time>
      </trkpt>
      <trkpt lat="45.90555" lon="3.05294">
        <ele>504.348877</ele>
        <time>2011-05-01T10:00:33Z</time>
      </trkpt>
      <trkpt lat="45.9052" lon="3.05313">
        <ele>505.7908936</ele>
        <time>2011-05-01T10:00:42Z</time>
      </trkpt>
      <trkpt lat="45.90491" lon="3.05338">
        <ele>507.713501</ele>
        <time>2011-05-01T10:00:50Z</time>
      </trkpt>
      <trkpt lat="45.90465" lon="3.05355">
        <ele>508.1940918</ele>
        <time>2011-05-01T10:00:57Z</time>
      </trkpt>
      <trkpt lat="45.90429" lon="3.05361">
        <ele>511.0780029</ele>
        <time>2011-05-01T10:01:06Z</time>
      </trkpt>
      <trkpt lat="45.90402" lon="3.05361">
        <ele>512.0394287</ele>
        <time>2011-05-01T10:01:13Z</time>
      </trkpt>
      <trkpt lat="45.9038" lon="3.05349">
        <ele>512.0394287</ele>
        <time>2011-05-01T10:01:19Z</time>
      </trkpt>
      <trkpt lat="45.90361" lon="3.05338">
        <ele>512.5200195</ele>
        <time>2011-05-01T10:01:25Z</time>
      </trkpt>
      <trkpt lat="45.90354" lon="3.05342">
        <ele>512.0394287</ele>
        <time>2011-05-01T10:01:27Z</time>
      </trkpt>
      <trkpt lat="45.90335" lon="3.05372">
        <ele>511.5587158</ele>
        <time>2011-05-01T10:01:32Z</time>
      </trkpt>
      <trkpt lat="45.90317" lon="3.05415">
        <ele>507.2327881</ele>
        <time>2011-05-01T10:01:37Z</time>
      </trkpt>
      <trkpt lat="45.90306" lon="3.0543">
        <ele>505.7908936</ele>
        <time>2011-05-01T10:01:40Z</time>
      </trkpt>
      <trkpt lat="45.90294" lon="3.05451">
        <ele>503.3874512</ele>
        <time>2011-05-01T10:01:43Z</time>
      </trkpt>
      <trkpt lat="45.90259" lon="3.05483">
        <ele>500.9841309</ele>
        <time>2011-05-01T10:01:48Z</time>
      </trkpt>
      <trkpt lat="45.90251" lon="3.05488">
        <ele>500.50354</ele>
        <time>2011-05-01T10:01:49Z</time>
      </trkpt>
      <trkpt lat="45.90243" lon="3.05494">
        <ele>500.0229492</ele>
        <time>2011-05-01T10:01:50Z</time>
      </trkpt>
      <trkpt lat="45.90218" lon="3.0552">
        <ele>497.6196289</ele>
        <time>2011-05-01T10:01:54Z</time>
      </trkpt>
      <trkpt lat="45.90197" lon="3.05567">
        <ele>493.774292</ele>
        <time>2011-05-01T10:01:59Z</time>
      </trkpt>
      <trkpt lat="45.90181" lon="3.05595">
        <ele>492.3323975</ele>
        <time>2011-05-01T10:02:02Z</time>
      </trkpt>
      <trkpt lat="45.90151" lon="3.05636">
        <ele>491.8516846</ele>
        <time>2011-05-01T10:02:07Z</time>
      </trkpt>
      <trkpt lat="45.90127" lon="3.05684">
        <ele>490.8903809</ele>
        <time>2011-05-01T10:02:12Z</time>
      </trkpt>
      <trkpt lat="45.90111" lon="3.05748">
        <ele>489.4483643</ele>
        <time>2011-05-01T10:02:18Z</time>
      </trkpt>
      <trkpt lat="45.901" lon="3.05805">
        <ele>487.5256348</ele>
        <time>2011-05-01T10:02:24Z</time>
      </trkpt>
      <trkpt lat="45.90098" lon="3.05815">
        <ele>487.5256348</ele>
        <time>2011-05-01T10:02:25Z</time>
      </trkpt>
      <trkpt lat="45.90093" lon="3.05833">
        <ele>487.0450439</ele>
        <time>2011-05-01T10:02:27Z</time>
      </trkpt>
      <trkpt lat="45.90084" lon="3.05842">
        <ele>487.0450439</ele>
        <time>2011-05-01T10:02:30Z</time>
      </trkpt>
      <trkpt lat="45.90075" lon="3.05838">
        <ele>486.5644531</ele>
        <time>2011-05-01T10:02:32Z</time>
      </trkpt>
      <trkpt lat="45.90058" lon="3.05828">
        <ele>486.0837402</ele>
        <time>2011-05-01T10:02:35Z</time>
      </trkpt>
      <trkpt lat="45.90041" lon="3.05811">
        <ele>484.1611328</ele>
        <time>2011-05-01T10:02:38Z</time>
      </trkpt>
      <trkpt lat="45.90031" lon="3.05785">
        <ele>483.1998291</ele>
        <time>2011-05-01T10:02:41Z</time>
      </trkpt>
      <trkpt lat="45.90024" lon="3.05736">
        <ele>482.7192383</ele>
        <time>2011-05-01T10:02:46Z</time>
      </trkpt>
      <trkpt lat="45.90029" lon="3.05685">
        <ele>481.2772217</ele>
        <time>2011-05-01T10:02:51Z</time>
      </trkpt>
      <trkpt lat="45.90034" lon="3.05663">
        <ele>479.3544922</ele>
        <time>2011-05-01T10:02:53Z</time>
      </trkpt>
      <trkpt lat="45.90037" lon="3.05625">
        <ele>476.9512939</ele>
        <time>2011-05-01T10:02:56Z</time>
      </trkpt>
      <trkpt lat="45.90031" lon="3.05569">
        <ele>472.1446533</ele>
        <time>2011-05-01T10:03:00Z</time>
      </trkpt>
      <trkpt lat="45.90029" lon="3.05539">
        <ele>468.7800293</ele>
        <time>2011-05-01T10:03:02Z</time>
      </trkpt>
      <trkpt lat="45.90026" lon="3.05471">
        <ele>465.8961182</ele>
        <time>2011-05-01T10:03:07Z</time>
      </trkpt>
      <trkpt lat="45.90024" lon="3.0546">
        <ele>465.4155273</ele>
        <time>2011-05-01T10:03:08Z</time>
      </trkpt>
      <trkpt lat="45.90018" lon="3.05447">
        <ele>464.4541016</ele>
        <time>2011-05-01T10:03:11Z</time>
      </trkpt>
      <trkpt lat="45.90006" lon="3.05457">
        <ele>463.012085</ele>
        <time>2011-05-01T10:03:14Z</time>
      </trkpt>
      <trkpt lat="45.89975" lon="3.05472">
        <ele>459.1668701</ele>
        <time>2011-05-01T10:03:18Z</time>
      </trkpt>
      <trkpt lat="45.89965" lon="3.05477">
        <ele>458.6861572</ele>
        <time>2011-05-01T10:03:19Z</time>
      </trkpt>
      <trkpt lat="45.89922" lon="3.05488">
        <ele>453.3989258</ele>
        <time>2011-05-01T10:03:23Z</time>
      </trkpt>
      <trkpt lat="45.89912" lon="3.0549">
        <ele>452.4376221</ele>
        <time>2011-05-01T10:03:24Z</time>
      </trkpt>
      <trkpt lat="45.89891" lon="3.05496">
        <ele>450.5150146</ele>
        <time>2011-05-01T10:03:27Z</time>
      </trkpt>
      <trkpt lat="45.89883" lon="3.05518">
        <ele>448.1118164</ele>
        <time>2011-05-01T10:03:31Z</time>
      </trkpt>
      <trkpt lat="45.89876" lon="3.05528">
        <ele>447.1502686</ele>
        <time>2011-05-01T10:03:33Z</time>
      </trkpt>
      <trkpt lat="45.8987" lon="3.0553">
        <ele>444.2664795</ele>
        <time>2011-05-01T10:03:34Z</time>
      </trkpt>
      <trkpt lat="45.89829" lon="3.05541">
        <ele>441.3824463</ele>
        <time>2011-05-01T10:03:39Z</time>
      </trkpt>
      <trkpt lat="45.89811" lon="3.05545">
        <ele>438.4985352</ele>
        <time>2011-05-01T10:03:41Z</time>
      </trkpt>
      <trkpt lat="45.89786" lon="3.05551">
        <ele>436.0952148</ele>
        <time>2011-05-01T10:03:44Z</time>
      </trkpt>
      <trkpt lat="45.89758" lon="3.05551">
        <ele>431.2885742</ele>
        <time>2011-05-01T10:03:48Z</time>
      </trkpt>
      <trkpt lat="45.89754" lon="3.05552">
        <ele>430.3272705</ele>
        <time>2011-05-01T10:03:49Z</time>
      </trkpt>
      <trkpt lat="45.89751" lon="3.05568">
        <ele>429.3659668</ele>
        <time>2011-05-01T10:03:53Z</time>
      </trkpt>
      <trkpt lat="45.89741" lon="3.05567">
        <ele>429.8465576</ele>
        <time>2011-05-01T10:03:56Z</time>
      </trkpt>
      <trkpt lat="45.8973" lon="3.05559">
        <ele>428.4046631</ele>
        <time>2011-05-01T10:03:59Z</time>
      </trkpt>
      <trkpt lat="45.89721" lon="3.05568">
        <ele>427.9239502</ele>
        <time>2011-05-01T10:04:03Z</time>
      </trkpt>
      <trkpt lat="45.89709" lon="3.05595">
        <ele>427.4433594</ele>
        <time>2011-05-01T10:04:07Z</time>
      </trkpt>
      <trkpt lat="45.89698" lon="3.05617">
        <ele>426.4820557</ele>
        <time>2011-05-01T10:04:10Z</time>
      </trkpt>
      <trkpt lat="45.89688" lon="3.05641">
        <ele>426.0013428</ele>
        <time>2011-05-01T10:04:13Z</time>
      </trkpt>
      <trkpt lat="45.89681" lon="3.05693">
        <ele>425.0401611</ele>
        <time>2011-05-01T10:04:18Z</time>
      </trkpt>
      <trkpt lat="45.89678" lon="3.05716">
        <ele>423.1174316</ele>
        <time>2011-05-01T10:04:20Z</time>
      </trkpt>
      <trkpt lat="45.89677" lon="3.05728">
        <ele>423.1174316</ele>
        <time>2011-05-01T10:04:21Z</time>
      </trkpt>
      <trkpt lat="45.89666" lon="3.05772">
        <ele>420.2333984</ele>
        <time>2011-05-01T10:04:25Z</time>
      </trkpt>
      <trkpt lat="45.89654" lon="3.05806">
        <ele>418.7915039</ele>
        <time>2011-05-01T10:04:29Z</time>
      </trkpt>
      <trkpt lat="45.89642" lon="3.05852">
        <ele>418.7915039</ele>
        <time>2011-05-01T10:04:34Z</time>
      </trkpt>
      <trkpt lat="45.89633" lon="3.05904">
        <ele>416.8688965</ele>
        <time>2011-05-01T10:04:39Z</time>
      </trkpt>
      <trkpt lat="45.89631" lon="3.05915">
        <ele>417.3496094</ele>
        <time>2011-05-01T10:04:40Z</time>
      </trkpt>
      <trkpt lat="45.89629" lon="3.05925">
        <ele>417.3496094</ele>
        <time>2011-05-01T10:04:41Z</time>
      </trkpt>
      <trkpt lat="45.89625" lon="3.05982">
        <ele>416.3881836</ele>
        <time>2011-05-01T10:04:46Z</time>
      </trkpt>
      <trkpt lat="45.89625" lon="3.06029">
        <ele>414.4654541</ele>
        <time>2011-05-01T10:04:50Z</time>
      </trkpt>
      <trkpt lat="45.89632" lon="3.06111">
        <ele>414.4654541</ele>
        <time>2011-05-01T10:04:57Z</time>
      </trkpt>
      <trkpt lat="45.89639" lon="3.06158">
        <ele>412.0622559</ele>
        <time>2011-05-01T10:05:01Z</time>
      </trkpt>
      <trkpt lat="45.89637" lon="3.06184">
        <ele>409.1783447</ele>
        <time>2011-05-01T10:05:04Z</time>
      </trkpt>
      <trkpt lat="45.89621" lon="3.06193">
        <ele>408.6976318</ele>
        <time>2011-05-01T10:05:07Z</time>
      </trkpt>
      <trkpt lat="45.89576" lon="3.06198">
        <ele>407.7363281</ele>
        <time>2011-05-01T10:05:13Z</time>
      </trkpt>
      <trkpt lat="45.89528" lon="3.06196">
        <ele>406.2943115</ele>
        <time>2011-05-01T10:05:19Z</time>
      </trkpt>
      <trkpt lat="45.89503" lon="3.06198">
        <ele>406.2943115</ele>
        <time>2011-05-01T10:05:22Z</time>
      </trkpt>
      <trkpt lat="45.89487" lon="3.06199">
        <ele>404.8522949</ele>
        <time>2011-05-01T10:05:24Z</time>
      </trkpt>
      <trkpt lat="45.89448" lon="3.06203">
        <ele>404.3717041</ele>
        <time>2011-05-01T10:05:29Z</time>
      </trkpt>
      <trkpt lat="45.8944" lon="3.06203">
        <ele>404.3717041</ele>
        <time>2011-05-01T10:05:30Z</time>
      </trkpt>
      <trkpt lat="45.89404" lon="3.06217">
        <ele>404.3717041</ele>
        <time>2011-05-01T10:05:35Z</time>
      </trkpt>
      <trkpt lat="45.89392" lon="3.06224">
        <ele>404.8522949</ele>
        <time>2011-05-01T10:05:37Z</time>
      </trkpt>
      <trkpt lat="45.8934" lon="3.06258">
        <ele>406.2943115</ele>
        <time>2011-05-01T10:05:46Z</time>
      </trkpt>
      <trkpt lat="45.89305" lon="3.06277">
        <ele>406.2943115</ele>
        <time>2011-05-01T10:05:52Z</time>
      </trkpt>
      <trkpt lat="45.89277" lon="3.06294">
        <ele>406.7749023</ele>
        <time>2011-05-01T10:05:57Z</time>
      </trkpt>
      <trkpt lat="45.89232" lon="3.06321">
        <ele>406.7749023</ele>
        <time>2011-05-01T10:06:05Z</time>
      </trkpt>
      <trkpt lat="45.89199" lon="3.06343">
        <ele>406.2943115</ele>
        <time>2011-05-01T10:06:11Z</time>
      </trkpt>
      <trkpt lat="45.89173" lon="3.06361">
        <ele>406.7749023</ele>
        <time>2011-05-01T10:06:16Z</time>
      </trkpt>
      <trkpt lat="45.89142" lon="3.06383">
        <ele>406.2943115</ele>
        <time>2011-05-01T10:06:22Z</time>
      </trkpt>
      <trkpt lat="45.89102" lon="3.06407">
        <ele>406.2943115</ele>
        <time>2011-05-01T10:06:29Z</time>
      </trkpt>
      <trkpt lat="45.89068" lon="3.0643">
        <ele>405.8137207</ele>
        <time>2011-05-01T10:06:35Z</time>
      </trkpt>
      <trkpt lat="45.89045" lon="3.06447">
        <ele>405.3330078</ele>
        <time>2011-05-01T10:06:40Z</time>
      </trkpt>
      <trkpt lat="45.89037" lon="3.06449">
        <ele>404.8522949</ele>
        <time>2011-05-01T10:06:43Z</time>
      </trkpt>
      <trkpt lat="45.8903" lon="3.06463">
        <ele>404.3717041</ele>
        <time>2011-05-01T10:06:48Z</time>
      </trkpt>
      <trkpt lat="45.89023" lon="3.06459">
        <ele>404.3717041</ele>
        <time>2011-05-01T10:06:51Z</time>
      </trkpt>
      <trkpt lat="45.8902" lon="3.06458">
        <ele>404.3717041</ele>
        <time>2011-05-01T10:06:52Z</time>
      </trkpt>
      <trkpt lat="45.8899" lon="3.06456">
        <ele>404.3717041</ele>
        <time>2011-05-01T10:06:58Z</time>
      </trkpt>
      <trkpt lat="45.88942" lon="3.06457">
        <ele>403.4104004</ele>
        <time>2011-05-01T10:07:06Z</time>
      </trkpt>
      <trkpt lat="45.88891" lon="3.06458">
        <ele>402.9296875</ele>
        <time>2011-05-01T10:07:14Z</time>
      </trkpt>
      <trkpt lat="45.8886" lon="3.06457">
        <ele>402.9296875</ele>
        <time>2011-05-01T10:07:19Z</time>
      </trkpt>
      <trkpt lat="45.88841" lon="3.06444">
        <ele>401.9685059</ele>
        <time>2011-05-01T10:07:23Z</time>
      </trkpt>
      <trkpt lat="45.88838" lon="3.06436">
        <ele>402.4490967</ele>
        <time>2011-05-01T10:07:24Z</time>
      </trkpt>
      <trkpt lat="45.88815" lon="3.06375">
        <ele>403.4104004</ele>
        <time>2011-05-01T10:07:32Z</time>
      </trkpt>
      <trkpt lat="45.88796" lon="3.06342">
        <ele>403.8911133</ele>
        <time>2011-05-01T10:07:37Z</time>
      </trkpt>
      <trkpt lat="45.88779" lon="3.06329">
        <ele>401.9685059</ele>
        <time>2011-05-01T10:07:41Z</time>
      </trkpt>
      <trkpt lat="45.88769" lon="3.06334">
        <ele>401.9685059</ele>
        <time>2011-05-01T10:07:43Z</time>
      </trkpt>
      <trkpt lat="45.88759" lon="3.06344">
        <ele>401.9685059</ele>
        <time>2011-05-01T10:07:45Z</time>
      </trkpt>
      <trkpt lat="45.88734" lon="3.06358">
        <ele>400.5264893</ele>
        <time>2011-05-01T10:07:49Z</time>
      </trkpt>
      <trkpt lat="45.88689" lon="3.0638">
        <ele>399.0843506</ele>
        <time>2011-05-01T10:07:56Z</time>
      </trkpt>
      <trkpt lat="45.88664" lon="3.06379">
        <ele>399.0843506</ele>
        <time>2011-05-01T10:08:00Z</time>
      </trkpt>
      <trkpt lat="45.88635" lon="3.06377">
        <ele>398.6037598</ele>
        <time>2011-05-01T10:08:05Z</time>
      </trkpt>
      <trkpt lat="45.88625" lon="3.06389">
        <ele>399.0843506</ele>
        <time>2011-05-01T10:08:07Z</time>
      </trkpt>
      <trkpt lat="45.88596" lon="3.06418">
        <ele>398.6037598</ele>
        <time>2011-05-01T10:08:12Z</time>
      </trkpt>
      <trkpt lat="45.88537" lon="3.0645">
        <ele>397.1617432</ele>
        <time>2011-05-01T10:08:20Z</time>
      </trkpt>
      <trkpt lat="45.88479" lon="3.06483">
        <ele>395.7198486</ele>
        <time>2011-05-01T10:08:28Z</time>
      </trkpt>
      <trkpt lat="45.88426" lon="3.06505">
        <ele>395.7198486</ele>
        <time>2011-05-01T10:08:35Z</time>
      </trkpt>
      <trkpt lat="45.88382" lon="3.06514">
        <ele>396.6811523</ele>
        <time>2011-05-01T10:08:41Z</time>
      </trkpt>
      <trkpt lat="45.88343" lon="3.06529">
        <ele>396.6811523</ele>
        <time>2011-05-01T10:08:47Z</time>
      </trkpt>
      <trkpt lat="45.88309" lon="3.06549">
        <ele>399.0843506</ele>
        <time>2011-05-01T10:08:53Z</time>
      </trkpt>
      <trkpt lat="45.88304" lon="3.06553">
        <ele>399.0843506</ele>
        <time>2011-05-01T10:08:54Z</time>
      </trkpt>
      <trkpt lat="45.88284" lon="3.0657">
        <ele>400.5264893</ele>
        <time>2011-05-01T10:08:58Z</time>
      </trkpt>
      <trkpt lat="45.88265" lon="3.0659">
        <ele>401.0070801</ele>
        <time>2011-05-01T10:09:02Z</time>
      </trkpt>
      <trkpt lat="45.88247" lon="3.06606">
        <ele>401.9685059</ele>
        <time>2011-05-01T10:09:06Z</time>
      </trkpt>
      <trkpt lat="45.88233" lon="3.06618">
        <ele>401.9685059</ele>
        <time>2011-05-01T10:09:09Z</time>
      </trkpt>
      <trkpt lat="45.88215" lon="3.06633">
        <ele>401.487793</ele>
        <time>2011-05-01T10:09:14Z</time>
      </trkpt>
      <trkpt lat="45.88209" lon="3.06635">
        <ele>401.9685059</ele>
        <time>2011-05-01T10:09:19Z</time>
      </trkpt>
      <trkpt lat="45.88205" lon="3.06634">
        <ele>401.487793</ele>
        <time>2011-05-01T10:09:25Z</time>
      </trkpt>
      <trkpt lat="45.88201" lon="3.06646">
        <ele>401.487793</ele>
        <time>2011-05-01T10:09:28Z</time>
      </trkpt>
      <trkpt lat="45.88187" lon="3.06689">
        <ele>401.9685059</ele>
        <time>2011-05-01T10:09:34Z</time>
      </trkpt>
      <trkpt lat="45.88169" lon="3.06755">
        <ele>401.487793</ele>
        <time>2011-05-01T10:09:42Z</time>
      </trkpt>
      <trkpt lat="45.88154" lon="3.06799">
        <ele>401.0070801</ele>
        <time>2011-05-01T10:09:47Z</time>
      </trkpt>
      <trkpt lat="45.88133" lon="3.06823">
        <ele>401.487793</ele>
        <time>2011-05-01T10:09:51Z</time>
      </trkpt>
      <trkpt lat="45.88121" lon="3.06828">
        <ele>401.487793</ele>
        <time>2011-05-01T10:09:53Z</time>
      </trkpt>
      <trkpt lat="45.88071" lon="3.06844">
        <ele>402.9296875</ele>
        <time>2011-05-01T10:10:02Z</time>
      </trkpt>
      <trkpt lat="45.88027" lon="3.06859">
        <ele>403.8911133</ele>
        <time>2011-05-01T10:10:10Z</time>
      </trkpt>
      <trkpt lat="45.87976" lon="3.06874">
        <ele>403.8911133</ele>
        <time>2011-05-01T10:10:19Z</time>
      </trkpt>
      <trkpt lat="45.87971" lon="3.06876">
        <ele>403.4104004</ele>
        <time>2011-05-01T10:10:20Z</time>
      </trkpt>
      <trkpt lat="45.87924" lon="3.06871">
        <ele>403.8911133</ele>
        <time>2011-05-01T10:10:28Z</time>
      </trkpt>
      <trkpt lat="45.87891" lon="3.06879">
        <ele>403.8911133</ele>
        <time>2011-05-01T10:10:34Z</time>
      </trkpt>
      <trkpt lat="45.87875" lon="3.06899">
        <ele>404.3717041</ele>
        <time>2011-05-01T10:10:38Z</time>
      </trkpt>
      <trkpt lat="45.87869" lon="3.06912">
        <ele>404.8522949</ele>
        <time>2011-05-01T10:10:40Z</time>
      </trkpt>
      <trkpt lat="45.87864" lon="3.06943">
        <ele>404.8522949</ele>
        <time>2011-05-01T10:10:44Z</time>
      </trkpt>
      <trkpt lat="45.87874" lon="3.06983">
        <ele>403.4104004</ele>
        <time>2011-05-01T10:10:49Z</time>
      </trkpt>
      <trkpt lat="45.87904" lon="3.07032">
        <ele>403.4104004</ele>
        <time>2011-05-01T10:10:56Z</time>
      </trkpt>
      <trkpt lat="45.87908" lon="3.07039">
        <ele>402.9296875</ele>
        <time>2011-05-01T10:10:57Z</time>
      </trkpt>
      <trkpt lat="45.8792" lon="3.07073">
        <ele>402.9296875</ele>
        <time>2011-05-01T10:11:01Z</time>
      </trkpt>
      <trkpt lat="45.87921" lon="3.07083">
        <ele>402.9296875</ele>
        <time>2011-05-01T10:11:02Z</time>
      </trkpt>
      <trkpt lat="45.87919" lon="3.07183">
        <ele>402.4490967</ele>
        <time>2011-05-01T10:11:12Z</time>
      </trkpt>
      <trkpt lat="45.87918" lon="3.07212">
        <ele>401.9685059</ele>
        <time>2011-05-01T10:11:15Z</time>
      </trkpt>
      <trkpt lat="45.87914" lon="3.07242">
        <ele>402.4490967</ele>
        <time>2011-05-01T10:11:18Z</time>
      </trkpt>
      <trkpt lat="45.87906" lon="3.07271">
        <ele>401.487793</ele>
        <time>2011-05-01T10:11:21Z</time>
      </trkpt>
      <trkpt lat="45.87901" lon="3.07325">
        <ele>400.0458984</ele>
        <time>2011-05-01T10:11:26Z</time>
      </trkpt>
      <trkpt lat="45.87906" lon="3.07378">
        <ele>400.0458984</ele>
        <time>2011-05-01T10:11:31Z</time>
      </trkpt>
      <trkpt lat="45.87907" lon="3.07389">
        <ele>400.0458984</ele>
        <time>2011-05-01T10:11:32Z</time>
      </trkpt>
      <trkpt lat="45.87916" lon="3.07463">
        <ele>399.5650635</ele>
        <time>2011-05-01T10:11:39Z</time>
      </trkpt>
      <trkpt lat="45.87912" lon="3.07551">
        <ele>398.6037598</ele>
        <time>2011-05-01T10:11:47Z</time>
      </trkpt>
      <trkpt lat="45.87913" lon="3.07608">
        <ele>397.6424561</ele>
        <time>2011-05-01T10:11:52Z</time>
      </trkpt>
      <trkpt lat="45.87913" lon="3.07631">
        <ele>397.1617432</ele>
        <time>2011-05-01T10:11:54Z</time>
      </trkpt>
      <trkpt lat="45.87904" lon="3.07699">
        <ele>394.7585449</ele>
        <time>2011-05-01T10:12:00Z</time>
      </trkpt>
      <trkpt lat="45.87903" lon="3.07756">
        <ele>394.7585449</ele>
        <time>2011-05-01T10:12:05Z</time>
      </trkpt>
      <trkpt lat="45.87906" lon="3.07787">
        <ele>394.2779541</ele>
        <time>2011-05-01T10:12:08Z</time>
      </trkpt>
      <trkpt lat="45.87899" lon="3.07834">
        <ele>394.2779541</ele>
        <time>2011-05-01T10:12:13Z</time>
      </trkpt>
      <trkpt lat="45.87891" lon="3.0785">
        <ele>394.2779541</ele>
        <time>2011-05-01T10:12:15Z</time>
      </trkpt>
      <trkpt lat="45.87869" lon="3.07889">
        <ele>393.7972412</ele>
        <time>2011-05-01T10:12:20Z</time>
      </trkpt>
      <trkpt lat="45.87847" lon="3.07944">
        <ele>393.3165283</ele>
        <time>2011-05-01T10:12:26Z</time>
      </trkpt>
      <trkpt lat="45.87822" lon="3.0801">
        <ele>393.7972412</ele>
        <time>2011-05-01T10:12:33Z</time>
      </trkpt>
      <trkpt lat="45.87801" lon="3.08048">
        <ele>393.3165283</ele>
        <time>2011-05-01T10:12:38Z</time>
      </trkpt>
      <trkpt lat="45.87786" lon="3.08087">
        <ele>393.3165283</ele>
        <time>2011-05-01T10:12:43Z</time>
      </trkpt>
      <trkpt lat="45.87779" lon="3.08111">
        <ele>393.7972412</ele>
        <time>2011-05-01T10:12:46Z</time>
      </trkpt>
      <trkpt lat="45.87761" lon="3.08146">
        <ele>394.2779541</ele>
        <time>2011-05-01T10:12:51Z</time>
      </trkpt>
      <trkpt lat="45.87739" lon="3.08175">
        <ele>392.8359375</ele>
        <time>2011-05-01T10:12:56Z</time>
      </trkpt>
      <trkpt lat="45.8773" lon="3.08187">
        <ele>391.8745117</ele>
        <time>2011-05-01T10:12:59Z</time>
      </trkpt>
      <trkpt lat="45.87729" lon="3.0819">
        <ele>392.3553467</ele>
        <time>2011-05-01T10:13:00Z</time>
      </trkpt>
      <trkpt lat="45.87715" lon="3.0819">
        <ele>391.8745117</ele>
        <time>2011-05-01T10:13:04Z</time>
      </trkpt>
      <trkpt lat="45.87687" lon="3.08154">
        <ele>393.3165283</ele>
        <time>2011-05-01T10:13:10Z</time>
      </trkpt>
      <trkpt lat="45.87672" lon="3.08106">
        <ele>393.7972412</ele>
        <time>2011-05-01T10:13:16Z</time>
      </trkpt>
      <trkpt lat="45.87669" lon="3.08098">
        <ele>393.7972412</ele>
        <time>2011-05-01T10:13:17Z</time>
      </trkpt>
      <trkpt lat="45.87649" lon="3.0805">
        <ele>394.2779541</ele>
        <time>2011-05-01T10:13:24Z</time>
      </trkpt>
      <trkpt lat="45.87644" lon="3.0804">
        <ele>394.2779541</ele>
        <time>2011-05-01T10:13:26Z</time>
      </trkpt>
    </trkseg>
  </trk>
</gpx>